<?xml version="1.0" encoding="UTF-8" standalone="no" ?>
<gpx xmlns="http://www.topografix.com/GPX/1/1" xmlns:xsi="http://www.w3.org/2001/XMLSchema-instance" xsi:schemaLocation="http://www.topografix.com/GPX/1/1 http://www.topografix.com/GPX/1/1/gpx.xsd" version="1.1" creator="VisuGPX - https://www.visugpx.com">
  <metadata>
    <name>CusyHard 2020  23 km sur TraceDeTrail.fr</name>
  </metadata>
  <trk>
    <name><![CDATA[CusyHard 2020  23 km sur TraceDeTrail.fr]]></name>
    <extensions>
      <line xmlns="http://www.topografix.com/GPX/gpx_style/0/2">
        <color>0000FF</color>
        <width>4</width>
      </line>
    </extensions>
    <trkseg>
      <trkpt lat="45.76336" lon="6.0283">
        <ele>551.6</ele>
        <time>2000-01-01T01:00:31.000Z</time>
      </trkpt>
      <trkpt lat="45.76339" lon="6.02835">
        <ele>551.7</ele>
        <time>2000-01-01T01:00:51.000Z</time>
      </trkpt>
      <trkpt lat="45.7634" lon="6.02836">
        <ele>551.9</ele>
        <time>2000-01-01T01:01:01.000Z</time>
      </trkpt>
      <trkpt lat="45.7634" lon="6.02832">
        <ele>552</ele>
        <time>2000-01-01T01:01:11.000Z</time>
      </trkpt>
      <trkpt lat="45.76344" lon="6.02824">
        <ele>552.3</ele>
        <time>2000-01-01T01:01:21.000Z</time>
      </trkpt>
      <trkpt lat="45.76348" lon="6.02818">
        <ele>552.3</ele>
        <time>2000-01-01T01:01:31.000Z</time>
      </trkpt>
      <trkpt lat="45.76352" lon="6.02814">
        <ele>552.3</ele>
        <time>2000-01-01T01:01:41.000Z</time>
      </trkpt>
      <trkpt lat="45.76359" lon="6.02816">
        <ele>552.3</ele>
        <time>2000-01-01T01:01:51.000Z</time>
      </trkpt>
      <trkpt lat="45.76365" lon="6.02824">
        <ele>552.4</ele>
        <time>2000-01-01T01:02:01.000Z</time>
      </trkpt>
      <trkpt lat="45.7637" lon="6.02829">
        <ele>552.4</ele>
        <time>2000-01-01T01:02:11.000Z</time>
      </trkpt>
      <trkpt lat="45.76375" lon="6.02834">
        <ele>552.5</ele>
        <time>2000-01-01T01:02:21.000Z</time>
      </trkpt>
      <trkpt lat="45.76379" lon="6.0284">
        <ele>552.6</ele>
        <time>2000-01-01T01:02:31.000Z</time>
      </trkpt>
      <trkpt lat="45.76385" lon="6.02852">
        <ele>552.7</ele>
        <time>2000-01-01T01:02:41.000Z</time>
      </trkpt>
      <trkpt lat="45.76391" lon="6.0286">
        <ele>552.6</ele>
        <time>2000-01-01T01:02:51.000Z</time>
      </trkpt>
      <trkpt lat="45.76398" lon="6.02872">
        <ele>552.5</ele>
        <time>2000-01-01T01:03:01.000Z</time>
      </trkpt>
      <trkpt lat="45.76406" lon="6.0288">
        <ele>552.4</ele>
        <time>2000-01-01T01:03:11.000Z</time>
      </trkpt>
      <trkpt lat="45.7641" lon="6.02886">
        <ele>552.3</ele>
        <time>2000-01-01T01:03:21.000Z</time>
      </trkpt>
      <trkpt lat="45.76415" lon="6.02891">
        <ele>552.2</ele>
        <time>2000-01-01T01:03:31.000Z</time>
      </trkpt>
      <trkpt lat="45.76422" lon="6.02895">
        <ele>552.1</ele>
        <time>2000-01-01T01:03:41.000Z</time>
      </trkpt>
      <trkpt lat="45.76427" lon="6.029">
        <ele>551.9</ele>
        <time>2000-01-01T01:03:51.000Z</time>
      </trkpt>
      <trkpt lat="45.76432" lon="6.02909">
        <ele>551.8</ele>
        <time>2000-01-01T01:04:01.000Z</time>
      </trkpt>
      <trkpt lat="45.76435" lon="6.02914">
        <ele>551.8</ele>
        <time>2000-01-01T01:04:11.000Z</time>
      </trkpt>
      <trkpt lat="45.76442" lon="6.02924">
        <ele>551.8</ele>
        <time>2000-01-01T01:04:21.000Z</time>
      </trkpt>
      <trkpt lat="45.76449" lon="6.02933">
        <ele>551.8</ele>
        <time>2000-01-01T01:04:31.000Z</time>
      </trkpt>
      <trkpt lat="45.76453" lon="6.02939">
        <ele>551.8</ele>
        <time>2000-01-01T01:04:41.000Z</time>
      </trkpt>
      <trkpt lat="45.76459" lon="6.02945">
        <ele>551.8</ele>
        <time>2000-01-01T01:04:51.000Z</time>
      </trkpt>
      <trkpt lat="45.76468" lon="6.02954">
        <ele>551.9</ele>
        <time>2000-01-01T01:05:01.000Z</time>
      </trkpt>
      <trkpt lat="45.76474" lon="6.02962">
        <ele>551.8</ele>
        <time>2000-01-01T01:05:11.000Z</time>
      </trkpt>
      <trkpt lat="45.76477" lon="6.02968">
        <ele>551.7</ele>
        <time>2000-01-01T01:05:21.000Z</time>
      </trkpt>
      <trkpt lat="45.76483" lon="6.02976">
        <ele>551.6</ele>
        <time>2000-01-01T01:05:31.000Z</time>
      </trkpt>
      <trkpt lat="45.76488" lon="6.02986">
        <ele>551.4</ele>
        <time>2000-01-01T01:05:41.000Z</time>
      </trkpt>
      <trkpt lat="45.7649" lon="6.02994">
        <ele>551.2</ele>
        <time>2000-01-01T01:05:51.000Z</time>
      </trkpt>
      <trkpt lat="45.76492" lon="6.03005">
        <ele>550.9</ele>
        <time>2000-01-01T01:06:01.000Z</time>
      </trkpt>
      <trkpt lat="45.76495" lon="6.03019">
        <ele>550.4</ele>
        <time>2000-01-01T01:06:11.000Z</time>
      </trkpt>
      <trkpt lat="45.76496" lon="6.0303">
        <ele>550.1</ele>
        <time>2000-01-01T01:06:21.000Z</time>
      </trkpt>
      <trkpt lat="45.76497" lon="6.03041">
        <ele>549.9</ele>
        <time>2000-01-01T01:06:31.000Z</time>
      </trkpt>
      <trkpt lat="45.76496" lon="6.03053">
        <ele>549.8</ele>
        <time>2000-01-01T01:06:41.000Z</time>
      </trkpt>
      <trkpt lat="45.76496" lon="6.03064">
        <ele>550</ele>
        <time>2000-01-01T01:06:51.000Z</time>
      </trkpt>
      <trkpt lat="45.76496" lon="6.03076">
        <ele>550.2</ele>
        <time>2000-01-01T01:07:01.000Z</time>
      </trkpt>
      <trkpt lat="45.76494" lon="6.03088">
        <ele>550.5</ele>
        <time>2000-01-01T01:07:11.000Z</time>
      </trkpt>
      <trkpt lat="45.76489" lon="6.031">
        <ele>550.8</ele>
        <time>2000-01-01T01:07:21.000Z</time>
      </trkpt>
      <trkpt lat="45.76487" lon="6.03114">
        <ele>551.2</ele>
        <time>2000-01-01T01:07:31.000Z</time>
      </trkpt>
      <trkpt lat="45.76485" lon="6.03126">
        <ele>551.5</ele>
        <time>2000-01-01T01:07:41.000Z</time>
      </trkpt>
      <trkpt lat="45.76483" lon="6.03137">
        <ele>551.8</ele>
        <time>2000-01-01T01:07:51.000Z</time>
      </trkpt>
      <trkpt lat="45.76481" lon="6.0315">
        <ele>552.2</ele>
        <time>2000-01-01T01:08:01.000Z</time>
      </trkpt>
      <trkpt lat="45.76481" lon="6.03159">
        <ele>552.4</ele>
        <time>2000-01-01T01:08:11.000Z</time>
      </trkpt>
      <trkpt lat="45.76481" lon="6.03163">
        <ele>552.6</ele>
        <time>2000-01-01T01:08:21.000Z</time>
      </trkpt>
      <trkpt lat="45.76481" lon="6.03167">
        <ele>552.7</ele>
        <time>2000-01-01T01:08:31.000Z</time>
      </trkpt>
      <trkpt lat="45.7649" lon="6.03171">
        <ele>552.5</ele>
        <time>2000-01-01T01:08:41.000Z</time>
      </trkpt>
      <trkpt lat="45.76497" lon="6.03171">
        <ele>552.1</ele>
        <time>2000-01-01T01:08:51.000Z</time>
      </trkpt>
      <trkpt lat="45.76504" lon="6.03172">
        <ele>551.7</ele>
        <time>2000-01-01T01:09:01.000Z</time>
      </trkpt>
      <trkpt lat="45.7651" lon="6.03172">
        <ele>551.4</ele>
        <time>2000-01-01T01:09:11.000Z</time>
      </trkpt>
      <trkpt lat="45.76517" lon="6.03174">
        <ele>551.2</ele>
        <time>2000-01-01T01:09:21.000Z</time>
      </trkpt>
      <trkpt lat="45.76522" lon="6.03176">
        <ele>551</ele>
        <time>2000-01-01T01:09:31.000Z</time>
      </trkpt>
      <trkpt lat="45.76528" lon="6.03179">
        <ele>550.8</ele>
        <time>2000-01-01T01:09:41.000Z</time>
      </trkpt>
      <trkpt lat="45.76533" lon="6.03181">
        <ele>550.7</ele>
        <time>2000-01-01T01:09:51.000Z</time>
      </trkpt>
      <trkpt lat="45.7654" lon="6.03183">
        <ele>550.5</ele>
        <time>2000-01-01T01:10:01.000Z</time>
      </trkpt>
      <trkpt lat="45.76547" lon="6.03186">
        <ele>550.3</ele>
        <time>2000-01-01T01:10:11.000Z</time>
      </trkpt>
      <trkpt lat="45.76556" lon="6.03193">
        <ele>550.1</ele>
        <time>2000-01-01T01:10:21.000Z</time>
      </trkpt>
      <trkpt lat="45.76566" lon="6.032">
        <ele>550.1</ele>
        <time>2000-01-01T01:10:31.000Z</time>
      </trkpt>
      <trkpt lat="45.76571" lon="6.03203">
        <ele>550.2</ele>
        <time>2000-01-01T01:10:41.000Z</time>
      </trkpt>
      <trkpt lat="45.76579" lon="6.03205">
        <ele>550.2</ele>
        <time>2000-01-01T01:10:51.000Z</time>
      </trkpt>
      <trkpt lat="45.76587" lon="6.03211">
        <ele>550.3</ele>
        <time>2000-01-01T01:11:01.000Z</time>
      </trkpt>
      <trkpt lat="45.76595" lon="6.03219">
        <ele>550.3</ele>
        <time>2000-01-01T01:11:11.000Z</time>
      </trkpt>
      <trkpt lat="45.76603" lon="6.03226">
        <ele>550.3</ele>
        <time>2000-01-01T01:11:21.000Z</time>
      </trkpt>
      <trkpt lat="45.76611" lon="6.03235">
        <ele>550.4</ele>
        <time>2000-01-01T01:11:31.000Z</time>
      </trkpt>
      <trkpt lat="45.76616" lon="6.03244">
        <ele>550.4</ele>
        <time>2000-01-01T01:11:41.000Z</time>
      </trkpt>
      <trkpt lat="45.7662" lon="6.03254">
        <ele>550.5</ele>
        <time>2000-01-01T01:11:51.000Z</time>
      </trkpt>
      <trkpt lat="45.76625" lon="6.03266">
        <ele>550.5</ele>
        <time>2000-01-01T01:12:01.000Z</time>
      </trkpt>
      <trkpt lat="45.7663" lon="6.03275">
        <ele>550.6</ele>
        <time>2000-01-01T01:12:11.000Z</time>
      </trkpt>
      <trkpt lat="45.76635" lon="6.03283">
        <ele>550.6</ele>
        <time>2000-01-01T01:12:21.000Z</time>
      </trkpt>
      <trkpt lat="45.76638" lon="6.03297">
        <ele>550.7</ele>
        <time>2000-01-01T01:12:31.000Z</time>
      </trkpt>
      <trkpt lat="45.76646" lon="6.03307">
        <ele>550.7</ele>
        <time>2000-01-01T01:12:41.000Z</time>
      </trkpt>
      <trkpt lat="45.76651" lon="6.03311">
        <ele>550.7</ele>
        <time>2000-01-01T01:12:51.000Z</time>
      </trkpt>
      <trkpt lat="45.76655" lon="6.03317">
        <ele>550.6</ele>
        <time>2000-01-01T01:13:01.000Z</time>
      </trkpt>
      <trkpt lat="45.76659" lon="6.03323">
        <ele>550.6</ele>
        <time>2000-01-01T01:13:11.000Z</time>
      </trkpt>
      <trkpt lat="45.76661" lon="6.03334">
        <ele>550.6</ele>
        <time>2000-01-01T01:13:21.000Z</time>
      </trkpt>
      <trkpt lat="45.76663" lon="6.03347">
        <ele>550.5</ele>
        <time>2000-01-01T01:13:31.000Z</time>
      </trkpt>
      <trkpt lat="45.76668" lon="6.03354">
        <ele>550.4</ele>
        <time>2000-01-01T01:13:41.000Z</time>
      </trkpt>
      <trkpt lat="45.76672" lon="6.0336">
        <ele>550.2</ele>
        <time>2000-01-01T01:13:51.000Z</time>
      </trkpt>
      <trkpt lat="45.76677" lon="6.03364">
        <ele>550.1</ele>
        <time>2000-01-01T01:14:01.000Z</time>
      </trkpt>
      <trkpt lat="45.76683" lon="6.03372">
        <ele>550</ele>
        <time>2000-01-01T01:14:11.000Z</time>
      </trkpt>
      <trkpt lat="45.76687" lon="6.03379">
        <ele>549.8</ele>
        <time>2000-01-01T01:14:21.000Z</time>
      </trkpt>
      <trkpt lat="45.76691" lon="6.03386">
        <ele>549.7</ele>
        <time>2000-01-01T01:14:31.000Z</time>
      </trkpt>
      <trkpt lat="45.76697" lon="6.03395">
        <ele>549.3</ele>
        <time>2000-01-01T01:14:41.000Z</time>
      </trkpt>
      <trkpt lat="45.76702" lon="6.03401">
        <ele>548.8</ele>
        <time>2000-01-01T01:14:51.000Z</time>
      </trkpt>
      <trkpt lat="45.76708" lon="6.03407">
        <ele>548.3</ele>
        <time>2000-01-01T01:15:01.000Z</time>
      </trkpt>
      <trkpt lat="45.76712" lon="6.03414">
        <ele>547.8</ele>
        <time>2000-01-01T01:15:11.000Z</time>
      </trkpt>
      <trkpt lat="45.76716" lon="6.0342">
        <ele>547.5</ele>
        <time>2000-01-01T01:15:21.000Z</time>
      </trkpt>
      <trkpt lat="45.76721" lon="6.03427">
        <ele>547</ele>
        <time>2000-01-01T01:15:31.000Z</time>
      </trkpt>
      <trkpt lat="45.76726" lon="6.03433">
        <ele>546.6</ele>
        <time>2000-01-01T01:15:41.000Z</time>
      </trkpt>
      <trkpt lat="45.76731" lon="6.03441">
        <ele>546.1</ele>
        <time>2000-01-01T01:15:51.000Z</time>
      </trkpt>
      <trkpt lat="45.76735" lon="6.03447">
        <ele>545.7</ele>
        <time>2000-01-01T01:16:01.000Z</time>
      </trkpt>
      <trkpt lat="45.76738" lon="6.03453">
        <ele>545.5</ele>
        <time>2000-01-01T01:16:11.000Z</time>
      </trkpt>
      <trkpt lat="45.76743" lon="6.0346">
        <ele>545.4</ele>
        <time>2000-01-01T01:16:21.000Z</time>
      </trkpt>
      <trkpt lat="45.76747" lon="6.03466">
        <ele>545.3</ele>
        <time>2000-01-01T01:16:31.000Z</time>
      </trkpt>
      <trkpt lat="45.76752" lon="6.03472">
        <ele>545.2</ele>
        <time>2000-01-01T01:16:41.000Z</time>
      </trkpt>
      <trkpt lat="45.76757" lon="6.03479">
        <ele>544.9</ele>
        <time>2000-01-01T01:16:51.000Z</time>
      </trkpt>
      <trkpt lat="45.76759" lon="6.03487">
        <ele>544.8</ele>
        <time>2000-01-01T01:17:01.000Z</time>
      </trkpt>
      <trkpt lat="45.7676" lon="6.03495">
        <ele>544.6</ele>
        <time>2000-01-01T01:17:11.000Z</time>
      </trkpt>
      <trkpt lat="45.76763" lon="6.03503">
        <ele>544.4</ele>
        <time>2000-01-01T01:17:21.000Z</time>
      </trkpt>
      <trkpt lat="45.76764" lon="6.03514">
        <ele>544.2</ele>
        <time>2000-01-01T01:17:31.000Z</time>
      </trkpt>
      <trkpt lat="45.76766" lon="6.03523">
        <ele>544.1</ele>
        <time>2000-01-01T01:17:41.000Z</time>
      </trkpt>
      <trkpt lat="45.76767" lon="6.03527">
        <ele>544.1</ele>
        <time>2000-01-01T01:17:51.000Z</time>
      </trkpt>
      <trkpt lat="45.76773" lon="6.03531">
        <ele>544</ele>
        <time>2000-01-01T01:18:01.000Z</time>
      </trkpt>
      <trkpt lat="45.76779" lon="6.03534">
        <ele>543.9</ele>
        <time>2000-01-01T01:18:11.000Z</time>
      </trkpt>
      <trkpt lat="45.76784" lon="6.03538">
        <ele>543.8</ele>
        <time>2000-01-01T01:18:21.000Z</time>
      </trkpt>
      <trkpt lat="45.76789" lon="6.03544">
        <ele>543.7</ele>
        <time>2000-01-01T01:18:31.000Z</time>
      </trkpt>
      <trkpt lat="45.76793" lon="6.0355">
        <ele>543.7</ele>
        <time>2000-01-01T01:18:41.000Z</time>
      </trkpt>
      <trkpt lat="45.76798" lon="6.03559">
        <ele>543.6</ele>
        <time>2000-01-01T01:18:51.000Z</time>
      </trkpt>
      <trkpt lat="45.76803" lon="6.03566">
        <ele>543.6</ele>
        <time>2000-01-01T01:19:01.000Z</time>
      </trkpt>
      <trkpt lat="45.76807" lon="6.03571">
        <ele>543.5</ele>
        <time>2000-01-01T01:19:11.000Z</time>
      </trkpt>
      <trkpt lat="45.76811" lon="6.03577">
        <ele>543.5</ele>
        <time>2000-01-01T01:19:21.000Z</time>
      </trkpt>
      <trkpt lat="45.76815" lon="6.03584">
        <ele>543.4</ele>
        <time>2000-01-01T01:19:31.000Z</time>
      </trkpt>
      <trkpt lat="45.76823" lon="6.03589">
        <ele>543.4</ele>
        <time>2000-01-01T01:19:41.000Z</time>
      </trkpt>
      <trkpt lat="45.76829" lon="6.03596">
        <ele>543.3</ele>
        <time>2000-01-01T01:19:51.000Z</time>
      </trkpt>
      <trkpt lat="45.76834" lon="6.03606">
        <ele>543.3</ele>
        <time>2000-01-01T01:20:01.000Z</time>
      </trkpt>
      <trkpt lat="45.7684" lon="6.03614">
        <ele>543.2</ele>
        <time>2000-01-01T01:20:11.000Z</time>
      </trkpt>
      <trkpt lat="45.76845" lon="6.03621">
        <ele>543.2</ele>
        <time>2000-01-01T01:20:21.000Z</time>
      </trkpt>
      <trkpt lat="45.76852" lon="6.03627">
        <ele>543.2</ele>
        <time>2000-01-01T01:20:31.000Z</time>
      </trkpt>
      <trkpt lat="45.76856" lon="6.03634">
        <ele>543.1</ele>
        <time>2000-01-01T01:20:41.000Z</time>
      </trkpt>
      <trkpt lat="45.76859" lon="6.03641">
        <ele>543.1</ele>
        <time>2000-01-01T01:20:51.000Z</time>
      </trkpt>
      <trkpt lat="45.76863" lon="6.03648">
        <ele>543</ele>
        <time>2000-01-01T01:21:01.000Z</time>
      </trkpt>
      <trkpt lat="45.76866" lon="6.03657">
        <ele>542.9</ele>
        <time>2000-01-01T01:21:11.000Z</time>
      </trkpt>
      <trkpt lat="45.76868" lon="6.03668">
        <ele>542.8</ele>
        <time>2000-01-01T01:21:21.000Z</time>
      </trkpt>
      <trkpt lat="45.76873" lon="6.03682">
        <ele>542.6</ele>
        <time>2000-01-01T01:21:31.000Z</time>
      </trkpt>
      <trkpt lat="45.76876" lon="6.0369">
        <ele>542.5</ele>
        <time>2000-01-01T01:21:41.000Z</time>
      </trkpt>
      <trkpt lat="45.76881" lon="6.03702">
        <ele>542.2</ele>
        <time>2000-01-01T01:21:51.000Z</time>
      </trkpt>
      <trkpt lat="45.76887" lon="6.03714">
        <ele>541.9</ele>
        <time>2000-01-01T01:22:01.000Z</time>
      </trkpt>
      <trkpt lat="45.7689" lon="6.0372">
        <ele>541.7</ele>
        <time>2000-01-01T01:22:11.000Z</time>
      </trkpt>
      <trkpt lat="45.76895" lon="6.03734">
        <ele>541.2</ele>
        <time>2000-01-01T01:22:21.000Z</time>
      </trkpt>
      <trkpt lat="45.76897" lon="6.03741">
        <ele>541</ele>
        <time>2000-01-01T01:22:31.000Z</time>
      </trkpt>
      <trkpt lat="45.76901" lon="6.03744">
        <ele>540.9</ele>
        <time>2000-01-01T01:22:41.000Z</time>
      </trkpt>
      <trkpt lat="45.76908" lon="6.03744">
        <ele>540.3</ele>
        <time>2000-01-01T01:22:51.000Z</time>
      </trkpt>
      <trkpt lat="45.76915" lon="6.03739">
        <ele>539.4</ele>
        <time>2000-01-01T01:23:01.000Z</time>
      </trkpt>
      <trkpt lat="45.7692" lon="6.03734">
        <ele>538.8</ele>
        <time>2000-01-01T01:23:11.000Z</time>
      </trkpt>
      <trkpt lat="45.76925" lon="6.03727">
        <ele>538.1</ele>
        <time>2000-01-01T01:23:21.000Z</time>
      </trkpt>
      <trkpt lat="45.76928" lon="6.03718">
        <ele>537.5</ele>
        <time>2000-01-01T01:23:31.000Z</time>
      </trkpt>
      <trkpt lat="45.7693" lon="6.03709">
        <ele>537.1</ele>
        <time>2000-01-01T01:23:41.000Z</time>
      </trkpt>
      <trkpt lat="45.7693" lon="6.037">
        <ele>536.8</ele>
        <time>2000-01-01T01:23:51.000Z</time>
      </trkpt>
      <trkpt lat="45.76931" lon="6.03689">
        <ele>536.5</ele>
        <time>2000-01-01T01:24:01.000Z</time>
      </trkpt>
      <trkpt lat="45.76931" lon="6.0368">
        <ele>536.4</ele>
        <time>2000-01-01T01:24:11.000Z</time>
      </trkpt>
      <trkpt lat="45.76934" lon="6.03669">
        <ele>536.3</ele>
        <time>2000-01-01T01:24:21.000Z</time>
      </trkpt>
      <trkpt lat="45.76938" lon="6.0366">
        <ele>536.2</ele>
        <time>2000-01-01T01:24:31.000Z</time>
      </trkpt>
      <trkpt lat="45.76941" lon="6.03652">
        <ele>536.2</ele>
        <time>2000-01-01T01:24:41.000Z</time>
      </trkpt>
      <trkpt lat="45.76942" lon="6.03644">
        <ele>536</ele>
        <time>2000-01-01T01:24:51.000Z</time>
      </trkpt>
      <trkpt lat="45.76946" lon="6.03636">
        <ele>535.8</ele>
        <time>2000-01-01T01:25:01.000Z</time>
      </trkpt>
      <trkpt lat="45.76951" lon="6.03629">
        <ele>535.6</ele>
        <time>2000-01-01T01:25:11.000Z</time>
      </trkpt>
      <trkpt lat="45.76957" lon="6.0362">
        <ele>535.3</ele>
        <time>2000-01-01T01:25:21.000Z</time>
      </trkpt>
      <trkpt lat="45.76961" lon="6.03612">
        <ele>535.2</ele>
        <time>2000-01-01T01:25:31.000Z</time>
      </trkpt>
      <trkpt lat="45.76962" lon="6.03604">
        <ele>535.1</ele>
        <time>2000-01-01T01:25:41.000Z</time>
      </trkpt>
      <trkpt lat="45.76963" lon="6.03594">
        <ele>534.9</ele>
        <time>2000-01-01T01:25:51.000Z</time>
      </trkpt>
      <trkpt lat="45.76966" lon="6.03584">
        <ele>534.8</ele>
        <time>2000-01-01T01:26:01.000Z</time>
      </trkpt>
      <trkpt lat="45.76967" lon="6.03575">
        <ele>534.6</ele>
        <time>2000-01-01T01:26:11.000Z</time>
      </trkpt>
      <trkpt lat="45.76968" lon="6.03566">
        <ele>534.4</ele>
        <time>2000-01-01T01:26:21.000Z</time>
      </trkpt>
      <trkpt lat="45.76968" lon="6.03558">
        <ele>534.3</ele>
        <time>2000-01-01T01:26:31.000Z</time>
      </trkpt>
      <trkpt lat="45.7697" lon="6.03546">
        <ele>534</ele>
        <time>2000-01-01T01:26:41.000Z</time>
      </trkpt>
      <trkpt lat="45.76972" lon="6.03537">
        <ele>533.8</ele>
        <time>2000-01-01T01:26:51.000Z</time>
      </trkpt>
      <trkpt lat="45.76975" lon="6.03529">
        <ele>533.5</ele>
        <time>2000-01-01T01:27:01.000Z</time>
      </trkpt>
      <trkpt lat="45.76977" lon="6.03521">
        <ele>533.2</ele>
        <time>2000-01-01T01:27:11.000Z</time>
      </trkpt>
      <trkpt lat="45.76981" lon="6.03514">
        <ele>532.9</ele>
        <time>2000-01-01T01:27:21.000Z</time>
      </trkpt>
      <trkpt lat="45.76985" lon="6.03503">
        <ele>532</ele>
        <time>2000-01-01T01:27:31.000Z</time>
      </trkpt>
      <trkpt lat="45.76987" lon="6.03495">
        <ele>531.1</ele>
        <time>2000-01-01T01:27:41.000Z</time>
      </trkpt>
      <trkpt lat="45.7699" lon="6.03488">
        <ele>530.1</ele>
        <time>2000-01-01T01:27:51.000Z</time>
      </trkpt>
      <trkpt lat="45.76993" lon="6.03481">
        <ele>529.1</ele>
        <time>2000-01-01T01:28:01.000Z</time>
      </trkpt>
      <trkpt lat="45.76997" lon="6.03471">
        <ele>528.1</ele>
        <time>2000-01-01T01:28:11.000Z</time>
      </trkpt>
      <trkpt lat="45.77002" lon="6.0346">
        <ele>527.1</ele>
        <time>2000-01-01T01:28:21.000Z</time>
      </trkpt>
      <trkpt lat="45.77006" lon="6.03452">
        <ele>526.1</ele>
        <time>2000-01-01T01:28:31.000Z</time>
      </trkpt>
      <trkpt lat="45.77011" lon="6.03441">
        <ele>524.9</ele>
        <time>2000-01-01T01:28:41.000Z</time>
      </trkpt>
      <trkpt lat="45.77016" lon="6.0343">
        <ele>523.8</ele>
        <time>2000-01-01T01:28:51.000Z</time>
      </trkpt>
      <trkpt lat="45.77021" lon="6.03425">
        <ele>522.9</ele>
        <time>2000-01-01T01:29:01.000Z</time>
      </trkpt>
      <trkpt lat="45.77027" lon="6.03417">
        <ele>521.8</ele>
        <time>2000-01-01T01:29:11.000Z</time>
      </trkpt>
      <trkpt lat="45.7703" lon="6.03409">
        <ele>520.9</ele>
        <time>2000-01-01T01:29:21.000Z</time>
      </trkpt>
      <trkpt lat="45.77031" lon="6.034">
        <ele>520</ele>
        <time>2000-01-01T01:29:31.000Z</time>
      </trkpt>
      <trkpt lat="45.77031" lon="6.03391">
        <ele>519.2</ele>
        <time>2000-01-01T01:29:41.000Z</time>
      </trkpt>
      <trkpt lat="45.77031" lon="6.03387">
        <ele>518.9</ele>
        <time>2000-01-01T01:29:51.000Z</time>
      </trkpt>
      <trkpt lat="45.7703" lon="6.0338">
        <ele>518.4</ele>
        <time>2000-01-01T01:30:01.000Z</time>
      </trkpt>
      <trkpt lat="45.77035" lon="6.03378">
        <ele>517.6</ele>
        <time>2000-01-01T01:30:11.000Z</time>
      </trkpt>
      <trkpt lat="45.77044" lon="6.03383">
        <ele>515.8</ele>
        <time>2000-01-01T01:30:21.000Z</time>
      </trkpt>
      <trkpt lat="45.77051" lon="6.03389">
        <ele>514.1</ele>
        <time>2000-01-01T01:30:31.000Z</time>
      </trkpt>
      <trkpt lat="45.77057" lon="6.03396">
        <ele>512.5</ele>
        <time>2000-01-01T01:30:41.000Z</time>
      </trkpt>
      <trkpt lat="45.77063" lon="6.03404">
        <ele>511.2</ele>
        <time>2000-01-01T01:30:51.000Z</time>
      </trkpt>
      <trkpt lat="45.77068" lon="6.03412">
        <ele>509.9</ele>
        <time>2000-01-01T01:31:01.000Z</time>
      </trkpt>
      <trkpt lat="45.77073" lon="6.0342">
        <ele>508.5</ele>
        <time>2000-01-01T01:31:11.000Z</time>
      </trkpt>
      <trkpt lat="45.77078" lon="6.03427">
        <ele>507.2</ele>
        <time>2000-01-01T01:31:21.000Z</time>
      </trkpt>
      <trkpt lat="45.77082" lon="6.03434">
        <ele>506.1</ele>
        <time>2000-01-01T01:31:31.000Z</time>
      </trkpt>
      <trkpt lat="45.77086" lon="6.03442">
        <ele>504.7</ele>
        <time>2000-01-01T01:31:41.000Z</time>
      </trkpt>
      <trkpt lat="45.77091" lon="6.03449">
        <ele>503.6</ele>
        <time>2000-01-01T01:31:51.000Z</time>
      </trkpt>
      <trkpt lat="45.77096" lon="6.03453">
        <ele>502.8</ele>
        <time>2000-01-01T01:32:01.000Z</time>
      </trkpt>
      <trkpt lat="45.77102" lon="6.03459">
        <ele>502.3</ele>
        <time>2000-01-01T01:32:11.000Z</time>
      </trkpt>
      <trkpt lat="45.77112" lon="6.03465">
        <ele>501.7</ele>
        <time>2000-01-01T01:32:21.000Z</time>
      </trkpt>
      <trkpt lat="45.77115" lon="6.03465">
        <ele>501.5</ele>
        <time>2000-01-01T01:32:31.000Z</time>
      </trkpt>
      <trkpt lat="45.77124" lon="6.03469">
        <ele>501</ele>
        <time>2000-01-01T01:32:41.000Z</time>
      </trkpt>
      <trkpt lat="45.77131" lon="6.03474">
        <ele>500.5</ele>
        <time>2000-01-01T01:32:51.000Z</time>
      </trkpt>
      <trkpt lat="45.7714" lon="6.03479">
        <ele>499.9</ele>
        <time>2000-01-01T01:33:01.000Z</time>
      </trkpt>
      <trkpt lat="45.77147" lon="6.03485">
        <ele>499.3</ele>
        <time>2000-01-01T01:33:11.000Z</time>
      </trkpt>
      <trkpt lat="45.77154" lon="6.03491">
        <ele>498.7</ele>
        <time>2000-01-01T01:33:21.000Z</time>
      </trkpt>
      <trkpt lat="45.77161" lon="6.035">
        <ele>498.1</ele>
        <time>2000-01-01T01:33:31.000Z</time>
      </trkpt>
      <trkpt lat="45.77165" lon="6.03507">
        <ele>497.7</ele>
        <time>2000-01-01T01:33:41.000Z</time>
      </trkpt>
      <trkpt lat="45.77168" lon="6.03515">
        <ele>497</ele>
        <time>2000-01-01T01:33:51.000Z</time>
      </trkpt>
      <trkpt lat="45.7717" lon="6.03524">
        <ele>496.3</ele>
        <time>2000-01-01T01:34:01.000Z</time>
      </trkpt>
      <trkpt lat="45.77171" lon="6.03534">
        <ele>495.3</ele>
        <time>2000-01-01T01:34:11.000Z</time>
      </trkpt>
      <trkpt lat="45.7717" lon="6.03544">
        <ele>494.3</ele>
        <time>2000-01-01T01:34:21.000Z</time>
      </trkpt>
      <trkpt lat="45.77171" lon="6.03553">
        <ele>493.3</ele>
        <time>2000-01-01T01:34:31.000Z</time>
      </trkpt>
      <trkpt lat="45.77174" lon="6.03561">
        <ele>492.5</ele>
        <time>2000-01-01T01:34:41.000Z</time>
      </trkpt>
      <trkpt lat="45.77177" lon="6.03569">
        <ele>491.8</ele>
        <time>2000-01-01T01:34:51.000Z</time>
      </trkpt>
      <trkpt lat="45.77177" lon="6.0358">
        <ele>490.7</ele>
        <time>2000-01-01T01:35:01.000Z</time>
      </trkpt>
      <trkpt lat="45.77177" lon="6.03589">
        <ele>489.9</ele>
        <time>2000-01-01T01:35:11.000Z</time>
      </trkpt>
      <trkpt lat="45.77178" lon="6.03598">
        <ele>489.2</ele>
        <time>2000-01-01T01:35:21.000Z</time>
      </trkpt>
      <trkpt lat="45.77181" lon="6.03606">
        <ele>488.4</ele>
        <time>2000-01-01T01:35:31.000Z</time>
      </trkpt>
      <trkpt lat="45.77189" lon="6.03615">
        <ele>487.3</ele>
        <time>2000-01-01T01:35:41.000Z</time>
      </trkpt>
      <trkpt lat="45.77195" lon="6.03623">
        <ele>486.4</ele>
        <time>2000-01-01T01:35:51.000Z</time>
      </trkpt>
      <trkpt lat="45.772" lon="6.03632">
        <ele>485.5</ele>
        <time>2000-01-01T01:36:01.000Z</time>
      </trkpt>
      <trkpt lat="45.77205" lon="6.03639">
        <ele>485</ele>
        <time>2000-01-01T01:36:11.000Z</time>
      </trkpt>
      <trkpt lat="45.7721" lon="6.03646">
        <ele>484.6</ele>
        <time>2000-01-01T01:36:21.000Z</time>
      </trkpt>
      <trkpt lat="45.77215" lon="6.03653">
        <ele>484.2</ele>
        <time>2000-01-01T01:36:31.000Z</time>
      </trkpt>
      <trkpt lat="45.77221" lon="6.03658">
        <ele>483.9</ele>
        <time>2000-01-01T01:36:41.000Z</time>
      </trkpt>
      <trkpt lat="45.77224" lon="6.03666">
        <ele>483.5</ele>
        <time>2000-01-01T01:36:51.000Z</time>
      </trkpt>
      <trkpt lat="45.7723" lon="6.03673">
        <ele>483.1</ele>
        <time>2000-01-01T01:37:01.000Z</time>
      </trkpt>
      <trkpt lat="45.77235" lon="6.03679">
        <ele>482.7</ele>
        <time>2000-01-01T01:37:11.000Z</time>
      </trkpt>
      <trkpt lat="45.7724" lon="6.03687">
        <ele>482.5</ele>
        <time>2000-01-01T01:37:21.000Z</time>
      </trkpt>
      <trkpt lat="45.77245" lon="6.03695">
        <ele>482.3</ele>
        <time>2000-01-01T01:37:31.000Z</time>
      </trkpt>
      <trkpt lat="45.77249" lon="6.03702">
        <ele>482.1</ele>
        <time>2000-01-01T01:37:41.000Z</time>
      </trkpt>
      <trkpt lat="45.77254" lon="6.03708">
        <ele>482</ele>
        <time>2000-01-01T01:37:51.000Z</time>
      </trkpt>
      <trkpt lat="45.77262" lon="6.03712">
        <ele>481.8</ele>
        <time>2000-01-01T01:38:01.000Z</time>
      </trkpt>
      <trkpt lat="45.77269" lon="6.03715">
        <ele>480.9</ele>
        <time>2000-01-01T01:38:11.000Z</time>
      </trkpt>
      <trkpt lat="45.77276" lon="6.03723">
        <ele>479.9</ele>
        <time>2000-01-01T01:38:21.000Z</time>
      </trkpt>
      <trkpt lat="45.7728" lon="6.0373">
        <ele>479.2</ele>
        <time>2000-01-01T01:38:31.000Z</time>
      </trkpt>
      <trkpt lat="45.77284" lon="6.03737">
        <ele>478.5</ele>
        <time>2000-01-01T01:38:41.000Z</time>
      </trkpt>
      <trkpt lat="45.77287" lon="6.03744">
        <ele>477.4</ele>
        <time>2000-01-01T01:38:51.000Z</time>
      </trkpt>
      <trkpt lat="45.77292" lon="6.03752">
        <ele>475.9</ele>
        <time>2000-01-01T01:39:01.000Z</time>
      </trkpt>
      <trkpt lat="45.773" lon="6.03757">
        <ele>473.9</ele>
        <time>2000-01-01T01:39:11.000Z</time>
      </trkpt>
      <trkpt lat="45.77307" lon="6.03762">
        <ele>471.9</ele>
        <time>2000-01-01T01:39:21.000Z</time>
      </trkpt>
      <trkpt lat="45.77313" lon="6.03768">
        <ele>470</ele>
        <time>2000-01-01T01:39:31.000Z</time>
      </trkpt>
      <trkpt lat="45.77319" lon="6.03776">
        <ele>468.4</ele>
        <time>2000-01-01T01:39:41.000Z</time>
      </trkpt>
      <trkpt lat="45.77324" lon="6.03785">
        <ele>467</ele>
        <time>2000-01-01T01:39:51.000Z</time>
      </trkpt>
      <trkpt lat="45.77327" lon="6.03795">
        <ele>465.8</ele>
        <time>2000-01-01T01:40:01.000Z</time>
      </trkpt>
      <trkpt lat="45.77329" lon="6.03805">
        <ele>464.7</ele>
        <time>2000-01-01T01:40:11.000Z</time>
      </trkpt>
      <trkpt lat="45.77327" lon="6.03814">
        <ele>463.3</ele>
        <time>2000-01-01T01:40:21.000Z</time>
      </trkpt>
      <trkpt lat="45.77324" lon="6.03823">
        <ele>462.1</ele>
        <time>2000-01-01T01:40:31.000Z</time>
      </trkpt>
      <trkpt lat="45.77318" lon="6.03831">
        <ele>460.9</ele>
        <time>2000-01-01T01:40:41.000Z</time>
      </trkpt>
      <trkpt lat="45.77316" lon="6.03836">
        <ele>460.4</ele>
        <time>2000-01-01T01:40:51.000Z</time>
      </trkpt>
      <trkpt lat="45.77315" lon="6.0384">
        <ele>459.9</ele>
        <time>2000-01-01T01:41:01.000Z</time>
      </trkpt>
      <trkpt lat="45.77292" lon="6.03856">
        <ele>455.3</ele>
        <time>2000-01-01T01:41:11.000Z</time>
      </trkpt>
      <trkpt lat="45.77289" lon="6.03865">
        <ele>454.3</ele>
        <time>2000-01-01T01:41:21.000Z</time>
      </trkpt>
      <trkpt lat="45.77282" lon="6.03873">
        <ele>453</ele>
        <time>2000-01-01T01:41:31.000Z</time>
      </trkpt>
      <trkpt lat="45.77275" lon="6.03879">
        <ele>451.5</ele>
        <time>2000-01-01T01:41:41.000Z</time>
      </trkpt>
      <trkpt lat="45.7727" lon="6.03887">
        <ele>450.5</ele>
        <time>2000-01-01T01:41:51.000Z</time>
      </trkpt>
      <trkpt lat="45.77266" lon="6.03895">
        <ele>449.6</ele>
        <time>2000-01-01T01:42:01.000Z</time>
      </trkpt>
      <trkpt lat="45.77262" lon="6.03905">
        <ele>448.7</ele>
        <time>2000-01-01T01:42:11.000Z</time>
      </trkpt>
      <trkpt lat="45.77259" lon="6.03916">
        <ele>447.6</ele>
        <time>2000-01-01T01:42:21.000Z</time>
      </trkpt>
      <trkpt lat="45.77256" lon="6.03926">
        <ele>446.1</ele>
        <time>2000-01-01T01:42:31.000Z</time>
      </trkpt>
      <trkpt lat="45.77251" lon="6.03932">
        <ele>445.8</ele>
        <time>2000-01-01T01:42:41.000Z</time>
      </trkpt>
      <trkpt lat="45.77248" lon="6.0394">
        <ele>445</ele>
        <time>2000-01-01T01:42:51.000Z</time>
      </trkpt>
      <trkpt lat="45.7725" lon="6.03952">
        <ele>444.7</ele>
        <time>2000-01-01T01:43:01.000Z</time>
      </trkpt>
      <trkpt lat="45.77252" lon="6.03961">
        <ele>444.5</ele>
        <time>2000-01-01T01:43:11.000Z</time>
      </trkpt>
      <trkpt lat="45.77255" lon="6.03969">
        <ele>444.2</ele>
        <time>2000-01-01T01:43:21.000Z</time>
      </trkpt>
      <trkpt lat="45.77259" lon="6.03978">
        <ele>444</ele>
        <time>2000-01-01T01:43:31.000Z</time>
      </trkpt>
      <trkpt lat="45.77262" lon="6.03985">
        <ele>443.8</ele>
        <time>2000-01-01T01:43:41.000Z</time>
      </trkpt>
      <trkpt lat="45.77265" lon="6.03993">
        <ele>443.7</ele>
        <time>2000-01-01T01:43:51.000Z</time>
      </trkpt>
      <trkpt lat="45.77268" lon="6.04001">
        <ele>443.6</ele>
        <time>2000-01-01T01:44:01.000Z</time>
      </trkpt>
      <trkpt lat="45.77272" lon="6.04009">
        <ele>443.4</ele>
        <time>2000-01-01T01:44:11.000Z</time>
      </trkpt>
      <trkpt lat="45.77275" lon="6.04017">
        <ele>443.3</ele>
        <time>2000-01-01T01:44:21.000Z</time>
      </trkpt>
      <trkpt lat="45.77277" lon="6.04026">
        <ele>443.2</ele>
        <time>2000-01-01T01:44:31.000Z</time>
      </trkpt>
      <trkpt lat="45.77277" lon="6.04037">
        <ele>443.1</ele>
        <time>2000-01-01T01:44:41.000Z</time>
      </trkpt>
      <trkpt lat="45.77273" lon="6.04047">
        <ele>443</ele>
        <time>2000-01-01T01:44:51.000Z</time>
      </trkpt>
      <trkpt lat="45.77269" lon="6.04055">
        <ele>443.1</ele>
        <time>2000-01-01T01:45:01.000Z</time>
      </trkpt>
      <trkpt lat="45.77267" lon="6.04069">
        <ele>443.1</ele>
        <time>2000-01-01T01:45:11.000Z</time>
      </trkpt>
      <trkpt lat="45.77265" lon="6.04082">
        <ele>443.2</ele>
        <time>2000-01-01T01:45:21.000Z</time>
      </trkpt>
      <trkpt lat="45.77263" lon="6.04094">
        <ele>443.3</ele>
        <time>2000-01-01T01:45:31.000Z</time>
      </trkpt>
      <trkpt lat="45.77258" lon="6.04104">
        <ele>443.3</ele>
        <time>2000-01-01T01:45:41.000Z</time>
      </trkpt>
      <trkpt lat="45.77255" lon="6.04111">
        <ele>443.3</ele>
        <time>2000-01-01T01:45:51.000Z</time>
      </trkpt>
      <trkpt lat="45.77252" lon="6.04119">
        <ele>443.3</ele>
        <time>2000-01-01T01:46:01.000Z</time>
      </trkpt>
      <trkpt lat="45.77251" lon="6.04128">
        <ele>443.3</ele>
        <time>2000-01-01T01:46:11.000Z</time>
      </trkpt>
      <trkpt lat="45.77253" lon="6.04137">
        <ele>443.2</ele>
        <time>2000-01-01T01:46:21.000Z</time>
      </trkpt>
      <trkpt lat="45.77256" lon="6.04145">
        <ele>443.5</ele>
        <time>2000-01-01T01:46:31.000Z</time>
      </trkpt>
      <trkpt lat="45.77258" lon="6.04154">
        <ele>443.8</ele>
        <time>2000-01-01T01:46:41.000Z</time>
      </trkpt>
      <trkpt lat="45.77258" lon="6.04165">
        <ele>444.1</ele>
        <time>2000-01-01T01:46:51.000Z</time>
      </trkpt>
      <trkpt lat="45.77256" lon="6.04176">
        <ele>444.4</ele>
        <time>2000-01-01T01:47:01.000Z</time>
      </trkpt>
      <trkpt lat="45.77252" lon="6.04187">
        <ele>444.7</ele>
        <time>2000-01-01T01:47:11.000Z</time>
      </trkpt>
      <trkpt lat="45.77249" lon="6.04199">
        <ele>445</ele>
        <time>2000-01-01T01:47:21.000Z</time>
      </trkpt>
      <trkpt lat="45.77247" lon="6.04212">
        <ele>445.3</ele>
        <time>2000-01-01T01:47:31.000Z</time>
      </trkpt>
      <trkpt lat="45.77243" lon="6.04223">
        <ele>445.6</ele>
        <time>2000-01-01T01:47:41.000Z</time>
      </trkpt>
      <trkpt lat="45.77238" lon="6.04236">
        <ele>445.8</ele>
        <time>2000-01-01T01:47:51.000Z</time>
      </trkpt>
      <trkpt lat="45.77232" lon="6.04247">
        <ele>446</ele>
        <time>2000-01-01T01:48:01.000Z</time>
      </trkpt>
      <trkpt lat="45.77226" lon="6.04258">
        <ele>446.1</ele>
        <time>2000-01-01T01:48:11.000Z</time>
      </trkpt>
      <trkpt lat="45.7722" lon="6.04271">
        <ele>446.3</ele>
        <time>2000-01-01T01:48:21.000Z</time>
      </trkpt>
      <trkpt lat="45.77218" lon="6.0428">
        <ele>446.5</ele>
        <time>2000-01-01T01:48:31.000Z</time>
      </trkpt>
      <trkpt lat="45.77216" lon="6.04288">
        <ele>446.5</ele>
        <time>2000-01-01T01:48:41.000Z</time>
      </trkpt>
      <trkpt lat="45.77213" lon="6.04301">
        <ele>446.7</ele>
        <time>2000-01-01T01:48:51.000Z</time>
      </trkpt>
      <trkpt lat="45.7721" lon="6.04308">
        <ele>446.7</ele>
        <time>2000-01-01T01:49:01.000Z</time>
      </trkpt>
      <trkpt lat="45.77209" lon="6.04312">
        <ele>446.8</ele>
        <time>2000-01-01T01:49:11.000Z</time>
      </trkpt>
      <trkpt lat="45.77206" lon="6.04323">
        <ele>446.9</ele>
        <time>2000-01-01T01:49:21.000Z</time>
      </trkpt>
      <trkpt lat="45.77207" lon="6.04331">
        <ele>447</ele>
        <time>2000-01-01T01:49:31.000Z</time>
      </trkpt>
      <trkpt lat="45.77208" lon="6.04343">
        <ele>447.1</ele>
        <time>2000-01-01T01:49:41.000Z</time>
      </trkpt>
      <trkpt lat="45.77205" lon="6.04353">
        <ele>447.1</ele>
        <time>2000-01-01T01:49:51.000Z</time>
      </trkpt>
      <trkpt lat="45.772" lon="6.04363">
        <ele>447.2</ele>
        <time>2000-01-01T01:50:01.000Z</time>
      </trkpt>
      <trkpt lat="45.77194" lon="6.04373">
        <ele>447.3</ele>
        <time>2000-01-01T01:50:11.000Z</time>
      </trkpt>
      <trkpt lat="45.77188" lon="6.04382">
        <ele>447.3</ele>
        <time>2000-01-01T01:50:21.000Z</time>
      </trkpt>
      <trkpt lat="45.77183" lon="6.0439">
        <ele>447.4</ele>
        <time>2000-01-01T01:50:31.000Z</time>
      </trkpt>
      <trkpt lat="45.77178" lon="6.04399">
        <ele>447.4</ele>
        <time>2000-01-01T01:50:41.000Z</time>
      </trkpt>
      <trkpt lat="45.77177" lon="6.04404">
        <ele>447.5</ele>
        <time>2000-01-01T01:50:51.000Z</time>
      </trkpt>
      <trkpt lat="45.77175" lon="6.04407">
        <ele>447.5</ele>
        <time>2000-01-01T01:51:01.000Z</time>
      </trkpt>
      <trkpt lat="45.77169" lon="6.04411">
        <ele>447.6</ele>
        <time>2000-01-01T01:51:11.000Z</time>
      </trkpt>
      <trkpt lat="45.77166" lon="6.04411">
        <ele>447.7</ele>
        <time>2000-01-01T01:51:21.000Z</time>
      </trkpt>
      <trkpt lat="45.77157" lon="6.04413">
        <ele>447.8</ele>
        <time>2000-01-01T01:51:31.000Z</time>
      </trkpt>
      <trkpt lat="45.7715" lon="6.04416">
        <ele>447.9</ele>
        <time>2000-01-01T01:51:41.000Z</time>
      </trkpt>
      <trkpt lat="45.7714" lon="6.0442">
        <ele>448.3</ele>
        <time>2000-01-01T01:51:51.000Z</time>
      </trkpt>
      <trkpt lat="45.77131" lon="6.04423">
        <ele>448.6</ele>
        <time>2000-01-01T01:52:01.000Z</time>
      </trkpt>
      <trkpt lat="45.77123" lon="6.04423">
        <ele>448.8</ele>
        <time>2000-01-01T01:52:11.000Z</time>
      </trkpt>
      <trkpt lat="45.77113" lon="6.04423">
        <ele>449.3</ele>
        <time>2000-01-01T01:52:21.000Z</time>
      </trkpt>
      <trkpt lat="45.77103" lon="6.04422">
        <ele>449.8</ele>
        <time>2000-01-01T01:52:31.000Z</time>
      </trkpt>
      <trkpt lat="45.77099" lon="6.0442">
        <ele>449.9</ele>
        <time>2000-01-01T01:52:41.000Z</time>
      </trkpt>
      <trkpt lat="45.77094" lon="6.04417">
        <ele>450.2</ele>
        <time>2000-01-01T01:52:51.000Z</time>
      </trkpt>
      <trkpt lat="45.77093" lon="6.04412">
        <ele>450.4</ele>
        <time>2000-01-01T01:53:01.000Z</time>
      </trkpt>
      <trkpt lat="45.77098" lon="6.04402">
        <ele>450.9</ele>
        <time>2000-01-01T01:53:11.000Z</time>
      </trkpt>
      <trkpt lat="45.77104" lon="6.04398">
        <ele>451.4</ele>
        <time>2000-01-01T01:53:21.000Z</time>
      </trkpt>
      <trkpt lat="45.77107" lon="6.04395">
        <ele>451.7</ele>
        <time>2000-01-01T01:53:31.000Z</time>
      </trkpt>
      <trkpt lat="45.77108" lon="6.04384">
        <ele>452.2</ele>
        <time>2000-01-01T01:53:41.000Z</time>
      </trkpt>
      <trkpt lat="45.77106" lon="6.04381">
        <ele>452.4</ele>
        <time>2000-01-01T01:53:51.000Z</time>
      </trkpt>
      <trkpt lat="45.77103" lon="6.04371">
        <ele>453.1</ele>
        <time>2000-01-01T01:54:01.000Z</time>
      </trkpt>
      <trkpt lat="45.77103" lon="6.04362">
        <ele>453.7</ele>
        <time>2000-01-01T01:54:11.000Z</time>
      </trkpt>
      <trkpt lat="45.771" lon="6.04351">
        <ele>454.8</ele>
        <time>2000-01-01T01:54:21.000Z</time>
      </trkpt>
      <trkpt lat="45.77098" lon="6.04342">
        <ele>455.7</ele>
        <time>2000-01-01T01:54:31.000Z</time>
      </trkpt>
      <trkpt lat="45.77099" lon="6.04333">
        <ele>456.7</ele>
        <time>2000-01-01T01:54:41.000Z</time>
      </trkpt>
      <trkpt lat="45.77101" lon="6.0433">
        <ele>457.1</ele>
        <time>2000-01-01T01:54:51.000Z</time>
      </trkpt>
      <trkpt lat="45.77104" lon="6.04324">
        <ele>457.6</ele>
        <time>2000-01-01T01:55:01.000Z</time>
      </trkpt>
      <trkpt lat="45.77103" lon="6.04319">
        <ele>458.1</ele>
        <time>2000-01-01T01:55:11.000Z</time>
      </trkpt>
      <trkpt lat="45.77094" lon="6.04313">
        <ele>459</ele>
        <time>2000-01-01T01:55:21.000Z</time>
      </trkpt>
      <trkpt lat="45.77091" lon="6.04313">
        <ele>459.3</ele>
        <time>2000-01-01T01:55:31.000Z</time>
      </trkpt>
      <trkpt lat="45.77085" lon="6.04312">
        <ele>460</ele>
        <time>2000-01-01T01:55:41.000Z</time>
      </trkpt>
      <trkpt lat="45.77079" lon="6.04311">
        <ele>460.7</ele>
        <time>2000-01-01T01:55:51.000Z</time>
      </trkpt>
      <trkpt lat="45.77072" lon="6.04313">
        <ele>461.6</ele>
        <time>2000-01-01T01:56:01.000Z</time>
      </trkpt>
      <trkpt lat="45.77062" lon="6.04312">
        <ele>462.8</ele>
        <time>2000-01-01T01:56:11.000Z</time>
      </trkpt>
      <trkpt lat="45.77056" lon="6.04307">
        <ele>463.8</ele>
        <time>2000-01-01T01:56:21.000Z</time>
      </trkpt>
      <trkpt lat="45.77053" lon="6.04304">
        <ele>464.3</ele>
        <time>2000-01-01T01:56:31.000Z</time>
      </trkpt>
      <trkpt lat="45.77048" lon="6.04301">
        <ele>465.1</ele>
        <time>2000-01-01T01:56:41.000Z</time>
      </trkpt>
      <trkpt lat="45.77039" lon="6.04302">
        <ele>466.1</ele>
        <time>2000-01-01T01:56:51.000Z</time>
      </trkpt>
      <trkpt lat="45.77029" lon="6.04305">
        <ele>467.5</ele>
        <time>2000-01-01T01:57:01.000Z</time>
      </trkpt>
      <trkpt lat="45.77026" lon="6.04306">
        <ele>467.9</ele>
        <time>2000-01-01T01:57:11.000Z</time>
      </trkpt>
      <trkpt lat="45.77021" lon="6.04312">
        <ele>468.8</ele>
        <time>2000-01-01T01:57:21.000Z</time>
      </trkpt>
      <trkpt lat="45.77017" lon="6.04321">
        <ele>469.9</ele>
        <time>2000-01-01T01:57:31.000Z</time>
      </trkpt>
      <trkpt lat="45.77014" lon="6.04324">
        <ele>470.4</ele>
        <time>2000-01-01T01:57:41.000Z</time>
      </trkpt>
      <trkpt lat="45.77011" lon="6.04332">
        <ele>471.4</ele>
        <time>2000-01-01T01:57:51.000Z</time>
      </trkpt>
      <trkpt lat="45.77008" lon="6.04338">
        <ele>472.5</ele>
        <time>2000-01-01T01:58:01.000Z</time>
      </trkpt>
      <trkpt lat="45.77002" lon="6.04343">
        <ele>473.9</ele>
        <time>2000-01-01T01:58:11.000Z</time>
      </trkpt>
      <trkpt lat="45.76996" lon="6.04346">
        <ele>475.3</ele>
        <time>2000-01-01T01:58:21.000Z</time>
      </trkpt>
      <trkpt lat="45.7699" lon="6.04353">
        <ele>477.1</ele>
        <time>2000-01-01T01:58:31.000Z</time>
      </trkpt>
      <trkpt lat="45.76988" lon="6.04357">
        <ele>477.9</ele>
        <time>2000-01-01T01:58:41.000Z</time>
      </trkpt>
      <trkpt lat="45.76981" lon="6.04358">
        <ele>479.6</ele>
        <time>2000-01-01T01:58:51.000Z</time>
      </trkpt>
      <trkpt lat="45.76976" lon="6.04357">
        <ele>480.7</ele>
        <time>2000-01-01T01:59:01.000Z</time>
      </trkpt>
      <trkpt lat="45.76971" lon="6.0436">
        <ele>481.9</ele>
        <time>2000-01-01T01:59:11.000Z</time>
      </trkpt>
      <trkpt lat="45.76968" lon="6.04363">
        <ele>482.6</ele>
        <time>2000-01-01T01:59:21.000Z</time>
      </trkpt>
      <trkpt lat="45.76965" lon="6.04365">
        <ele>483.4</ele>
        <time>2000-01-01T01:59:31.000Z</time>
      </trkpt>
      <trkpt lat="45.76964" lon="6.04361">
        <ele>484.2</ele>
        <time>2000-01-01T01:59:41.000Z</time>
      </trkpt>
      <trkpt lat="45.76962" lon="6.04358">
        <ele>484.9</ele>
        <time>2000-01-01T01:59:51.000Z</time>
      </trkpt>
      <trkpt lat="45.76958" lon="6.04365">
        <ele>486.3</ele>
        <time>2000-01-01T02:00:01.000Z</time>
      </trkpt>
      <trkpt lat="45.76956" lon="6.04373">
        <ele>488</ele>
        <time>2000-01-01T02:00:11.000Z</time>
      </trkpt>
      <trkpt lat="45.76956" lon="6.04383">
        <ele>489.2</ele>
        <time>2000-01-01T02:00:21.000Z</time>
      </trkpt>
      <trkpt lat="45.76956" lon="6.04387">
        <ele>489.7</ele>
        <time>2000-01-01T02:00:31.000Z</time>
      </trkpt>
      <trkpt lat="45.7696" lon="6.04389">
        <ele>490.4</ele>
        <time>2000-01-01T02:00:41.000Z</time>
      </trkpt>
      <trkpt lat="45.76958" lon="6.04385">
        <ele>491.1</ele>
        <time>2000-01-01T02:00:51.000Z</time>
      </trkpt>
      <trkpt lat="45.76954" lon="6.04382">
        <ele>492.4</ele>
        <time>2000-01-01T02:01:01.000Z</time>
      </trkpt>
      <trkpt lat="45.76945" lon="6.04386">
        <ele>494.3</ele>
        <time>2000-01-01T02:01:11.000Z</time>
      </trkpt>
      <trkpt lat="45.76937" lon="6.04389">
        <ele>495.3</ele>
        <time>2000-01-01T02:01:21.000Z</time>
      </trkpt>
      <trkpt lat="45.7693" lon="6.04392">
        <ele>496.4</ele>
        <time>2000-01-01T02:01:31.000Z</time>
      </trkpt>
      <trkpt lat="45.76926" lon="6.04394">
        <ele>497.3</ele>
        <time>2000-01-01T02:01:41.000Z</time>
      </trkpt>
      <trkpt lat="45.76918" lon="6.04391">
        <ele>498.9</ele>
        <time>2000-01-01T02:01:51.000Z</time>
      </trkpt>
      <trkpt lat="45.76914" lon="6.04388">
        <ele>499.8</ele>
        <time>2000-01-01T02:02:01.000Z</time>
      </trkpt>
      <trkpt lat="45.7691" lon="6.04387">
        <ele>500.4</ele>
        <time>2000-01-01T02:02:11.000Z</time>
      </trkpt>
      <trkpt lat="45.76907" lon="6.04389">
        <ele>501.1</ele>
        <time>2000-01-01T02:02:21.000Z</time>
      </trkpt>
      <trkpt lat="45.76904" lon="6.0438">
        <ele>502.7</ele>
        <time>2000-01-01T02:02:31.000Z</time>
      </trkpt>
      <trkpt lat="45.76903" lon="6.04376">
        <ele>503.3</ele>
        <time>2000-01-01T02:02:41.000Z</time>
      </trkpt>
      <trkpt lat="45.76897" lon="6.04376">
        <ele>504.8</ele>
        <time>2000-01-01T02:02:51.000Z</time>
      </trkpt>
      <trkpt lat="45.76888" lon="6.04378">
        <ele>506.7</ele>
        <time>2000-01-01T02:03:01.000Z</time>
      </trkpt>
      <trkpt lat="45.7688" lon="6.04383">
        <ele>508.9</ele>
        <time>2000-01-01T02:03:11.000Z</time>
      </trkpt>
      <trkpt lat="45.76878" lon="6.04389">
        <ele>510.3</ele>
        <time>2000-01-01T02:03:21.000Z</time>
      </trkpt>
      <trkpt lat="45.76876" lon="6.04398">
        <ele>511.9</ele>
        <time>2000-01-01T02:03:31.000Z</time>
      </trkpt>
      <trkpt lat="45.76872" lon="6.04406">
        <ele>513.6</ele>
        <time>2000-01-01T02:03:41.000Z</time>
      </trkpt>
      <trkpt lat="45.76869" lon="6.04413">
        <ele>514.9</ele>
        <time>2000-01-01T02:03:51.000Z</time>
      </trkpt>
      <trkpt lat="45.76867" lon="6.04416">
        <ele>515.4</ele>
        <time>2000-01-01T02:04:01.000Z</time>
      </trkpt>
      <trkpt lat="45.76867" lon="6.04421">
        <ele>515.9</ele>
        <time>2000-01-01T02:04:11.000Z</time>
      </trkpt>
      <trkpt lat="45.76869" lon="6.0443">
        <ele>517</ele>
        <time>2000-01-01T02:04:21.000Z</time>
      </trkpt>
      <trkpt lat="45.76868" lon="6.04436">
        <ele>517.8</ele>
        <time>2000-01-01T02:04:31.000Z</time>
      </trkpt>
      <trkpt lat="45.76871" lon="6.04446">
        <ele>519.4</ele>
        <time>2000-01-01T02:04:41.000Z</time>
      </trkpt>
      <trkpt lat="45.76876" lon="6.0445">
        <ele>520.6</ele>
        <time>2000-01-01T02:04:51.000Z</time>
      </trkpt>
      <trkpt lat="45.76881" lon="6.04454">
        <ele>521.9</ele>
        <time>2000-01-01T02:05:01.000Z</time>
      </trkpt>
      <trkpt lat="45.76884" lon="6.04456">
        <ele>522.7</ele>
        <time>2000-01-01T02:05:11.000Z</time>
      </trkpt>
      <trkpt lat="45.76888" lon="6.04464">
        <ele>522.5</ele>
        <time>2000-01-01T02:05:21.000Z</time>
      </trkpt>
      <trkpt lat="45.76889" lon="6.04476">
        <ele>520.9</ele>
        <time>2000-01-01T02:05:31.000Z</time>
      </trkpt>
      <trkpt lat="45.76889" lon="6.04489">
        <ele>519.4</ele>
        <time>2000-01-01T02:05:41.000Z</time>
      </trkpt>
      <trkpt lat="45.76888" lon="6.045">
        <ele>517.8</ele>
        <time>2000-01-01T02:05:51.000Z</time>
      </trkpt>
      <trkpt lat="45.76885" lon="6.04513">
        <ele>515.6</ele>
        <time>2000-01-01T02:06:01.000Z</time>
      </trkpt>
      <trkpt lat="45.76885" lon="6.04525">
        <ele>513.7</ele>
        <time>2000-01-01T02:06:11.000Z</time>
      </trkpt>
      <trkpt lat="45.76886" lon="6.0453">
        <ele>512.7</ele>
        <time>2000-01-01T02:06:21.000Z</time>
      </trkpt>
      <trkpt lat="45.76888" lon="6.04534">
        <ele>512</ele>
        <time>2000-01-01T02:06:31.000Z</time>
      </trkpt>
      <trkpt lat="45.76894" lon="6.04534">
        <ele>510.3</ele>
        <time>2000-01-01T02:06:41.000Z</time>
      </trkpt>
      <trkpt lat="45.76901" lon="6.04525">
        <ele>507.9</ele>
        <time>2000-01-01T02:06:51.000Z</time>
      </trkpt>
      <trkpt lat="45.76907" lon="6.04518">
        <ele>505.5</ele>
        <time>2000-01-01T02:07:01.000Z</time>
      </trkpt>
      <trkpt lat="45.76913" lon="6.04513">
        <ele>503.2</ele>
        <time>2000-01-01T02:07:11.000Z</time>
      </trkpt>
      <trkpt lat="45.7692" lon="6.0451">
        <ele>501</ele>
        <time>2000-01-01T02:07:21.000Z</time>
      </trkpt>
      <trkpt lat="45.76922" lon="6.04509">
        <ele>499.9</ele>
        <time>2000-01-01T02:07:31.000Z</time>
      </trkpt>
      <trkpt lat="45.76925" lon="6.04509">
        <ele>499.4</ele>
        <time>2000-01-01T02:07:41.000Z</time>
      </trkpt>
      <trkpt lat="45.7693" lon="6.0451">
        <ele>498.5</ele>
        <time>2000-01-01T02:07:51.000Z</time>
      </trkpt>
      <trkpt lat="45.76933" lon="6.0452">
        <ele>496.9</ele>
        <time>2000-01-01T02:08:01.000Z</time>
      </trkpt>
      <trkpt lat="45.7693" lon="6.04529">
        <ele>495.7</ele>
        <time>2000-01-01T02:08:11.000Z</time>
      </trkpt>
      <trkpt lat="45.76929" lon="6.04537">
        <ele>494.6</ele>
        <time>2000-01-01T02:08:21.000Z</time>
      </trkpt>
      <trkpt lat="45.76926" lon="6.04544">
        <ele>493.6</ele>
        <time>2000-01-01T02:08:31.000Z</time>
      </trkpt>
      <trkpt lat="45.76921" lon="6.04553">
        <ele>492.2</ele>
        <time>2000-01-01T02:08:41.000Z</time>
      </trkpt>
      <trkpt lat="45.76918" lon="6.0456">
        <ele>491.3</ele>
        <time>2000-01-01T02:08:51.000Z</time>
      </trkpt>
      <trkpt lat="45.76914" lon="6.04568">
        <ele>490.3</ele>
        <time>2000-01-01T02:09:01.000Z</time>
      </trkpt>
      <trkpt lat="45.76913" lon="6.04577">
        <ele>489.3</ele>
        <time>2000-01-01T02:09:11.000Z</time>
      </trkpt>
      <trkpt lat="45.76912" lon="6.04584">
        <ele>488.6</ele>
        <time>2000-01-01T02:09:21.000Z</time>
      </trkpt>
      <trkpt lat="45.7691" lon="6.0459">
        <ele>487.7</ele>
        <time>2000-01-01T02:09:31.000Z</time>
      </trkpt>
      <trkpt lat="45.76901" lon="6.04594">
        <ele>485.8</ele>
        <time>2000-01-01T02:09:41.000Z</time>
      </trkpt>
      <trkpt lat="45.76893" lon="6.04598">
        <ele>483.9</ele>
        <time>2000-01-01T02:09:51.000Z</time>
      </trkpt>
      <trkpt lat="45.76888" lon="6.04603">
        <ele>482.7</ele>
        <time>2000-01-01T02:10:01.000Z</time>
      </trkpt>
      <trkpt lat="45.76881" lon="6.04609">
        <ele>480.7</ele>
        <time>2000-01-01T02:10:11.000Z</time>
      </trkpt>
      <trkpt lat="45.76874" lon="6.04617">
        <ele>479.4</ele>
        <time>2000-01-01T02:10:21.000Z</time>
      </trkpt>
      <trkpt lat="45.76871" lon="6.0463">
        <ele>478.2</ele>
        <time>2000-01-01T02:10:31.000Z</time>
      </trkpt>
      <trkpt lat="45.76868" lon="6.04638">
        <ele>477.3</ele>
        <time>2000-01-01T02:10:41.000Z</time>
      </trkpt>
      <trkpt lat="45.76865" lon="6.04647">
        <ele>476.5</ele>
        <time>2000-01-01T02:10:51.000Z</time>
      </trkpt>
      <trkpt lat="45.76863" lon="6.04658">
        <ele>475.7</ele>
        <time>2000-01-01T02:11:01.000Z</time>
      </trkpt>
      <trkpt lat="45.76863" lon="6.04669">
        <ele>474.9</ele>
        <time>2000-01-01T02:11:11.000Z</time>
      </trkpt>
      <trkpt lat="45.76864" lon="6.04679">
        <ele>474.2</ele>
        <time>2000-01-01T02:11:21.000Z</time>
      </trkpt>
      <trkpt lat="45.76867" lon="6.04686">
        <ele>473.6</ele>
        <time>2000-01-01T02:11:31.000Z</time>
      </trkpt>
      <trkpt lat="45.76869" lon="6.04695">
        <ele>473.2</ele>
        <time>2000-01-01T02:11:41.000Z</time>
      </trkpt>
      <trkpt lat="45.76871" lon="6.04706">
        <ele>472.8</ele>
        <time>2000-01-01T02:11:51.000Z</time>
      </trkpt>
      <trkpt lat="45.76871" lon="6.04714">
        <ele>472.1</ele>
        <time>2000-01-01T02:12:01.000Z</time>
      </trkpt>
      <trkpt lat="45.76873" lon="6.04722">
        <ele>469.7</ele>
        <time>2000-01-01T02:12:11.000Z</time>
      </trkpt>
      <trkpt lat="45.76873" lon="6.04727">
        <ele>469.2</ele>
        <time>2000-01-01T02:12:21.000Z</time>
      </trkpt>
      <trkpt lat="45.76873" lon="6.04731">
        <ele>468.6</ele>
        <time>2000-01-01T02:12:31.000Z</time>
      </trkpt>
      <trkpt lat="45.76872" lon="6.04744">
        <ele>466.4</ele>
        <time>2000-01-01T02:12:41.000Z</time>
      </trkpt>
      <trkpt lat="45.76876" lon="6.04754">
        <ele>464</ele>
        <time>2000-01-01T02:12:51.000Z</time>
      </trkpt>
      <trkpt lat="45.76879" lon="6.04764">
        <ele>461</ele>
        <time>2000-01-01T02:13:01.000Z</time>
      </trkpt>
      <trkpt lat="45.7688" lon="6.04772">
        <ele>460</ele>
        <time>2000-01-01T02:13:11.000Z</time>
      </trkpt>
      <trkpt lat="45.76879" lon="6.04783">
        <ele>459.1</ele>
        <time>2000-01-01T02:13:21.000Z</time>
      </trkpt>
      <trkpt lat="45.76878" lon="6.04791">
        <ele>459.1</ele>
        <time>2000-01-01T02:13:31.000Z</time>
      </trkpt>
      <trkpt lat="45.76876" lon="6.048">
        <ele>458.3</ele>
        <time>2000-01-01T02:13:41.000Z</time>
      </trkpt>
      <trkpt lat="45.76875" lon="6.04804">
        <ele>458</ele>
        <time>2000-01-01T02:13:51.000Z</time>
      </trkpt>
      <trkpt lat="45.76875" lon="6.04815">
        <ele>457.5</ele>
        <time>2000-01-01T02:14:01.000Z</time>
      </trkpt>
      <trkpt lat="45.76871" lon="6.04823">
        <ele>458.1</ele>
        <time>2000-01-01T02:14:11.000Z</time>
      </trkpt>
      <trkpt lat="45.7687" lon="6.04833">
        <ele>457</ele>
        <time>2000-01-01T02:14:21.000Z</time>
      </trkpt>
      <trkpt lat="45.76871" lon="6.04842">
        <ele>456.6</ele>
        <time>2000-01-01T02:14:31.000Z</time>
      </trkpt>
      <trkpt lat="45.76874" lon="6.04851">
        <ele>455.9</ele>
        <time>2000-01-01T02:14:41.000Z</time>
      </trkpt>
      <trkpt lat="45.76875" lon="6.04859">
        <ele>455.7</ele>
        <time>2000-01-01T02:14:51.000Z</time>
      </trkpt>
      <trkpt lat="45.76872" lon="6.0487">
        <ele>455.5</ele>
        <time>2000-01-01T02:15:01.000Z</time>
      </trkpt>
      <trkpt lat="45.76868" lon="6.04878">
        <ele>456.3</ele>
        <time>2000-01-01T02:15:11.000Z</time>
      </trkpt>
      <trkpt lat="45.76861" lon="6.04883">
        <ele>457.3</ele>
        <time>2000-01-01T02:15:21.000Z</time>
      </trkpt>
      <trkpt lat="45.76854" lon="6.04887">
        <ele>458.8</ele>
        <time>2000-01-01T02:15:31.000Z</time>
      </trkpt>
      <trkpt lat="45.76851" lon="6.04896">
        <ele>460.2</ele>
        <time>2000-01-01T02:15:41.000Z</time>
      </trkpt>
      <trkpt lat="45.76848" lon="6.04904">
        <ele>459.8</ele>
        <time>2000-01-01T02:15:51.000Z</time>
      </trkpt>
      <trkpt lat="45.76844" lon="6.04911">
        <ele>460.8</ele>
        <time>2000-01-01T02:16:01.000Z</time>
      </trkpt>
      <trkpt lat="45.76839" lon="6.0492">
        <ele>461.1</ele>
        <time>2000-01-01T02:16:11.000Z</time>
      </trkpt>
      <trkpt lat="45.7684" lon="6.04931">
        <ele>460.4</ele>
        <time>2000-01-01T02:16:21.000Z</time>
      </trkpt>
      <trkpt lat="45.76845" lon="6.04939">
        <ele>459.7</ele>
        <time>2000-01-01T02:16:31.000Z</time>
      </trkpt>
      <trkpt lat="45.76852" lon="6.04943">
        <ele>459</ele>
        <time>2000-01-01T02:16:41.000Z</time>
      </trkpt>
      <trkpt lat="45.76858" lon="6.04945">
        <ele>458.7</ele>
        <time>2000-01-01T02:16:51.000Z</time>
      </trkpt>
      <trkpt lat="45.76862" lon="6.04947">
        <ele>458.6</ele>
        <time>2000-01-01T02:17:01.000Z</time>
      </trkpt>
      <trkpt lat="45.76869" lon="6.04954">
        <ele>458.4</ele>
        <time>2000-01-01T02:17:11.000Z</time>
      </trkpt>
      <trkpt lat="45.76874" lon="6.04963">
        <ele>458.2</ele>
        <time>2000-01-01T02:17:21.000Z</time>
      </trkpt>
      <trkpt lat="45.76879" lon="6.04972">
        <ele>458</ele>
        <time>2000-01-01T02:17:31.000Z</time>
      </trkpt>
      <trkpt lat="45.76886" lon="6.04983">
        <ele>457.7</ele>
        <time>2000-01-01T02:17:41.000Z</time>
      </trkpt>
      <trkpt lat="45.76891" lon="6.04988">
        <ele>457.6</ele>
        <time>2000-01-01T02:17:51.000Z</time>
      </trkpt>
      <trkpt lat="45.76895" lon="6.04994">
        <ele>457.4</ele>
        <time>2000-01-01T02:18:01.000Z</time>
      </trkpt>
      <trkpt lat="45.76896" lon="6.05003">
        <ele>457.2</ele>
        <time>2000-01-01T02:18:11.000Z</time>
      </trkpt>
      <trkpt lat="45.76893" lon="6.05011">
        <ele>457</ele>
        <time>2000-01-01T02:18:21.000Z</time>
      </trkpt>
      <trkpt lat="45.76887" lon="6.0502">
        <ele>456.9</ele>
        <time>2000-01-01T02:18:31.000Z</time>
      </trkpt>
      <trkpt lat="45.7688" lon="6.05026">
        <ele>456.9</ele>
        <time>2000-01-01T02:18:41.000Z</time>
      </trkpt>
      <trkpt lat="45.76874" lon="6.05033">
        <ele>456.9</ele>
        <time>2000-01-01T02:18:51.000Z</time>
      </trkpt>
      <trkpt lat="45.76869" lon="6.05039">
        <ele>457</ele>
        <time>2000-01-01T02:19:01.000Z</time>
      </trkpt>
      <trkpt lat="45.76864" lon="6.05048">
        <ele>457.2</ele>
        <time>2000-01-01T02:19:11.000Z</time>
      </trkpt>
      <trkpt lat="45.76857" lon="6.05054">
        <ele>457.4</ele>
        <time>2000-01-01T02:19:21.000Z</time>
      </trkpt>
      <trkpt lat="45.76853" lon="6.05062">
        <ele>457.6</ele>
        <time>2000-01-01T02:19:31.000Z</time>
      </trkpt>
      <trkpt lat="45.7685" lon="6.05074">
        <ele>457.4</ele>
        <time>2000-01-01T02:19:41.000Z</time>
      </trkpt>
      <trkpt lat="45.76847" lon="6.05081">
        <ele>457.2</ele>
        <time>2000-01-01T02:19:51.000Z</time>
      </trkpt>
      <trkpt lat="45.76845" lon="6.05089">
        <ele>457</ele>
        <time>2000-01-01T02:20:01.000Z</time>
      </trkpt>
      <trkpt lat="45.76847" lon="6.05103">
        <ele>457</ele>
        <time>2000-01-01T02:20:11.000Z</time>
      </trkpt>
      <trkpt lat="45.76848" lon="6.05114">
        <ele>457.2</ele>
        <time>2000-01-01T02:20:21.000Z</time>
      </trkpt>
      <trkpt lat="45.76841" lon="6.05125">
        <ele>457.6</ele>
        <time>2000-01-01T02:20:31.000Z</time>
      </trkpt>
      <trkpt lat="45.76837" lon="6.05135">
        <ele>457.6</ele>
        <time>2000-01-01T02:20:41.000Z</time>
      </trkpt>
      <trkpt lat="45.76835" lon="6.05146">
        <ele>457.6</ele>
        <time>2000-01-01T02:20:51.000Z</time>
      </trkpt>
      <trkpt lat="45.7683" lon="6.05156">
        <ele>457.6</ele>
        <time>2000-01-01T02:21:01.000Z</time>
      </trkpt>
      <trkpt lat="45.76826" lon="6.05161">
        <ele>457.8</ele>
        <time>2000-01-01T02:21:11.000Z</time>
      </trkpt>
      <trkpt lat="45.76819" lon="6.05172">
        <ele>457.3</ele>
        <time>2000-01-01T02:21:21.000Z</time>
      </trkpt>
      <trkpt lat="45.76817" lon="6.05178">
        <ele>457.1</ele>
        <time>2000-01-01T02:21:31.000Z</time>
      </trkpt>
      <trkpt lat="45.76815" lon="6.05181">
        <ele>457.1</ele>
        <time>2000-01-01T02:21:41.000Z</time>
      </trkpt>
      <trkpt lat="45.76811" lon="6.05184">
        <ele>457</ele>
        <time>2000-01-01T02:21:51.000Z</time>
      </trkpt>
      <trkpt lat="45.76808" lon="6.05183">
        <ele>456.9</ele>
        <time>2000-01-01T02:22:01.000Z</time>
      </trkpt>
      <trkpt lat="45.76804" lon="6.05185">
        <ele>456.9</ele>
        <time>2000-01-01T02:22:11.000Z</time>
      </trkpt>
      <trkpt lat="45.768" lon="6.05194">
        <ele>457.1</ele>
        <time>2000-01-01T02:22:21.000Z</time>
      </trkpt>
      <trkpt lat="45.768" lon="6.05204">
        <ele>457.4</ele>
        <time>2000-01-01T02:22:31.000Z</time>
      </trkpt>
      <trkpt lat="45.76798" lon="6.05207">
        <ele>457.5</ele>
        <time>2000-01-01T02:22:41.000Z</time>
      </trkpt>
      <trkpt lat="45.76791" lon="6.05207">
        <ele>457.7</ele>
        <time>2000-01-01T02:22:51.000Z</time>
      </trkpt>
      <trkpt lat="45.76786" lon="6.05201">
        <ele>457.8</ele>
        <time>2000-01-01T02:23:01.000Z</time>
      </trkpt>
      <trkpt lat="45.76781" lon="6.05196">
        <ele>457.8</ele>
        <time>2000-01-01T02:23:11.000Z</time>
      </trkpt>
      <trkpt lat="45.76777" lon="6.05191">
        <ele>457.7</ele>
        <time>2000-01-01T02:23:21.000Z</time>
      </trkpt>
      <trkpt lat="45.76768" lon="6.05184">
        <ele>457.5</ele>
        <time>2000-01-01T02:23:31.000Z</time>
      </trkpt>
      <trkpt lat="45.76761" lon="6.05179">
        <ele>457.3</ele>
        <time>2000-01-01T02:23:41.000Z</time>
      </trkpt>
      <trkpt lat="45.76754" lon="6.05174">
        <ele>457.2</ele>
        <time>2000-01-01T02:23:51.000Z</time>
      </trkpt>
      <trkpt lat="45.76745" lon="6.05171">
        <ele>457.3</ele>
        <time>2000-01-01T02:24:01.000Z</time>
      </trkpt>
      <trkpt lat="45.76742" lon="6.05171">
        <ele>457.4</ele>
        <time>2000-01-01T02:24:11.000Z</time>
      </trkpt>
      <trkpt lat="45.76735" lon="6.05179">
        <ele>458.5</ele>
        <time>2000-01-01T02:24:21.000Z</time>
      </trkpt>
      <trkpt lat="45.7673" lon="6.05192">
        <ele>458.6</ele>
        <time>2000-01-01T02:24:31.000Z</time>
      </trkpt>
      <trkpt lat="45.76726" lon="6.05199">
        <ele>458.3</ele>
        <time>2000-01-01T02:24:41.000Z</time>
      </trkpt>
      <trkpt lat="45.76722" lon="6.05206">
        <ele>458.2</ele>
        <time>2000-01-01T02:24:51.000Z</time>
      </trkpt>
      <trkpt lat="45.7672" lon="6.0521">
        <ele>458.1</ele>
        <time>2000-01-01T02:25:01.000Z</time>
      </trkpt>
      <trkpt lat="45.76718" lon="6.05215">
        <ele>458</ele>
        <time>2000-01-01T02:25:11.000Z</time>
      </trkpt>
      <trkpt lat="45.76714" lon="6.05219">
        <ele>457.9</ele>
        <time>2000-01-01T02:25:21.000Z</time>
      </trkpt>
      <trkpt lat="45.76707" lon="6.05219">
        <ele>457.5</ele>
        <time>2000-01-01T02:25:31.000Z</time>
      </trkpt>
      <trkpt lat="45.76702" lon="6.05219">
        <ele>457.4</ele>
        <time>2000-01-01T02:25:41.000Z</time>
      </trkpt>
      <trkpt lat="45.76695" lon="6.05223">
        <ele>457.3</ele>
        <time>2000-01-01T02:25:51.000Z</time>
      </trkpt>
      <trkpt lat="45.76688" lon="6.05227">
        <ele>457.5</ele>
        <time>2000-01-01T02:26:01.000Z</time>
      </trkpt>
      <trkpt lat="45.76681" lon="6.05232">
        <ele>458.1</ele>
        <time>2000-01-01T02:26:11.000Z</time>
      </trkpt>
      <trkpt lat="45.76672" lon="6.05235">
        <ele>458.2</ele>
        <time>2000-01-01T02:26:21.000Z</time>
      </trkpt>
      <trkpt lat="45.76664" lon="6.05243">
        <ele>459.2</ele>
        <time>2000-01-01T02:26:31.000Z</time>
      </trkpt>
      <trkpt lat="45.76657" lon="6.05252">
        <ele>459.9</ele>
        <time>2000-01-01T02:26:41.000Z</time>
      </trkpt>
      <trkpt lat="45.76651" lon="6.05264">
        <ele>460.6</ele>
        <time>2000-01-01T02:26:51.000Z</time>
      </trkpt>
      <trkpt lat="45.76648" lon="6.05275">
        <ele>461.6</ele>
        <time>2000-01-01T02:27:01.000Z</time>
      </trkpt>
      <trkpt lat="45.76646" lon="6.05283">
        <ele>462.6</ele>
        <time>2000-01-01T02:27:11.000Z</time>
      </trkpt>
      <trkpt lat="45.76647" lon="6.05292">
        <ele>463.6</ele>
        <time>2000-01-01T02:27:21.000Z</time>
      </trkpt>
      <trkpt lat="45.76648" lon="6.05297">
        <ele>464</ele>
        <time>2000-01-01T02:27:31.000Z</time>
      </trkpt>
      <trkpt lat="45.76649" lon="6.05304">
        <ele>464.5</ele>
        <time>2000-01-01T02:27:41.000Z</time>
      </trkpt>
      <trkpt lat="45.76641" lon="6.05307">
        <ele>465.3</ele>
        <time>2000-01-01T02:27:51.000Z</time>
      </trkpt>
      <trkpt lat="45.76633" lon="6.05308">
        <ele>465.3</ele>
        <time>2000-01-01T02:28:01.000Z</time>
      </trkpt>
      <trkpt lat="45.76626" lon="6.05314">
        <ele>465.7</ele>
        <time>2000-01-01T02:28:11.000Z</time>
      </trkpt>
      <trkpt lat="45.7662" lon="6.0532">
        <ele>467.3</ele>
        <time>2000-01-01T02:28:21.000Z</time>
      </trkpt>
      <trkpt lat="45.76611" lon="6.05323">
        <ele>466.8</ele>
        <time>2000-01-01T02:28:31.000Z</time>
      </trkpt>
      <trkpt lat="45.76604" lon="6.05327">
        <ele>465.6</ele>
        <time>2000-01-01T02:28:41.000Z</time>
      </trkpt>
      <trkpt lat="45.76599" lon="6.05333">
        <ele>465.4</ele>
        <time>2000-01-01T02:28:51.000Z</time>
      </trkpt>
      <trkpt lat="45.76594" lon="6.0534">
        <ele>466</ele>
        <time>2000-01-01T02:29:01.000Z</time>
      </trkpt>
      <trkpt lat="45.7659" lon="6.05347">
        <ele>466.6</ele>
        <time>2000-01-01T02:29:11.000Z</time>
      </trkpt>
      <trkpt lat="45.76584" lon="6.05354">
        <ele>467.8</ele>
        <time>2000-01-01T02:29:21.000Z</time>
      </trkpt>
      <trkpt lat="45.7658" lon="6.05355">
        <ele>468.6</ele>
        <time>2000-01-01T02:29:31.000Z</time>
      </trkpt>
      <trkpt lat="45.76576" lon="6.05354">
        <ele>469.5</ele>
        <time>2000-01-01T02:29:41.000Z</time>
      </trkpt>
      <trkpt lat="45.76569" lon="6.0536">
        <ele>470.8</ele>
        <time>2000-01-01T02:29:51.000Z</time>
      </trkpt>
      <trkpt lat="45.76568" lon="6.05363">
        <ele>471.4</ele>
        <time>2000-01-01T02:30:01.000Z</time>
      </trkpt>
      <trkpt lat="45.76567" lon="6.05368">
        <ele>471.6</ele>
        <time>2000-01-01T02:30:11.000Z</time>
      </trkpt>
      <trkpt lat="45.76559" lon="6.05372">
        <ele>472.2</ele>
        <time>2000-01-01T02:30:21.000Z</time>
      </trkpt>
      <trkpt lat="45.76555" lon="6.05373">
        <ele>473.1</ele>
        <time>2000-01-01T02:30:31.000Z</time>
      </trkpt>
      <trkpt lat="45.76553" lon="6.05379">
        <ele>474.1</ele>
        <time>2000-01-01T02:30:41.000Z</time>
      </trkpt>
      <trkpt lat="45.76554" lon="6.05389">
        <ele>475</ele>
        <time>2000-01-01T02:30:51.000Z</time>
      </trkpt>
      <trkpt lat="45.76558" lon="6.05397">
        <ele>474.7</ele>
        <time>2000-01-01T02:31:01.000Z</time>
      </trkpt>
      <trkpt lat="45.76561" lon="6.05404">
        <ele>474.4</ele>
        <time>2000-01-01T02:31:11.000Z</time>
      </trkpt>
      <trkpt lat="45.76564" lon="6.05409">
        <ele>474.2</ele>
        <time>2000-01-01T02:31:21.000Z</time>
      </trkpt>
      <trkpt lat="45.76563" lon="6.05418">
        <ele>473.7</ele>
        <time>2000-01-01T02:31:31.000Z</time>
      </trkpt>
      <trkpt lat="45.76558" lon="6.05425">
        <ele>473.2</ele>
        <time>2000-01-01T02:31:41.000Z</time>
      </trkpt>
      <trkpt lat="45.76554" lon="6.05433">
        <ele>473</ele>
        <time>2000-01-01T02:31:51.000Z</time>
      </trkpt>
      <trkpt lat="45.76551" lon="6.0544">
        <ele>473</ele>
        <time>2000-01-01T02:32:01.000Z</time>
      </trkpt>
      <trkpt lat="45.76548" lon="6.05442">
        <ele>473.1</ele>
        <time>2000-01-01T02:32:11.000Z</time>
      </trkpt>
      <trkpt lat="45.76549" lon="6.05448">
        <ele>473.2</ele>
        <time>2000-01-01T02:32:21.000Z</time>
      </trkpt>
      <trkpt lat="45.76551" lon="6.0545">
        <ele>473.2</ele>
        <time>2000-01-01T02:32:31.000Z</time>
      </trkpt>
      <trkpt lat="45.76549" lon="6.05459">
        <ele>473.4</ele>
        <time>2000-01-01T02:32:41.000Z</time>
      </trkpt>
      <trkpt lat="45.76543" lon="6.05466">
        <ele>473.6</ele>
        <time>2000-01-01T02:32:51.000Z</time>
      </trkpt>
      <trkpt lat="45.76542" lon="6.0547">
        <ele>473.6</ele>
        <time>2000-01-01T02:33:01.000Z</time>
      </trkpt>
      <trkpt lat="45.76538" lon="6.05469">
        <ele>473.7</ele>
        <time>2000-01-01T02:33:11.000Z</time>
      </trkpt>
      <trkpt lat="45.7653" lon="6.0546">
        <ele>474.2</ele>
        <time>2000-01-01T02:33:21.000Z</time>
      </trkpt>
      <trkpt lat="45.76529" lon="6.05456">
        <ele>474.8</ele>
        <time>2000-01-01T02:33:31.000Z</time>
      </trkpt>
      <trkpt lat="45.76523" lon="6.05454">
        <ele>475.9</ele>
        <time>2000-01-01T02:33:41.000Z</time>
      </trkpt>
      <trkpt lat="45.76517" lon="6.05452">
        <ele>477</ele>
        <time>2000-01-01T02:33:51.000Z</time>
      </trkpt>
      <trkpt lat="45.7651" lon="6.05452">
        <ele>478.6</ele>
        <time>2000-01-01T02:34:01.000Z</time>
      </trkpt>
      <trkpt lat="45.76506" lon="6.05453">
        <ele>479.5</ele>
        <time>2000-01-01T02:34:11.000Z</time>
      </trkpt>
      <trkpt lat="45.76501" lon="6.05454">
        <ele>480.9</ele>
        <time>2000-01-01T02:34:21.000Z</time>
      </trkpt>
      <trkpt lat="45.76498" lon="6.05453">
        <ele>481.7</ele>
        <time>2000-01-01T02:34:31.000Z</time>
      </trkpt>
      <trkpt lat="45.76496" lon="6.05449">
        <ele>482.5</ele>
        <time>2000-01-01T02:34:41.000Z</time>
      </trkpt>
      <trkpt lat="45.76493" lon="6.05448">
        <ele>483.6</ele>
        <time>2000-01-01T02:34:51.000Z</time>
      </trkpt>
      <trkpt lat="45.76491" lon="6.05441">
        <ele>486</ele>
        <time>2000-01-01T02:35:01.000Z</time>
      </trkpt>
      <trkpt lat="45.76488" lon="6.0544">
        <ele>487.3</ele>
        <time>2000-01-01T02:35:11.000Z</time>
      </trkpt>
      <trkpt lat="45.76484" lon="6.05437">
        <ele>489.3</ele>
        <time>2000-01-01T02:35:21.000Z</time>
      </trkpt>
      <trkpt lat="45.76477" lon="6.05437">
        <ele>492.1</ele>
        <time>2000-01-01T02:35:31.000Z</time>
      </trkpt>
      <trkpt lat="45.76474" lon="6.05438">
        <ele>493.6</ele>
        <time>2000-01-01T02:35:41.000Z</time>
      </trkpt>
      <trkpt lat="45.76467" lon="6.05438">
        <ele>496.2</ele>
        <time>2000-01-01T02:35:51.000Z</time>
      </trkpt>
      <trkpt lat="45.76463" lon="6.05439">
        <ele>497.7</ele>
        <time>2000-01-01T02:36:01.000Z</time>
      </trkpt>
      <trkpt lat="45.7647" lon="6.05441">
        <ele>500.8</ele>
        <time>2000-01-01T02:36:11.000Z</time>
      </trkpt>
      <trkpt lat="45.76473" lon="6.05442">
        <ele>502.3</ele>
        <time>2000-01-01T02:36:21.000Z</time>
      </trkpt>
      <trkpt lat="45.76478" lon="6.05452">
        <ele>502.2</ele>
        <time>2000-01-01T02:36:31.000Z</time>
      </trkpt>
      <trkpt lat="45.76477" lon="6.05456">
        <ele>502</ele>
        <time>2000-01-01T02:36:41.000Z</time>
      </trkpt>
      <trkpt lat="45.76476" lon="6.05459">
        <ele>503.4</ele>
        <time>2000-01-01T02:36:51.000Z</time>
      </trkpt>
      <trkpt lat="45.76478" lon="6.05468">
        <ele>501.5</ele>
        <time>2000-01-01T02:37:01.000Z</time>
      </trkpt>
      <trkpt lat="45.76478" lon="6.05472">
        <ele>501.4</ele>
        <time>2000-01-01T02:37:11.000Z</time>
      </trkpt>
      <trkpt lat="45.76481" lon="6.05478">
        <ele>499.9</ele>
        <time>2000-01-01T02:37:21.000Z</time>
      </trkpt>
      <trkpt lat="45.76481" lon="6.05483">
        <ele>499.9</ele>
        <time>2000-01-01T02:37:31.000Z</time>
      </trkpt>
      <trkpt lat="45.76485" lon="6.05485">
        <ele>498.5</ele>
        <time>2000-01-01T02:37:41.000Z</time>
      </trkpt>
      <trkpt lat="45.76487" lon="6.05488">
        <ele>497.2</ele>
        <time>2000-01-01T02:37:51.000Z</time>
      </trkpt>
      <trkpt lat="45.76487" lon="6.05493">
        <ele>497.4</ele>
        <time>2000-01-01T02:38:01.000Z</time>
      </trkpt>
      <trkpt lat="45.76481" lon="6.05497">
        <ele>500.2</ele>
        <time>2000-01-01T02:38:11.000Z</time>
      </trkpt>
      <trkpt lat="45.76478" lon="6.05497">
        <ele>501.6</ele>
        <time>2000-01-01T02:38:21.000Z</time>
      </trkpt>
      <trkpt lat="45.76476" lon="6.05499">
        <ele>503.3</ele>
        <time>2000-01-01T02:38:31.000Z</time>
      </trkpt>
      <trkpt lat="45.76479" lon="6.05503">
        <ele>501.8</ele>
        <time>2000-01-01T02:38:41.000Z</time>
      </trkpt>
      <trkpt lat="45.76476" lon="6.05501">
        <ele>503.4</ele>
        <time>2000-01-01T02:38:51.000Z</time>
      </trkpt>
      <trkpt lat="45.76475" lon="6.05497">
        <ele>503.1</ele>
        <time>2000-01-01T02:39:01.000Z</time>
      </trkpt>
      <trkpt lat="45.76472" lon="6.055">
        <ele>504.7</ele>
        <time>2000-01-01T02:39:11.000Z</time>
      </trkpt>
      <trkpt lat="45.76474" lon="6.0551">
        <ele>503.4</ele>
        <time>2000-01-01T02:39:21.000Z</time>
      </trkpt>
      <trkpt lat="45.76474" lon="6.05516">
        <ele>505.1</ele>
        <time>2000-01-01T02:39:31.000Z</time>
      </trkpt>
      <trkpt lat="45.76471" lon="6.05518">
        <ele>506.6</ele>
        <time>2000-01-01T02:39:41.000Z</time>
      </trkpt>
      <trkpt lat="45.76466" lon="6.05524">
        <ele>508</ele>
        <time>2000-01-01T02:39:51.000Z</time>
      </trkpt>
      <trkpt lat="45.76463" lon="6.05526">
        <ele>509.4</ele>
        <time>2000-01-01T02:40:01.000Z</time>
      </trkpt>
      <trkpt lat="45.76457" lon="6.0553">
        <ele>512</ele>
        <time>2000-01-01T02:40:11.000Z</time>
      </trkpt>
      <trkpt lat="45.76453" lon="6.05528">
        <ele>514.5</ele>
        <time>2000-01-01T02:40:21.000Z</time>
      </trkpt>
      <trkpt lat="45.7645" lon="6.05526">
        <ele>515.9</ele>
        <time>2000-01-01T02:40:31.000Z</time>
      </trkpt>
      <trkpt lat="45.76447" lon="6.05527">
        <ele>517.1</ele>
        <time>2000-01-01T02:40:41.000Z</time>
      </trkpt>
      <trkpt lat="45.76447" lon="6.05531">
        <ele>515.5</ele>
        <time>2000-01-01T02:40:51.000Z</time>
      </trkpt>
      <trkpt lat="45.76445" lon="6.0554">
        <ele>516.7</ele>
        <time>2000-01-01T02:41:01.000Z</time>
      </trkpt>
      <trkpt lat="45.76445" lon="6.05545">
        <ele>516.7</ele>
        <time>2000-01-01T02:41:11.000Z</time>
      </trkpt>
      <trkpt lat="45.7644" lon="6.05538">
        <ele>519.4</ele>
        <time>2000-01-01T02:41:21.000Z</time>
      </trkpt>
      <trkpt lat="45.76439" lon="6.05534">
        <ele>519.5</ele>
        <time>2000-01-01T02:41:31.000Z</time>
      </trkpt>
      <trkpt lat="45.76438" lon="6.05532">
        <ele>522.1</ele>
        <time>2000-01-01T02:41:41.000Z</time>
      </trkpt>
      <trkpt lat="45.76437" lon="6.05529">
        <ele>521.6</ele>
        <time>2000-01-01T02:41:51.000Z</time>
      </trkpt>
      <trkpt lat="45.76435" lon="6.05526">
        <ele>520.7</ele>
        <time>2000-01-01T02:42:01.000Z</time>
      </trkpt>
      <trkpt lat="45.76432" lon="6.05526">
        <ele>523.2</ele>
        <time>2000-01-01T02:42:11.000Z</time>
      </trkpt>
      <trkpt lat="45.76426" lon="6.05535">
        <ele>525.2</ele>
        <time>2000-01-01T02:42:21.000Z</time>
      </trkpt>
      <trkpt lat="45.76422" lon="6.05545">
        <ele>526</ele>
        <time>2000-01-01T02:42:31.000Z</time>
      </trkpt>
      <trkpt lat="45.76418" lon="6.05551">
        <ele>527</ele>
        <time>2000-01-01T02:42:41.000Z</time>
      </trkpt>
      <trkpt lat="45.76416" lon="6.05553">
        <ele>528</ele>
        <time>2000-01-01T02:42:51.000Z</time>
      </trkpt>
      <trkpt lat="45.76411" lon="6.05553">
        <ele>529.3</ele>
        <time>2000-01-01T02:43:01.000Z</time>
      </trkpt>
      <trkpt lat="45.76408" lon="6.05546">
        <ele>531.4</ele>
        <time>2000-01-01T02:43:11.000Z</time>
      </trkpt>
      <trkpt lat="45.76409" lon="6.05541">
        <ele>530.7</ele>
        <time>2000-01-01T02:43:21.000Z</time>
      </trkpt>
      <trkpt lat="45.76409" lon="6.05536">
        <ele>530.8</ele>
        <time>2000-01-01T02:43:31.000Z</time>
      </trkpt>
      <trkpt lat="45.76407" lon="6.05533">
        <ele>531.9</ele>
        <time>2000-01-01T02:43:41.000Z</time>
      </trkpt>
      <trkpt lat="45.76404" lon="6.05533">
        <ele>532.8</ele>
        <time>2000-01-01T02:43:51.000Z</time>
      </trkpt>
      <trkpt lat="45.76401" lon="6.05537">
        <ele>533.4</ele>
        <time>2000-01-01T02:44:01.000Z</time>
      </trkpt>
      <trkpt lat="45.76402" lon="6.05541">
        <ele>533.1</ele>
        <time>2000-01-01T02:44:11.000Z</time>
      </trkpt>
      <trkpt lat="45.76395" lon="6.05544">
        <ele>534.7</ele>
        <time>2000-01-01T02:44:21.000Z</time>
      </trkpt>
      <trkpt lat="45.76388" lon="6.05541">
        <ele>536.3</ele>
        <time>2000-01-01T02:44:31.000Z</time>
      </trkpt>
      <trkpt lat="45.76381" lon="6.05539">
        <ele>538.7</ele>
        <time>2000-01-01T02:44:41.000Z</time>
      </trkpt>
      <trkpt lat="45.76374" lon="6.05534">
        <ele>539.4</ele>
        <time>2000-01-01T02:44:51.000Z</time>
      </trkpt>
      <trkpt lat="45.76368" lon="6.0553">
        <ele>540.3</ele>
        <time>2000-01-01T02:45:01.000Z</time>
      </trkpt>
      <trkpt lat="45.76361" lon="6.05528">
        <ele>541.2</ele>
        <time>2000-01-01T02:45:11.000Z</time>
      </trkpt>
      <trkpt lat="45.76354" lon="6.05529">
        <ele>542.5</ele>
        <time>2000-01-01T02:45:21.000Z</time>
      </trkpt>
      <trkpt lat="45.76348" lon="6.05532">
        <ele>543.6</ele>
        <time>2000-01-01T02:45:31.000Z</time>
      </trkpt>
      <trkpt lat="45.76343" lon="6.05534">
        <ele>544.5</ele>
        <time>2000-01-01T02:45:41.000Z</time>
      </trkpt>
      <trkpt lat="45.76337" lon="6.05536">
        <ele>545.1</ele>
        <time>2000-01-01T02:45:51.000Z</time>
      </trkpt>
      <trkpt lat="45.76331" lon="6.05537">
        <ele>545.4</ele>
        <time>2000-01-01T02:46:01.000Z</time>
      </trkpt>
      <trkpt lat="45.76325" lon="6.05539">
        <ele>545.9</ele>
        <time>2000-01-01T02:46:11.000Z</time>
      </trkpt>
      <trkpt lat="45.76315" lon="6.05541">
        <ele>547.4</ele>
        <time>2000-01-01T02:46:21.000Z</time>
      </trkpt>
      <trkpt lat="45.7631" lon="6.05541">
        <ele>547.9</ele>
        <time>2000-01-01T02:46:31.000Z</time>
      </trkpt>
      <trkpt lat="45.76302" lon="6.05536">
        <ele>549</ele>
        <time>2000-01-01T02:46:41.000Z</time>
      </trkpt>
      <trkpt lat="45.76293" lon="6.05529">
        <ele>550.5</ele>
        <time>2000-01-01T02:46:51.000Z</time>
      </trkpt>
      <trkpt lat="45.76286" lon="6.05526">
        <ele>552.1</ele>
        <time>2000-01-01T02:47:01.000Z</time>
      </trkpt>
      <trkpt lat="45.76279" lon="6.05524">
        <ele>554.3</ele>
        <time>2000-01-01T02:47:11.000Z</time>
      </trkpt>
      <trkpt lat="45.76269" lon="6.05523">
        <ele>556.6</ele>
        <time>2000-01-01T02:47:21.000Z</time>
      </trkpt>
      <trkpt lat="45.76262" lon="6.0553">
        <ele>558.6</ele>
        <time>2000-01-01T02:47:31.000Z</time>
      </trkpt>
      <trkpt lat="45.76256" lon="6.05538">
        <ele>560.3</ele>
        <time>2000-01-01T02:47:41.000Z</time>
      </trkpt>
      <trkpt lat="45.7625" lon="6.05544">
        <ele>561.5</ele>
        <time>2000-01-01T02:47:51.000Z</time>
      </trkpt>
      <trkpt lat="45.76248" lon="6.05549">
        <ele>562.1</ele>
        <time>2000-01-01T02:48:01.000Z</time>
      </trkpt>
      <trkpt lat="45.76243" lon="6.05556">
        <ele>562.6</ele>
        <time>2000-01-01T02:48:11.000Z</time>
      </trkpt>
      <trkpt lat="45.76239" lon="6.05566">
        <ele>562.6</ele>
        <time>2000-01-01T02:48:21.000Z</time>
      </trkpt>
      <trkpt lat="45.7624" lon="6.05575">
        <ele>561.9</ele>
        <time>2000-01-01T02:48:31.000Z</time>
      </trkpt>
      <trkpt lat="45.76244" lon="6.05583">
        <ele>560.7</ele>
        <time>2000-01-01T02:48:41.000Z</time>
      </trkpt>
      <trkpt lat="45.76246" lon="6.05589">
        <ele>560.1</ele>
        <time>2000-01-01T02:48:51.000Z</time>
      </trkpt>
      <trkpt lat="45.7625" lon="6.05598">
        <ele>559</ele>
        <time>2000-01-01T02:49:01.000Z</time>
      </trkpt>
      <trkpt lat="45.76256" lon="6.05607">
        <ele>557.5</ele>
        <time>2000-01-01T02:49:11.000Z</time>
      </trkpt>
      <trkpt lat="45.76261" lon="6.05615">
        <ele>556.1</ele>
        <time>2000-01-01T02:49:21.000Z</time>
      </trkpt>
      <trkpt lat="45.76265" lon="6.05623">
        <ele>554.8</ele>
        <time>2000-01-01T02:49:31.000Z</time>
      </trkpt>
      <trkpt lat="45.76269" lon="6.05632">
        <ele>553.4</ele>
        <time>2000-01-01T02:49:41.000Z</time>
      </trkpt>
      <trkpt lat="45.76271" lon="6.05641">
        <ele>552</ele>
        <time>2000-01-01T02:49:51.000Z</time>
      </trkpt>
      <trkpt lat="45.76268" lon="6.05652">
        <ele>550.1</ele>
        <time>2000-01-01T02:50:01.000Z</time>
      </trkpt>
      <trkpt lat="45.76267" lon="6.05657">
        <ele>549.7</ele>
        <time>2000-01-01T02:50:11.000Z</time>
      </trkpt>
      <trkpt lat="45.76262" lon="6.05662">
        <ele>548.6</ele>
        <time>2000-01-01T02:50:21.000Z</time>
      </trkpt>
      <trkpt lat="45.76253" lon="6.05665">
        <ele>547.2</ele>
        <time>2000-01-01T02:50:31.000Z</time>
      </trkpt>
      <trkpt lat="45.76248" lon="6.05665">
        <ele>546.7</ele>
        <time>2000-01-01T02:50:41.000Z</time>
      </trkpt>
      <trkpt lat="45.7624" lon="6.05669">
        <ele>546.5</ele>
        <time>2000-01-01T02:50:51.000Z</time>
      </trkpt>
      <trkpt lat="45.76235" lon="6.05679">
        <ele>546.3</ele>
        <time>2000-01-01T02:51:01.000Z</time>
      </trkpt>
      <trkpt lat="45.76231" lon="6.05689">
        <ele>546.1</ele>
        <time>2000-01-01T02:51:11.000Z</time>
      </trkpt>
      <trkpt lat="45.7623" lon="6.05693">
        <ele>545.9</ele>
        <time>2000-01-01T02:51:21.000Z</time>
      </trkpt>
      <trkpt lat="45.76225" lon="6.05696">
        <ele>545.6</ele>
        <time>2000-01-01T02:51:31.000Z</time>
      </trkpt>
      <trkpt lat="45.76219" lon="6.05694">
        <ele>545.8</ele>
        <time>2000-01-01T02:51:41.000Z</time>
      </trkpt>
      <trkpt lat="45.76212" lon="6.05691">
        <ele>546.6</ele>
        <time>2000-01-01T02:51:51.000Z</time>
      </trkpt>
      <trkpt lat="45.76208" lon="6.0569">
        <ele>546.9</ele>
        <time>2000-01-01T02:52:01.000Z</time>
      </trkpt>
      <trkpt lat="45.76204" lon="6.05692">
        <ele>547.4</ele>
        <time>2000-01-01T02:52:11.000Z</time>
      </trkpt>
      <trkpt lat="45.76201" lon="6.05695">
        <ele>547.7</ele>
        <time>2000-01-01T02:52:21.000Z</time>
      </trkpt>
      <trkpt lat="45.76197" lon="6.05695">
        <ele>547.8</ele>
        <time>2000-01-01T02:52:31.000Z</time>
      </trkpt>
      <trkpt lat="45.76194" lon="6.05697">
        <ele>547.8</ele>
        <time>2000-01-01T02:52:41.000Z</time>
      </trkpt>
      <trkpt lat="45.76187" lon="6.05704">
        <ele>548.1</ele>
        <time>2000-01-01T02:52:51.000Z</time>
      </trkpt>
      <trkpt lat="45.7618" lon="6.05704">
        <ele>549</ele>
        <time>2000-01-01T02:53:01.000Z</time>
      </trkpt>
      <trkpt lat="45.76171" lon="6.05702">
        <ele>550.2</ele>
        <time>2000-01-01T02:53:11.000Z</time>
      </trkpt>
      <trkpt lat="45.76163" lon="6.05702">
        <ele>550.9</ele>
        <time>2000-01-01T02:53:21.000Z</time>
      </trkpt>
      <trkpt lat="45.76156" lon="6.05702">
        <ele>551.8</ele>
        <time>2000-01-01T02:53:31.000Z</time>
      </trkpt>
      <trkpt lat="45.76151" lon="6.05703">
        <ele>552.5</ele>
        <time>2000-01-01T02:53:41.000Z</time>
      </trkpt>
      <trkpt lat="45.76148" lon="6.05703">
        <ele>552.9</ele>
        <time>2000-01-01T02:53:51.000Z</time>
      </trkpt>
      <trkpt lat="45.76142" lon="6.05701">
        <ele>554.4</ele>
        <time>2000-01-01T02:54:01.000Z</time>
      </trkpt>
      <trkpt lat="45.76137" lon="6.05696">
        <ele>555.7</ele>
        <time>2000-01-01T02:54:11.000Z</time>
      </trkpt>
      <trkpt lat="45.76134" lon="6.05692">
        <ele>556.4</ele>
        <time>2000-01-01T02:54:21.000Z</time>
      </trkpt>
      <trkpt lat="45.76134" lon="6.05683">
        <ele>558.6</ele>
        <time>2000-01-01T02:54:31.000Z</time>
      </trkpt>
      <trkpt lat="45.76134" lon="6.05676">
        <ele>560.9</ele>
        <time>2000-01-01T02:54:41.000Z</time>
      </trkpt>
      <trkpt lat="45.76131" lon="6.05672">
        <ele>562.2</ele>
        <time>2000-01-01T02:54:51.000Z</time>
      </trkpt>
      <trkpt lat="45.76131" lon="6.05667">
        <ele>563.1</ele>
        <time>2000-01-01T02:55:01.000Z</time>
      </trkpt>
      <trkpt lat="45.76136" lon="6.05662">
        <ele>565.4</ele>
        <time>2000-01-01T02:55:11.000Z</time>
      </trkpt>
      <trkpt lat="45.7614" lon="6.05659">
        <ele>566.7</ele>
        <time>2000-01-01T02:55:21.000Z</time>
      </trkpt>
      <trkpt lat="45.76145" lon="6.05658">
        <ele>567.7</ele>
        <time>2000-01-01T02:55:31.000Z</time>
      </trkpt>
      <trkpt lat="45.76145" lon="6.05656">
        <ele>568.9</ele>
        <time>2000-01-01T02:55:41.000Z</time>
      </trkpt>
      <trkpt lat="45.76136" lon="6.05651">
        <ele>569.9</ele>
        <time>2000-01-01T02:55:51.000Z</time>
      </trkpt>
      <trkpt lat="45.76129" lon="6.05645">
        <ele>572.1</ele>
        <time>2000-01-01T02:56:01.000Z</time>
      </trkpt>
      <trkpt lat="45.76124" lon="6.05635">
        <ele>573.4</ele>
        <time>2000-01-01T02:56:11.000Z</time>
      </trkpt>
      <trkpt lat="45.76123" lon="6.05631">
        <ele>573.7</ele>
        <time>2000-01-01T02:56:21.000Z</time>
      </trkpt>
      <trkpt lat="45.76131" lon="6.05625">
        <ele>575</ele>
        <time>2000-01-01T02:56:31.000Z</time>
      </trkpt>
      <trkpt lat="45.76137" lon="6.05623">
        <ele>574.4</ele>
        <time>2000-01-01T02:56:41.000Z</time>
      </trkpt>
      <trkpt lat="45.76139" lon="6.05621">
        <ele>574.2</ele>
        <time>2000-01-01T02:56:51.000Z</time>
      </trkpt>
      <trkpt lat="45.76143" lon="6.05613">
        <ele>573.5</ele>
        <time>2000-01-01T02:57:01.000Z</time>
      </trkpt>
      <trkpt lat="45.76144" lon="6.05609">
        <ele>573.1</ele>
        <time>2000-01-01T02:57:11.000Z</time>
      </trkpt>
      <trkpt lat="45.7615" lon="6.05605">
        <ele>572.1</ele>
        <time>2000-01-01T02:57:21.000Z</time>
      </trkpt>
      <trkpt lat="45.76154" lon="6.05603">
        <ele>571.4</ele>
        <time>2000-01-01T02:57:31.000Z</time>
      </trkpt>
      <trkpt lat="45.76156" lon="6.056">
        <ele>571.1</ele>
        <time>2000-01-01T02:57:41.000Z</time>
      </trkpt>
      <trkpt lat="45.76163" lon="6.05602">
        <ele>570.4</ele>
        <time>2000-01-01T02:57:51.000Z</time>
      </trkpt>
      <trkpt lat="45.76166" lon="6.05604">
        <ele>571</ele>
        <time>2000-01-01T02:58:01.000Z</time>
      </trkpt>
      <trkpt lat="45.7617" lon="6.05602">
        <ele>571.6</ele>
        <time>2000-01-01T02:58:11.000Z</time>
      </trkpt>
      <trkpt lat="45.76171" lon="6.05598">
        <ele>572.2</ele>
        <time>2000-01-01T02:58:21.000Z</time>
      </trkpt>
      <trkpt lat="45.76174" lon="6.05596">
        <ele>573</ele>
        <time>2000-01-01T02:58:31.000Z</time>
      </trkpt>
      <trkpt lat="45.76169" lon="6.0559">
        <ele>575.2</ele>
        <time>2000-01-01T02:58:41.000Z</time>
      </trkpt>
      <trkpt lat="45.76164" lon="6.05587">
        <ele>576.3</ele>
        <time>2000-01-01T02:58:51.000Z</time>
      </trkpt>
      <trkpt lat="45.76161" lon="6.05583">
        <ele>577.4</ele>
        <time>2000-01-01T02:59:01.000Z</time>
      </trkpt>
      <trkpt lat="45.76163" lon="6.05578">
        <ele>578.3</ele>
        <time>2000-01-01T02:59:11.000Z</time>
      </trkpt>
      <trkpt lat="45.76167" lon="6.05572">
        <ele>580.7</ele>
        <time>2000-01-01T02:59:21.000Z</time>
      </trkpt>
      <trkpt lat="45.76167" lon="6.05568">
        <ele>581.5</ele>
        <time>2000-01-01T02:59:31.000Z</time>
      </trkpt>
      <trkpt lat="45.76165" lon="6.05564">
        <ele>582.3</ele>
        <time>2000-01-01T02:59:41.000Z</time>
      </trkpt>
      <trkpt lat="45.76169" lon="6.05554">
        <ele>583.9</ele>
        <time>2000-01-01T02:59:51.000Z</time>
      </trkpt>
      <trkpt lat="45.76172" lon="6.05552">
        <ele>584.5</ele>
        <time>2000-01-01T03:00:01.000Z</time>
      </trkpt>
      <trkpt lat="45.76171" lon="6.05542">
        <ele>586.1</ele>
        <time>2000-01-01T03:00:11.000Z</time>
      </trkpt>
      <trkpt lat="45.7617" lon="6.05534">
        <ele>587.5</ele>
        <time>2000-01-01T03:00:21.000Z</time>
      </trkpt>
      <trkpt lat="45.76172" lon="6.05525">
        <ele>588.8</ele>
        <time>2000-01-01T03:00:31.000Z</time>
      </trkpt>
      <trkpt lat="45.76172" lon="6.0552">
        <ele>589.2</ele>
        <time>2000-01-01T03:00:41.000Z</time>
      </trkpt>
      <trkpt lat="45.76173" lon="6.05516">
        <ele>589.4</ele>
        <time>2000-01-01T03:00:51.000Z</time>
      </trkpt>
      <trkpt lat="45.7617" lon="6.05508">
        <ele>590.2</ele>
        <time>2000-01-01T03:01:01.000Z</time>
      </trkpt>
      <trkpt lat="45.76169" lon="6.05504">
        <ele>590.7</ele>
        <time>2000-01-01T03:01:11.000Z</time>
      </trkpt>
      <trkpt lat="45.76174" lon="6.05498">
        <ele>591.8</ele>
        <time>2000-01-01T03:01:21.000Z</time>
      </trkpt>
      <trkpt lat="45.76176" lon="6.05496">
        <ele>592</ele>
        <time>2000-01-01T03:01:31.000Z</time>
      </trkpt>
      <trkpt lat="45.76184" lon="6.05491">
        <ele>593.1</ele>
        <time>2000-01-01T03:01:41.000Z</time>
      </trkpt>
      <trkpt lat="45.76187" lon="6.05488">
        <ele>593.9</ele>
        <time>2000-01-01T03:01:51.000Z</time>
      </trkpt>
      <trkpt lat="45.76188" lon="6.0548">
        <ele>594.6</ele>
        <time>2000-01-01T03:02:01.000Z</time>
      </trkpt>
      <trkpt lat="45.76187" lon="6.05473">
        <ele>594.9</ele>
        <time>2000-01-01T03:02:11.000Z</time>
      </trkpt>
      <trkpt lat="45.76182" lon="6.05463">
        <ele>596.3</ele>
        <time>2000-01-01T03:02:21.000Z</time>
      </trkpt>
      <trkpt lat="45.76179" lon="6.05462">
        <ele>596.9</ele>
        <time>2000-01-01T03:02:31.000Z</time>
      </trkpt>
      <trkpt lat="45.76177" lon="6.0546">
        <ele>597.3</ele>
        <time>2000-01-01T03:02:41.000Z</time>
      </trkpt>
      <trkpt lat="45.76174" lon="6.05456">
        <ele>598</ele>
        <time>2000-01-01T03:02:51.000Z</time>
      </trkpt>
      <trkpt lat="45.76177" lon="6.05448">
        <ele>598.7</ele>
        <time>2000-01-01T03:03:01.000Z</time>
      </trkpt>
      <trkpt lat="45.76178" lon="6.05445">
        <ele>599</ele>
        <time>2000-01-01T03:03:11.000Z</time>
      </trkpt>
      <trkpt lat="45.7618" lon="6.05442">
        <ele>599.2</ele>
        <time>2000-01-01T03:03:21.000Z</time>
      </trkpt>
      <trkpt lat="45.76179" lon="6.05436">
        <ele>599.2</ele>
        <time>2000-01-01T03:03:31.000Z</time>
      </trkpt>
      <trkpt lat="45.76177" lon="6.05432">
        <ele>599.9</ele>
        <time>2000-01-01T03:03:41.000Z</time>
      </trkpt>
      <trkpt lat="45.76179" lon="6.05424">
        <ele>600.2</ele>
        <time>2000-01-01T03:03:51.000Z</time>
      </trkpt>
      <trkpt lat="45.7618" lon="6.05415">
        <ele>600.9</ele>
        <time>2000-01-01T03:04:01.000Z</time>
      </trkpt>
      <trkpt lat="45.76179" lon="6.05406">
        <ele>601.5</ele>
        <time>2000-01-01T03:04:11.000Z</time>
      </trkpt>
      <trkpt lat="45.76179" lon="6.05402">
        <ele>601.7</ele>
        <time>2000-01-01T03:04:21.000Z</time>
      </trkpt>
      <trkpt lat="45.76174" lon="6.0539">
        <ele>602.6</ele>
        <time>2000-01-01T03:04:31.000Z</time>
      </trkpt>
      <trkpt lat="45.76169" lon="6.05382">
        <ele>603.3</ele>
        <time>2000-01-01T03:04:41.000Z</time>
      </trkpt>
      <trkpt lat="45.76167" lon="6.05377">
        <ele>603.8</ele>
        <time>2000-01-01T03:04:51.000Z</time>
      </trkpt>
      <trkpt lat="45.76159" lon="6.05374">
        <ele>605.1</ele>
        <time>2000-01-01T03:05:01.000Z</time>
      </trkpt>
      <trkpt lat="45.76151" lon="6.05372">
        <ele>605.9</ele>
        <time>2000-01-01T03:05:11.000Z</time>
      </trkpt>
      <trkpt lat="45.76142" lon="6.05369">
        <ele>606.9</ele>
        <time>2000-01-01T03:05:21.000Z</time>
      </trkpt>
      <trkpt lat="45.76138" lon="6.05368">
        <ele>607.8</ele>
        <time>2000-01-01T03:05:31.000Z</time>
      </trkpt>
      <trkpt lat="45.76131" lon="6.05369">
        <ele>608.5</ele>
        <time>2000-01-01T03:05:41.000Z</time>
      </trkpt>
      <trkpt lat="45.76123" lon="6.05367">
        <ele>610</ele>
        <time>2000-01-01T03:05:51.000Z</time>
      </trkpt>
      <trkpt lat="45.76115" lon="6.05363">
        <ele>611.3</ele>
        <time>2000-01-01T03:06:01.000Z</time>
      </trkpt>
      <trkpt lat="45.76112" lon="6.05361">
        <ele>611.8</ele>
        <time>2000-01-01T03:06:11.000Z</time>
      </trkpt>
      <trkpt lat="45.7611" lon="6.05358">
        <ele>612.7</ele>
        <time>2000-01-01T03:06:21.000Z</time>
      </trkpt>
      <trkpt lat="45.76109" lon="6.05352">
        <ele>613</ele>
        <time>2000-01-01T03:06:31.000Z</time>
      </trkpt>
      <trkpt lat="45.76106" lon="6.0535">
        <ele>613.9</ele>
        <time>2000-01-01T03:06:41.000Z</time>
      </trkpt>
      <trkpt lat="45.761" lon="6.05355">
        <ele>615.5</ele>
        <time>2000-01-01T03:06:51.000Z</time>
      </trkpt>
      <trkpt lat="45.76098" lon="6.05358">
        <ele>615</ele>
        <time>2000-01-01T03:07:01.000Z</time>
      </trkpt>
      <trkpt lat="45.76092" lon="6.0536">
        <ele>615.6</ele>
        <time>2000-01-01T03:07:11.000Z</time>
      </trkpt>
      <trkpt lat="45.76085" lon="6.05357">
        <ele>617.4</ele>
        <time>2000-01-01T03:07:21.000Z</time>
      </trkpt>
      <trkpt lat="45.76079" lon="6.05357">
        <ele>618.9</ele>
        <time>2000-01-01T03:07:31.000Z</time>
      </trkpt>
      <trkpt lat="45.76073" lon="6.05362">
        <ele>619.9</ele>
        <time>2000-01-01T03:07:41.000Z</time>
      </trkpt>
      <trkpt lat="45.7607" lon="6.0537">
        <ele>619.4</ele>
        <time>2000-01-01T03:07:51.000Z</time>
      </trkpt>
      <trkpt lat="45.7607" lon="6.0538">
        <ele>618.9</ele>
        <time>2000-01-01T03:08:01.000Z</time>
      </trkpt>
      <trkpt lat="45.76068" lon="6.05389">
        <ele>617.8</ele>
        <time>2000-01-01T03:08:11.000Z</time>
      </trkpt>
      <trkpt lat="45.76064" lon="6.05399">
        <ele>616.9</ele>
        <time>2000-01-01T03:08:21.000Z</time>
      </trkpt>
      <trkpt lat="45.76062" lon="6.05402">
        <ele>617</ele>
        <time>2000-01-01T03:08:31.000Z</time>
      </trkpt>
      <trkpt lat="45.76061" lon="6.05406">
        <ele>616.9</ele>
        <time>2000-01-01T03:08:41.000Z</time>
      </trkpt>
      <trkpt lat="45.76059" lon="6.05408">
        <ele>617</ele>
        <time>2000-01-01T03:08:51.000Z</time>
      </trkpt>
      <trkpt lat="45.7606" lon="6.05404">
        <ele>617.5</ele>
        <time>2000-01-01T03:09:01.000Z</time>
      </trkpt>
      <trkpt lat="45.76059" lon="6.054">
        <ele>617.9</ele>
        <time>2000-01-01T03:09:11.000Z</time>
      </trkpt>
      <trkpt lat="45.76061" lon="6.05397">
        <ele>617.5</ele>
        <time>2000-01-01T03:09:21.000Z</time>
      </trkpt>
      <trkpt lat="45.76061" lon="6.05392">
        <ele>617.8</ele>
        <time>2000-01-01T03:09:31.000Z</time>
      </trkpt>
      <trkpt lat="45.76054" lon="6.05395">
        <ele>619.6</ele>
        <time>2000-01-01T03:09:41.000Z</time>
      </trkpt>
      <trkpt lat="45.76047" lon="6.05392">
        <ele>621.4</ele>
        <time>2000-01-01T03:09:51.000Z</time>
      </trkpt>
      <trkpt lat="45.7604" lon="6.0539">
        <ele>622.7</ele>
        <time>2000-01-01T03:10:01.000Z</time>
      </trkpt>
      <trkpt lat="45.76035" lon="6.05385">
        <ele>625.1</ele>
        <time>2000-01-01T03:10:11.000Z</time>
      </trkpt>
      <trkpt lat="45.7603" lon="6.05378">
        <ele>627.2</ele>
        <time>2000-01-01T03:10:21.000Z</time>
      </trkpt>
      <trkpt lat="45.76028" lon="6.05374">
        <ele>627.7</ele>
        <time>2000-01-01T03:10:31.000Z</time>
      </trkpt>
      <trkpt lat="45.76025" lon="6.05373">
        <ele>628.6</ele>
        <time>2000-01-01T03:10:41.000Z</time>
      </trkpt>
      <trkpt lat="45.76025" lon="6.05367">
        <ele>629.9</ele>
        <time>2000-01-01T03:10:51.000Z</time>
      </trkpt>
      <trkpt lat="45.76022" lon="6.05365">
        <ele>630.8</ele>
        <time>2000-01-01T03:11:01.000Z</time>
      </trkpt>
      <trkpt lat="45.76014" lon="6.05367">
        <ele>633.4</ele>
        <time>2000-01-01T03:11:11.000Z</time>
      </trkpt>
      <trkpt lat="45.76011" lon="6.05369">
        <ele>633.4</ele>
        <time>2000-01-01T03:11:21.000Z</time>
      </trkpt>
      <trkpt lat="45.76009" lon="6.05372">
        <ele>633.5</ele>
        <time>2000-01-01T03:11:31.000Z</time>
      </trkpt>
      <trkpt lat="45.76008" lon="6.05381">
        <ele>633.7</ele>
        <time>2000-01-01T03:11:41.000Z</time>
      </trkpt>
      <trkpt lat="45.76004" lon="6.05388">
        <ele>633.9</ele>
        <time>2000-01-01T03:11:51.000Z</time>
      </trkpt>
      <trkpt lat="45.76003" lon="6.05391">
        <ele>633.9</ele>
        <time>2000-01-01T03:12:01.000Z</time>
      </trkpt>
      <trkpt lat="45.76001" lon="6.05395">
        <ele>634</ele>
        <time>2000-01-01T03:12:11.000Z</time>
      </trkpt>
      <trkpt lat="45.75997" lon="6.05398">
        <ele>634</ele>
        <time>2000-01-01T03:12:21.000Z</time>
      </trkpt>
      <trkpt lat="45.75992" lon="6.05399">
        <ele>634.1</ele>
        <time>2000-01-01T03:12:31.000Z</time>
      </trkpt>
      <trkpt lat="45.75988" lon="6.05402">
        <ele>634.1</ele>
        <time>2000-01-01T03:12:41.000Z</time>
      </trkpt>
      <trkpt lat="45.75986" lon="6.05406">
        <ele>634.1</ele>
        <time>2000-01-01T03:12:51.000Z</time>
      </trkpt>
      <trkpt lat="45.75988" lon="6.05416">
        <ele>634</ele>
        <time>2000-01-01T03:13:01.000Z</time>
      </trkpt>
      <trkpt lat="45.75989" lon="6.0542">
        <ele>633.9</ele>
        <time>2000-01-01T03:13:11.000Z</time>
      </trkpt>
      <trkpt lat="45.75986" lon="6.05431">
        <ele>633.8</ele>
        <time>2000-01-01T03:13:21.000Z</time>
      </trkpt>
      <trkpt lat="45.75981" lon="6.0544">
        <ele>633.6</ele>
        <time>2000-01-01T03:13:31.000Z</time>
      </trkpt>
      <trkpt lat="45.75974" lon="6.05447">
        <ele>633.4</ele>
        <time>2000-01-01T03:13:41.000Z</time>
      </trkpt>
      <trkpt lat="45.75969" lon="6.05455">
        <ele>633</ele>
        <time>2000-01-01T03:13:51.000Z</time>
      </trkpt>
      <trkpt lat="45.75965" lon="6.05461">
        <ele>632.8</ele>
        <time>2000-01-01T03:14:01.000Z</time>
      </trkpt>
      <trkpt lat="45.75959" lon="6.05467">
        <ele>632.5</ele>
        <time>2000-01-01T03:14:11.000Z</time>
      </trkpt>
      <trkpt lat="45.75954" lon="6.05476">
        <ele>632.2</ele>
        <time>2000-01-01T03:14:21.000Z</time>
      </trkpt>
      <trkpt lat="45.75947" lon="6.05487">
        <ele>631.7</ele>
        <time>2000-01-01T03:14:31.000Z</time>
      </trkpt>
      <trkpt lat="45.75942" lon="6.05492">
        <ele>631.4</ele>
        <time>2000-01-01T03:14:41.000Z</time>
      </trkpt>
      <trkpt lat="45.75937" lon="6.05496">
        <ele>631.2</ele>
        <time>2000-01-01T03:14:51.000Z</time>
      </trkpt>
      <trkpt lat="45.75932" lon="6.055">
        <ele>631.4</ele>
        <time>2000-01-01T03:15:01.000Z</time>
      </trkpt>
      <trkpt lat="45.75926" lon="6.05502">
        <ele>631.5</ele>
        <time>2000-01-01T03:15:11.000Z</time>
      </trkpt>
      <trkpt lat="45.75919" lon="6.05505">
        <ele>631.7</ele>
        <time>2000-01-01T03:15:21.000Z</time>
      </trkpt>
      <trkpt lat="45.75914" lon="6.05509">
        <ele>631.8</ele>
        <time>2000-01-01T03:15:31.000Z</time>
      </trkpt>
      <trkpt lat="45.75909" lon="6.05513">
        <ele>632</ele>
        <time>2000-01-01T03:15:41.000Z</time>
      </trkpt>
      <trkpt lat="45.75904" lon="6.05518">
        <ele>632.2</ele>
        <time>2000-01-01T03:15:51.000Z</time>
      </trkpt>
      <trkpt lat="45.75898" lon="6.05524">
        <ele>632.5</ele>
        <time>2000-01-01T03:16:01.000Z</time>
      </trkpt>
      <trkpt lat="45.7589" lon="6.05535">
        <ele>633</ele>
        <time>2000-01-01T03:16:11.000Z</time>
      </trkpt>
      <trkpt lat="45.75886" lon="6.0554">
        <ele>633.2</ele>
        <time>2000-01-01T03:16:21.000Z</time>
      </trkpt>
      <trkpt lat="45.75881" lon="6.05545">
        <ele>633.5</ele>
        <time>2000-01-01T03:16:31.000Z</time>
      </trkpt>
      <trkpt lat="45.75873" lon="6.05549">
        <ele>633.8</ele>
        <time>2000-01-01T03:16:41.000Z</time>
      </trkpt>
      <trkpt lat="45.75867" lon="6.05556">
        <ele>634.1</ele>
        <time>2000-01-01T03:16:51.000Z</time>
      </trkpt>
      <trkpt lat="45.7586" lon="6.05566">
        <ele>634.5</ele>
        <time>2000-01-01T03:17:01.000Z</time>
      </trkpt>
      <trkpt lat="45.75851" lon="6.05571">
        <ele>634.9</ele>
        <time>2000-01-01T03:17:11.000Z</time>
      </trkpt>
      <trkpt lat="45.75842" lon="6.05577">
        <ele>635.4</ele>
        <time>2000-01-01T03:17:21.000Z</time>
      </trkpt>
      <trkpt lat="45.75835" lon="6.0558">
        <ele>635.7</ele>
        <time>2000-01-01T03:17:31.000Z</time>
      </trkpt>
      <trkpt lat="45.75827" lon="6.05584">
        <ele>635.9</ele>
        <time>2000-01-01T03:17:41.000Z</time>
      </trkpt>
      <trkpt lat="45.75817" lon="6.05586">
        <ele>636.2</ele>
        <time>2000-01-01T03:17:51.000Z</time>
      </trkpt>
      <trkpt lat="45.75812" lon="6.05591">
        <ele>636.4</ele>
        <time>2000-01-01T03:18:01.000Z</time>
      </trkpt>
      <trkpt lat="45.75806" lon="6.05596">
        <ele>636.6</ele>
        <time>2000-01-01T03:18:11.000Z</time>
      </trkpt>
      <trkpt lat="45.75799" lon="6.05601">
        <ele>636.9</ele>
        <time>2000-01-01T03:18:21.000Z</time>
      </trkpt>
      <trkpt lat="45.75791" lon="6.05604">
        <ele>637.1</ele>
        <time>2000-01-01T03:18:31.000Z</time>
      </trkpt>
      <trkpt lat="45.75785" lon="6.05611">
        <ele>637.4</ele>
        <time>2000-01-01T03:18:41.000Z</time>
      </trkpt>
      <trkpt lat="45.7578" lon="6.05616">
        <ele>637.5</ele>
        <time>2000-01-01T03:18:51.000Z</time>
      </trkpt>
      <trkpt lat="45.75774" lon="6.0562">
        <ele>637.6</ele>
        <time>2000-01-01T03:19:01.000Z</time>
      </trkpt>
      <trkpt lat="45.75769" lon="6.05624">
        <ele>637.6</ele>
        <time>2000-01-01T03:19:11.000Z</time>
      </trkpt>
      <trkpt lat="45.75762" lon="6.05628">
        <ele>637.7</ele>
        <time>2000-01-01T03:19:21.000Z</time>
      </trkpt>
      <trkpt lat="45.75755" lon="6.05631">
        <ele>637.7</ele>
        <time>2000-01-01T03:19:31.000Z</time>
      </trkpt>
      <trkpt lat="45.75747" lon="6.05635">
        <ele>637.7</ele>
        <time>2000-01-01T03:19:41.000Z</time>
      </trkpt>
      <trkpt lat="45.75739" lon="6.0564">
        <ele>637.6</ele>
        <time>2000-01-01T03:19:51.000Z</time>
      </trkpt>
      <trkpt lat="45.75735" lon="6.05645">
        <ele>637.4</ele>
        <time>2000-01-01T03:20:01.000Z</time>
      </trkpt>
      <trkpt lat="45.7573" lon="6.05649">
        <ele>637.3</ele>
        <time>2000-01-01T03:20:11.000Z</time>
      </trkpt>
      <trkpt lat="45.75722" lon="6.05654">
        <ele>637</ele>
        <time>2000-01-01T03:20:21.000Z</time>
      </trkpt>
      <trkpt lat="45.75713" lon="6.05656">
        <ele>636.8</ele>
        <time>2000-01-01T03:20:31.000Z</time>
      </trkpt>
      <trkpt lat="45.75703" lon="6.05658">
        <ele>636.7</ele>
        <time>2000-01-01T03:20:41.000Z</time>
      </trkpt>
      <trkpt lat="45.75696" lon="6.05663">
        <ele>636.5</ele>
        <time>2000-01-01T03:20:51.000Z</time>
      </trkpt>
      <trkpt lat="45.7569" lon="6.05667">
        <ele>636.5</ele>
        <time>2000-01-01T03:21:01.000Z</time>
      </trkpt>
      <trkpt lat="45.75681" lon="6.05665">
        <ele>637.1</ele>
        <time>2000-01-01T03:21:11.000Z</time>
      </trkpt>
      <trkpt lat="45.75675" lon="6.05662">
        <ele>637.6</ele>
        <time>2000-01-01T03:21:21.000Z</time>
      </trkpt>
      <trkpt lat="45.7567" lon="6.05659">
        <ele>638</ele>
        <time>2000-01-01T03:21:31.000Z</time>
      </trkpt>
      <trkpt lat="45.75664" lon="6.05651">
        <ele>638.6</ele>
        <time>2000-01-01T03:21:41.000Z</time>
      </trkpt>
      <trkpt lat="45.75662" lon="6.05645">
        <ele>639.7</ele>
        <time>2000-01-01T03:21:51.000Z</time>
      </trkpt>
      <trkpt lat="45.7566" lon="6.05642">
        <ele>640.6</ele>
        <time>2000-01-01T03:22:01.000Z</time>
      </trkpt>
      <trkpt lat="45.75658" lon="6.05631">
        <ele>642.4</ele>
        <time>2000-01-01T03:22:11.000Z</time>
      </trkpt>
      <trkpt lat="45.75652" lon="6.05624">
        <ele>643.9</ele>
        <time>2000-01-01T03:22:21.000Z</time>
      </trkpt>
      <trkpt lat="45.75648" lon="6.05622">
        <ele>644.7</ele>
        <time>2000-01-01T03:22:31.000Z</time>
      </trkpt>
      <trkpt lat="45.75641" lon="6.05622">
        <ele>645.7</ele>
        <time>2000-01-01T03:22:41.000Z</time>
      </trkpt>
      <trkpt lat="45.75637" lon="6.05623">
        <ele>646.1</ele>
        <time>2000-01-01T03:22:51.000Z</time>
      </trkpt>
      <trkpt lat="45.75633" lon="6.05623">
        <ele>646.3</ele>
        <time>2000-01-01T03:23:01.000Z</time>
      </trkpt>
      <trkpt lat="45.75627" lon="6.05614">
        <ele>647.2</ele>
        <time>2000-01-01T03:23:11.000Z</time>
      </trkpt>
      <trkpt lat="45.75599" lon="6.05592">
        <ele>655.9</ele>
        <time>2000-01-01T03:23:31.000Z</time>
      </trkpt>
      <trkpt lat="45.75596" lon="6.05591">
        <ele>660</ele>
        <time>2000-01-01T03:23:41.000Z</time>
      </trkpt>
      <trkpt lat="45.75593" lon="6.05591">
        <ele>660.6</ele>
        <time>2000-01-01T03:23:51.000Z</time>
      </trkpt>
      <trkpt lat="45.75589" lon="6.05592">
        <ele>661.5</ele>
        <time>2000-01-01T03:24:01.000Z</time>
      </trkpt>
      <trkpt lat="45.75588" lon="6.05597">
        <ele>659.9</ele>
        <time>2000-01-01T03:24:11.000Z</time>
      </trkpt>
      <trkpt lat="45.75585" lon="6.05597">
        <ele>661.1</ele>
        <time>2000-01-01T03:24:21.000Z</time>
      </trkpt>
      <trkpt lat="45.75582" lon="6.05594">
        <ele>664.1</ele>
        <time>2000-01-01T03:24:31.000Z</time>
      </trkpt>
      <trkpt lat="45.75579" lon="6.05595">
        <ele>665.6</ele>
        <time>2000-01-01T03:24:41.000Z</time>
      </trkpt>
      <trkpt lat="45.75574" lon="6.05597">
        <ele>666.9</ele>
        <time>2000-01-01T03:24:51.000Z</time>
      </trkpt>
      <trkpt lat="45.75569" lon="6.05597">
        <ele>669.8</ele>
        <time>2000-01-01T03:25:01.000Z</time>
      </trkpt>
      <trkpt lat="45.75561" lon="6.05597">
        <ele>672.8</ele>
        <time>2000-01-01T03:25:11.000Z</time>
      </trkpt>
      <trkpt lat="45.75555" lon="6.05597">
        <ele>676.5</ele>
        <time>2000-01-01T03:25:21.000Z</time>
      </trkpt>
      <trkpt lat="45.75552" lon="6.05596">
        <ele>678.5</ele>
        <time>2000-01-01T03:25:31.000Z</time>
      </trkpt>
      <trkpt lat="45.75545" lon="6.05595">
        <ele>685.9</ele>
        <time>2000-01-01T03:25:41.000Z</time>
      </trkpt>
      <trkpt lat="45.75542" lon="6.05592">
        <ele>687.5</ele>
        <time>2000-01-01T03:25:51.000Z</time>
      </trkpt>
      <trkpt lat="45.7554" lon="6.05587">
        <ele>693.2</ele>
        <time>2000-01-01T03:26:01.000Z</time>
      </trkpt>
      <trkpt lat="45.75536" lon="6.05586">
        <ele>695.1</ele>
        <time>2000-01-01T03:26:11.000Z</time>
      </trkpt>
      <trkpt lat="45.75532" lon="6.05585">
        <ele>697.2</ele>
        <time>2000-01-01T03:26:21.000Z</time>
      </trkpt>
      <trkpt lat="45.7553" lon="6.05581">
        <ele>701.4</ele>
        <time>2000-01-01T03:26:31.000Z</time>
      </trkpt>
      <trkpt lat="45.75524" lon="6.05582">
        <ele>705.7</ele>
        <time>2000-01-01T03:26:41.000Z</time>
      </trkpt>
      <trkpt lat="45.75521" lon="6.05584">
        <ele>705.7</ele>
        <time>2000-01-01T03:26:51.000Z</time>
      </trkpt>
      <trkpt lat="45.75518" lon="6.05584">
        <ele>707.6</ele>
        <time>2000-01-01T03:27:01.000Z</time>
      </trkpt>
      <trkpt lat="45.75515" lon="6.0559">
        <ele>707.3</ele>
        <time>2000-01-01T03:27:11.000Z</time>
      </trkpt>
      <trkpt lat="45.75512" lon="6.05598">
        <ele>704.9</ele>
        <time>2000-01-01T03:27:21.000Z</time>
      </trkpt>
      <trkpt lat="45.75507" lon="6.05604">
        <ele>702.7</ele>
        <time>2000-01-01T03:27:31.000Z</time>
      </trkpt>
      <trkpt lat="45.75505" lon="6.05607">
        <ele>704.6</ele>
        <time>2000-01-01T03:27:41.000Z</time>
      </trkpt>
      <trkpt lat="45.75499" lon="6.05611">
        <ele>706.6</ele>
        <time>2000-01-01T03:27:51.000Z</time>
      </trkpt>
      <trkpt lat="45.75491" lon="6.05614">
        <ele>710.8</ele>
        <time>2000-01-01T03:28:01.000Z</time>
      </trkpt>
      <trkpt lat="45.75486" lon="6.05617">
        <ele>712.6</ele>
        <time>2000-01-01T03:28:11.000Z</time>
      </trkpt>
      <trkpt lat="45.75479" lon="6.05622">
        <ele>714.7</ele>
        <time>2000-01-01T03:28:21.000Z</time>
      </trkpt>
      <trkpt lat="45.75473" lon="6.05623">
        <ele>719.7</ele>
        <time>2000-01-01T03:28:31.000Z</time>
      </trkpt>
      <trkpt lat="45.7547" lon="6.05624">
        <ele>722.4</ele>
        <time>2000-01-01T03:28:41.000Z</time>
      </trkpt>
      <trkpt lat="45.75465" lon="6.05627">
        <ele>722.8</ele>
        <time>2000-01-01T03:28:51.000Z</time>
      </trkpt>
      <trkpt lat="45.75462" lon="6.05628">
        <ele>725.3</ele>
        <time>2000-01-01T03:29:01.000Z</time>
      </trkpt>
      <trkpt lat="45.75461" lon="6.05628">
        <ele>719.9</ele>
        <time>2000-01-01T03:29:11.000Z</time>
      </trkpt>
      <trkpt lat="45.75458" lon="6.05624">
        <ele>728.4</ele>
        <time>2000-01-01T03:29:21.000Z</time>
      </trkpt>
      <trkpt lat="45.75456" lon="6.05619">
        <ele>735.4</ele>
        <time>2000-01-01T03:29:31.000Z</time>
      </trkpt>
      <trkpt lat="45.75458" lon="6.05611">
        <ele>740.8</ele>
        <time>2000-01-01T03:29:41.000Z</time>
      </trkpt>
      <trkpt lat="45.75462" lon="6.05604">
        <ele>738.3</ele>
        <time>2000-01-01T03:29:51.000Z</time>
      </trkpt>
      <trkpt lat="45.75464" lon="6.05597">
        <ele>743.9</ele>
        <time>2000-01-01T03:30:01.000Z</time>
      </trkpt>
      <trkpt lat="45.7547" lon="6.05592">
        <ele>740.7</ele>
        <time>2000-01-01T03:30:11.000Z</time>
      </trkpt>
      <trkpt lat="45.75476" lon="6.05585">
        <ele>740.4</ele>
        <time>2000-01-01T03:30:21.000Z</time>
      </trkpt>
      <trkpt lat="45.7548" lon="6.05579">
        <ele>737.9</ele>
        <time>2000-01-01T03:30:31.000Z</time>
      </trkpt>
      <trkpt lat="45.75483" lon="6.05575">
        <ele>738.1</ele>
        <time>2000-01-01T03:30:41.000Z</time>
      </trkpt>
      <trkpt lat="45.75486" lon="6.05566">
        <ele>740.5</ele>
        <time>2000-01-01T03:30:51.000Z</time>
      </trkpt>
      <trkpt lat="45.75486" lon="6.05561">
        <ele>745.1</ele>
        <time>2000-01-01T03:31:01.000Z</time>
      </trkpt>
      <trkpt lat="45.75491" lon="6.05551">
        <ele>747.2</ele>
        <time>2000-01-01T03:31:11.000Z</time>
      </trkpt>
      <trkpt lat="45.75494" lon="6.05543">
        <ele>749.2</ele>
        <time>2000-01-01T03:31:21.000Z</time>
      </trkpt>
      <trkpt lat="45.75494" lon="6.05534">
        <ele>753.8</ele>
        <time>2000-01-01T03:31:31.000Z</time>
      </trkpt>
      <trkpt lat="45.75497" lon="6.05526">
        <ele>755.5</ele>
        <time>2000-01-01T03:31:41.000Z</time>
      </trkpt>
      <trkpt lat="45.755" lon="6.05522">
        <ele>755</ele>
        <time>2000-01-01T03:31:51.000Z</time>
      </trkpt>
      <trkpt lat="45.75497" lon="6.05511">
        <ele>762.2</ele>
        <time>2000-01-01T03:32:01.000Z</time>
      </trkpt>
      <trkpt lat="45.75496" lon="6.05502">
        <ele>767</ele>
        <time>2000-01-01T03:32:11.000Z</time>
      </trkpt>
      <trkpt lat="45.75499" lon="6.05497">
        <ele>769.3</ele>
        <time>2000-01-01T03:32:21.000Z</time>
      </trkpt>
      <trkpt lat="45.75505" lon="6.05492">
        <ele>767</ele>
        <time>2000-01-01T03:32:31.000Z</time>
      </trkpt>
      <trkpt lat="45.75513" lon="6.05486">
        <ele>763.2</ele>
        <time>2000-01-01T03:32:41.000Z</time>
      </trkpt>
      <trkpt lat="45.75521" lon="6.05478">
        <ele>764</ele>
        <time>2000-01-01T03:32:51.000Z</time>
      </trkpt>
      <trkpt lat="45.75522" lon="6.05474">
        <ele>764.4</ele>
        <time>2000-01-01T03:33:01.000Z</time>
      </trkpt>
      <trkpt lat="45.75521" lon="6.0547">
        <ele>770.9</ele>
        <time>2000-01-01T03:33:21.000Z</time>
      </trkpt>
      <trkpt lat="45.75516" lon="6.05465">
        <ele>772.8</ele>
        <time>2000-01-01T03:33:31.000Z</time>
      </trkpt>
      <trkpt lat="45.75518" lon="6.05459">
        <ele>775.1</ele>
        <time>2000-01-01T03:33:41.000Z</time>
      </trkpt>
      <trkpt lat="45.75518" lon="6.05454">
        <ele>779.9</ele>
        <time>2000-01-01T03:33:51.000Z</time>
      </trkpt>
      <trkpt lat="45.75524" lon="6.05449">
        <ele>779</ele>
        <time>2000-01-01T03:34:01.000Z</time>
      </trkpt>
      <trkpt lat="45.75528" lon="6.05444">
        <ele>777.6</ele>
        <time>2000-01-01T03:34:11.000Z</time>
      </trkpt>
      <trkpt lat="45.75531" lon="6.05441">
        <ele>779.8</ele>
        <time>2000-01-01T03:34:21.000Z</time>
      </trkpt>
      <trkpt lat="45.75533" lon="6.05438">
        <ele>777.9</ele>
        <time>2000-01-01T03:34:31.000Z</time>
      </trkpt>
      <trkpt lat="45.75535" lon="6.05439">
        <ele>776.1</ele>
        <time>2000-01-01T03:34:41.000Z</time>
      </trkpt>
      <trkpt lat="45.75534" lon="6.05444">
        <ele>773.9</ele>
        <time>2000-01-01T03:34:51.000Z</time>
      </trkpt>
      <trkpt lat="45.75537" lon="6.05446">
        <ele>769.9</ele>
        <time>2000-01-01T03:35:01.000Z</time>
      </trkpt>
      <trkpt lat="45.75534" lon="6.0545">
        <ele>769.2</ele>
        <time>2000-01-01T03:35:11.000Z</time>
      </trkpt>
      <trkpt lat="45.75531" lon="6.05451">
        <ele>771.1</ele>
        <time>2000-01-01T03:35:21.000Z</time>
      </trkpt>
      <trkpt lat="45.75529" lon="6.05453">
        <ele>773</ele>
        <time>2000-01-01T03:35:31.000Z</time>
      </trkpt>
      <trkpt lat="45.75527" lon="6.0545">
        <ele>774.9</ele>
        <time>2000-01-01T03:35:41.000Z</time>
      </trkpt>
      <trkpt lat="45.75524" lon="6.05449">
        <ele>779</ele>
        <time>2000-01-01T03:35:51.000Z</time>
      </trkpt>
      <trkpt lat="45.75523" lon="6.05455">
        <ele>774.3</ele>
        <time>2000-01-01T03:36:01.000Z</time>
      </trkpt>
      <trkpt lat="45.75523" lon="6.0546">
        <ele>771.9</ele>
        <time>2000-01-01T03:36:11.000Z</time>
      </trkpt>
      <trkpt lat="45.75517" lon="6.05466">
        <ele>772.9</ele>
        <time>2000-01-01T03:36:21.000Z</time>
      </trkpt>
      <trkpt lat="45.7551" lon="6.0547">
        <ele>774</ele>
        <time>2000-01-01T03:36:31.000Z</time>
      </trkpt>
      <trkpt lat="45.75505" lon="6.05473">
        <ele>775.6</ele>
        <time>2000-01-01T03:36:41.000Z</time>
      </trkpt>
      <trkpt lat="45.75497" lon="6.05473">
        <ele>781.8</ele>
        <time>2000-01-01T03:36:51.000Z</time>
      </trkpt>
      <trkpt lat="45.75493" lon="6.05478">
        <ele>782.2</ele>
        <time>2000-01-01T03:37:01.000Z</time>
      </trkpt>
      <trkpt lat="45.75489" lon="6.05486">
        <ele>780.8</ele>
        <time>2000-01-01T03:37:11.000Z</time>
      </trkpt>
      <trkpt lat="45.75482" lon="6.05491">
        <ele>785.4</ele>
        <time>2000-01-01T03:37:21.000Z</time>
      </trkpt>
      <trkpt lat="45.75477" lon="6.05498">
        <ele>783.6</ele>
        <time>2000-01-01T03:37:31.000Z</time>
      </trkpt>
      <trkpt lat="45.75474" lon="6.05506">
        <ele>784.4</ele>
        <time>2000-01-01T03:37:41.000Z</time>
      </trkpt>
      <trkpt lat="45.75469" lon="6.05512">
        <ele>785.2</ele>
        <time>2000-01-01T03:37:51.000Z</time>
      </trkpt>
      <trkpt lat="45.75465" lon="6.05517">
        <ele>788.5</ele>
        <time>2000-01-01T03:38:01.000Z</time>
      </trkpt>
      <trkpt lat="45.75461" lon="6.0552">
        <ele>789.2</ele>
        <time>2000-01-01T03:38:11.000Z</time>
      </trkpt>
      <trkpt lat="45.75454" lon="6.05521">
        <ele>793.7</ele>
        <time>2000-01-01T03:38:21.000Z</time>
      </trkpt>
      <trkpt lat="45.7545" lon="6.05521">
        <ele>796.2</ele>
        <time>2000-01-01T03:38:31.000Z</time>
      </trkpt>
      <trkpt lat="45.75448" lon="6.05519">
        <ele>798.8</ele>
        <time>2000-01-01T03:38:41.000Z</time>
      </trkpt>
      <trkpt lat="45.7545" lon="6.05522">
        <ele>796.2</ele>
        <time>2000-01-01T03:38:51.000Z</time>
      </trkpt>
      <trkpt lat="45.75451" lon="6.05526">
        <ele>794.7</ele>
        <time>2000-01-01T03:39:01.000Z</time>
      </trkpt>
      <trkpt lat="45.75448" lon="6.05528">
        <ele>795.9</ele>
        <time>2000-01-01T03:39:11.000Z</time>
      </trkpt>
      <trkpt lat="45.75441" lon="6.05527">
        <ele>801.5</ele>
        <time>2000-01-01T03:39:21.000Z</time>
      </trkpt>
      <trkpt lat="45.75438" lon="6.05529">
        <ele>804.1</ele>
        <time>2000-01-01T03:39:31.000Z</time>
      </trkpt>
      <trkpt lat="45.75433" lon="6.05531">
        <ele>807.4</ele>
        <time>2000-01-01T03:39:41.000Z</time>
      </trkpt>
      <trkpt lat="45.7543" lon="6.05531">
        <ele>810.8</ele>
        <time>2000-01-01T03:39:51.000Z</time>
      </trkpt>
      <trkpt lat="45.75427" lon="6.05529">
        <ele>813</ele>
        <time>2000-01-01T03:40:01.000Z</time>
      </trkpt>
      <trkpt lat="45.75425" lon="6.05527">
        <ele>816.3</ele>
        <time>2000-01-01T03:40:11.000Z</time>
      </trkpt>
      <trkpt lat="45.75424" lon="6.05518">
        <ele>818.2</ele>
        <time>2000-01-01T03:40:21.000Z</time>
      </trkpt>
      <trkpt lat="45.75422" lon="6.05511">
        <ele>821.2</ele>
        <time>2000-01-01T03:40:31.000Z</time>
      </trkpt>
      <trkpt lat="45.7542" lon="6.05508">
        <ele>824</ele>
        <time>2000-01-01T03:40:41.000Z</time>
      </trkpt>
      <trkpt lat="45.75418" lon="6.05499">
        <ele>825.7</ele>
        <time>2000-01-01T03:40:51.000Z</time>
      </trkpt>
      <trkpt lat="45.75417" lon="6.05489">
        <ele>829</ele>
        <time>2000-01-01T03:41:01.000Z</time>
      </trkpt>
      <trkpt lat="45.75416" lon="6.0548">
        <ele>830.5</ele>
        <time>2000-01-01T03:41:11.000Z</time>
      </trkpt>
      <trkpt lat="45.75416" lon="6.05476">
        <ele>831.3</ele>
        <time>2000-01-01T03:41:21.000Z</time>
      </trkpt>
      <trkpt lat="45.75415" lon="6.05472">
        <ele>832.2</ele>
        <time>2000-01-01T03:41:31.000Z</time>
      </trkpt>
      <trkpt lat="45.75413" lon="6.0547">
        <ele>834.8</ele>
        <time>2000-01-01T03:41:41.000Z</time>
      </trkpt>
      <trkpt lat="45.75411" lon="6.05465">
        <ele>835.7</ele>
        <time>2000-01-01T03:41:51.000Z</time>
      </trkpt>
      <trkpt lat="45.75414" lon="6.05463">
        <ele>835.7</ele>
        <time>2000-01-01T03:42:01.000Z</time>
      </trkpt>
      <trkpt lat="45.75415" lon="6.05462">
        <ele>835.1</ele>
        <time>2000-01-01T03:42:11.000Z</time>
      </trkpt>
      <trkpt lat="45.75416" lon="6.05466">
        <ele>834.1</ele>
        <time>2000-01-01T03:42:21.000Z</time>
      </trkpt>
      <trkpt lat="45.75411" lon="6.0547">
        <ele>834.8</ele>
        <time>2000-01-01T03:42:31.000Z</time>
      </trkpt>
      <trkpt lat="45.7541" lon="6.05473">
        <ele>835.6</ele>
        <time>2000-01-01T03:42:41.000Z</time>
      </trkpt>
      <trkpt lat="45.75412" lon="6.05477">
        <ele>833.1</ele>
        <time>2000-01-01T03:42:51.000Z</time>
      </trkpt>
      <trkpt lat="45.7541" lon="6.05482">
        <ele>834</ele>
        <time>2000-01-01T03:43:01.000Z</time>
      </trkpt>
      <trkpt lat="45.75407" lon="6.05483">
        <ele>835.7</ele>
        <time>2000-01-01T03:43:11.000Z</time>
      </trkpt>
      <trkpt lat="45.75407" lon="6.05491">
        <ele>834.3</ele>
        <time>2000-01-01T03:43:21.000Z</time>
      </trkpt>
      <trkpt lat="45.75405" lon="6.05498">
        <ele>834.8</ele>
        <time>2000-01-01T03:43:31.000Z</time>
      </trkpt>
      <trkpt lat="45.75402" lon="6.05501">
        <ele>836.4</ele>
        <time>2000-01-01T03:43:41.000Z</time>
      </trkpt>
      <trkpt lat="45.75396" lon="6.05504">
        <ele>837.5</ele>
        <time>2000-01-01T03:43:51.000Z</time>
      </trkpt>
      <trkpt lat="45.75393" lon="6.05505">
        <ele>841.2</ele>
        <time>2000-01-01T03:44:01.000Z</time>
      </trkpt>
      <trkpt lat="45.7539" lon="6.05506">
        <ele>842.8</ele>
        <time>2000-01-01T03:44:11.000Z</time>
      </trkpt>
      <trkpt lat="45.75386" lon="6.05505">
        <ele>845.5</ele>
        <time>2000-01-01T03:44:21.000Z</time>
      </trkpt>
      <trkpt lat="45.75381" lon="6.05499">
        <ele>848.3</ele>
        <time>2000-01-01T03:44:31.000Z</time>
      </trkpt>
      <trkpt lat="45.75376" lon="6.05494">
        <ele>852.8</ele>
        <time>2000-01-01T03:44:41.000Z</time>
      </trkpt>
      <trkpt lat="45.75373" lon="6.05489">
        <ele>855.2</ele>
        <time>2000-01-01T03:44:51.000Z</time>
      </trkpt>
      <trkpt lat="45.75371" lon="6.0548">
        <ele>858.2</ele>
        <time>2000-01-01T03:45:01.000Z</time>
      </trkpt>
      <trkpt lat="45.75371" lon="6.05475">
        <ele>858.8</ele>
        <time>2000-01-01T03:45:11.000Z</time>
      </trkpt>
      <trkpt lat="45.75372" lon="6.05471">
        <ele>857.5</ele>
        <time>2000-01-01T03:45:21.000Z</time>
      </trkpt>
      <trkpt lat="45.75371" lon="6.05467">
        <ele>860</ele>
        <time>2000-01-01T03:45:31.000Z</time>
      </trkpt>
      <trkpt lat="45.75367" lon="6.0546">
        <ele>863.4</ele>
        <time>2000-01-01T03:45:41.000Z</time>
      </trkpt>
      <trkpt lat="45.75366" lon="6.05455">
        <ele>864.2</ele>
        <time>2000-01-01T03:45:51.000Z</time>
      </trkpt>
      <trkpt lat="45.75368" lon="6.05451">
        <ele>865</ele>
        <time>2000-01-01T03:46:01.000Z</time>
      </trkpt>
      <trkpt lat="45.75371" lon="6.05451">
        <ele>863.1</ele>
        <time>2000-01-01T03:46:11.000Z</time>
      </trkpt>
      <trkpt lat="45.75373" lon="6.05459">
        <ele>859.7</ele>
        <time>2000-01-01T03:46:21.000Z</time>
      </trkpt>
      <trkpt lat="45.75374" lon="6.05462">
        <ele>859.7</ele>
        <time>2000-01-01T03:46:31.000Z</time>
      </trkpt>
      <trkpt lat="45.75376" lon="6.05465">
        <ele>857.2</ele>
        <time>2000-01-01T03:46:41.000Z</time>
      </trkpt>
      <trkpt lat="45.75375" lon="6.05468">
        <ele>858.2</ele>
        <time>2000-01-01T03:46:51.000Z</time>
      </trkpt>
      <trkpt lat="45.75371" lon="6.05469">
        <ele>860.1</ele>
        <time>2000-01-01T03:47:01.000Z</time>
      </trkpt>
      <trkpt lat="45.7537" lon="6.05479">
        <ele>858.8</ele>
        <time>2000-01-01T03:47:11.000Z</time>
      </trkpt>
      <trkpt lat="45.75373" lon="6.05487">
        <ele>855.9</ele>
        <time>2000-01-01T03:47:21.000Z</time>
      </trkpt>
      <trkpt lat="45.75373" lon="6.05491">
        <ele>855.3</ele>
        <time>2000-01-01T03:47:31.000Z</time>
      </trkpt>
      <trkpt lat="45.75374" lon="6.05495">
        <ele>854.8</ele>
        <time>2000-01-01T03:47:41.000Z</time>
      </trkpt>
      <trkpt lat="45.75367" lon="6.05497">
        <ele>858</ele>
        <time>2000-01-01T03:47:51.000Z</time>
      </trkpt>
      <trkpt lat="45.7536" lon="6.055">
        <ele>864.8</ele>
        <time>2000-01-01T03:48:01.000Z</time>
      </trkpt>
      <trkpt lat="45.75352" lon="6.05502">
        <ele>868.3</ele>
        <time>2000-01-01T03:48:11.000Z</time>
      </trkpt>
      <trkpt lat="45.75349" lon="6.05504">
        <ele>870.2</ele>
        <time>2000-01-01T03:48:21.000Z</time>
      </trkpt>
      <trkpt lat="45.75346" lon="6.05507">
        <ele>871.4</ele>
        <time>2000-01-01T03:48:31.000Z</time>
      </trkpt>
      <trkpt lat="45.75342" lon="6.05507">
        <ele>875.2</ele>
        <time>2000-01-01T03:48:41.000Z</time>
      </trkpt>
      <trkpt lat="45.75339" lon="6.05509">
        <ele>875.2</ele>
        <time>2000-01-01T03:48:51.000Z</time>
      </trkpt>
      <trkpt lat="45.75337" lon="6.05516">
        <ele>876</ele>
        <time>2000-01-01T03:49:01.000Z</time>
      </trkpt>
      <trkpt lat="45.75337" lon="6.05521">
        <ele>875.4</ele>
        <time>2000-01-01T03:49:11.000Z</time>
      </trkpt>
      <trkpt lat="45.75332" lon="6.05527">
        <ele>878.2</ele>
        <time>2000-01-01T03:49:21.000Z</time>
      </trkpt>
      <trkpt lat="45.75333" lon="6.05532">
        <ele>877.6</ele>
        <time>2000-01-01T03:49:31.000Z</time>
      </trkpt>
      <trkpt lat="45.7533" lon="6.05534">
        <ele>879.7</ele>
        <time>2000-01-01T03:49:41.000Z</time>
      </trkpt>
      <trkpt lat="45.75327" lon="6.05534">
        <ele>881.7</ele>
        <time>2000-01-01T03:49:51.000Z</time>
      </trkpt>
      <trkpt lat="45.75328" lon="6.05541">
        <ele>878.4</ele>
        <time>2000-01-01T03:50:01.000Z</time>
      </trkpt>
      <trkpt lat="45.75328" lon="6.05546">
        <ele>877.7</ele>
        <time>2000-01-01T03:50:11.000Z</time>
      </trkpt>
      <trkpt lat="45.75322" lon="6.05548">
        <ele>881.7</ele>
        <time>2000-01-01T03:50:21.000Z</time>
      </trkpt>
      <trkpt lat="45.75316" lon="6.05547">
        <ele>885.4</ele>
        <time>2000-01-01T03:50:31.000Z</time>
      </trkpt>
      <trkpt lat="45.75312" lon="6.05548">
        <ele>887.3</ele>
        <time>2000-01-01T03:50:41.000Z</time>
      </trkpt>
      <trkpt lat="45.75309" lon="6.05547">
        <ele>891.2</ele>
        <time>2000-01-01T03:50:51.000Z</time>
      </trkpt>
      <trkpt lat="45.75305" lon="6.05553">
        <ele>891.9</ele>
        <time>2000-01-01T03:51:01.000Z</time>
      </trkpt>
      <trkpt lat="45.75299" lon="6.0556">
        <ele>895.6</ele>
        <time>2000-01-01T03:51:11.000Z</time>
      </trkpt>
      <trkpt lat="45.75293" lon="6.05562">
        <ele>898.8</ele>
        <time>2000-01-01T03:51:21.000Z</time>
      </trkpt>
      <trkpt lat="45.75287" lon="6.05556">
        <ele>904.1</ele>
        <time>2000-01-01T03:51:31.000Z</time>
      </trkpt>
      <trkpt lat="45.75283" lon="6.0555">
        <ele>907.1</ele>
        <time>2000-01-01T03:51:41.000Z</time>
      </trkpt>
      <trkpt lat="45.75281" lon="6.05545">
        <ele>910.3</ele>
        <time>2000-01-01T03:51:51.000Z</time>
      </trkpt>
      <trkpt lat="45.75279" lon="6.05537">
        <ele>911.9</ele>
        <time>2000-01-01T03:52:01.000Z</time>
      </trkpt>
      <trkpt lat="45.75277" lon="6.05528">
        <ele>915.9</ele>
        <time>2000-01-01T03:52:11.000Z</time>
      </trkpt>
      <trkpt lat="45.75278" lon="6.05517">
        <ele>917.8</ele>
        <time>2000-01-01T03:52:21.000Z</time>
      </trkpt>
      <trkpt lat="45.7528" lon="6.05514">
        <ele>915.7</ele>
        <time>2000-01-01T03:52:31.000Z</time>
      </trkpt>
      <trkpt lat="45.75283" lon="6.05504">
        <ele>914.4</ele>
        <time>2000-01-01T03:52:41.000Z</time>
      </trkpt>
      <trkpt lat="45.75284" lon="6.05495">
        <ele>915.4</ele>
        <time>2000-01-01T03:52:51.000Z</time>
      </trkpt>
      <trkpt lat="45.75285" lon="6.0549">
        <ele>913.6</ele>
        <time>2000-01-01T03:53:01.000Z</time>
      </trkpt>
      <trkpt lat="45.75284" lon="6.05486">
        <ele>916.2</ele>
        <time>2000-01-01T03:53:11.000Z</time>
      </trkpt>
      <trkpt lat="45.75285" lon="6.05482">
        <ele>916.7</ele>
        <time>2000-01-01T03:53:21.000Z</time>
      </trkpt>
      <trkpt lat="45.75284" lon="6.05478">
        <ele>917.1</ele>
        <time>2000-01-01T03:53:31.000Z</time>
      </trkpt>
      <trkpt lat="45.75279" lon="6.05474">
        <ele>920.1</ele>
        <time>2000-01-01T03:53:41.000Z</time>
      </trkpt>
      <trkpt lat="45.75276" lon="6.05466">
        <ele>926.6</ele>
        <time>2000-01-01T03:53:51.000Z</time>
      </trkpt>
      <trkpt lat="45.75275" lon="6.05461">
        <ele>927.1</ele>
        <time>2000-01-01T03:54:01.000Z</time>
      </trkpt>
      <trkpt lat="45.75275" lon="6.05457">
        <ele>927.6</ele>
        <time>2000-01-01T03:54:11.000Z</time>
      </trkpt>
      <trkpt lat="45.75273" lon="6.05449">
        <ele>931.1</ele>
        <time>2000-01-01T03:54:21.000Z</time>
      </trkpt>
      <trkpt lat="45.75273" lon="6.05439">
        <ele>931.9</ele>
        <time>2000-01-01T03:54:31.000Z</time>
      </trkpt>
      <trkpt lat="45.75272" lon="6.05427">
        <ele>933.4</ele>
        <time>2000-01-01T03:54:41.000Z</time>
      </trkpt>
      <trkpt lat="45.75269" lon="6.05418">
        <ele>936.8</ele>
        <time>2000-01-01T03:54:51.000Z</time>
      </trkpt>
      <trkpt lat="45.75269" lon="6.05408">
        <ele>938.2</ele>
        <time>2000-01-01T03:55:01.000Z</time>
      </trkpt>
      <trkpt lat="45.75271" lon="6.05401">
        <ele>937.4</ele>
        <time>2000-01-01T03:55:11.000Z</time>
      </trkpt>
      <trkpt lat="45.75275" lon="6.05392">
        <ele>936.2</ele>
        <time>2000-01-01T03:55:21.000Z</time>
      </trkpt>
      <trkpt lat="45.75277" lon="6.05384">
        <ele>934.7</ele>
        <time>2000-01-01T03:55:31.000Z</time>
      </trkpt>
      <trkpt lat="45.75274" lon="6.05375">
        <ele>938</ele>
        <time>2000-01-01T03:55:41.000Z</time>
      </trkpt>
      <trkpt lat="45.75267" lon="6.05368">
        <ele>944.7</ele>
        <time>2000-01-01T03:55:51.000Z</time>
      </trkpt>
      <trkpt lat="45.75263" lon="6.05365">
        <ele>946.9</ele>
        <time>2000-01-01T03:56:01.000Z</time>
      </trkpt>
      <trkpt lat="45.75267" lon="6.05356">
        <ele>945.4</ele>
        <time>2000-01-01T03:56:11.000Z</time>
      </trkpt>
      <trkpt lat="45.75269" lon="6.05353">
        <ele>943.7</ele>
        <time>2000-01-01T03:56:21.000Z</time>
      </trkpt>
      <trkpt lat="45.75273" lon="6.05344">
        <ele>942.3</ele>
        <time>2000-01-01T03:56:31.000Z</time>
      </trkpt>
      <trkpt lat="45.75274" lon="6.0534">
        <ele>940.6</ele>
        <time>2000-01-01T03:56:41.000Z</time>
      </trkpt>
      <trkpt lat="45.75274" lon="6.05331">
        <ele>941.3</ele>
        <time>2000-01-01T03:56:51.000Z</time>
      </trkpt>
      <trkpt lat="45.75269" lon="6.05323">
        <ele>945.8</ele>
        <time>2000-01-01T03:57:01.000Z</time>
      </trkpt>
      <trkpt lat="45.75266" lon="6.05315">
        <ele>948.5</ele>
        <time>2000-01-01T03:57:11.000Z</time>
      </trkpt>
      <trkpt lat="45.75264" lon="6.05312">
        <ele>950.7</ele>
        <time>2000-01-01T03:57:21.000Z</time>
      </trkpt>
      <trkpt lat="45.75268" lon="6.05313">
        <ele>946.9</ele>
        <time>2000-01-01T03:57:31.000Z</time>
      </trkpt>
      <trkpt lat="45.7527" lon="6.05321">
        <ele>944.7</ele>
        <time>2000-01-01T03:57:41.000Z</time>
      </trkpt>
      <trkpt lat="45.75268" lon="6.05331">
        <ele>944.9</ele>
        <time>2000-01-01T03:57:51.000Z</time>
      </trkpt>
      <trkpt lat="45.75268" lon="6.05335">
        <ele>944.6</ele>
        <time>2000-01-01T03:58:01.000Z</time>
      </trkpt>
      <trkpt lat="45.75268" lon="6.0534">
        <ele>944.4</ele>
        <time>2000-01-01T03:58:11.000Z</time>
      </trkpt>
      <trkpt lat="45.75263" lon="6.05345">
        <ele>947.7</ele>
        <time>2000-01-01T03:58:21.000Z</time>
      </trkpt>
      <trkpt lat="45.75261" lon="6.05348">
        <ele>949.5</ele>
        <time>2000-01-01T03:58:31.000Z</time>
      </trkpt>
      <trkpt lat="45.75259" lon="6.05356">
        <ele>949.3</ele>
        <time>2000-01-01T03:58:41.000Z</time>
      </trkpt>
      <trkpt lat="45.75258" lon="6.05361">
        <ele>951.3</ele>
        <time>2000-01-01T03:58:51.000Z</time>
      </trkpt>
      <trkpt lat="45.75257" lon="6.05366">
        <ele>951.2</ele>
        <time>2000-01-01T03:59:01.000Z</time>
      </trkpt>
      <trkpt lat="45.7525" lon="6.05371">
        <ele>955.7</ele>
        <time>2000-01-01T03:59:11.000Z</time>
      </trkpt>
      <trkpt lat="45.75243" lon="6.05369">
        <ele>962.6</ele>
        <time>2000-01-01T03:59:21.000Z</time>
      </trkpt>
      <trkpt lat="45.75239" lon="6.05369">
        <ele>964.8</ele>
        <time>2000-01-01T03:59:31.000Z</time>
      </trkpt>
      <trkpt lat="45.75233" lon="6.05368">
        <ele>969.1</ele>
        <time>2000-01-01T03:59:41.000Z</time>
      </trkpt>
      <trkpt lat="45.7523" lon="6.05366">
        <ele>971.1</ele>
        <time>2000-01-01T03:59:51.000Z</time>
      </trkpt>
      <trkpt lat="45.75226" lon="6.0536">
        <ele>973.2</ele>
        <time>2000-01-01T04:00:01.000Z</time>
      </trkpt>
      <trkpt lat="45.75229" lon="6.05352">
        <ele>970.9</ele>
        <time>2000-01-01T04:00:11.000Z</time>
      </trkpt>
      <trkpt lat="45.75231" lon="6.05349">
        <ele>970.7</ele>
        <time>2000-01-01T04:00:21.000Z</time>
      </trkpt>
      <trkpt lat="45.75232" lon="6.05341">
        <ele>968.4</ele>
        <time>2000-01-01T04:00:31.000Z</time>
      </trkpt>
      <trkpt lat="45.75229" lon="6.05333">
        <ele>970.1</ele>
        <time>2000-01-01T04:00:41.000Z</time>
      </trkpt>
      <trkpt lat="45.75223" lon="6.05326">
        <ele>974.1</ele>
        <time>2000-01-01T04:00:51.000Z</time>
      </trkpt>
      <trkpt lat="45.75222" lon="6.05321">
        <ele>976.2</ele>
        <time>2000-01-01T04:01:01.000Z</time>
      </trkpt>
      <trkpt lat="45.75221" lon="6.05318">
        <ele>976.2</ele>
        <time>2000-01-01T04:01:11.000Z</time>
      </trkpt>
      <trkpt lat="45.75217" lon="6.05312">
        <ele>979.8</ele>
        <time>2000-01-01T04:01:21.000Z</time>
      </trkpt>
      <trkpt lat="45.7522" lon="6.05304">
        <ele>976.7</ele>
        <time>2000-01-01T04:01:31.000Z</time>
      </trkpt>
      <trkpt lat="45.75222" lon="6.05302">
        <ele>977</ele>
        <time>2000-01-01T04:01:41.000Z</time>
      </trkpt>
      <trkpt lat="45.75225" lon="6.05299">
        <ele>975.4</ele>
        <time>2000-01-01T04:01:51.000Z</time>
      </trkpt>
      <trkpt lat="45.75227" lon="6.05302">
        <ele>973.1</ele>
        <time>2000-01-01T04:02:01.000Z</time>
      </trkpt>
      <trkpt lat="45.75228" lon="6.05306">
        <ele>972.8</ele>
        <time>2000-01-01T04:02:11.000Z</time>
      </trkpt>
      <trkpt lat="45.75227" lon="6.05312">
        <ele>972.5</ele>
        <time>2000-01-01T04:02:21.000Z</time>
      </trkpt>
      <trkpt lat="45.75222" lon="6.05314">
        <ele>976.4</ele>
        <time>2000-01-01T04:02:31.000Z</time>
      </trkpt>
      <trkpt lat="45.75219" lon="6.05322">
        <ele>979.8</ele>
        <time>2000-01-01T04:02:41.000Z</time>
      </trkpt>
      <trkpt lat="45.75218" lon="6.05326">
        <ele>979.9</ele>
        <time>2000-01-01T04:02:51.000Z</time>
      </trkpt>
      <trkpt lat="45.75219" lon="6.0533">
        <ele>980</ele>
        <time>2000-01-01T04:03:01.000Z</time>
      </trkpt>
      <trkpt lat="45.75222" lon="6.05338">
        <ele>976.7</ele>
        <time>2000-01-01T04:03:11.000Z</time>
      </trkpt>
      <trkpt lat="45.75222" lon="6.05347">
        <ele>977.3</ele>
        <time>2000-01-01T04:03:21.000Z</time>
      </trkpt>
      <trkpt lat="45.75218" lon="6.05356">
        <ele>981.6</ele>
        <time>2000-01-01T04:03:31.000Z</time>
      </trkpt>
      <trkpt lat="45.75211" lon="6.05363">
        <ele>986.3</ele>
        <time>2000-01-01T04:03:41.000Z</time>
      </trkpt>
      <trkpt lat="45.75208" lon="6.05366">
        <ele>988.5</ele>
        <time>2000-01-01T04:03:51.000Z</time>
      </trkpt>
      <trkpt lat="45.75203" lon="6.05372">
        <ele>992.8</ele>
        <time>2000-01-01T04:04:01.000Z</time>
      </trkpt>
      <trkpt lat="45.75201" lon="6.05381">
        <ele>995.7</ele>
        <time>2000-01-01T04:04:11.000Z</time>
      </trkpt>
      <trkpt lat="45.75197" lon="6.05391">
        <ele>998.4</ele>
        <time>2000-01-01T04:04:21.000Z</time>
      </trkpt>
      <trkpt lat="45.75194" lon="6.05395">
        <ele>1000.9</ele>
        <time>2000-01-01T04:04:31.000Z</time>
      </trkpt>
      <trkpt lat="45.75191" lon="6.05403">
        <ele>1003.3</ele>
        <time>2000-01-01T04:04:41.000Z</time>
      </trkpt>
      <trkpt lat="45.75187" lon="6.05411">
        <ele>1005.5</ele>
        <time>2000-01-01T04:04:51.000Z</time>
      </trkpt>
      <trkpt lat="45.75183" lon="6.05418">
        <ele>1007.5</ele>
        <time>2000-01-01T04:05:01.000Z</time>
      </trkpt>
      <trkpt lat="45.75181" lon="6.05428">
        <ele>1009.4</ele>
        <time>2000-01-01T04:05:11.000Z</time>
      </trkpt>
      <trkpt lat="45.75179" lon="6.05437">
        <ele>1011.1</ele>
        <time>2000-01-01T04:05:21.000Z</time>
      </trkpt>
      <trkpt lat="45.75177" lon="6.05445">
        <ele>1013.1</ele>
        <time>2000-01-01T04:05:31.000Z</time>
      </trkpt>
      <trkpt lat="45.75174" lon="6.05455">
        <ele>1015.3</ele>
        <time>2000-01-01T04:05:41.000Z</time>
      </trkpt>
      <trkpt lat="45.75173" lon="6.0546">
        <ele>1015.1</ele>
        <time>2000-01-01T04:05:51.000Z</time>
      </trkpt>
      <trkpt lat="45.75169" lon="6.05464">
        <ele>1017.6</ele>
        <time>2000-01-01T04:06:01.000Z</time>
      </trkpt>
      <trkpt lat="45.75163" lon="6.05461">
        <ele>1023.3</ele>
        <time>2000-01-01T04:06:11.000Z</time>
      </trkpt>
      <trkpt lat="45.75157" lon="6.05457">
        <ele>1028.7</ele>
        <time>2000-01-01T04:06:21.000Z</time>
      </trkpt>
      <trkpt lat="45.75154" lon="6.05455">
        <ele>1031.2</ele>
        <time>2000-01-01T04:06:31.000Z</time>
      </trkpt>
      <trkpt lat="45.75153" lon="6.05451">
        <ele>1031.3</ele>
        <time>2000-01-01T04:06:41.000Z</time>
      </trkpt>
      <trkpt lat="45.75155" lon="6.05447">
        <ele>1031.5</ele>
        <time>2000-01-01T04:06:51.000Z</time>
      </trkpt>
      <trkpt lat="45.75158" lon="6.05446">
        <ele>1029</ele>
        <time>2000-01-01T04:07:01.000Z</time>
      </trkpt>
      <trkpt lat="45.75158" lon="6.05438">
        <ele>1029.3</ele>
        <time>2000-01-01T04:07:11.000Z</time>
      </trkpt>
      <trkpt lat="45.75154" lon="6.05429">
        <ele>1032</ele>
        <time>2000-01-01T04:07:21.000Z</time>
      </trkpt>
      <trkpt lat="45.75151" lon="6.0542">
        <ele>1034.6</ele>
        <time>2000-01-01T04:07:31.000Z</time>
      </trkpt>
      <trkpt lat="45.75149" lon="6.05412">
        <ele>1037.3</ele>
        <time>2000-01-01T04:07:41.000Z</time>
      </trkpt>
      <trkpt lat="45.75145" lon="6.05406">
        <ele>1039.8</ele>
        <time>2000-01-01T04:07:51.000Z</time>
      </trkpt>
      <trkpt lat="45.7514" lon="6.05397">
        <ele>1045.2</ele>
        <time>2000-01-01T04:08:01.000Z</time>
      </trkpt>
      <trkpt lat="45.75138" lon="6.05393">
        <ele>1047.9</ele>
        <time>2000-01-01T04:08:11.000Z</time>
      </trkpt>
      <trkpt lat="45.75138" lon="6.05383">
        <ele>1047.2</ele>
        <time>2000-01-01T04:08:21.000Z</time>
      </trkpt>
      <trkpt lat="45.75141" lon="6.05374">
        <ele>1043.2</ele>
        <time>2000-01-01T04:08:31.000Z</time>
      </trkpt>
      <trkpt lat="45.75142" lon="6.05367">
        <ele>1039.3</ele>
        <time>2000-01-01T04:08:41.000Z</time>
      </trkpt>
      <trkpt lat="45.75143" lon="6.05359">
        <ele>1038.2</ele>
        <time>2000-01-01T04:08:51.000Z</time>
      </trkpt>
      <trkpt lat="45.75145" lon="6.0535">
        <ele>1034.6</ele>
        <time>2000-01-01T04:09:01.000Z</time>
      </trkpt>
      <trkpt lat="45.75146" lon="6.05339">
        <ele>1033.4</ele>
        <time>2000-01-01T04:09:11.000Z</time>
      </trkpt>
      <trkpt lat="45.75144" lon="6.05335">
        <ele>1035.3</ele>
        <time>2000-01-01T04:09:21.000Z</time>
      </trkpt>
      <trkpt lat="45.75142" lon="6.05333">
        <ele>1034.9</ele>
        <time>2000-01-01T04:09:31.000Z</time>
      </trkpt>
      <trkpt lat="45.75142" lon="6.05327">
        <ele>1034.5</ele>
        <time>2000-01-01T04:09:41.000Z</time>
      </trkpt>
      <trkpt lat="45.75139" lon="6.05324">
        <ele>1036.7</ele>
        <time>2000-01-01T04:09:51.000Z</time>
      </trkpt>
      <trkpt lat="45.75135" lon="6.05319">
        <ele>1041.4</ele>
        <time>2000-01-01T04:10:01.000Z</time>
      </trkpt>
      <trkpt lat="45.75133" lon="6.05315">
        <ele>1041.1</ele>
        <time>2000-01-01T04:10:11.000Z</time>
      </trkpt>
      <trkpt lat="45.75134" lon="6.05307">
        <ele>1040.5</ele>
        <time>2000-01-01T04:10:21.000Z</time>
      </trkpt>
      <trkpt lat="45.75135" lon="6.05297">
        <ele>1037.7</ele>
        <time>2000-01-01T04:10:31.000Z</time>
      </trkpt>
      <trkpt lat="45.75135" lon="6.05288">
        <ele>1040</ele>
        <time>2000-01-01T04:10:41.000Z</time>
      </trkpt>
      <trkpt lat="45.75133" lon="6.05279">
        <ele>1040</ele>
        <time>2000-01-01T04:10:51.000Z</time>
      </trkpt>
      <trkpt lat="45.75126" lon="6.05273">
        <ele>1046.5</ele>
        <time>2000-01-01T04:11:01.000Z</time>
      </trkpt>
      <trkpt lat="45.75122" lon="6.05268">
        <ele>1048.5</ele>
        <time>2000-01-01T04:11:11.000Z</time>
      </trkpt>
      <trkpt lat="45.75119" lon="6.05266">
        <ele>1050.6</ele>
        <time>2000-01-01T04:11:21.000Z</time>
      </trkpt>
      <trkpt lat="45.75117" lon="6.05257">
        <ele>1053.1</ele>
        <time>2000-01-01T04:11:31.000Z</time>
      </trkpt>
      <trkpt lat="45.75119" lon="6.05249">
        <ele>1051.5</ele>
        <time>2000-01-01T04:11:41.000Z</time>
      </trkpt>
      <trkpt lat="45.75121" lon="6.05244">
        <ele>1050.1</ele>
        <time>2000-01-01T04:11:51.000Z</time>
      </trkpt>
      <trkpt lat="45.75126" lon="6.05238">
        <ele>1049.6</ele>
        <time>2000-01-01T04:12:01.000Z</time>
      </trkpt>
      <trkpt lat="45.75128" lon="6.05235">
        <ele>1048.8</ele>
        <time>2000-01-01T04:12:11.000Z</time>
      </trkpt>
      <trkpt lat="45.75134" lon="6.05237">
        <ele>1044.3</ele>
        <time>2000-01-01T04:12:21.000Z</time>
      </trkpt>
      <trkpt lat="45.75137" lon="6.05238">
        <ele>1042.4</ele>
        <time>2000-01-01T04:12:31.000Z</time>
      </trkpt>
      <trkpt lat="45.75142" lon="6.05246">
        <ele>1036.9</ele>
        <time>2000-01-01T04:12:41.000Z</time>
      </trkpt>
      <trkpt lat="45.75142" lon="6.05256">
        <ele>1035.5</ele>
        <time>2000-01-01T04:12:51.000Z</time>
      </trkpt>
      <trkpt lat="45.75141" lon="6.05266">
        <ele>1036.2</ele>
        <time>2000-01-01T04:13:01.000Z</time>
      </trkpt>
      <trkpt lat="45.75139" lon="6.0527">
        <ele>1035.9</ele>
        <time>2000-01-01T04:13:11.000Z</time>
      </trkpt>
      <trkpt lat="45.75138" lon="6.05273">
        <ele>1038.2</ele>
        <time>2000-01-01T04:13:21.000Z</time>
      </trkpt>
      <trkpt lat="45.75136" lon="6.05276">
        <ele>1038</ele>
        <time>2000-01-01T04:13:31.000Z</time>
      </trkpt>
      <trkpt lat="45.75133" lon="6.05275">
        <ele>1040.3</ele>
        <time>2000-01-01T04:13:41.000Z</time>
      </trkpt>
      <trkpt lat="45.75129" lon="6.05283">
        <ele>1044.5</ele>
        <time>2000-01-01T04:13:51.000Z</time>
      </trkpt>
      <trkpt lat="45.7513" lon="6.05293">
        <ele>1042.5</ele>
        <time>2000-01-01T04:14:01.000Z</time>
      </trkpt>
      <trkpt lat="45.75131" lon="6.05303">
        <ele>1042.9</ele>
        <time>2000-01-01T04:14:11.000Z</time>
      </trkpt>
      <trkpt lat="45.75128" lon="6.05313">
        <ele>1046</ele>
        <time>2000-01-01T04:14:21.000Z</time>
      </trkpt>
      <trkpt lat="45.75124" lon="6.05321">
        <ele>1048.9</ele>
        <time>2000-01-01T04:14:31.000Z</time>
      </trkpt>
      <trkpt lat="45.75124" lon="6.05331">
        <ele>1049.9</ele>
        <time>2000-01-01T04:14:41.000Z</time>
      </trkpt>
      <trkpt lat="45.7512" lon="6.0534">
        <ele>1055.5</ele>
        <time>2000-01-01T04:14:51.000Z</time>
      </trkpt>
      <trkpt lat="45.7512" lon="6.05346">
        <ele>1056.2</ele>
        <time>2000-01-01T04:15:01.000Z</time>
      </trkpt>
      <trkpt lat="45.75114" lon="6.05352">
        <ele>1063.4</ele>
        <time>2000-01-01T04:15:11.000Z</time>
      </trkpt>
      <trkpt lat="45.75111" lon="6.05353">
        <ele>1066.2</ele>
        <time>2000-01-01T04:15:21.000Z</time>
      </trkpt>
      <trkpt lat="45.75112" lon="6.05362">
        <ele>1065</ele>
        <time>2000-01-01T04:15:31.000Z</time>
      </trkpt>
      <trkpt lat="45.75112" lon="6.05367">
        <ele>1065.8</ele>
        <time>2000-01-01T04:15:41.000Z</time>
      </trkpt>
      <trkpt lat="45.75112" lon="6.05372">
        <ele>1066.6</ele>
        <time>2000-01-01T04:15:51.000Z</time>
      </trkpt>
      <trkpt lat="45.75109" lon="6.05371">
        <ele>1069.4</ele>
        <time>2000-01-01T04:16:01.000Z</time>
      </trkpt>
      <trkpt lat="45.75102" lon="6.05371">
        <ele>1076.8</ele>
        <time>2000-01-01T04:16:11.000Z</time>
      </trkpt>
      <trkpt lat="45.75097" lon="6.05371">
        <ele>1078.9</ele>
        <time>2000-01-01T04:16:21.000Z</time>
      </trkpt>
      <trkpt lat="45.75093" lon="6.05371">
        <ele>1083.4</ele>
        <time>2000-01-01T04:16:31.000Z</time>
      </trkpt>
      <trkpt lat="45.7509" lon="6.05372">
        <ele>1085.9</ele>
        <time>2000-01-01T04:16:41.000Z</time>
      </trkpt>
      <trkpt lat="45.75086" lon="6.05366">
        <ele>1087.7</ele>
        <time>2000-01-01T04:16:51.000Z</time>
      </trkpt>
      <trkpt lat="45.75082" lon="6.05358">
        <ele>1088.9</ele>
        <time>2000-01-01T04:17:01.000Z</time>
      </trkpt>
      <trkpt lat="45.75076" lon="6.0535">
        <ele>1092.6</ele>
        <time>2000-01-01T04:17:11.000Z</time>
      </trkpt>
      <trkpt lat="45.75072" lon="6.05341">
        <ele>1096</ele>
        <time>2000-01-01T04:17:21.000Z</time>
      </trkpt>
      <trkpt lat="45.75068" lon="6.05334">
        <ele>1097.5</ele>
        <time>2000-01-01T04:17:31.000Z</time>
      </trkpt>
      <trkpt lat="45.75069" lon="6.05324">
        <ele>1096.6</ele>
        <time>2000-01-01T04:17:41.000Z</time>
      </trkpt>
      <trkpt lat="45.75073" lon="6.05315">
        <ele>1093.5</ele>
        <time>2000-01-01T04:17:51.000Z</time>
      </trkpt>
      <trkpt lat="45.75076" lon="6.05305">
        <ele>1087.9</ele>
        <time>2000-01-01T04:18:01.000Z</time>
      </trkpt>
      <trkpt lat="45.75076" lon="6.05295">
        <ele>1087.1</ele>
        <time>2000-01-01T04:18:11.000Z</time>
      </trkpt>
      <trkpt lat="45.75076" lon="6.05291">
        <ele>1086.7</ele>
        <time>2000-01-01T04:18:21.000Z</time>
      </trkpt>
      <trkpt lat="45.75074" lon="6.05287">
        <ele>1088.8</ele>
        <time>2000-01-01T04:18:31.000Z</time>
      </trkpt>
      <trkpt lat="45.75073" lon="6.05276">
        <ele>1087.8</ele>
        <time>2000-01-01T04:18:41.000Z</time>
      </trkpt>
      <trkpt lat="45.75072" lon="6.05271">
        <ele>1089.9</ele>
        <time>2000-01-01T04:18:51.000Z</time>
      </trkpt>
      <trkpt lat="45.75071" lon="6.05263">
        <ele>1089.5</ele>
        <time>2000-01-01T04:19:01.000Z</time>
      </trkpt>
      <trkpt lat="45.75068" lon="6.05255">
        <ele>1091.6</ele>
        <time>2000-01-01T04:19:11.000Z</time>
      </trkpt>
      <trkpt lat="45.75069" lon="6.05247">
        <ele>1091.7</ele>
        <time>2000-01-01T04:19:21.000Z</time>
      </trkpt>
      <trkpt lat="45.75069" lon="6.05237">
        <ele>1092</ele>
        <time>2000-01-01T04:19:31.000Z</time>
      </trkpt>
      <trkpt lat="45.75071" lon="6.05231">
        <ele>1090.4</ele>
        <time>2000-01-01T04:19:41.000Z</time>
      </trkpt>
      <trkpt lat="45.75074" lon="6.05229">
        <ele>1088.3</ele>
        <time>2000-01-01T04:19:51.000Z</time>
      </trkpt>
      <trkpt lat="45.75076" lon="6.05226">
        <ele>1086.5</ele>
        <time>2000-01-01T04:20:01.000Z</time>
      </trkpt>
      <trkpt lat="45.75075" lon="6.05234">
        <ele>1088</ele>
        <time>2000-01-01T04:20:11.000Z</time>
      </trkpt>
      <trkpt lat="45.75075" lon="6.05238">
        <ele>1087.7</ele>
        <time>2000-01-01T04:20:21.000Z</time>
      </trkpt>
      <trkpt lat="45.75074" lon="6.05242">
        <ele>1087.5</ele>
        <time>2000-01-01T04:20:31.000Z</time>
      </trkpt>
      <trkpt lat="45.75072" lon="6.05252">
        <ele>1089.5</ele>
        <time>2000-01-01T04:20:41.000Z</time>
      </trkpt>
      <trkpt lat="45.75069" lon="6.0526">
        <ele>1091.8</ele>
        <time>2000-01-01T04:20:51.000Z</time>
      </trkpt>
      <trkpt lat="45.75068" lon="6.05271">
        <ele>1092.2</ele>
        <time>2000-01-01T04:21:01.000Z</time>
      </trkpt>
      <trkpt lat="45.75065" lon="6.05279">
        <ele>1095.1</ele>
        <time>2000-01-01T04:21:11.000Z</time>
      </trkpt>
      <trkpt lat="45.75062" lon="6.05288">
        <ele>1098</ele>
        <time>2000-01-01T04:21:21.000Z</time>
      </trkpt>
      <trkpt lat="45.75059" lon="6.05295">
        <ele>1100.7</ele>
        <time>2000-01-01T04:21:31.000Z</time>
      </trkpt>
      <trkpt lat="45.75057" lon="6.05299">
        <ele>1103.5</ele>
        <time>2000-01-01T04:21:41.000Z</time>
      </trkpt>
      <trkpt lat="45.75053" lon="6.05299">
        <ele>1106.3</ele>
        <time>2000-01-01T04:21:51.000Z</time>
      </trkpt>
      <trkpt lat="45.75051" lon="6.05297">
        <ele>1108.2</ele>
        <time>2000-01-01T04:22:01.000Z</time>
      </trkpt>
      <trkpt lat="45.75049" lon="6.05293">
        <ele>1107.8</ele>
        <time>2000-01-01T04:22:11.000Z</time>
      </trkpt>
      <trkpt lat="45.75043" lon="6.05288">
        <ele>1111.5</ele>
        <time>2000-01-01T04:22:21.000Z</time>
      </trkpt>
      <trkpt lat="45.75041" lon="6.0528">
        <ele>1112.4</ele>
        <time>2000-01-01T04:22:31.000Z</time>
      </trkpt>
      <trkpt lat="45.7504" lon="6.05275">
        <ele>1112.1</ele>
        <time>2000-01-01T04:22:41.000Z</time>
      </trkpt>
      <trkpt lat="45.75037" lon="6.05268">
        <ele>1113.2</ele>
        <time>2000-01-01T04:22:51.000Z</time>
      </trkpt>
      <trkpt lat="45.75034" lon="6.05261">
        <ele>1114.8</ele>
        <time>2000-01-01T04:23:01.000Z</time>
      </trkpt>
      <trkpt lat="45.75032" lon="6.05257">
        <ele>1116.6</ele>
        <time>2000-01-01T04:23:11.000Z</time>
      </trkpt>
      <trkpt lat="45.75027" lon="6.05249">
        <ele>1120.7</ele>
        <time>2000-01-01T04:23:21.000Z</time>
      </trkpt>
      <trkpt lat="45.75026" lon="6.05245">
        <ele>1120.6</ele>
        <time>2000-01-01T04:23:31.000Z</time>
      </trkpt>
      <trkpt lat="45.75025" lon="6.05235">
        <ele>1120.3</ele>
        <time>2000-01-01T04:23:41.000Z</time>
      </trkpt>
      <trkpt lat="45.75025" lon="6.05225">
        <ele>1120.4</ele>
        <time>2000-01-01T04:23:51.000Z</time>
      </trkpt>
      <trkpt lat="45.75026" lon="6.05216">
        <ele>1120.7</ele>
        <time>2000-01-01T04:24:01.000Z</time>
      </trkpt>
      <trkpt lat="45.7503" lon="6.05213">
        <ele>1118.8</ele>
        <time>2000-01-01T04:24:11.000Z</time>
      </trkpt>
      <trkpt lat="45.75032" lon="6.0521">
        <ele>1116.8</ele>
        <time>2000-01-01T04:24:21.000Z</time>
      </trkpt>
      <trkpt lat="45.75035" lon="6.05211">
        <ele>1114.9</ele>
        <time>2000-01-01T04:24:31.000Z</time>
      </trkpt>
      <trkpt lat="45.75034" lon="6.05215">
        <ele>1116.5</ele>
        <time>2000-01-01T04:24:41.000Z</time>
      </trkpt>
      <trkpt lat="45.75031" lon="6.05216">
        <ele>1118.6</ele>
        <time>2000-01-01T04:24:51.000Z</time>
      </trkpt>
      <trkpt lat="45.75028" lon="6.05216">
        <ele>1118.6</ele>
        <time>2000-01-01T04:25:01.000Z</time>
      </trkpt>
      <trkpt lat="45.75024" lon="6.05223">
        <ele>1122.6</ele>
        <time>2000-01-01T04:25:11.000Z</time>
      </trkpt>
      <trkpt lat="45.75021" lon="6.05232">
        <ele>1124.5</ele>
        <time>2000-01-01T04:25:21.000Z</time>
      </trkpt>
      <trkpt lat="45.75022" lon="6.05241">
        <ele>1122.7</ele>
        <time>2000-01-01T04:25:31.000Z</time>
      </trkpt>
      <trkpt lat="45.75022" lon="6.05251">
        <ele>1123</ele>
        <time>2000-01-01T04:25:41.000Z</time>
      </trkpt>
      <trkpt lat="45.75022" lon="6.05261">
        <ele>1123.6</ele>
        <time>2000-01-01T04:25:51.000Z</time>
      </trkpt>
      <trkpt lat="45.75024" lon="6.05266">
        <ele>1123.9</ele>
        <time>2000-01-01T04:26:01.000Z</time>
      </trkpt>
      <trkpt lat="45.75024" lon="6.05272">
        <ele>1124.2</ele>
        <time>2000-01-01T04:26:11.000Z</time>
      </trkpt>
      <trkpt lat="45.75023" lon="6.05276">
        <ele>1124.5</ele>
        <time>2000-01-01T04:26:21.000Z</time>
      </trkpt>
      <trkpt lat="45.75017" lon="6.05278">
        <ele>1128.3</ele>
        <time>2000-01-01T04:26:31.000Z</time>
      </trkpt>
      <trkpt lat="45.75008" lon="6.05276">
        <ele>1134.1</ele>
        <time>2000-01-01T04:26:41.000Z</time>
      </trkpt>
      <trkpt lat="45.75008" lon="6.05271">
        <ele>1133.8</ele>
        <time>2000-01-01T04:26:51.000Z</time>
      </trkpt>
      <trkpt lat="45.75005" lon="6.05264">
        <ele>1135.5</ele>
        <time>2000-01-01T04:27:01.000Z</time>
      </trkpt>
      <trkpt lat="45.74998" lon="6.05259">
        <ele>1140</ele>
        <time>2000-01-01T04:27:11.000Z</time>
      </trkpt>
      <trkpt lat="45.74993" lon="6.05253">
        <ele>1144.5</ele>
        <time>2000-01-01T04:27:21.000Z</time>
      </trkpt>
      <trkpt lat="45.74989" lon="6.05246">
        <ele>1146.4</ele>
        <time>2000-01-01T04:27:31.000Z</time>
      </trkpt>
      <trkpt lat="45.74988" lon="6.05241">
        <ele>1148.5</ele>
        <time>2000-01-01T04:27:41.000Z</time>
      </trkpt>
      <trkpt lat="45.74985" lon="6.0524">
        <ele>1150.8</ele>
        <time>2000-01-01T04:27:51.000Z</time>
      </trkpt>
      <trkpt lat="45.74984" lon="6.05236">
        <ele>1150.7</ele>
        <time>2000-01-01T04:28:01.000Z</time>
      </trkpt>
      <trkpt lat="45.74984" lon="6.05231">
        <ele>1150.5</ele>
        <time>2000-01-01T04:28:11.000Z</time>
      </trkpt>
      <trkpt lat="45.74982" lon="6.05227">
        <ele>1152.8</ele>
        <time>2000-01-01T04:28:21.000Z</time>
      </trkpt>
      <trkpt lat="45.74976" lon="6.05221">
        <ele>1157.4</ele>
        <time>2000-01-01T04:28:31.000Z</time>
      </trkpt>
      <trkpt lat="45.7497" lon="6.05212">
        <ele>1162.3</ele>
        <time>2000-01-01T04:28:41.000Z</time>
      </trkpt>
      <trkpt lat="45.74969" lon="6.05202">
        <ele>1162.3</ele>
        <time>2000-01-01T04:28:51.000Z</time>
      </trkpt>
      <trkpt lat="45.74974" lon="6.05197">
        <ele>1162.1</ele>
        <time>2000-01-01T04:29:01.000Z</time>
      </trkpt>
      <trkpt lat="45.74977" lon="6.05195">
        <ele>1161.1</ele>
        <time>2000-01-01T04:29:11.000Z</time>
      </trkpt>
      <trkpt lat="45.74978" lon="6.05197">
        <ele>1159.6</ele>
        <time>2000-01-01T04:29:21.000Z</time>
      </trkpt>
      <trkpt lat="45.74978" lon="6.05207">
        <ele>1159.6</ele>
        <time>2000-01-01T04:29:31.000Z</time>
      </trkpt>
      <trkpt lat="45.74979" lon="6.05216">
        <ele>1158</ele>
        <time>2000-01-01T04:29:41.000Z</time>
      </trkpt>
      <trkpt lat="45.74981" lon="6.05226">
        <ele>1157.7</ele>
        <time>2000-01-01T04:29:51.000Z</time>
      </trkpt>
      <trkpt lat="45.74982" lon="6.0523">
        <ele>1157.8</ele>
        <time>2000-01-01T04:30:01.000Z</time>
      </trkpt>
      <trkpt lat="45.74982" lon="6.05234">
        <ele>1158.2</ele>
        <time>2000-01-01T04:30:11.000Z</time>
      </trkpt>
      <trkpt lat="45.74975" lon="6.05241">
        <ele>1162.2</ele>
        <time>2000-01-01T04:30:21.000Z</time>
      </trkpt>
      <trkpt lat="45.74972" lon="6.05243">
        <ele>1164.3</ele>
        <time>2000-01-01T04:30:31.000Z</time>
      </trkpt>
      <trkpt lat="45.74969" lon="6.05243">
        <ele>1166.3</ele>
        <time>2000-01-01T04:30:41.000Z</time>
      </trkpt>
      <trkpt lat="45.74966" lon="6.0524">
        <ele>1167.9</ele>
        <time>2000-01-01T04:30:51.000Z</time>
      </trkpt>
      <trkpt lat="45.74964" lon="6.05233">
        <ele>1170.2</ele>
        <time>2000-01-01T04:31:01.000Z</time>
      </trkpt>
      <trkpt lat="45.7496" lon="6.05226">
        <ele>1173.1</ele>
        <time>2000-01-01T04:31:11.000Z</time>
      </trkpt>
      <trkpt lat="45.74955" lon="6.05219">
        <ele>1175</ele>
        <time>2000-01-01T04:31:21.000Z</time>
      </trkpt>
      <trkpt lat="45.74953" lon="6.05217">
        <ele>1175.6</ele>
        <time>2000-01-01T04:31:31.000Z</time>
      </trkpt>
      <trkpt lat="45.74947" lon="6.05213">
        <ele>1178</ele>
        <time>2000-01-01T04:31:41.000Z</time>
      </trkpt>
      <trkpt lat="45.74941" lon="6.05209">
        <ele>1180.3</ele>
        <time>2000-01-01T04:31:51.000Z</time>
      </trkpt>
      <trkpt lat="45.74938" lon="6.05202">
        <ele>1181.6</ele>
        <time>2000-01-01T04:32:01.000Z</time>
      </trkpt>
      <trkpt lat="45.74936" lon="6.05197">
        <ele>1183.5</ele>
        <time>2000-01-01T04:32:11.000Z</time>
      </trkpt>
      <trkpt lat="45.7493" lon="6.05192">
        <ele>1186.3</ele>
        <time>2000-01-01T04:32:21.000Z</time>
      </trkpt>
      <trkpt lat="45.74927" lon="6.05191">
        <ele>1187.2</ele>
        <time>2000-01-01T04:32:31.000Z</time>
      </trkpt>
      <trkpt lat="45.74923" lon="6.05183">
        <ele>1188.9</ele>
        <time>2000-01-01T04:32:41.000Z</time>
      </trkpt>
      <trkpt lat="45.74921" lon="6.05177">
        <ele>1189.9</ele>
        <time>2000-01-01T04:32:51.000Z</time>
      </trkpt>
      <trkpt lat="45.74922" lon="6.05164">
        <ele>1192.7</ele>
        <time>2000-01-01T04:33:01.000Z</time>
      </trkpt>
      <trkpt lat="45.74926" lon="6.05154">
        <ele>1193.8</ele>
        <time>2000-01-01T04:33:11.000Z</time>
      </trkpt>
      <trkpt lat="45.74924" lon="6.05146">
        <ele>1194.6</ele>
        <time>2000-01-01T04:33:21.000Z</time>
      </trkpt>
      <trkpt lat="45.74921" lon="6.05144">
        <ele>1194.9</ele>
        <time>2000-01-01T04:33:31.000Z</time>
      </trkpt>
      <trkpt lat="45.74924" lon="6.05134">
        <ele>1197.5</ele>
        <time>2000-01-01T04:33:41.000Z</time>
      </trkpt>
      <trkpt lat="45.74927" lon="6.0512">
        <ele>1200.2</ele>
        <time>2000-01-01T04:33:51.000Z</time>
      </trkpt>
      <trkpt lat="45.74929" lon="6.05115">
        <ele>1199.9</ele>
        <time>2000-01-01T04:34:01.000Z</time>
      </trkpt>
      <trkpt lat="45.74927" lon="6.05111">
        <ele>1199.1</ele>
        <time>2000-01-01T04:34:11.000Z</time>
      </trkpt>
      <trkpt lat="45.74925" lon="6.05108">
        <ele>1198.7</ele>
        <time>2000-01-01T04:34:21.000Z</time>
      </trkpt>
      <trkpt lat="45.74921" lon="6.05103">
        <ele>1197.8</ele>
        <time>2000-01-01T04:34:31.000Z</time>
      </trkpt>
      <trkpt lat="45.7492" lon="6.05097">
        <ele>1197.2</ele>
        <time>2000-01-01T04:34:41.000Z</time>
      </trkpt>
      <trkpt lat="45.74919" lon="6.05092">
        <ele>1196.3</ele>
        <time>2000-01-01T04:34:51.000Z</time>
      </trkpt>
      <trkpt lat="45.74924" lon="6.05084">
        <ele>1194.3</ele>
        <time>2000-01-01T04:35:01.000Z</time>
      </trkpt>
      <trkpt lat="45.74928" lon="6.05077">
        <ele>1193.9</ele>
        <time>2000-01-01T04:35:11.000Z</time>
      </trkpt>
      <trkpt lat="45.74931" lon="6.05068">
        <ele>1194.2</ele>
        <time>2000-01-01T04:35:21.000Z</time>
      </trkpt>
      <trkpt lat="45.74933" lon="6.05063">
        <ele>1194.9</ele>
        <time>2000-01-01T04:35:31.000Z</time>
      </trkpt>
      <trkpt lat="45.74935" lon="6.0506">
        <ele>1195.7</ele>
        <time>2000-01-01T04:35:41.000Z</time>
      </trkpt>
      <trkpt lat="45.74941" lon="6.05057">
        <ele>1197.5</ele>
        <time>2000-01-01T04:35:51.000Z</time>
      </trkpt>
      <trkpt lat="45.74945" lon="6.05049">
        <ele>1199.4</ele>
        <time>2000-01-01T04:36:01.000Z</time>
      </trkpt>
      <trkpt lat="45.74948" lon="6.05039">
        <ele>1202.3</ele>
        <time>2000-01-01T04:36:11.000Z</time>
      </trkpt>
      <trkpt lat="45.74951" lon="6.05029">
        <ele>1206.1</ele>
        <time>2000-01-01T04:36:21.000Z</time>
      </trkpt>
      <trkpt lat="45.74953" lon="6.05026">
        <ele>1206.7</ele>
        <time>2000-01-01T04:36:31.000Z</time>
      </trkpt>
      <trkpt lat="45.74957" lon="6.05018">
        <ele>1208.5</ele>
        <time>2000-01-01T04:36:41.000Z</time>
      </trkpt>
      <trkpt lat="45.7496" lon="6.05007">
        <ele>1210.9</ele>
        <time>2000-01-01T04:36:51.000Z</time>
      </trkpt>
      <trkpt lat="45.74963" lon="6.04999">
        <ele>1211.5</ele>
        <time>2000-01-01T04:37:01.000Z</time>
      </trkpt>
      <trkpt lat="45.74966" lon="6.04989">
        <ele>1211.1</ele>
        <time>2000-01-01T04:37:11.000Z</time>
      </trkpt>
      <trkpt lat="45.74969" lon="6.04982">
        <ele>1212.1</ele>
        <time>2000-01-01T04:37:21.000Z</time>
      </trkpt>
      <trkpt lat="45.74971" lon="6.04972">
        <ele>1214.1</ele>
        <time>2000-01-01T04:37:31.000Z</time>
      </trkpt>
      <trkpt lat="45.74975" lon="6.04961">
        <ele>1216.7</ele>
        <time>2000-01-01T04:37:41.000Z</time>
      </trkpt>
      <trkpt lat="45.74976" lon="6.04956">
        <ele>1217.3</ele>
        <time>2000-01-01T04:37:51.000Z</time>
      </trkpt>
      <trkpt lat="45.7498" lon="6.04949">
        <ele>1217</ele>
        <time>2000-01-01T04:38:01.000Z</time>
      </trkpt>
      <trkpt lat="45.74986" lon="6.04943">
        <ele>1216.9</ele>
        <time>2000-01-01T04:38:11.000Z</time>
      </trkpt>
      <trkpt lat="45.7499" lon="6.04935">
        <ele>1218.8</ele>
        <time>2000-01-01T04:38:21.000Z</time>
      </trkpt>
      <trkpt lat="45.74995" lon="6.04928">
        <ele>1217.3</ele>
        <time>2000-01-01T04:38:31.000Z</time>
      </trkpt>
      <trkpt lat="45.75" lon="6.04921">
        <ele>1216.1</ele>
        <time>2000-01-01T04:38:41.000Z</time>
      </trkpt>
      <trkpt lat="45.75005" lon="6.04915">
        <ele>1216</ele>
        <time>2000-01-01T04:38:51.000Z</time>
      </trkpt>
      <trkpt lat="45.75012" lon="6.04911">
        <ele>1215.4</ele>
        <time>2000-01-01T04:39:01.000Z</time>
      </trkpt>
      <trkpt lat="45.75019" lon="6.04909">
        <ele>1213.3</ele>
        <time>2000-01-01T04:39:11.000Z</time>
      </trkpt>
      <trkpt lat="45.75022" lon="6.04909">
        <ele>1212.7</ele>
        <time>2000-01-01T04:39:21.000Z</time>
      </trkpt>
      <trkpt lat="45.75029" lon="6.04909">
        <ele>1212.9</ele>
        <time>2000-01-01T04:39:31.000Z</time>
      </trkpt>
      <trkpt lat="45.75036" lon="6.04905">
        <ele>1212.2</ele>
        <time>2000-01-01T04:39:41.000Z</time>
      </trkpt>
      <trkpt lat="45.75044" lon="6.04904">
        <ele>1212.5</ele>
        <time>2000-01-01T04:39:51.000Z</time>
      </trkpt>
      <trkpt lat="45.75051" lon="6.04908">
        <ele>1215.9</ele>
        <time>2000-01-01T04:40:01.000Z</time>
      </trkpt>
      <trkpt lat="45.75057" lon="6.04909">
        <ele>1218.9</ele>
        <time>2000-01-01T04:40:11.000Z</time>
      </trkpt>
      <trkpt lat="45.75061" lon="6.04908">
        <ele>1220.8</ele>
        <time>2000-01-01T04:40:21.000Z</time>
      </trkpt>
      <trkpt lat="45.75066" lon="6.04908">
        <ele>1223.5</ele>
        <time>2000-01-01T04:40:31.000Z</time>
      </trkpt>
      <trkpt lat="45.75068" lon="6.04911">
        <ele>1224.9</ele>
        <time>2000-01-01T04:40:41.000Z</time>
      </trkpt>
      <trkpt lat="45.75071" lon="6.04911">
        <ele>1226.1</ele>
        <time>2000-01-01T04:40:51.000Z</time>
      </trkpt>
      <trkpt lat="45.75066" lon="6.04908">
        <ele>1227.6</ele>
        <time>2000-01-01T04:41:01.000Z</time>
      </trkpt>
      <trkpt lat="45.7506" lon="6.04908">
        <ele>1229.1</ele>
        <time>2000-01-01T04:41:11.000Z</time>
      </trkpt>
      <trkpt lat="45.75058" lon="6.04907">
        <ele>1229.9</ele>
        <time>2000-01-01T04:41:21.000Z</time>
      </trkpt>
      <trkpt lat="45.75055" lon="6.04906">
        <ele>1230.8</ele>
        <time>2000-01-01T04:41:31.000Z</time>
      </trkpt>
      <trkpt lat="45.75052" lon="6.04906">
        <ele>1232.4</ele>
        <time>2000-01-01T04:41:41.000Z</time>
      </trkpt>
      <trkpt lat="45.75049" lon="6.04907">
        <ele>1234.3</ele>
        <time>2000-01-01T04:41:51.000Z</time>
      </trkpt>
      <trkpt lat="45.75045" lon="6.04906">
        <ele>1235.9</ele>
        <time>2000-01-01T04:42:01.000Z</time>
      </trkpt>
      <trkpt lat="45.7504" lon="6.04904">
        <ele>1237.7</ele>
        <time>2000-01-01T04:42:11.000Z</time>
      </trkpt>
      <trkpt lat="45.75036" lon="6.04903">
        <ele>1238.5</ele>
        <time>2000-01-01T04:42:21.000Z</time>
      </trkpt>
      <trkpt lat="45.75034" lon="6.04901">
        <ele>1239.2</ele>
        <time>2000-01-01T04:42:31.000Z</time>
      </trkpt>
      <trkpt lat="45.75032" lon="6.04898">
        <ele>1240</ele>
        <time>2000-01-01T04:42:41.000Z</time>
      </trkpt>
      <trkpt lat="45.75025" lon="6.04895">
        <ele>1242.5</ele>
        <time>2000-01-01T04:42:51.000Z</time>
      </trkpt>
      <trkpt lat="45.75017" lon="6.04896">
        <ele>1244.3</ele>
        <time>2000-01-01T04:43:01.000Z</time>
      </trkpt>
      <trkpt lat="45.75014" lon="6.04897">
        <ele>1245.3</ele>
        <time>2000-01-01T04:43:11.000Z</time>
      </trkpt>
      <trkpt lat="45.75011" lon="6.04898">
        <ele>1246.2</ele>
        <time>2000-01-01T04:43:21.000Z</time>
      </trkpt>
      <trkpt lat="45.75005" lon="6.04897">
        <ele>1247.6</ele>
        <time>2000-01-01T04:43:31.000Z</time>
      </trkpt>
      <trkpt lat="45.74999" lon="6.04897">
        <ele>1249.1</ele>
        <time>2000-01-01T04:43:41.000Z</time>
      </trkpt>
      <trkpt lat="45.74992" lon="6.04902">
        <ele>1252</ele>
        <time>2000-01-01T04:43:51.000Z</time>
      </trkpt>
      <trkpt lat="45.74989" lon="6.04903">
        <ele>1253.2</ele>
        <time>2000-01-01T04:44:01.000Z</time>
      </trkpt>
      <trkpt lat="45.7499" lon="6.04899">
        <ele>1253.4</ele>
        <time>2000-01-01T04:44:11.000Z</time>
      </trkpt>
      <trkpt lat="45.74985" lon="6.04897">
        <ele>1253.6</ele>
        <time>2000-01-01T04:44:21.000Z</time>
      </trkpt>
      <trkpt lat="45.74982" lon="6.04897">
        <ele>1254</ele>
        <time>2000-01-01T04:44:31.000Z</time>
      </trkpt>
      <trkpt lat="45.74976" lon="6.04902">
        <ele>1254.8</ele>
        <time>2000-01-01T04:44:41.000Z</time>
      </trkpt>
      <trkpt lat="45.7497" lon="6.04906">
        <ele>1255</ele>
        <time>2000-01-01T04:44:51.000Z</time>
      </trkpt>
      <trkpt lat="45.74961" lon="6.04908">
        <ele>1254.9</ele>
        <time>2000-01-01T04:45:01.000Z</time>
      </trkpt>
      <trkpt lat="45.74952" lon="6.04907">
        <ele>1255.3</ele>
        <time>2000-01-01T04:45:11.000Z</time>
      </trkpt>
      <trkpt lat="45.74944" lon="6.04907">
        <ele>1255.8</ele>
        <time>2000-01-01T04:45:21.000Z</time>
      </trkpt>
      <trkpt lat="45.74936" lon="6.04906">
        <ele>1255.9</ele>
        <time>2000-01-01T04:45:31.000Z</time>
      </trkpt>
      <trkpt lat="45.74933" lon="6.04905">
        <ele>1257.8</ele>
        <time>2000-01-01T04:45:41.000Z</time>
      </trkpt>
      <trkpt lat="45.7493" lon="6.04907">
        <ele>1259.2</ele>
        <time>2000-01-01T04:45:51.000Z</time>
      </trkpt>
      <trkpt lat="45.74926" lon="6.04907">
        <ele>1259.2</ele>
        <time>2000-01-01T04:46:01.000Z</time>
      </trkpt>
      <trkpt lat="45.74924" lon="6.049">
        <ele>1259</ele>
        <time>2000-01-01T04:46:11.000Z</time>
      </trkpt>
      <trkpt lat="45.74924" lon="6.04895">
        <ele>1258.8</ele>
        <time>2000-01-01T04:46:21.000Z</time>
      </trkpt>
      <trkpt lat="45.74925" lon="6.04885">
        <ele>1258.9</ele>
        <time>2000-01-01T04:46:31.000Z</time>
      </trkpt>
      <trkpt lat="45.74925" lon="6.0488">
        <ele>1259.4</ele>
        <time>2000-01-01T04:46:41.000Z</time>
      </trkpt>
      <trkpt lat="45.74927" lon="6.04876">
        <ele>1260.1</ele>
        <time>2000-01-01T04:46:51.000Z</time>
      </trkpt>
      <trkpt lat="45.74933" lon="6.0487">
        <ele>1262.1</ele>
        <time>2000-01-01T04:47:01.000Z</time>
      </trkpt>
      <trkpt lat="45.74935" lon="6.04864">
        <ele>1263.4</ele>
        <time>2000-01-01T04:47:11.000Z</time>
      </trkpt>
      <trkpt lat="45.74937" lon="6.04859">
        <ele>1264.5</ele>
        <time>2000-01-01T04:47:21.000Z</time>
      </trkpt>
      <trkpt lat="45.7494" lon="6.04858">
        <ele>1265.3</ele>
        <time>2000-01-01T04:47:31.000Z</time>
      </trkpt>
      <trkpt lat="45.74944" lon="6.04859">
        <ele>1266</ele>
        <time>2000-01-01T04:47:41.000Z</time>
      </trkpt>
      <trkpt lat="45.74951" lon="6.04859">
        <ele>1266.5</ele>
        <time>2000-01-01T04:47:51.000Z</time>
      </trkpt>
      <trkpt lat="45.74958" lon="6.04855">
        <ele>1266.6</ele>
        <time>2000-01-01T04:48:01.000Z</time>
      </trkpt>
      <trkpt lat="45.74962" lon="6.04851">
        <ele>1266.9</ele>
        <time>2000-01-01T04:48:11.000Z</time>
      </trkpt>
      <trkpt lat="45.74965" lon="6.0485">
        <ele>1267.1</ele>
        <time>2000-01-01T04:48:21.000Z</time>
      </trkpt>
      <trkpt lat="45.74966" lon="6.04846">
        <ele>1266.6</ele>
        <time>2000-01-01T04:48:31.000Z</time>
      </trkpt>
      <trkpt lat="45.74972" lon="6.04844">
        <ele>1265.8</ele>
        <time>2000-01-01T04:48:41.000Z</time>
      </trkpt>
      <trkpt lat="45.74979" lon="6.04843">
        <ele>1264.5</ele>
        <time>2000-01-01T04:48:51.000Z</time>
      </trkpt>
      <trkpt lat="45.74983" lon="6.04841">
        <ele>1263.8</ele>
        <time>2000-01-01T04:49:01.000Z</time>
      </trkpt>
      <trkpt lat="45.74986" lon="6.0484">
        <ele>1263.2</ele>
        <time>2000-01-01T04:49:11.000Z</time>
      </trkpt>
      <trkpt lat="45.74989" lon="6.04839">
        <ele>1264</ele>
        <time>2000-01-01T04:49:21.000Z</time>
      </trkpt>
      <trkpt lat="45.74991" lon="6.04836">
        <ele>1265.5</ele>
        <time>2000-01-01T04:49:31.000Z</time>
      </trkpt>
      <trkpt lat="45.74998" lon="6.04837">
        <ele>1266.8</ele>
        <time>2000-01-01T04:49:41.000Z</time>
      </trkpt>
      <trkpt lat="45.75001" lon="6.04834">
        <ele>1267.2</ele>
        <time>2000-01-01T04:49:51.000Z</time>
      </trkpt>
      <trkpt lat="45.75002" lon="6.04838">
        <ele>1267.5</ele>
        <time>2000-01-01T04:50:01.000Z</time>
      </trkpt>
      <trkpt lat="45.75005" lon="6.04837">
        <ele>1267.7</ele>
        <time>2000-01-01T04:50:11.000Z</time>
      </trkpt>
      <trkpt lat="45.75004" lon="6.04833">
        <ele>1269.5</ele>
        <time>2000-01-01T04:50:21.000Z</time>
      </trkpt>
      <trkpt lat="45.75001" lon="6.04834">
        <ele>1271.3</ele>
        <time>2000-01-01T04:50:31.000Z</time>
      </trkpt>
      <trkpt lat="45.74999" lon="6.04837">
        <ele>1273.2</ele>
        <time>2000-01-01T04:50:41.000Z</time>
      </trkpt>
      <trkpt lat="45.74997" lon="6.0484">
        <ele>1272.8</ele>
        <time>2000-01-01T04:50:51.000Z</time>
      </trkpt>
      <trkpt lat="45.7499" lon="6.04836">
        <ele>1273</ele>
        <time>2000-01-01T04:51:01.000Z</time>
      </trkpt>
      <trkpt lat="45.74984" lon="6.04834">
        <ele>1273.7</ele>
        <time>2000-01-01T04:51:11.000Z</time>
      </trkpt>
      <trkpt lat="45.74979" lon="6.04831">
        <ele>1274.9</ele>
        <time>2000-01-01T04:51:21.000Z</time>
      </trkpt>
      <trkpt lat="45.74973" lon="6.04827">
        <ele>1276.4</ele>
        <time>2000-01-01T04:51:31.000Z</time>
      </trkpt>
      <trkpt lat="45.74967" lon="6.04824">
        <ele>1277</ele>
        <time>2000-01-01T04:51:41.000Z</time>
      </trkpt>
      <trkpt lat="45.74964" lon="6.04823">
        <ele>1277.3</ele>
        <time>2000-01-01T04:51:51.000Z</time>
      </trkpt>
      <trkpt lat="45.74962" lon="6.04819">
        <ele>1277.6</ele>
        <time>2000-01-01T04:52:01.000Z</time>
      </trkpt>
      <trkpt lat="45.74957" lon="6.04817">
        <ele>1278.4</ele>
        <time>2000-01-01T04:52:11.000Z</time>
      </trkpt>
      <trkpt lat="45.7495" lon="6.04819">
        <ele>1279.8</ele>
        <time>2000-01-01T04:52:21.000Z</time>
      </trkpt>
      <trkpt lat="45.74946" lon="6.04822">
        <ele>1280.3</ele>
        <time>2000-01-01T04:52:31.000Z</time>
      </trkpt>
      <trkpt lat="45.74942" lon="6.04823">
        <ele>1281.1</ele>
        <time>2000-01-01T04:52:41.000Z</time>
      </trkpt>
      <trkpt lat="45.74936" lon="6.04825">
        <ele>1282.5</ele>
        <time>2000-01-01T04:52:51.000Z</time>
      </trkpt>
      <trkpt lat="45.74929" lon="6.04828">
        <ele>1282.3</ele>
        <time>2000-01-01T04:53:01.000Z</time>
      </trkpt>
      <trkpt lat="45.74926" lon="6.04828">
        <ele>1282.4</ele>
        <time>2000-01-01T04:53:11.000Z</time>
      </trkpt>
      <trkpt lat="45.74924" lon="6.0483">
        <ele>1282.6</ele>
        <time>2000-01-01T04:53:21.000Z</time>
      </trkpt>
      <trkpt lat="45.74919" lon="6.04836">
        <ele>1282.8</ele>
        <time>2000-01-01T04:53:31.000Z</time>
      </trkpt>
      <trkpt lat="45.74917" lon="6.04837">
        <ele>1282.8</ele>
        <time>2000-01-01T04:53:41.000Z</time>
      </trkpt>
      <trkpt lat="45.74914" lon="6.04838">
        <ele>1282.7</ele>
        <time>2000-01-01T04:53:51.000Z</time>
      </trkpt>
      <trkpt lat="45.74908" lon="6.04841">
        <ele>1283.2</ele>
        <time>2000-01-01T04:54:01.000Z</time>
      </trkpt>
      <trkpt lat="45.74904" lon="6.04841">
        <ele>1283.4</ele>
        <time>2000-01-01T04:54:11.000Z</time>
      </trkpt>
      <trkpt lat="45.74899" lon="6.0484">
        <ele>1283.1</ele>
        <time>2000-01-01T04:54:21.000Z</time>
      </trkpt>
      <trkpt lat="45.74897" lon="6.04837">
        <ele>1282.9</ele>
        <time>2000-01-01T04:54:31.000Z</time>
      </trkpt>
      <trkpt lat="45.74892" lon="6.04831">
        <ele>1282.6</ele>
        <time>2000-01-01T04:54:41.000Z</time>
      </trkpt>
      <trkpt lat="45.74891" lon="6.04822">
        <ele>1283.1</ele>
        <time>2000-01-01T04:54:51.000Z</time>
      </trkpt>
      <trkpt lat="45.74892" lon="6.04818">
        <ele>1283.4</ele>
        <time>2000-01-01T04:55:01.000Z</time>
      </trkpt>
      <trkpt lat="45.74893" lon="6.04814">
        <ele>1283.7</ele>
        <time>2000-01-01T04:55:11.000Z</time>
      </trkpt>
      <trkpt lat="45.74897" lon="6.04805">
        <ele>1284.4</ele>
        <time>2000-01-01T04:55:21.000Z</time>
      </trkpt>
      <trkpt lat="45.74897" lon="6.04802">
        <ele>1284.6</ele>
        <time>2000-01-01T04:55:31.000Z</time>
      </trkpt>
      <trkpt lat="45.74897" lon="6.04798">
        <ele>1285.1</ele>
        <time>2000-01-01T04:55:41.000Z</time>
      </trkpt>
      <trkpt lat="45.749" lon="6.04796">
        <ele>1285.9</ele>
        <time>2000-01-01T04:55:51.000Z</time>
      </trkpt>
      <trkpt lat="45.74903" lon="6.04798">
        <ele>1286.1</ele>
        <time>2000-01-01T04:56:01.000Z</time>
      </trkpt>
      <trkpt lat="45.74909" lon="6.04802">
        <ele>1286.5</ele>
        <time>2000-01-01T04:56:11.000Z</time>
      </trkpt>
      <trkpt lat="45.74909" lon="6.04804">
        <ele>1286.8</ele>
        <time>2000-01-01T04:56:21.000Z</time>
      </trkpt>
      <trkpt lat="45.74901" lon="6.04808">
        <ele>1287.3</ele>
        <time>2000-01-01T04:56:31.000Z</time>
      </trkpt>
      <trkpt lat="45.74894" lon="6.04809">
        <ele>1287.7</ele>
        <time>2000-01-01T04:56:41.000Z</time>
      </trkpt>
      <trkpt lat="45.74888" lon="6.04811">
        <ele>1287.9</ele>
        <time>2000-01-01T04:56:51.000Z</time>
      </trkpt>
      <trkpt lat="45.74886" lon="6.04814">
        <ele>1287.8</ele>
        <time>2000-01-01T04:57:01.000Z</time>
      </trkpt>
      <trkpt lat="45.7488" lon="6.04816">
        <ele>1288</ele>
        <time>2000-01-01T04:57:11.000Z</time>
      </trkpt>
      <trkpt lat="45.74874" lon="6.04819">
        <ele>1288.2</ele>
        <time>2000-01-01T04:57:21.000Z</time>
      </trkpt>
      <trkpt lat="45.74867" lon="6.04818">
        <ele>1288.1</ele>
        <time>2000-01-01T04:57:31.000Z</time>
      </trkpt>
      <trkpt lat="45.74861" lon="6.04817">
        <ele>1287.8</ele>
        <time>2000-01-01T04:57:41.000Z</time>
      </trkpt>
      <trkpt lat="45.74858" lon="6.04818">
        <ele>1287.7</ele>
        <time>2000-01-01T04:57:51.000Z</time>
      </trkpt>
      <trkpt lat="45.74856" lon="6.0482">
        <ele>1287.6</ele>
        <time>2000-01-01T04:58:01.000Z</time>
      </trkpt>
      <trkpt lat="45.74853" lon="6.04824">
        <ele>1287.3</ele>
        <time>2000-01-01T04:58:11.000Z</time>
      </trkpt>
      <trkpt lat="45.74852" lon="6.04832">
        <ele>1286.9</ele>
        <time>2000-01-01T04:58:21.000Z</time>
      </trkpt>
      <trkpt lat="45.74847" lon="6.04836">
        <ele>1286.4</ele>
        <time>2000-01-01T04:58:31.000Z</time>
      </trkpt>
      <trkpt lat="45.7484" lon="6.04839">
        <ele>1285.6</ele>
        <time>2000-01-01T04:58:41.000Z</time>
      </trkpt>
      <trkpt lat="45.74834" lon="6.0484">
        <ele>1285</ele>
        <time>2000-01-01T04:58:51.000Z</time>
      </trkpt>
      <trkpt lat="45.74826" lon="6.0484">
        <ele>1285</ele>
        <time>2000-01-01T04:59:01.000Z</time>
      </trkpt>
      <trkpt lat="45.74819" lon="6.04842">
        <ele>1284.3</ele>
        <time>2000-01-01T04:59:11.000Z</time>
      </trkpt>
      <trkpt lat="45.74812" lon="6.04847">
        <ele>1283.6</ele>
        <time>2000-01-01T04:59:21.000Z</time>
      </trkpt>
      <trkpt lat="45.74804" lon="6.0485">
        <ele>1283.5</ele>
        <time>2000-01-01T04:59:31.000Z</time>
      </trkpt>
      <trkpt lat="45.74796" lon="6.04853">
        <ele>1283</ele>
        <time>2000-01-01T04:59:41.000Z</time>
      </trkpt>
      <trkpt lat="45.74788" lon="6.04855">
        <ele>1282.8</ele>
        <time>2000-01-01T04:59:51.000Z</time>
      </trkpt>
      <trkpt lat="45.74784" lon="6.04854">
        <ele>1282.9</ele>
        <time>2000-01-01T05:00:01.000Z</time>
      </trkpt>
      <trkpt lat="45.74777" lon="6.04851">
        <ele>1283.1</ele>
        <time>2000-01-01T05:00:11.000Z</time>
      </trkpt>
      <trkpt lat="45.74771" lon="6.04844">
        <ele>1283.9</ele>
        <time>2000-01-01T05:00:21.000Z</time>
      </trkpt>
      <trkpt lat="45.74762" lon="6.04841">
        <ele>1284.1</ele>
        <time>2000-01-01T05:00:31.000Z</time>
      </trkpt>
      <trkpt lat="45.74755" lon="6.04837">
        <ele>1284.6</ele>
        <time>2000-01-01T05:00:41.000Z</time>
      </trkpt>
      <trkpt lat="45.74747" lon="6.04834">
        <ele>1285.3</ele>
        <time>2000-01-01T05:00:51.000Z</time>
      </trkpt>
      <trkpt lat="45.74738" lon="6.0483">
        <ele>1285.9</ele>
        <time>2000-01-01T05:01:01.000Z</time>
      </trkpt>
      <trkpt lat="45.74731" lon="6.04829">
        <ele>1286.4</ele>
        <time>2000-01-01T05:01:11.000Z</time>
      </trkpt>
      <trkpt lat="45.7472" lon="6.04825">
        <ele>1286.6</ele>
        <time>2000-01-01T05:01:21.000Z</time>
      </trkpt>
      <trkpt lat="45.74707" lon="6.04818">
        <ele>1285.5</ele>
        <time>2000-01-01T05:01:31.000Z</time>
      </trkpt>
      <trkpt lat="45.74698" lon="6.04816">
        <ele>1284.3</ele>
        <time>2000-01-01T05:01:41.000Z</time>
      </trkpt>
      <trkpt lat="45.74694" lon="6.04816">
        <ele>1283.6</ele>
        <time>2000-01-01T05:01:51.000Z</time>
      </trkpt>
      <trkpt lat="45.74686" lon="6.04819">
        <ele>1281.8</ele>
        <time>2000-01-01T05:02:01.000Z</time>
      </trkpt>
      <trkpt lat="45.74676" lon="6.04823">
        <ele>1279.8</ele>
        <time>2000-01-01T05:02:11.000Z</time>
      </trkpt>
      <trkpt lat="45.74667" lon="6.04821">
        <ele>1279.1</ele>
        <time>2000-01-01T05:02:21.000Z</time>
      </trkpt>
      <trkpt lat="45.7466" lon="6.04821">
        <ele>1279.1</ele>
        <time>2000-01-01T05:02:31.000Z</time>
      </trkpt>
      <trkpt lat="45.74651" lon="6.0482">
        <ele>1279.6</ele>
        <time>2000-01-01T05:02:41.000Z</time>
      </trkpt>
      <trkpt lat="45.74647" lon="6.04819">
        <ele>1280.1</ele>
        <time>2000-01-01T05:02:51.000Z</time>
      </trkpt>
      <trkpt lat="45.74638" lon="6.04821">
        <ele>1281</ele>
        <time>2000-01-01T05:03:01.000Z</time>
      </trkpt>
      <trkpt lat="45.74632" lon="6.04827">
        <ele>1282</ele>
        <time>2000-01-01T05:03:11.000Z</time>
      </trkpt>
      <trkpt lat="45.74629" lon="6.04828">
        <ele>1282.4</ele>
        <time>2000-01-01T05:03:21.000Z</time>
      </trkpt>
      <trkpt lat="45.74625" lon="6.04829">
        <ele>1282.6</ele>
        <time>2000-01-01T05:03:31.000Z</time>
      </trkpt>
      <trkpt lat="45.74621" lon="6.04828">
        <ele>1282.8</ele>
        <time>2000-01-01T05:03:41.000Z</time>
      </trkpt>
      <trkpt lat="45.74619" lon="6.04826">
        <ele>1282.9</ele>
        <time>2000-01-01T05:03:51.000Z</time>
      </trkpt>
      <trkpt lat="45.74617" lon="6.04819">
        <ele>1283</ele>
        <time>2000-01-01T05:04:01.000Z</time>
      </trkpt>
      <trkpt lat="45.7461" lon="6.04815">
        <ele>1282.9</ele>
        <time>2000-01-01T05:04:11.000Z</time>
      </trkpt>
      <trkpt lat="45.74603" lon="6.04817">
        <ele>1282.6</ele>
        <time>2000-01-01T05:04:21.000Z</time>
      </trkpt>
      <trkpt lat="45.74596" lon="6.04817">
        <ele>1282.2</ele>
        <time>2000-01-01T05:04:31.000Z</time>
      </trkpt>
      <trkpt lat="45.74589" lon="6.04815">
        <ele>1282.4</ele>
        <time>2000-01-01T05:04:41.000Z</time>
      </trkpt>
      <trkpt lat="45.74581" lon="6.04813">
        <ele>1282.1</ele>
        <time>2000-01-01T05:04:51.000Z</time>
      </trkpt>
      <trkpt lat="45.74578" lon="6.04811">
        <ele>1282</ele>
        <time>2000-01-01T05:05:01.000Z</time>
      </trkpt>
      <trkpt lat="45.74575" lon="6.04809">
        <ele>1281.8</ele>
        <time>2000-01-01T05:05:11.000Z</time>
      </trkpt>
      <trkpt lat="45.74571" lon="6.04807">
        <ele>1281.7</ele>
        <time>2000-01-01T05:05:21.000Z</time>
      </trkpt>
      <trkpt lat="45.74568" lon="6.04808">
        <ele>1281.6</ele>
        <time>2000-01-01T05:05:31.000Z</time>
      </trkpt>
      <trkpt lat="45.74565" lon="6.04807">
        <ele>1281.5</ele>
        <time>2000-01-01T05:05:41.000Z</time>
      </trkpt>
      <trkpt lat="45.74562" lon="6.04808">
        <ele>1281.4</ele>
        <time>2000-01-01T05:05:51.000Z</time>
      </trkpt>
      <trkpt lat="45.74555" lon="6.04815">
        <ele>1281.1</ele>
        <time>2000-01-01T05:06:01.000Z</time>
      </trkpt>
      <trkpt lat="45.74549" lon="6.04817">
        <ele>1280.7</ele>
        <time>2000-01-01T05:06:11.000Z</time>
      </trkpt>
      <trkpt lat="45.74541" lon="6.04815">
        <ele>1280.3</ele>
        <time>2000-01-01T05:06:21.000Z</time>
      </trkpt>
      <trkpt lat="45.74534" lon="6.04812">
        <ele>1280.6</ele>
        <time>2000-01-01T05:06:31.000Z</time>
      </trkpt>
      <trkpt lat="45.74526" lon="6.04809">
        <ele>1279.6</ele>
        <time>2000-01-01T05:06:41.000Z</time>
      </trkpt>
      <trkpt lat="45.74518" lon="6.04808">
        <ele>1278.2</ele>
        <time>2000-01-01T05:06:51.000Z</time>
      </trkpt>
      <trkpt lat="45.74509" lon="6.04805">
        <ele>1276.2</ele>
        <time>2000-01-01T05:07:01.000Z</time>
      </trkpt>
      <trkpt lat="45.74503" lon="6.04805">
        <ele>1275.2</ele>
        <time>2000-01-01T05:07:11.000Z</time>
      </trkpt>
      <trkpt lat="45.74497" lon="6.04806">
        <ele>1274.7</ele>
        <time>2000-01-01T05:07:21.000Z</time>
      </trkpt>
      <trkpt lat="45.74494" lon="6.04806">
        <ele>1273.9</ele>
        <time>2000-01-01T05:07:31.000Z</time>
      </trkpt>
      <trkpt lat="45.74488" lon="6.04804">
        <ele>1272.5</ele>
        <time>2000-01-01T05:07:41.000Z</time>
      </trkpt>
      <trkpt lat="45.74479" lon="6.04798">
        <ele>1270.2</ele>
        <time>2000-01-01T05:07:51.000Z</time>
      </trkpt>
      <trkpt lat="45.74476" lon="6.04796">
        <ele>1270.1</ele>
        <time>2000-01-01T05:08:01.000Z</time>
      </trkpt>
      <trkpt lat="45.74468" lon="6.048">
        <ele>1269.5</ele>
        <time>2000-01-01T05:08:11.000Z</time>
      </trkpt>
      <trkpt lat="45.7446" lon="6.0481">
        <ele>1268.6</ele>
        <time>2000-01-01T05:08:21.000Z</time>
      </trkpt>
      <trkpt lat="45.74454" lon="6.04812">
        <ele>1268.9</ele>
        <time>2000-01-01T05:08:31.000Z</time>
      </trkpt>
      <trkpt lat="45.74447" lon="6.04813">
        <ele>1268.3</ele>
        <time>2000-01-01T05:08:41.000Z</time>
      </trkpt>
      <trkpt lat="45.74438" lon="6.04814">
        <ele>1269.1</ele>
        <time>2000-01-01T05:08:51.000Z</time>
      </trkpt>
      <trkpt lat="45.74433" lon="6.04814">
        <ele>1269.4</ele>
        <time>2000-01-01T05:09:01.000Z</time>
      </trkpt>
      <trkpt lat="45.74426" lon="6.04813">
        <ele>1269.2</ele>
        <time>2000-01-01T05:09:11.000Z</time>
      </trkpt>
      <trkpt lat="45.74422" lon="6.04812">
        <ele>1269.1</ele>
        <time>2000-01-01T05:09:21.000Z</time>
      </trkpt>
      <trkpt lat="45.74418" lon="6.04805">
        <ele>1268.9</ele>
        <time>2000-01-01T05:09:31.000Z</time>
      </trkpt>
      <trkpt lat="45.74412" lon="6.04797">
        <ele>1268.6</ele>
        <time>2000-01-01T05:09:41.000Z</time>
      </trkpt>
      <trkpt lat="45.74405" lon="6.04791">
        <ele>1268.9</ele>
        <time>2000-01-01T05:09:51.000Z</time>
      </trkpt>
      <trkpt lat="45.744" lon="6.04785">
        <ele>1270</ele>
        <time>2000-01-01T05:10:01.000Z</time>
      </trkpt>
      <trkpt lat="45.74397" lon="6.0478">
        <ele>1270.8</ele>
        <time>2000-01-01T05:10:11.000Z</time>
      </trkpt>
      <trkpt lat="45.7439" lon="6.0478">
        <ele>1272.1</ele>
        <time>2000-01-01T05:10:21.000Z</time>
      </trkpt>
      <trkpt lat="45.74386" lon="6.04784">
        <ele>1272.9</ele>
        <time>2000-01-01T05:10:31.000Z</time>
      </trkpt>
      <trkpt lat="45.74382" lon="6.04786">
        <ele>1273.7</ele>
        <time>2000-01-01T05:10:41.000Z</time>
      </trkpt>
      <trkpt lat="45.74376" lon="6.04782">
        <ele>1274.8</ele>
        <time>2000-01-01T05:10:51.000Z</time>
      </trkpt>
      <trkpt lat="45.74376" lon="6.04777">
        <ele>1275.4</ele>
        <time>2000-01-01T05:11:01.000Z</time>
      </trkpt>
      <trkpt lat="45.74375" lon="6.04771">
        <ele>1276.4</ele>
        <time>2000-01-01T05:11:11.000Z</time>
      </trkpt>
      <trkpt lat="45.7437" lon="6.04765">
        <ele>1278.4</ele>
        <time>2000-01-01T05:11:21.000Z</time>
      </trkpt>
      <trkpt lat="45.74366" lon="6.04759">
        <ele>1280.9</ele>
        <time>2000-01-01T05:11:31.000Z</time>
      </trkpt>
      <trkpt lat="45.74362" lon="6.04752">
        <ele>1282.7</ele>
        <time>2000-01-01T05:11:41.000Z</time>
      </trkpt>
      <trkpt lat="45.74357" lon="6.04746">
        <ele>1285.2</ele>
        <time>2000-01-01T05:11:51.000Z</time>
      </trkpt>
      <trkpt lat="45.74355" lon="6.04742">
        <ele>1285.8</ele>
        <time>2000-01-01T05:12:01.000Z</time>
      </trkpt>
      <trkpt lat="45.7435" lon="6.04735">
        <ele>1287.2</ele>
        <time>2000-01-01T05:12:11.000Z</time>
      </trkpt>
      <trkpt lat="45.74349" lon="6.04732">
        <ele>1288.1</ele>
        <time>2000-01-01T05:12:21.000Z</time>
      </trkpt>
      <trkpt lat="45.74347" lon="6.04728">
        <ele>1289.2</ele>
        <time>2000-01-01T05:12:31.000Z</time>
      </trkpt>
      <trkpt lat="45.74345" lon="6.04725">
        <ele>1289.7</ele>
        <time>2000-01-01T05:12:41.000Z</time>
      </trkpt>
      <trkpt lat="45.7434" lon="6.0472">
        <ele>1290.4</ele>
        <time>2000-01-01T05:12:51.000Z</time>
      </trkpt>
      <trkpt lat="45.74335" lon="6.04716">
        <ele>1292</ele>
        <time>2000-01-01T05:13:01.000Z</time>
      </trkpt>
      <trkpt lat="45.7433" lon="6.0471">
        <ele>1293</ele>
        <time>2000-01-01T05:13:11.000Z</time>
      </trkpt>
      <trkpt lat="45.74324" lon="6.04702">
        <ele>1294.6</ele>
        <time>2000-01-01T05:13:21.000Z</time>
      </trkpt>
      <trkpt lat="45.74321" lon="6.04698">
        <ele>1295.7</ele>
        <time>2000-01-01T05:13:31.000Z</time>
      </trkpt>
      <trkpt lat="45.74316" lon="6.04695">
        <ele>1296.7</ele>
        <time>2000-01-01T05:13:41.000Z</time>
      </trkpt>
      <trkpt lat="45.74308" lon="6.04691">
        <ele>1298.2</ele>
        <time>2000-01-01T05:13:51.000Z</time>
      </trkpt>
      <trkpt lat="45.74302" lon="6.04688">
        <ele>1299.8</ele>
        <time>2000-01-01T05:14:01.000Z</time>
      </trkpt>
      <trkpt lat="45.74295" lon="6.04684">
        <ele>1300.5</ele>
        <time>2000-01-01T05:14:11.000Z</time>
      </trkpt>
      <trkpt lat="45.74289" lon="6.04678">
        <ele>1300.9</ele>
        <time>2000-01-01T05:14:21.000Z</time>
      </trkpt>
      <trkpt lat="45.74287" lon="6.04676">
        <ele>1301.2</ele>
        <time>2000-01-01T05:14:31.000Z</time>
      </trkpt>
      <trkpt lat="45.74281" lon="6.04672">
        <ele>1302.4</ele>
        <time>2000-01-01T05:14:41.000Z</time>
      </trkpt>
      <trkpt lat="45.74273" lon="6.04671">
        <ele>1302.7</ele>
        <time>2000-01-01T05:14:51.000Z</time>
      </trkpt>
      <trkpt lat="45.74266" lon="6.04666">
        <ele>1303</ele>
        <time>2000-01-01T05:15:01.000Z</time>
      </trkpt>
      <trkpt lat="45.7426" lon="6.04662">
        <ele>1303.6</ele>
        <time>2000-01-01T05:15:11.000Z</time>
      </trkpt>
      <trkpt lat="45.74256" lon="6.0466">
        <ele>1304.1</ele>
        <time>2000-01-01T05:15:21.000Z</time>
      </trkpt>
      <trkpt lat="45.74251" lon="6.04657">
        <ele>1304.6</ele>
        <time>2000-01-01T05:15:31.000Z</time>
      </trkpt>
      <trkpt lat="45.74245" lon="6.04652">
        <ele>1305</ele>
        <time>2000-01-01T05:15:41.000Z</time>
      </trkpt>
      <trkpt lat="45.7424" lon="6.04648">
        <ele>1305.3</ele>
        <time>2000-01-01T05:15:51.000Z</time>
      </trkpt>
      <trkpt lat="45.74232" lon="6.04644">
        <ele>1306.8</ele>
        <time>2000-01-01T05:16:01.000Z</time>
      </trkpt>
      <trkpt lat="45.74225" lon="6.04637">
        <ele>1307.7</ele>
        <time>2000-01-01T05:16:11.000Z</time>
      </trkpt>
      <trkpt lat="45.74223" lon="6.04629">
        <ele>1308.9</ele>
        <time>2000-01-01T05:16:21.000Z</time>
      </trkpt>
      <trkpt lat="45.74223" lon="6.04624">
        <ele>1309.6</ele>
        <time>2000-01-01T05:16:31.000Z</time>
      </trkpt>
      <trkpt lat="45.74221" lon="6.04617">
        <ele>1310.3</ele>
        <time>2000-01-01T05:16:41.000Z</time>
      </trkpt>
      <trkpt lat="45.74215" lon="6.0461">
        <ele>1311.7</ele>
        <time>2000-01-01T05:16:51.000Z</time>
      </trkpt>
      <trkpt lat="45.74209" lon="6.04609">
        <ele>1312.8</ele>
        <time>2000-01-01T05:17:01.000Z</time>
      </trkpt>
      <trkpt lat="45.74202" lon="6.04607">
        <ele>1313.8</ele>
        <time>2000-01-01T05:17:11.000Z</time>
      </trkpt>
      <trkpt lat="45.74197" lon="6.04603">
        <ele>1315.3</ele>
        <time>2000-01-01T05:17:21.000Z</time>
      </trkpt>
      <trkpt lat="45.74194" lon="6.04599">
        <ele>1316.2</ele>
        <time>2000-01-01T05:17:31.000Z</time>
      </trkpt>
      <trkpt lat="45.74189" lon="6.04596">
        <ele>1317.2</ele>
        <time>2000-01-01T05:17:41.000Z</time>
      </trkpt>
      <trkpt lat="45.74186" lon="6.04593">
        <ele>1317.8</ele>
        <time>2000-01-01T05:17:51.000Z</time>
      </trkpt>
      <trkpt lat="45.74183" lon="6.0459">
        <ele>1318.9</ele>
        <time>2000-01-01T05:18:01.000Z</time>
      </trkpt>
      <trkpt lat="45.7418" lon="6.04589">
        <ele>1319.7</ele>
        <time>2000-01-01T05:18:11.000Z</time>
      </trkpt>
      <trkpt lat="45.74176" lon="6.04583">
        <ele>1320.6</ele>
        <time>2000-01-01T05:18:21.000Z</time>
      </trkpt>
      <trkpt lat="45.74171" lon="6.04578">
        <ele>1321.7</ele>
        <time>2000-01-01T05:18:31.000Z</time>
      </trkpt>
      <trkpt lat="45.74166" lon="6.04572">
        <ele>1323</ele>
        <time>2000-01-01T05:18:41.000Z</time>
      </trkpt>
      <trkpt lat="45.7416" lon="6.04566">
        <ele>1323.9</ele>
        <time>2000-01-01T05:18:51.000Z</time>
      </trkpt>
      <trkpt lat="45.74155" lon="6.04558">
        <ele>1325.3</ele>
        <time>2000-01-01T05:19:01.000Z</time>
      </trkpt>
      <trkpt lat="45.74152" lon="6.04551">
        <ele>1326.6</ele>
        <time>2000-01-01T05:19:11.000Z</time>
      </trkpt>
      <trkpt lat="45.7415" lon="6.04546">
        <ele>1327.3</ele>
        <time>2000-01-01T05:19:21.000Z</time>
      </trkpt>
      <trkpt lat="45.74149" lon="6.04543">
        <ele>1327.9</ele>
        <time>2000-01-01T05:19:31.000Z</time>
      </trkpt>
      <trkpt lat="45.74144" lon="6.04537">
        <ele>1329</ele>
        <time>2000-01-01T05:19:41.000Z</time>
      </trkpt>
      <trkpt lat="45.74142" lon="6.04534">
        <ele>1329.6</ele>
        <time>2000-01-01T05:19:51.000Z</time>
      </trkpt>
      <trkpt lat="45.74136" lon="6.04528">
        <ele>1331</ele>
        <time>2000-01-01T05:20:01.000Z</time>
      </trkpt>
      <trkpt lat="45.74134" lon="6.04526">
        <ele>1331.6</ele>
        <time>2000-01-01T05:20:11.000Z</time>
      </trkpt>
      <trkpt lat="45.74131" lon="6.04524">
        <ele>1332.1</ele>
        <time>2000-01-01T05:20:21.000Z</time>
      </trkpt>
      <trkpt lat="45.74125" lon="6.0452">
        <ele>1333.4</ele>
        <time>2000-01-01T05:20:31.000Z</time>
      </trkpt>
      <trkpt lat="45.74121" lon="6.04512">
        <ele>1334.6</ele>
        <time>2000-01-01T05:20:41.000Z</time>
      </trkpt>
      <trkpt lat="45.74119" lon="6.04509">
        <ele>1335.1</ele>
        <time>2000-01-01T05:20:51.000Z</time>
      </trkpt>
      <trkpt lat="45.74116" lon="6.04503">
        <ele>1336.1</ele>
        <time>2000-01-01T05:21:01.000Z</time>
      </trkpt>
      <trkpt lat="45.7411" lon="6.04496">
        <ele>1337.3</ele>
        <time>2000-01-01T05:21:11.000Z</time>
      </trkpt>
      <trkpt lat="45.74104" lon="6.04491">
        <ele>1338.4</ele>
        <time>2000-01-01T05:21:21.000Z</time>
      </trkpt>
      <trkpt lat="45.74102" lon="6.04488">
        <ele>1338.9</ele>
        <time>2000-01-01T05:21:31.000Z</time>
      </trkpt>
      <trkpt lat="45.74098" lon="6.04482">
        <ele>1339.8</ele>
        <time>2000-01-01T05:21:41.000Z</time>
      </trkpt>
      <trkpt lat="45.74093" lon="6.04477">
        <ele>1340.8</ele>
        <time>2000-01-01T05:21:51.000Z</time>
      </trkpt>
      <trkpt lat="45.74089" lon="6.0447">
        <ele>1341.8</ele>
        <time>2000-01-01T05:22:01.000Z</time>
      </trkpt>
      <trkpt lat="45.74086" lon="6.04463">
        <ele>1342.7</ele>
        <time>2000-01-01T05:22:11.000Z</time>
      </trkpt>
      <trkpt lat="45.74081" lon="6.04457">
        <ele>1343.6</ele>
        <time>2000-01-01T05:22:21.000Z</time>
      </trkpt>
      <trkpt lat="45.74078" lon="6.04457">
        <ele>1344.2</ele>
        <time>2000-01-01T05:22:31.000Z</time>
      </trkpt>
      <trkpt lat="45.74075" lon="6.04459">
        <ele>1344.9</ele>
        <time>2000-01-01T05:22:41.000Z</time>
      </trkpt>
      <trkpt lat="45.74068" lon="6.04458">
        <ele>1346.1</ele>
        <time>2000-01-01T05:22:51.000Z</time>
      </trkpt>
      <trkpt lat="45.74062" lon="6.04455">
        <ele>1347.3</ele>
        <time>2000-01-01T05:23:01.000Z</time>
      </trkpt>
      <trkpt lat="45.74058" lon="6.04447">
        <ele>1348.7</ele>
        <time>2000-01-01T05:23:11.000Z</time>
      </trkpt>
      <trkpt lat="45.74053" lon="6.04439">
        <ele>1350.4</ele>
        <time>2000-01-01T05:23:21.000Z</time>
      </trkpt>
      <trkpt lat="45.74049" lon="6.04432">
        <ele>1351.5</ele>
        <time>2000-01-01T05:23:31.000Z</time>
      </trkpt>
      <trkpt lat="45.74048" lon="6.04424">
        <ele>1353</ele>
        <time>2000-01-01T05:23:41.000Z</time>
      </trkpt>
      <trkpt lat="45.74044" lon="6.04415">
        <ele>1354.3</ele>
        <time>2000-01-01T05:23:51.000Z</time>
      </trkpt>
      <trkpt lat="45.74041" lon="6.04409">
        <ele>1354.8</ele>
        <time>2000-01-01T05:24:01.000Z</time>
      </trkpt>
      <trkpt lat="45.74034" lon="6.04401">
        <ele>1355.7</ele>
        <time>2000-01-01T05:24:11.000Z</time>
      </trkpt>
      <trkpt lat="45.74028" lon="6.04396">
        <ele>1356.2</ele>
        <time>2000-01-01T05:24:21.000Z</time>
      </trkpt>
      <trkpt lat="45.74022" lon="6.04392">
        <ele>1356.6</ele>
        <time>2000-01-01T05:24:31.000Z</time>
      </trkpt>
      <trkpt lat="45.74015" lon="6.04389">
        <ele>1357.4</ele>
        <time>2000-01-01T05:24:41.000Z</time>
      </trkpt>
      <trkpt lat="45.7401" lon="6.04383">
        <ele>1357.9</ele>
        <time>2000-01-01T05:24:51.000Z</time>
      </trkpt>
      <trkpt lat="45.74007" lon="6.0438">
        <ele>1358.1</ele>
        <time>2000-01-01T05:25:01.000Z</time>
      </trkpt>
      <trkpt lat="45.74004" lon="6.0438">
        <ele>1358.5</ele>
        <time>2000-01-01T05:25:11.000Z</time>
      </trkpt>
      <trkpt lat="45.74" lon="6.04378">
        <ele>1359</ele>
        <time>2000-01-01T05:25:21.000Z</time>
      </trkpt>
      <trkpt lat="45.73995" lon="6.04371">
        <ele>1359.6</ele>
        <time>2000-01-01T05:25:31.000Z</time>
      </trkpt>
      <trkpt lat="45.73988" lon="6.04368">
        <ele>1360.3</ele>
        <time>2000-01-01T05:25:41.000Z</time>
      </trkpt>
      <trkpt lat="45.73982" lon="6.04363">
        <ele>1360.9</ele>
        <time>2000-01-01T05:25:51.000Z</time>
      </trkpt>
      <trkpt lat="45.73976" lon="6.04356">
        <ele>1361.3</ele>
        <time>2000-01-01T05:26:01.000Z</time>
      </trkpt>
      <trkpt lat="45.73969" lon="6.04348">
        <ele>1362.3</ele>
        <time>2000-01-01T05:26:11.000Z</time>
      </trkpt>
      <trkpt lat="45.73965" lon="6.0434">
        <ele>1363.3</ele>
        <time>2000-01-01T05:26:21.000Z</time>
      </trkpt>
      <trkpt lat="45.73961" lon="6.04336">
        <ele>1364.2</ele>
        <time>2000-01-01T05:26:31.000Z</time>
      </trkpt>
      <trkpt lat="45.73956" lon="6.04331">
        <ele>1364.7</ele>
        <time>2000-01-01T05:26:41.000Z</time>
      </trkpt>
      <trkpt lat="45.73952" lon="6.04328">
        <ele>1365.2</ele>
        <time>2000-01-01T05:26:51.000Z</time>
      </trkpt>
      <trkpt lat="45.73948" lon="6.04327">
        <ele>1365.8</ele>
        <time>2000-01-01T05:27:01.000Z</time>
      </trkpt>
      <trkpt lat="45.73945" lon="6.04317">
        <ele>1366.9</ele>
        <time>2000-01-01T05:27:11.000Z</time>
      </trkpt>
      <trkpt lat="45.73939" lon="6.04308">
        <ele>1368.3</ele>
        <time>2000-01-01T05:27:21.000Z</time>
      </trkpt>
      <trkpt lat="45.73936" lon="6.04301">
        <ele>1369.5</ele>
        <time>2000-01-01T05:27:31.000Z</time>
      </trkpt>
      <trkpt lat="45.73934" lon="6.04293">
        <ele>1370.7</ele>
        <time>2000-01-01T05:27:41.000Z</time>
      </trkpt>
      <trkpt lat="45.7393" lon="6.04286">
        <ele>1371.9</ele>
        <time>2000-01-01T05:27:51.000Z</time>
      </trkpt>
      <trkpt lat="45.73926" lon="6.04277">
        <ele>1373.2</ele>
        <time>2000-01-01T05:28:01.000Z</time>
      </trkpt>
      <trkpt lat="45.73922" lon="6.0427">
        <ele>1374</ele>
        <time>2000-01-01T05:28:11.000Z</time>
      </trkpt>
      <trkpt lat="45.7392" lon="6.04266">
        <ele>1374.3</ele>
        <time>2000-01-01T05:28:21.000Z</time>
      </trkpt>
      <trkpt lat="45.73919" lon="6.04256">
        <ele>1375.1</ele>
        <time>2000-01-01T05:28:31.000Z</time>
      </trkpt>
      <trkpt lat="45.73925" lon="6.04244">
        <ele>1375.8</ele>
        <time>2000-01-01T05:28:41.000Z</time>
      </trkpt>
      <trkpt lat="45.73927" lon="6.04238">
        <ele>1375.6</ele>
        <time>2000-01-01T05:28:51.000Z</time>
      </trkpt>
      <trkpt lat="45.73929" lon="6.04229">
        <ele>1375.4</ele>
        <time>2000-01-01T05:29:01.000Z</time>
      </trkpt>
      <trkpt lat="45.7393" lon="6.04225">
        <ele>1375.2</ele>
        <time>2000-01-01T05:29:11.000Z</time>
      </trkpt>
      <trkpt lat="45.73936" lon="6.0422">
        <ele>1374.9</ele>
        <time>2000-01-01T05:29:21.000Z</time>
      </trkpt>
      <trkpt lat="45.73939" lon="6.04216">
        <ele>1374.4</ele>
        <time>2000-01-01T05:29:31.000Z</time>
      </trkpt>
      <trkpt lat="45.73946" lon="6.04213">
        <ele>1373.6</ele>
        <time>2000-01-01T05:29:41.000Z</time>
      </trkpt>
      <trkpt lat="45.73951" lon="6.04213">
        <ele>1373.1</ele>
        <time>2000-01-01T05:29:51.000Z</time>
      </trkpt>
      <trkpt lat="45.73957" lon="6.04207">
        <ele>1371.9</ele>
        <time>2000-01-01T05:30:01.000Z</time>
      </trkpt>
      <trkpt lat="45.73963" lon="6.04199">
        <ele>1370.7</ele>
        <time>2000-01-01T05:30:11.000Z</time>
      </trkpt>
      <trkpt lat="45.73966" lon="6.04192">
        <ele>1369.6</ele>
        <time>2000-01-01T05:30:21.000Z</time>
      </trkpt>
      <trkpt lat="45.73973" lon="6.04182">
        <ele>1368.3</ele>
        <time>2000-01-01T05:30:31.000Z</time>
      </trkpt>
      <trkpt lat="45.73978" lon="6.04176">
        <ele>1367.5</ele>
        <time>2000-01-01T05:30:41.000Z</time>
      </trkpt>
      <trkpt lat="45.73981" lon="6.04173">
        <ele>1367.1</ele>
        <time>2000-01-01T05:30:51.000Z</time>
      </trkpt>
      <trkpt lat="45.73984" lon="6.04171">
        <ele>1366.7</ele>
        <time>2000-01-01T05:31:01.000Z</time>
      </trkpt>
      <trkpt lat="45.73993" lon="6.04173">
        <ele>1365.8</ele>
        <time>2000-01-01T05:31:11.000Z</time>
      </trkpt>
      <trkpt lat="45.73999" lon="6.04179">
        <ele>1365</ele>
        <time>2000-01-01T05:31:21.000Z</time>
      </trkpt>
      <trkpt lat="45.74005" lon="6.04184">
        <ele>1364.3</ele>
        <time>2000-01-01T05:31:31.000Z</time>
      </trkpt>
      <trkpt lat="45.7401" lon="6.04191">
        <ele>1363.7</ele>
        <time>2000-01-01T05:31:41.000Z</time>
      </trkpt>
      <trkpt lat="45.74016" lon="6.04197">
        <ele>1363.2</ele>
        <time>2000-01-01T05:31:51.000Z</time>
      </trkpt>
      <trkpt lat="45.74022" lon="6.04204">
        <ele>1362.7</ele>
        <time>2000-01-01T05:32:01.000Z</time>
      </trkpt>
      <trkpt lat="45.74031" lon="6.04209">
        <ele>1362.1</ele>
        <time>2000-01-01T05:32:11.000Z</time>
      </trkpt>
      <trkpt lat="45.74035" lon="6.04212">
        <ele>1361.8</ele>
        <time>2000-01-01T05:32:21.000Z</time>
      </trkpt>
      <trkpt lat="45.74043" lon="6.04214">
        <ele>1361.3</ele>
        <time>2000-01-01T05:32:31.000Z</time>
      </trkpt>
      <trkpt lat="45.74052" lon="6.04216">
        <ele>1360.8</ele>
        <time>2000-01-01T05:32:41.000Z</time>
      </trkpt>
      <trkpt lat="45.74061" lon="6.04223">
        <ele>1360.2</ele>
        <time>2000-01-01T05:32:51.000Z</time>
      </trkpt>
      <trkpt lat="45.74067" lon="6.04224">
        <ele>1359.9</ele>
        <time>2000-01-01T05:33:01.000Z</time>
      </trkpt>
      <trkpt lat="45.74072" lon="6.04229">
        <ele>1359.4</ele>
        <time>2000-01-01T05:33:11.000Z</time>
      </trkpt>
      <trkpt lat="45.74074" lon="6.04232">
        <ele>1359.3</ele>
        <time>2000-01-01T05:33:21.000Z</time>
      </trkpt>
      <trkpt lat="45.74081" lon="6.04237">
        <ele>1358.8</ele>
        <time>2000-01-01T05:33:31.000Z</time>
      </trkpt>
      <trkpt lat="45.74087" lon="6.04246">
        <ele>1358.3</ele>
        <time>2000-01-01T05:33:41.000Z</time>
      </trkpt>
      <trkpt lat="45.74092" lon="6.04253">
        <ele>1357.8</ele>
        <time>2000-01-01T05:33:51.000Z</time>
      </trkpt>
      <trkpt lat="45.74099" lon="6.04257">
        <ele>1357.3</ele>
        <time>2000-01-01T05:34:01.000Z</time>
      </trkpt>
      <trkpt lat="45.74106" lon="6.04258">
        <ele>1357</ele>
        <time>2000-01-01T05:34:11.000Z</time>
      </trkpt>
      <trkpt lat="45.74112" lon="6.04259">
        <ele>1356.7</ele>
        <time>2000-01-01T05:34:21.000Z</time>
      </trkpt>
      <trkpt lat="45.74118" lon="6.04264">
        <ele>1356.2</ele>
        <time>2000-01-01T05:34:31.000Z</time>
      </trkpt>
      <trkpt lat="45.7412" lon="6.04267">
        <ele>1355.9</ele>
        <time>2000-01-01T05:34:41.000Z</time>
      </trkpt>
      <trkpt lat="45.7413" lon="6.04272">
        <ele>1355.1</ele>
        <time>2000-01-01T05:34:51.000Z</time>
      </trkpt>
      <trkpt lat="45.74136" lon="6.04275">
        <ele>1354.6</ele>
        <time>2000-01-01T05:35:01.000Z</time>
      </trkpt>
      <trkpt lat="45.74138" lon="6.04276">
        <ele>1354.4</ele>
        <time>2000-01-01T05:35:11.000Z</time>
      </trkpt>
      <trkpt lat="45.74147" lon="6.04276">
        <ele>1353.7</ele>
        <time>2000-01-01T05:35:21.000Z</time>
      </trkpt>
      <trkpt lat="45.74154" lon="6.04273">
        <ele>1352.8</ele>
        <time>2000-01-01T05:35:31.000Z</time>
      </trkpt>
      <trkpt lat="45.74161" lon="6.04274">
        <ele>1352.1</ele>
        <time>2000-01-01T05:35:41.000Z</time>
      </trkpt>
      <trkpt lat="45.74167" lon="6.04277">
        <ele>1351.3</ele>
        <time>2000-01-01T05:35:51.000Z</time>
      </trkpt>
      <trkpt lat="45.74172" lon="6.04285">
        <ele>1350.3</ele>
        <time>2000-01-01T05:36:01.000Z</time>
      </trkpt>
      <trkpt lat="45.74176" lon="6.04294">
        <ele>1349.4</ele>
        <time>2000-01-01T05:36:11.000Z</time>
      </trkpt>
      <trkpt lat="45.74181" lon="6.04299">
        <ele>1348.7</ele>
        <time>2000-01-01T05:36:21.000Z</time>
      </trkpt>
      <trkpt lat="45.74186" lon="6.04303">
        <ele>1347.9</ele>
        <time>2000-01-01T05:36:31.000Z</time>
      </trkpt>
      <trkpt lat="45.74192" lon="6.04304">
        <ele>1347.1</ele>
        <time>2000-01-01T05:36:41.000Z</time>
      </trkpt>
      <trkpt lat="45.74198" lon="6.04307">
        <ele>1346.3</ele>
        <time>2000-01-01T05:36:51.000Z</time>
      </trkpt>
      <trkpt lat="45.74205" lon="6.04313">
        <ele>1345.6</ele>
        <time>2000-01-01T05:37:01.000Z</time>
      </trkpt>
      <trkpt lat="45.74212" lon="6.04318">
        <ele>1345</ele>
        <time>2000-01-01T05:37:11.000Z</time>
      </trkpt>
      <trkpt lat="45.74217" lon="6.04321">
        <ele>1344.5</ele>
        <time>2000-01-01T05:37:21.000Z</time>
      </trkpt>
      <trkpt lat="45.74225" lon="6.04326">
        <ele>1343.8</ele>
        <time>2000-01-01T05:37:31.000Z</time>
      </trkpt>
      <trkpt lat="45.7423" lon="6.04328">
        <ele>1343.3</ele>
        <time>2000-01-01T05:37:41.000Z</time>
      </trkpt>
      <trkpt lat="45.74236" lon="6.04328">
        <ele>1342.8</ele>
        <time>2000-01-01T05:37:51.000Z</time>
      </trkpt>
      <trkpt lat="45.74246" lon="6.04333">
        <ele>1341.7</ele>
        <time>2000-01-01T05:38:01.000Z</time>
      </trkpt>
      <trkpt lat="45.74254" lon="6.04338">
        <ele>1340.4</ele>
        <time>2000-01-01T05:38:11.000Z</time>
      </trkpt>
      <trkpt lat="45.74259" lon="6.04343">
        <ele>1339.4</ele>
        <time>2000-01-01T05:38:21.000Z</time>
      </trkpt>
      <trkpt lat="45.74262" lon="6.04349">
        <ele>1338.4</ele>
        <time>2000-01-01T05:38:31.000Z</time>
      </trkpt>
      <trkpt lat="45.74266" lon="6.04355">
        <ele>1337.5</ele>
        <time>2000-01-01T05:38:41.000Z</time>
      </trkpt>
      <trkpt lat="45.74271" lon="6.04361">
        <ele>1336.3</ele>
        <time>2000-01-01T05:38:51.000Z</time>
      </trkpt>
      <trkpt lat="45.74276" lon="6.04366">
        <ele>1334.9</ele>
        <time>2000-01-01T05:39:01.000Z</time>
      </trkpt>
      <trkpt lat="45.74285" lon="6.04373">
        <ele>1332.7</ele>
        <time>2000-01-01T05:39:11.000Z</time>
      </trkpt>
      <trkpt lat="45.7429" lon="6.0438">
        <ele>1331</ele>
        <time>2000-01-01T05:39:21.000Z</time>
      </trkpt>
      <trkpt lat="45.74296" lon="6.04389">
        <ele>1329</ele>
        <time>2000-01-01T05:39:31.000Z</time>
      </trkpt>
      <trkpt lat="45.74299" lon="6.04393">
        <ele>1327.8</ele>
        <time>2000-01-01T05:39:41.000Z</time>
      </trkpt>
      <trkpt lat="45.74301" lon="6.04397">
        <ele>1326.9</ele>
        <time>2000-01-01T05:39:51.000Z</time>
      </trkpt>
      <trkpt lat="45.74305" lon="6.04399">
        <ele>1325.9</ele>
        <time>2000-01-01T05:40:01.000Z</time>
      </trkpt>
      <trkpt lat="45.74308" lon="6.04398">
        <ele>1325.2</ele>
        <time>2000-01-01T05:40:11.000Z</time>
      </trkpt>
      <trkpt lat="45.74315" lon="6.04404">
        <ele>1322.8</ele>
        <time>2000-01-01T05:40:21.000Z</time>
      </trkpt>
      <trkpt lat="45.74319" lon="6.04412">
        <ele>1321</ele>
        <time>2000-01-01T05:40:31.000Z</time>
      </trkpt>
      <trkpt lat="45.74323" lon="6.0442">
        <ele>1319.5</ele>
        <time>2000-01-01T05:40:41.000Z</time>
      </trkpt>
      <trkpt lat="45.74324" lon="6.04424">
        <ele>1318.7</ele>
        <time>2000-01-01T05:40:51.000Z</time>
      </trkpt>
      <trkpt lat="45.74329" lon="6.04432">
        <ele>1317</ele>
        <time>2000-01-01T05:41:01.000Z</time>
      </trkpt>
      <trkpt lat="45.74336" lon="6.04436">
        <ele>1315.5</ele>
        <time>2000-01-01T05:41:11.000Z</time>
      </trkpt>
      <trkpt lat="45.74343" lon="6.0444">
        <ele>1314.3</ele>
        <time>2000-01-01T05:41:21.000Z</time>
      </trkpt>
      <trkpt lat="45.7435" lon="6.04444">
        <ele>1313.6</ele>
        <time>2000-01-01T05:41:31.000Z</time>
      </trkpt>
      <trkpt lat="45.74357" lon="6.04449">
        <ele>1313</ele>
        <time>2000-01-01T05:41:41.000Z</time>
      </trkpt>
      <trkpt lat="45.74363" lon="6.04455">
        <ele>1312.5</ele>
        <time>2000-01-01T05:41:51.000Z</time>
      </trkpt>
      <trkpt lat="45.74371" lon="6.0446">
        <ele>1312</ele>
        <time>2000-01-01T05:42:01.000Z</time>
      </trkpt>
      <trkpt lat="45.74375" lon="6.04462">
        <ele>1311.8</ele>
        <time>2000-01-01T05:42:11.000Z</time>
      </trkpt>
      <trkpt lat="45.7438" lon="6.04463">
        <ele>1311.7</ele>
        <time>2000-01-01T05:42:21.000Z</time>
      </trkpt>
      <trkpt lat="45.74387" lon="6.04472">
        <ele>1311.6</ele>
        <time>2000-01-01T05:42:31.000Z</time>
      </trkpt>
      <trkpt lat="45.74389" lon="6.0448">
        <ele>1311.6</ele>
        <time>2000-01-01T05:42:41.000Z</time>
      </trkpt>
      <trkpt lat="45.74392" lon="6.04488">
        <ele>1311.5</ele>
        <time>2000-01-01T05:42:51.000Z</time>
      </trkpt>
      <trkpt lat="45.74398" lon="6.04495">
        <ele>1311.3</ele>
        <time>2000-01-01T05:43:01.000Z</time>
      </trkpt>
      <trkpt lat="45.74405" lon="6.04499">
        <ele>1310.8</ele>
        <time>2000-01-01T05:43:11.000Z</time>
      </trkpt>
      <trkpt lat="45.74411" lon="6.04502">
        <ele>1310.1</ele>
        <time>2000-01-01T05:43:21.000Z</time>
      </trkpt>
      <trkpt lat="45.74416" lon="6.04505">
        <ele>1309.4</ele>
        <time>2000-01-01T05:43:31.000Z</time>
      </trkpt>
      <trkpt lat="45.7442" lon="6.04511">
        <ele>1308.7</ele>
        <time>2000-01-01T05:43:41.000Z</time>
      </trkpt>
      <trkpt lat="45.74426" lon="6.0452">
        <ele>1307.8</ele>
        <time>2000-01-01T05:43:51.000Z</time>
      </trkpt>
      <trkpt lat="45.7443" lon="6.04528">
        <ele>1307.2</ele>
        <time>2000-01-01T05:44:01.000Z</time>
      </trkpt>
      <trkpt lat="45.74437" lon="6.04532">
        <ele>1306.6</ele>
        <time>2000-01-01T05:44:11.000Z</time>
      </trkpt>
      <trkpt lat="45.74442" lon="6.04536">
        <ele>1306.2</ele>
        <time>2000-01-01T05:44:21.000Z</time>
      </trkpt>
      <trkpt lat="45.74444" lon="6.04539">
        <ele>1306</ele>
        <time>2000-01-01T05:44:31.000Z</time>
      </trkpt>
      <trkpt lat="45.7445" lon="6.04545">
        <ele>1305.7</ele>
        <time>2000-01-01T05:44:41.000Z</time>
      </trkpt>
      <trkpt lat="45.74457" lon="6.04546">
        <ele>1305.5</ele>
        <time>2000-01-01T05:44:51.000Z</time>
      </trkpt>
      <trkpt lat="45.7446" lon="6.04547">
        <ele>1305.4</ele>
        <time>2000-01-01T05:45:01.000Z</time>
      </trkpt>
      <trkpt lat="45.74464" lon="6.04547">
        <ele>1305.3</ele>
        <time>2000-01-01T05:45:11.000Z</time>
      </trkpt>
      <trkpt lat="45.74468" lon="6.04545">
        <ele>1305.2</ele>
        <time>2000-01-01T05:45:21.000Z</time>
      </trkpt>
      <trkpt lat="45.74473" lon="6.04536">
        <ele>1304.9</ele>
        <time>2000-01-01T05:45:31.000Z</time>
      </trkpt>
      <trkpt lat="45.74473" lon="6.04531">
        <ele>1304.1</ele>
        <time>2000-01-01T05:45:41.000Z</time>
      </trkpt>
      <trkpt lat="45.74472" lon="6.04523">
        <ele>1302.1</ele>
        <time>2000-01-01T05:45:51.000Z</time>
      </trkpt>
      <trkpt lat="45.74477" lon="6.04514">
        <ele>1299.8</ele>
        <time>2000-01-01T05:46:01.000Z</time>
      </trkpt>
      <trkpt lat="45.74478" lon="6.0451">
        <ele>1299.3</ele>
        <time>2000-01-01T05:46:11.000Z</time>
      </trkpt>
      <trkpt lat="45.74474" lon="6.04499">
        <ele>1298</ele>
        <time>2000-01-01T05:46:21.000Z</time>
      </trkpt>
      <trkpt lat="45.7447" lon="6.04493">
        <ele>1297</ele>
        <time>2000-01-01T05:46:31.000Z</time>
      </trkpt>
      <trkpt lat="45.74466" lon="6.04485">
        <ele>1295.9</ele>
        <time>2000-01-01T05:46:41.000Z</time>
      </trkpt>
      <trkpt lat="45.74462" lon="6.04476">
        <ele>1296.1</ele>
        <time>2000-01-01T05:46:51.000Z</time>
      </trkpt>
      <trkpt lat="45.74457" lon="6.04468">
        <ele>1295.9</ele>
        <time>2000-01-01T05:47:01.000Z</time>
      </trkpt>
      <trkpt lat="45.74452" lon="6.04459">
        <ele>1295.4</ele>
        <time>2000-01-01T05:47:11.000Z</time>
      </trkpt>
      <trkpt lat="45.74449" lon="6.04448">
        <ele>1294.3</ele>
        <time>2000-01-01T05:47:21.000Z</time>
      </trkpt>
      <trkpt lat="45.74444" lon="6.04442">
        <ele>1293.5</ele>
        <time>2000-01-01T05:47:31.000Z</time>
      </trkpt>
      <trkpt lat="45.74439" lon="6.04436">
        <ele>1292.8</ele>
        <time>2000-01-01T05:47:41.000Z</time>
      </trkpt>
      <trkpt lat="45.74435" lon="6.04427">
        <ele>1291.8</ele>
        <time>2000-01-01T05:47:51.000Z</time>
      </trkpt>
      <trkpt lat="45.74431" lon="6.04419">
        <ele>1290.1</ele>
        <time>2000-01-01T05:48:01.000Z</time>
      </trkpt>
      <trkpt lat="45.74427" lon="6.04414">
        <ele>1288.8</ele>
        <time>2000-01-01T05:48:11.000Z</time>
      </trkpt>
      <trkpt lat="45.74422" lon="6.0441">
        <ele>1287.8</ele>
        <time>2000-01-01T05:48:21.000Z</time>
      </trkpt>
      <trkpt lat="45.74418" lon="6.04408">
        <ele>1287.5</ele>
        <time>2000-01-01T05:48:31.000Z</time>
      </trkpt>
      <trkpt lat="45.74414" lon="6.044">
        <ele>1287</ele>
        <time>2000-01-01T05:48:41.000Z</time>
      </trkpt>
      <trkpt lat="45.74409" lon="6.04388">
        <ele>1285.5</ele>
        <time>2000-01-01T05:48:51.000Z</time>
      </trkpt>
      <trkpt lat="45.74404" lon="6.0438">
        <ele>1283.7</ele>
        <time>2000-01-01T05:49:01.000Z</time>
      </trkpt>
      <trkpt lat="45.744" lon="6.04372">
        <ele>1282.7</ele>
        <time>2000-01-01T05:49:11.000Z</time>
      </trkpt>
      <trkpt lat="45.74397" lon="6.04365">
        <ele>1281.7</ele>
        <time>2000-01-01T05:49:21.000Z</time>
      </trkpt>
      <trkpt lat="45.74391" lon="6.04356">
        <ele>1280.9</ele>
        <time>2000-01-01T05:49:31.000Z</time>
      </trkpt>
      <trkpt lat="45.74385" lon="6.04349">
        <ele>1280.4</ele>
        <time>2000-01-01T05:49:41.000Z</time>
      </trkpt>
      <trkpt lat="45.74381" lon="6.04338">
        <ele>1279.6</ele>
        <time>2000-01-01T05:49:51.000Z</time>
      </trkpt>
      <trkpt lat="45.74377" lon="6.04332">
        <ele>1279.1</ele>
        <time>2000-01-01T05:50:01.000Z</time>
      </trkpt>
      <trkpt lat="45.74371" lon="6.04324">
        <ele>1277.5</ele>
        <time>2000-01-01T05:50:11.000Z</time>
      </trkpt>
      <trkpt lat="45.74366" lon="6.04316">
        <ele>1275.9</ele>
        <time>2000-01-01T05:50:21.000Z</time>
      </trkpt>
      <trkpt lat="45.7436" lon="6.04304">
        <ele>1274.1</ele>
        <time>2000-01-01T05:50:31.000Z</time>
      </trkpt>
      <trkpt lat="45.74357" lon="6.04293">
        <ele>1273.8</ele>
        <time>2000-01-01T05:50:41.000Z</time>
      </trkpt>
      <trkpt lat="45.74354" lon="6.04288">
        <ele>1273.7</ele>
        <time>2000-01-01T05:50:51.000Z</time>
      </trkpt>
      <trkpt lat="45.74351" lon="6.04283">
        <ele>1273.6</ele>
        <time>2000-01-01T05:51:01.000Z</time>
      </trkpt>
      <trkpt lat="45.7435" lon="6.04273">
        <ele>1272.5</ele>
        <time>2000-01-01T05:51:11.000Z</time>
      </trkpt>
      <trkpt lat="45.74346" lon="6.04262">
        <ele>1270.5</ele>
        <time>2000-01-01T05:51:21.000Z</time>
      </trkpt>
      <trkpt lat="45.74345" lon="6.0425">
        <ele>1269.3</ele>
        <time>2000-01-01T05:51:31.000Z</time>
      </trkpt>
      <trkpt lat="45.74344" lon="6.04239">
        <ele>1268.1</ele>
        <time>2000-01-01T05:51:41.000Z</time>
      </trkpt>
      <trkpt lat="45.74342" lon="6.0423">
        <ele>1265.7</ele>
        <time>2000-01-01T05:51:51.000Z</time>
      </trkpt>
      <trkpt lat="45.7434" lon="6.04219">
        <ele>1263.8</ele>
        <time>2000-01-01T05:52:01.000Z</time>
      </trkpt>
      <trkpt lat="45.7434" lon="6.04215">
        <ele>1263.3</ele>
        <time>2000-01-01T05:52:11.000Z</time>
      </trkpt>
      <trkpt lat="45.74345" lon="6.0421">
        <ele>1262</ele>
        <time>2000-01-01T05:52:21.000Z</time>
      </trkpt>
      <trkpt lat="45.74353" lon="6.04205">
        <ele>1259.7</ele>
        <time>2000-01-01T05:52:31.000Z</time>
      </trkpt>
      <trkpt lat="45.7436" lon="6.04202">
        <ele>1257.9</ele>
        <time>2000-01-01T05:52:41.000Z</time>
      </trkpt>
      <trkpt lat="45.74363" lon="6.04202">
        <ele>1256.7</ele>
        <time>2000-01-01T05:52:51.000Z</time>
      </trkpt>
      <trkpt lat="45.74366" lon="6.04204">
        <ele>1255.7</ele>
        <time>2000-01-01T05:53:01.000Z</time>
      </trkpt>
      <trkpt lat="45.74374" lon="6.04204">
        <ele>1255.7</ele>
        <time>2000-01-01T05:53:11.000Z</time>
      </trkpt>
      <trkpt lat="45.74384" lon="6.042">
        <ele>1254.8</ele>
        <time>2000-01-01T05:53:21.000Z</time>
      </trkpt>
      <trkpt lat="45.74392" lon="6.04199">
        <ele>1254.5</ele>
        <time>2000-01-01T05:53:31.000Z</time>
      </trkpt>
      <trkpt lat="45.74398" lon="6.042">
        <ele>1254.3</ele>
        <time>2000-01-01T05:53:41.000Z</time>
      </trkpt>
      <trkpt lat="45.74405" lon="6.04203">
        <ele>1253.1</ele>
        <time>2000-01-01T05:53:51.000Z</time>
      </trkpt>
      <trkpt lat="45.74411" lon="6.04205">
        <ele>1252</ele>
        <time>2000-01-01T05:54:01.000Z</time>
      </trkpt>
      <trkpt lat="45.74417" lon="6.04208">
        <ele>1250.7</ele>
        <time>2000-01-01T05:54:11.000Z</time>
      </trkpt>
      <trkpt lat="45.7442" lon="6.04209">
        <ele>1250.2</ele>
        <time>2000-01-01T05:54:21.000Z</time>
      </trkpt>
      <trkpt lat="45.74424" lon="6.04207">
        <ele>1249.7</ele>
        <time>2000-01-01T05:54:31.000Z</time>
      </trkpt>
      <trkpt lat="45.74425" lon="6.04194">
        <ele>1247.9</ele>
        <time>2000-01-01T05:54:41.000Z</time>
      </trkpt>
      <trkpt lat="45.74423" lon="6.04182">
        <ele>1246.5</ele>
        <time>2000-01-01T05:54:51.000Z</time>
      </trkpt>
      <trkpt lat="45.74423" lon="6.04172">
        <ele>1245.5</ele>
        <time>2000-01-01T05:55:01.000Z</time>
      </trkpt>
      <trkpt lat="45.74423" lon="6.04164">
        <ele>1244.7</ele>
        <time>2000-01-01T05:55:11.000Z</time>
      </trkpt>
      <trkpt lat="45.74425" lon="6.0415">
        <ele>1243.5</ele>
        <time>2000-01-01T05:55:21.000Z</time>
      </trkpt>
      <trkpt lat="45.74427" lon="6.04144">
        <ele>1242.9</ele>
        <time>2000-01-01T05:55:31.000Z</time>
      </trkpt>
      <trkpt lat="45.74425" lon="6.04135">
        <ele>1242</ele>
        <time>2000-01-01T05:55:41.000Z</time>
      </trkpt>
      <trkpt lat="45.74424" lon="6.04126">
        <ele>1241.1</ele>
        <time>2000-01-01T05:55:51.000Z</time>
      </trkpt>
      <trkpt lat="45.74425" lon="6.04116">
        <ele>1240.1</ele>
        <time>2000-01-01T05:56:01.000Z</time>
      </trkpt>
      <trkpt lat="45.74425" lon="6.0411">
        <ele>1239.1</ele>
        <time>2000-01-01T05:56:11.000Z</time>
      </trkpt>
      <trkpt lat="45.74428" lon="6.04102">
        <ele>1237.8</ele>
        <time>2000-01-01T05:56:21.000Z</time>
      </trkpt>
      <trkpt lat="45.74433" lon="6.04097">
        <ele>1236.6</ele>
        <time>2000-01-01T05:56:31.000Z</time>
      </trkpt>
      <trkpt lat="45.74442" lon="6.04096">
        <ele>1234.3</ele>
        <time>2000-01-01T05:56:41.000Z</time>
      </trkpt>
      <trkpt lat="45.74444" lon="6.04097">
        <ele>1234</ele>
        <time>2000-01-01T05:56:51.000Z</time>
      </trkpt>
      <trkpt lat="45.74453" lon="6.04097">
        <ele>1232.8</ele>
        <time>2000-01-01T05:57:01.000Z</time>
      </trkpt>
      <trkpt lat="45.74459" lon="6.04094">
        <ele>1232</ele>
        <time>2000-01-01T05:57:11.000Z</time>
      </trkpt>
      <trkpt lat="45.74465" lon="6.04095">
        <ele>1230.9</ele>
        <time>2000-01-01T05:57:21.000Z</time>
      </trkpt>
      <trkpt lat="45.74469" lon="6.04099">
        <ele>1230</ele>
        <time>2000-01-01T05:57:31.000Z</time>
      </trkpt>
      <trkpt lat="45.74477" lon="6.04101">
        <ele>1228.8</ele>
        <time>2000-01-01T05:57:41.000Z</time>
      </trkpt>
      <trkpt lat="45.74483" lon="6.04101">
        <ele>1227.4</ele>
        <time>2000-01-01T05:57:51.000Z</time>
      </trkpt>
      <trkpt lat="45.74492" lon="6.04099">
        <ele>1225.7</ele>
        <time>2000-01-01T05:58:01.000Z</time>
      </trkpt>
      <trkpt lat="45.74499" lon="6.04098">
        <ele>1224.3</ele>
        <time>2000-01-01T05:58:11.000Z</time>
      </trkpt>
      <trkpt lat="45.74502" lon="6.04098">
        <ele>1223.8</ele>
        <time>2000-01-01T05:58:21.000Z</time>
      </trkpt>
      <trkpt lat="45.74509" lon="6.04096">
        <ele>1222.6</ele>
        <time>2000-01-01T05:58:31.000Z</time>
      </trkpt>
      <trkpt lat="45.74517" lon="6.04095">
        <ele>1221.4</ele>
        <time>2000-01-01T05:58:41.000Z</time>
      </trkpt>
      <trkpt lat="45.74526" lon="6.04099">
        <ele>1220.3</ele>
        <time>2000-01-01T05:58:51.000Z</time>
      </trkpt>
      <trkpt lat="45.74528" lon="6.04099">
        <ele>1220.1</ele>
        <time>2000-01-01T05:59:01.000Z</time>
      </trkpt>
      <trkpt lat="45.74538" lon="6.041">
        <ele>1218.2</ele>
        <time>2000-01-01T05:59:11.000Z</time>
      </trkpt>
      <trkpt lat="45.74545" lon="6.04103">
        <ele>1216.5</ele>
        <time>2000-01-01T05:59:21.000Z</time>
      </trkpt>
      <trkpt lat="45.74548" lon="6.04104">
        <ele>1216.4</ele>
        <time>2000-01-01T05:59:31.000Z</time>
      </trkpt>
      <trkpt lat="45.74552" lon="6.04106">
        <ele>1216.3</ele>
        <time>2000-01-01T05:59:41.000Z</time>
      </trkpt>
      <trkpt lat="45.74555" lon="6.04106">
        <ele>1216.2</ele>
        <time>2000-01-01T05:59:51.000Z</time>
      </trkpt>
      <trkpt lat="45.74557" lon="6.04103">
        <ele>1215.9</ele>
        <time>2000-01-01T06:00:01.000Z</time>
      </trkpt>
      <trkpt lat="45.74564" lon="6.04104">
        <ele>1214.9</ele>
        <time>2000-01-01T06:00:11.000Z</time>
      </trkpt>
      <trkpt lat="45.74571" lon="6.04107">
        <ele>1213.4</ele>
        <time>2000-01-01T06:00:21.000Z</time>
      </trkpt>
      <trkpt lat="45.74574" lon="6.04111">
        <ele>1212.4</ele>
        <time>2000-01-01T06:00:31.000Z</time>
      </trkpt>
      <trkpt lat="45.74576" lon="6.04114">
        <ele>1212.2</ele>
        <time>2000-01-01T06:00:41.000Z</time>
      </trkpt>
      <trkpt lat="45.7458" lon="6.04116">
        <ele>1212.1</ele>
        <time>2000-01-01T06:00:51.000Z</time>
      </trkpt>
      <trkpt lat="45.74583" lon="6.04114">
        <ele>1211.2</ele>
        <time>2000-01-01T06:01:01.000Z</time>
      </trkpt>
      <trkpt lat="45.74585" lon="6.0411">
        <ele>1210.3</ele>
        <time>2000-01-01T06:01:11.000Z</time>
      </trkpt>
      <trkpt lat="45.74588" lon="6.04109">
        <ele>1209.5</ele>
        <time>2000-01-01T06:01:21.000Z</time>
      </trkpt>
      <trkpt lat="45.74596" lon="6.04108">
        <ele>1208.2</ele>
        <time>2000-01-01T06:01:31.000Z</time>
      </trkpt>
      <trkpt lat="45.74604" lon="6.04108">
        <ele>1206.6</ele>
        <time>2000-01-01T06:01:41.000Z</time>
      </trkpt>
      <trkpt lat="45.74612" lon="6.04109">
        <ele>1203.8</ele>
        <time>2000-01-01T06:01:51.000Z</time>
      </trkpt>
      <trkpt lat="45.74619" lon="6.04113">
        <ele>1202.4</ele>
        <time>2000-01-01T06:02:01.000Z</time>
      </trkpt>
      <trkpt lat="45.74626" lon="6.04115">
        <ele>1200.9</ele>
        <time>2000-01-01T06:02:11.000Z</time>
      </trkpt>
      <trkpt lat="45.74635" lon="6.04115">
        <ele>1198.9</ele>
        <time>2000-01-01T06:02:21.000Z</time>
      </trkpt>
      <trkpt lat="45.74643" lon="6.04113">
        <ele>1197.3</ele>
        <time>2000-01-01T06:02:31.000Z</time>
      </trkpt>
      <trkpt lat="45.74649" lon="6.04114">
        <ele>1195.8</ele>
        <time>2000-01-01T06:02:41.000Z</time>
      </trkpt>
      <trkpt lat="45.74652" lon="6.04114">
        <ele>1195.1</ele>
        <time>2000-01-01T06:02:51.000Z</time>
      </trkpt>
      <trkpt lat="45.74658" lon="6.04116">
        <ele>1194.2</ele>
        <time>2000-01-01T06:03:01.000Z</time>
      </trkpt>
      <trkpt lat="45.74661" lon="6.04118">
        <ele>1193.6</ele>
        <time>2000-01-01T06:03:11.000Z</time>
      </trkpt>
      <trkpt lat="45.74668" lon="6.04118">
        <ele>1192.1</ele>
        <time>2000-01-01T06:03:21.000Z</time>
      </trkpt>
      <trkpt lat="45.74676" lon="6.04117">
        <ele>1190.8</ele>
        <time>2000-01-01T06:03:31.000Z</time>
      </trkpt>
      <trkpt lat="45.74683" lon="6.04117">
        <ele>1190</ele>
        <time>2000-01-01T06:03:41.000Z</time>
      </trkpt>
      <trkpt lat="45.7469" lon="6.04118">
        <ele>1189.7</ele>
        <time>2000-01-01T06:03:51.000Z</time>
      </trkpt>
      <trkpt lat="45.74698" lon="6.04121">
        <ele>1189.3</ele>
        <time>2000-01-01T06:04:01.000Z</time>
      </trkpt>
      <trkpt lat="45.74705" lon="6.04122">
        <ele>1188.9</ele>
        <time>2000-01-01T06:04:11.000Z</time>
      </trkpt>
      <trkpt lat="45.74712" lon="6.04123">
        <ele>1188.6</ele>
        <time>2000-01-01T06:04:21.000Z</time>
      </trkpt>
      <trkpt lat="45.74716" lon="6.04122">
        <ele>1188</ele>
        <time>2000-01-01T06:04:31.000Z</time>
      </trkpt>
      <trkpt lat="45.74724" lon="6.04128">
        <ele>1187.1</ele>
        <time>2000-01-01T06:04:41.000Z</time>
      </trkpt>
      <trkpt lat="45.74726" lon="6.04131">
        <ele>1187.1</ele>
        <time>2000-01-01T06:04:51.000Z</time>
      </trkpt>
      <trkpt lat="45.74729" lon="6.04133">
        <ele>1186.6</ele>
        <time>2000-01-01T06:05:01.000Z</time>
      </trkpt>
      <trkpt lat="45.74733" lon="6.04132">
        <ele>1186</ele>
        <time>2000-01-01T06:05:11.000Z</time>
      </trkpt>
      <trkpt lat="45.74739" lon="6.04131">
        <ele>1185.1</ele>
        <time>2000-01-01T06:05:21.000Z</time>
      </trkpt>
      <trkpt lat="45.74741" lon="6.04129">
        <ele>1184.6</ele>
        <time>2000-01-01T06:05:31.000Z</time>
      </trkpt>
      <trkpt lat="45.74745" lon="6.04129">
        <ele>1184.1</ele>
        <time>2000-01-01T06:05:41.000Z</time>
      </trkpt>
      <trkpt lat="45.74748" lon="6.0413">
        <ele>1183.6</ele>
        <time>2000-01-01T06:05:51.000Z</time>
      </trkpt>
      <trkpt lat="45.74751" lon="6.0413">
        <ele>1183</ele>
        <time>2000-01-01T06:06:01.000Z</time>
      </trkpt>
      <trkpt lat="45.74756" lon="6.04119">
        <ele>1179.6</ele>
        <time>2000-01-01T06:06:11.000Z</time>
      </trkpt>
      <trkpt lat="45.74761" lon="6.04115">
        <ele>1177.2</ele>
        <time>2000-01-01T06:06:21.000Z</time>
      </trkpt>
      <trkpt lat="45.74764" lon="6.04114">
        <ele>1176.1</ele>
        <time>2000-01-01T06:06:31.000Z</time>
      </trkpt>
      <trkpt lat="45.7477" lon="6.04107">
        <ele>1173.7</ele>
        <time>2000-01-01T06:06:41.000Z</time>
      </trkpt>
      <trkpt lat="45.74775" lon="6.04103">
        <ele>1170.6</ele>
        <time>2000-01-01T06:06:51.000Z</time>
      </trkpt>
      <trkpt lat="45.74782" lon="6.04102">
        <ele>1167.2</ele>
        <time>2000-01-01T06:07:01.000Z</time>
      </trkpt>
      <trkpt lat="45.74791" lon="6.04102">
        <ele>1164.3</ele>
        <time>2000-01-01T06:07:11.000Z</time>
      </trkpt>
      <trkpt lat="45.74799" lon="6.041">
        <ele>1161.1</ele>
        <time>2000-01-01T06:07:21.000Z</time>
      </trkpt>
      <trkpt lat="45.74806" lon="6.04094">
        <ele>1158.4</ele>
        <time>2000-01-01T06:07:31.000Z</time>
      </trkpt>
      <trkpt lat="45.74808" lon="6.04081">
        <ele>1155.9</ele>
        <time>2000-01-01T06:07:41.000Z</time>
      </trkpt>
      <trkpt lat="45.74808" lon="6.04074">
        <ele>1154.3</ele>
        <time>2000-01-01T06:07:51.000Z</time>
      </trkpt>
      <trkpt lat="45.74815" lon="6.04067">
        <ele>1152</ele>
        <time>2000-01-01T06:08:01.000Z</time>
      </trkpt>
      <trkpt lat="45.74818" lon="6.04067">
        <ele>1151.2</ele>
        <time>2000-01-01T06:08:11.000Z</time>
      </trkpt>
      <trkpt lat="45.74824" lon="6.04064">
        <ele>1149.3</ele>
        <time>2000-01-01T06:08:21.000Z</time>
      </trkpt>
      <trkpt lat="45.74832" lon="6.0406">
        <ele>1147.5</ele>
        <time>2000-01-01T06:08:31.000Z</time>
      </trkpt>
      <trkpt lat="45.74838" lon="6.04058">
        <ele>1146</ele>
        <time>2000-01-01T06:08:41.000Z</time>
      </trkpt>
      <trkpt lat="45.74844" lon="6.04056">
        <ele>1144.9</ele>
        <time>2000-01-01T06:08:51.000Z</time>
      </trkpt>
      <trkpt lat="45.74847" lon="6.04056">
        <ele>1144.1</ele>
        <time>2000-01-01T06:09:01.000Z</time>
      </trkpt>
      <trkpt lat="45.74854" lon="6.04052">
        <ele>1141.7</ele>
        <time>2000-01-01T06:09:11.000Z</time>
      </trkpt>
      <trkpt lat="45.74859" lon="6.04047">
        <ele>1139.3</ele>
        <time>2000-01-01T06:09:21.000Z</time>
      </trkpt>
      <trkpt lat="45.74864" lon="6.04041">
        <ele>1136.5</ele>
        <time>2000-01-01T06:09:31.000Z</time>
      </trkpt>
      <trkpt lat="45.74866" lon="6.04039">
        <ele>1135.4</ele>
        <time>2000-01-01T06:09:41.000Z</time>
      </trkpt>
      <trkpt lat="45.74871" lon="6.04033">
        <ele>1133.2</ele>
        <time>2000-01-01T06:09:51.000Z</time>
      </trkpt>
      <trkpt lat="45.74872" lon="6.04029">
        <ele>1132.3</ele>
        <time>2000-01-01T06:10:01.000Z</time>
      </trkpt>
      <trkpt lat="45.74873" lon="6.04025">
        <ele>1131.5</ele>
        <time>2000-01-01T06:10:11.000Z</time>
      </trkpt>
      <trkpt lat="45.7487" lon="6.04016">
        <ele>1128.3</ele>
        <time>2000-01-01T06:10:21.000Z</time>
      </trkpt>
      <trkpt lat="45.74868" lon="6.04009">
        <ele>1126.2</ele>
        <time>2000-01-01T06:10:31.000Z</time>
      </trkpt>
      <trkpt lat="45.74866" lon="6.03999">
        <ele>1123.6</ele>
        <time>2000-01-01T06:10:41.000Z</time>
      </trkpt>
      <trkpt lat="45.74866" lon="6.0399">
        <ele>1121</ele>
        <time>2000-01-01T06:10:51.000Z</time>
      </trkpt>
      <trkpt lat="45.74868" lon="6.03982">
        <ele>1119</ele>
        <time>2000-01-01T06:11:01.000Z</time>
      </trkpt>
      <trkpt lat="45.74871" lon="6.03974">
        <ele>1117</ele>
        <time>2000-01-01T06:11:11.000Z</time>
      </trkpt>
      <trkpt lat="45.74874" lon="6.03965">
        <ele>1113.3</ele>
        <time>2000-01-01T06:11:21.000Z</time>
      </trkpt>
      <trkpt lat="45.74879" lon="6.03954">
        <ele>1110.1</ele>
        <time>2000-01-01T06:11:31.000Z</time>
      </trkpt>
      <trkpt lat="45.74884" lon="6.03947">
        <ele>1107.7</ele>
        <time>2000-01-01T06:11:41.000Z</time>
      </trkpt>
      <trkpt lat="45.74889" lon="6.0394">
        <ele>1105.1</ele>
        <time>2000-01-01T06:11:51.000Z</time>
      </trkpt>
      <trkpt lat="45.74896" lon="6.03936">
        <ele>1102.8</ele>
        <time>2000-01-01T06:12:01.000Z</time>
      </trkpt>
      <trkpt lat="45.749" lon="6.03933">
        <ele>1102</ele>
        <time>2000-01-01T06:12:11.000Z</time>
      </trkpt>
      <trkpt lat="45.74909" lon="6.0393">
        <ele>1100.5</ele>
        <time>2000-01-01T06:12:21.000Z</time>
      </trkpt>
      <trkpt lat="45.74915" lon="6.0393">
        <ele>1099</ele>
        <time>2000-01-01T06:12:31.000Z</time>
      </trkpt>
      <trkpt lat="45.74917" lon="6.03931">
        <ele>1098.4</ele>
        <time>2000-01-01T06:12:41.000Z</time>
      </trkpt>
      <trkpt lat="45.7492" lon="6.03926">
        <ele>1097.7</ele>
        <time>2000-01-01T06:12:51.000Z</time>
      </trkpt>
      <trkpt lat="45.74926" lon="6.03926">
        <ele>1096.1</ele>
        <time>2000-01-01T06:13:01.000Z</time>
      </trkpt>
      <trkpt lat="45.74934" lon="6.03928">
        <ele>1094.7</ele>
        <time>2000-01-01T06:13:11.000Z</time>
      </trkpt>
      <trkpt lat="45.74942" lon="6.0393">
        <ele>1093.2</ele>
        <time>2000-01-01T06:13:21.000Z</time>
      </trkpt>
      <trkpt lat="45.74947" lon="6.03932">
        <ele>1091.9</ele>
        <time>2000-01-01T06:13:31.000Z</time>
      </trkpt>
      <trkpt lat="45.74956" lon="6.03931">
        <ele>1090.1</ele>
        <time>2000-01-01T06:13:41.000Z</time>
      </trkpt>
      <trkpt lat="45.74963" lon="6.03928">
        <ele>1089.3</ele>
        <time>2000-01-01T06:13:51.000Z</time>
      </trkpt>
      <trkpt lat="45.74972" lon="6.03929">
        <ele>1087.1</ele>
        <time>2000-01-01T06:14:01.000Z</time>
      </trkpt>
      <trkpt lat="45.74977" lon="6.03931">
        <ele>1086.6</ele>
        <time>2000-01-01T06:14:11.000Z</time>
      </trkpt>
      <trkpt lat="45.74985" lon="6.03936">
        <ele>1085.2</ele>
        <time>2000-01-01T06:14:21.000Z</time>
      </trkpt>
      <trkpt lat="45.74993" lon="6.0394">
        <ele>1083.8</ele>
        <time>2000-01-01T06:14:31.000Z</time>
      </trkpt>
      <trkpt lat="45.75" lon="6.0394">
        <ele>1083.1</ele>
        <time>2000-01-01T06:14:41.000Z</time>
      </trkpt>
      <trkpt lat="45.75007" lon="6.03941">
        <ele>1082.2</ele>
        <time>2000-01-01T06:14:51.000Z</time>
      </trkpt>
      <trkpt lat="45.75016" lon="6.03947">
        <ele>1081.6</ele>
        <time>2000-01-01T06:15:01.000Z</time>
      </trkpt>
      <trkpt lat="45.75022" lon="6.03955">
        <ele>1081.2</ele>
        <time>2000-01-01T06:15:11.000Z</time>
      </trkpt>
      <trkpt lat="45.75029" lon="6.03964">
        <ele>1080.9</ele>
        <time>2000-01-01T06:15:21.000Z</time>
      </trkpt>
      <trkpt lat="45.75036" lon="6.03967">
        <ele>1080.5</ele>
        <time>2000-01-01T06:15:31.000Z</time>
      </trkpt>
      <trkpt lat="45.75045" lon="6.03972">
        <ele>1080</ele>
        <time>2000-01-01T06:15:41.000Z</time>
      </trkpt>
      <trkpt lat="45.7505" lon="6.03977">
        <ele>1079.6</ele>
        <time>2000-01-01T06:15:51.000Z</time>
      </trkpt>
      <trkpt lat="45.75055" lon="6.03981">
        <ele>1079.2</ele>
        <time>2000-01-01T06:16:01.000Z</time>
      </trkpt>
      <trkpt lat="45.75061" lon="6.03987">
        <ele>1078.8</ele>
        <time>2000-01-01T06:16:11.000Z</time>
      </trkpt>
      <trkpt lat="45.75066" lon="6.03994">
        <ele>1078.2</ele>
        <time>2000-01-01T06:16:21.000Z</time>
      </trkpt>
      <trkpt lat="45.75072" lon="6.04003">
        <ele>1077.5</ele>
        <time>2000-01-01T06:16:31.000Z</time>
      </trkpt>
      <trkpt lat="45.75079" lon="6.0401">
        <ele>1076.7</ele>
        <time>2000-01-01T06:16:41.000Z</time>
      </trkpt>
      <trkpt lat="45.75085" lon="6.04014">
        <ele>1076.1</ele>
        <time>2000-01-01T06:16:51.000Z</time>
      </trkpt>
      <trkpt lat="45.7509" lon="6.04017">
        <ele>1075.5</ele>
        <time>2000-01-01T06:17:01.000Z</time>
      </trkpt>
      <trkpt lat="45.75098" lon="6.0402">
        <ele>1074.7</ele>
        <time>2000-01-01T06:17:11.000Z</time>
      </trkpt>
      <trkpt lat="45.75104" lon="6.04023">
        <ele>1074.1</ele>
        <time>2000-01-01T06:17:21.000Z</time>
      </trkpt>
      <trkpt lat="45.75111" lon="6.04025">
        <ele>1073.6</ele>
        <time>2000-01-01T06:17:31.000Z</time>
      </trkpt>
      <trkpt lat="45.75116" lon="6.04027">
        <ele>1073</ele>
        <time>2000-01-01T06:17:41.000Z</time>
      </trkpt>
      <trkpt lat="45.75121" lon="6.0403">
        <ele>1072.6</ele>
        <time>2000-01-01T06:17:51.000Z</time>
      </trkpt>
      <trkpt lat="45.7513" lon="6.04037">
        <ele>1071.8</ele>
        <time>2000-01-01T06:18:01.000Z</time>
      </trkpt>
      <trkpt lat="45.75139" lon="6.04045">
        <ele>1071.4</ele>
        <time>2000-01-01T06:18:11.000Z</time>
      </trkpt>
      <trkpt lat="45.75144" lon="6.04049">
        <ele>1071.3</ele>
        <time>2000-01-01T06:18:21.000Z</time>
      </trkpt>
      <trkpt lat="45.75148" lon="6.04054">
        <ele>1071.2</ele>
        <time>2000-01-01T06:18:31.000Z</time>
      </trkpt>
      <trkpt lat="45.75154" lon="6.04059">
        <ele>1071.1</ele>
        <time>2000-01-01T06:18:41.000Z</time>
      </trkpt>
      <trkpt lat="45.75159" lon="6.04063">
        <ele>1071</ele>
        <time>2000-01-01T06:18:51.000Z</time>
      </trkpt>
      <trkpt lat="45.75161" lon="6.04066">
        <ele>1071</ele>
        <time>2000-01-01T06:19:01.000Z</time>
      </trkpt>
      <trkpt lat="45.75167" lon="6.04069">
        <ele>1070.9</ele>
        <time>2000-01-01T06:19:11.000Z</time>
      </trkpt>
      <trkpt lat="45.75172" lon="6.04072">
        <ele>1070.9</ele>
        <time>2000-01-01T06:19:21.000Z</time>
      </trkpt>
      <trkpt lat="45.75177" lon="6.04077">
        <ele>1070.9</ele>
        <time>2000-01-01T06:19:31.000Z</time>
      </trkpt>
      <trkpt lat="45.75184" lon="6.04085">
        <ele>1070.9</ele>
        <time>2000-01-01T06:19:41.000Z</time>
      </trkpt>
      <trkpt lat="45.7519" lon="6.04092">
        <ele>1070.9</ele>
        <time>2000-01-01T06:19:51.000Z</time>
      </trkpt>
      <trkpt lat="45.75193" lon="6.04095">
        <ele>1070.9</ele>
        <time>2000-01-01T06:20:01.000Z</time>
      </trkpt>
      <trkpt lat="45.75198" lon="6.04099">
        <ele>1070.8</ele>
        <time>2000-01-01T06:20:11.000Z</time>
      </trkpt>
      <trkpt lat="45.75204" lon="6.04106">
        <ele>1070.8</ele>
        <time>2000-01-01T06:20:21.000Z</time>
      </trkpt>
      <trkpt lat="45.7521" lon="6.04112">
        <ele>1070.8</ele>
        <time>2000-01-01T06:20:31.000Z</time>
      </trkpt>
      <trkpt lat="45.75216" lon="6.04116">
        <ele>1070.8</ele>
        <time>2000-01-01T06:20:41.000Z</time>
      </trkpt>
      <trkpt lat="45.75221" lon="6.04121">
        <ele>1070.8</ele>
        <time>2000-01-01T06:20:51.000Z</time>
      </trkpt>
      <trkpt lat="45.75228" lon="6.04128">
        <ele>1070.2</ele>
        <time>2000-01-01T06:21:01.000Z</time>
      </trkpt>
      <trkpt lat="45.75235" lon="6.04133">
        <ele>1069.1</ele>
        <time>2000-01-01T06:21:11.000Z</time>
      </trkpt>
      <trkpt lat="45.75239" lon="6.04134">
        <ele>1068.6</ele>
        <time>2000-01-01T06:21:21.000Z</time>
      </trkpt>
      <trkpt lat="45.75247" lon="6.04138">
        <ele>1067.3</ele>
        <time>2000-01-01T06:21:31.000Z</time>
      </trkpt>
      <trkpt lat="45.75252" lon="6.04144">
        <ele>1066.4</ele>
        <time>2000-01-01T06:21:41.000Z</time>
      </trkpt>
      <trkpt lat="45.75256" lon="6.0415">
        <ele>1065.6</ele>
        <time>2000-01-01T06:21:51.000Z</time>
      </trkpt>
      <trkpt lat="45.75262" lon="6.04157">
        <ele>1065</ele>
        <time>2000-01-01T06:22:01.000Z</time>
      </trkpt>
      <trkpt lat="45.75269" lon="6.04162">
        <ele>1063.8</ele>
        <time>2000-01-01T06:22:11.000Z</time>
      </trkpt>
      <trkpt lat="45.75275" lon="6.04166">
        <ele>1062.4</ele>
        <time>2000-01-01T06:22:21.000Z</time>
      </trkpt>
      <trkpt lat="45.75281" lon="6.04169">
        <ele>1061.5</ele>
        <time>2000-01-01T06:22:31.000Z</time>
      </trkpt>
      <trkpt lat="45.75285" lon="6.0417">
        <ele>1061.2</ele>
        <time>2000-01-01T06:22:41.000Z</time>
      </trkpt>
      <trkpt lat="45.75291" lon="6.04175">
        <ele>1060</ele>
        <time>2000-01-01T06:22:51.000Z</time>
      </trkpt>
      <trkpt lat="45.75297" lon="6.04183">
        <ele>1058.6</ele>
        <time>2000-01-01T06:23:01.000Z</time>
      </trkpt>
      <trkpt lat="45.75303" lon="6.04188">
        <ele>1057.2</ele>
        <time>2000-01-01T06:23:11.000Z</time>
      </trkpt>
      <trkpt lat="45.75311" lon="6.04191">
        <ele>1055.9</ele>
        <time>2000-01-01T06:23:21.000Z</time>
      </trkpt>
      <trkpt lat="45.75317" lon="6.04194">
        <ele>1054.7</ele>
        <time>2000-01-01T06:23:31.000Z</time>
      </trkpt>
      <trkpt lat="45.75324" lon="6.042">
        <ele>1053.2</ele>
        <time>2000-01-01T06:23:41.000Z</time>
      </trkpt>
      <trkpt lat="45.75331" lon="6.04208">
        <ele>1050.7</ele>
        <time>2000-01-01T06:23:51.000Z</time>
      </trkpt>
      <trkpt lat="45.75337" lon="6.04216">
        <ele>1049.5</ele>
        <time>2000-01-01T06:24:01.000Z</time>
      </trkpt>
      <trkpt lat="45.75342" lon="6.04222">
        <ele>1048.5</ele>
        <time>2000-01-01T06:24:11.000Z</time>
      </trkpt>
      <trkpt lat="45.75348" lon="6.04227">
        <ele>1047.1</ele>
        <time>2000-01-01T06:24:21.000Z</time>
      </trkpt>
      <trkpt lat="45.75358" lon="6.04231">
        <ele>1045.7</ele>
        <time>2000-01-01T06:24:31.000Z</time>
      </trkpt>
      <trkpt lat="45.75363" lon="6.0423">
        <ele>1045.4</ele>
        <time>2000-01-01T06:24:41.000Z</time>
      </trkpt>
      <trkpt lat="45.75366" lon="6.04231">
        <ele>1045.3</ele>
        <time>2000-01-01T06:24:51.000Z</time>
      </trkpt>
      <trkpt lat="45.75372" lon="6.04234">
        <ele>1045.6</ele>
        <time>2000-01-01T06:25:01.000Z</time>
      </trkpt>
      <trkpt lat="45.75377" lon="6.04239">
        <ele>1045.5</ele>
        <time>2000-01-01T06:25:11.000Z</time>
      </trkpt>
      <trkpt lat="45.75381" lon="6.04245">
        <ele>1045.3</ele>
        <time>2000-01-01T06:25:21.000Z</time>
      </trkpt>
      <trkpt lat="45.75386" lon="6.0425">
        <ele>1045.1</ele>
        <time>2000-01-01T06:25:31.000Z</time>
      </trkpt>
      <trkpt lat="45.75392" lon="6.0426">
        <ele>1045.4</ele>
        <time>2000-01-01T06:25:41.000Z</time>
      </trkpt>
      <trkpt lat="45.75398" lon="6.04263">
        <ele>1046.1</ele>
        <time>2000-01-01T06:25:51.000Z</time>
      </trkpt>
      <trkpt lat="45.75404" lon="6.04267">
        <ele>1045.9</ele>
        <time>2000-01-01T06:26:01.000Z</time>
      </trkpt>
      <trkpt lat="45.7541" lon="6.04271">
        <ele>1045.7</ele>
        <time>2000-01-01T06:26:11.000Z</time>
      </trkpt>
      <trkpt lat="45.75418" lon="6.04273">
        <ele>1045.5</ele>
        <time>2000-01-01T06:26:21.000Z</time>
      </trkpt>
      <trkpt lat="45.75427" lon="6.04274">
        <ele>1044.9</ele>
        <time>2000-01-01T06:26:31.000Z</time>
      </trkpt>
      <trkpt lat="45.75436" lon="6.04277">
        <ele>1043.7</ele>
        <time>2000-01-01T06:26:41.000Z</time>
      </trkpt>
      <trkpt lat="45.75444" lon="6.04279">
        <ele>1042.8</ele>
        <time>2000-01-01T06:26:51.000Z</time>
      </trkpt>
      <trkpt lat="45.75452" lon="6.04282">
        <ele>1042</ele>
        <time>2000-01-01T06:27:01.000Z</time>
      </trkpt>
      <trkpt lat="45.75459" lon="6.04284">
        <ele>1041.9</ele>
        <time>2000-01-01T06:27:11.000Z</time>
      </trkpt>
      <trkpt lat="45.75465" lon="6.04288">
        <ele>1041.1</ele>
        <time>2000-01-01T06:27:21.000Z</time>
      </trkpt>
      <trkpt lat="45.75471" lon="6.04294">
        <ele>1040.1</ele>
        <time>2000-01-01T06:27:31.000Z</time>
      </trkpt>
      <trkpt lat="45.75473" lon="6.04296">
        <ele>1039.6</ele>
        <time>2000-01-01T06:27:41.000Z</time>
      </trkpt>
      <trkpt lat="45.75481" lon="6.04298">
        <ele>1038.4</ele>
        <time>2000-01-01T06:27:51.000Z</time>
      </trkpt>
      <trkpt lat="45.75484" lon="6.04299">
        <ele>1038</ele>
        <time>2000-01-01T06:28:01.000Z</time>
      </trkpt>
      <trkpt lat="45.7549" lon="6.04299">
        <ele>1037.6</ele>
        <time>2000-01-01T06:28:11.000Z</time>
      </trkpt>
      <trkpt lat="45.75497" lon="6.04298">
        <ele>1036.2</ele>
        <time>2000-01-01T06:28:21.000Z</time>
      </trkpt>
      <trkpt lat="45.75505" lon="6.04301">
        <ele>1033.4</ele>
        <time>2000-01-01T06:28:31.000Z</time>
      </trkpt>
      <trkpt lat="45.75512" lon="6.04303">
        <ele>1030.4</ele>
        <time>2000-01-01T06:28:41.000Z</time>
      </trkpt>
      <trkpt lat="45.75519" lon="6.0431">
        <ele>1027.4</ele>
        <time>2000-01-01T06:28:51.000Z</time>
      </trkpt>
      <trkpt lat="45.75526" lon="6.04313">
        <ele>1023.8</ele>
        <time>2000-01-01T06:29:01.000Z</time>
      </trkpt>
      <trkpt lat="45.75532" lon="6.0432">
        <ele>1020.4</ele>
        <time>2000-01-01T06:29:11.000Z</time>
      </trkpt>
      <trkpt lat="45.7554" lon="6.04325">
        <ele>1017.4</ele>
        <time>2000-01-01T06:29:21.000Z</time>
      </trkpt>
      <trkpt lat="45.75546" lon="6.04333">
        <ele>1015</ele>
        <time>2000-01-01T06:29:31.000Z</time>
      </trkpt>
      <trkpt lat="45.75553" lon="6.04341">
        <ele>1013</ele>
        <time>2000-01-01T06:29:41.000Z</time>
      </trkpt>
      <trkpt lat="45.75558" lon="6.04347">
        <ele>1009.9</ele>
        <time>2000-01-01T06:29:51.000Z</time>
      </trkpt>
      <trkpt lat="45.75563" lon="6.04353">
        <ele>1006.8</ele>
        <time>2000-01-01T06:30:01.000Z</time>
      </trkpt>
      <trkpt lat="45.75567" lon="6.04361">
        <ele>1005</ele>
        <time>2000-01-01T06:30:11.000Z</time>
      </trkpt>
      <trkpt lat="45.75571" lon="6.04367">
        <ele>1004.1</ele>
        <time>2000-01-01T06:30:21.000Z</time>
      </trkpt>
      <trkpt lat="45.75575" lon="6.04374">
        <ele>1002</ele>
        <time>2000-01-01T06:30:31.000Z</time>
      </trkpt>
      <trkpt lat="45.75576" lon="6.04378">
        <ele>1001.3</ele>
        <time>2000-01-01T06:30:41.000Z</time>
      </trkpt>
      <trkpt lat="45.75581" lon="6.04383">
        <ele>1000</ele>
        <time>2000-01-01T06:30:51.000Z</time>
      </trkpt>
      <trkpt lat="45.75584" lon="6.04384">
        <ele>999.3</ele>
        <time>2000-01-01T06:31:01.000Z</time>
      </trkpt>
      <trkpt lat="45.75591" lon="6.04392">
        <ele>997</ele>
        <time>2000-01-01T06:31:11.000Z</time>
      </trkpt>
      <trkpt lat="45.75595" lon="6.04399">
        <ele>995</ele>
        <time>2000-01-01T06:31:21.000Z</time>
      </trkpt>
      <trkpt lat="45.75599" lon="6.04404">
        <ele>993.6</ele>
        <time>2000-01-01T06:31:31.000Z</time>
      </trkpt>
      <trkpt lat="45.75606" lon="6.0441">
        <ele>992</ele>
        <time>2000-01-01T06:31:41.000Z</time>
      </trkpt>
      <trkpt lat="45.75612" lon="6.04422">
        <ele>989.6</ele>
        <time>2000-01-01T06:31:51.000Z</time>
      </trkpt>
      <trkpt lat="45.75614" lon="6.04425">
        <ele>988.7</ele>
        <time>2000-01-01T06:32:01.000Z</time>
      </trkpt>
      <trkpt lat="45.7562" lon="6.04433">
        <ele>985.6</ele>
        <time>2000-01-01T06:32:11.000Z</time>
      </trkpt>
      <trkpt lat="45.75622" lon="6.04438">
        <ele>984</ele>
        <time>2000-01-01T06:32:21.000Z</time>
      </trkpt>
      <trkpt lat="45.75628" lon="6.04446">
        <ele>981.8</ele>
        <time>2000-01-01T06:32:31.000Z</time>
      </trkpt>
      <trkpt lat="45.75635" lon="6.04453">
        <ele>979.4</ele>
        <time>2000-01-01T06:32:41.000Z</time>
      </trkpt>
      <trkpt lat="45.7564" lon="6.04465">
        <ele>976.7</ele>
        <time>2000-01-01T06:32:51.000Z</time>
      </trkpt>
      <trkpt lat="45.75642" lon="6.04473">
        <ele>974.7</ele>
        <time>2000-01-01T06:33:01.000Z</time>
      </trkpt>
      <trkpt lat="45.75644" lon="6.04481">
        <ele>972.7</ele>
        <time>2000-01-01T06:33:11.000Z</time>
      </trkpt>
      <trkpt lat="45.75648" lon="6.0449">
        <ele>970.1</ele>
        <time>2000-01-01T06:33:21.000Z</time>
      </trkpt>
      <trkpt lat="45.75649" lon="6.04498">
        <ele>969.1</ele>
        <time>2000-01-01T06:33:31.000Z</time>
      </trkpt>
      <trkpt lat="45.75651" lon="6.04512">
        <ele>968</ele>
        <time>2000-01-01T06:33:41.000Z</time>
      </trkpt>
      <trkpt lat="45.75655" lon="6.04525">
        <ele>966.5</ele>
        <time>2000-01-01T06:33:51.000Z</time>
      </trkpt>
      <trkpt lat="45.75655" lon="6.04538">
        <ele>963.5</ele>
        <time>2000-01-01T06:34:01.000Z</time>
      </trkpt>
      <trkpt lat="45.75656" lon="6.04548">
        <ele>961.8</ele>
        <time>2000-01-01T06:34:11.000Z</time>
      </trkpt>
      <trkpt lat="45.75659" lon="6.0456">
        <ele>960</ele>
        <time>2000-01-01T06:34:21.000Z</time>
      </trkpt>
      <trkpt lat="45.75662" lon="6.0457">
        <ele>958.7</ele>
        <time>2000-01-01T06:34:31.000Z</time>
      </trkpt>
      <trkpt lat="45.75665" lon="6.04582">
        <ele>958.6</ele>
        <time>2000-01-01T06:34:41.000Z</time>
      </trkpt>
      <trkpt lat="45.75668" lon="6.04593">
        <ele>956.9</ele>
        <time>2000-01-01T06:34:51.000Z</time>
      </trkpt>
      <trkpt lat="45.75668" lon="6.04603">
        <ele>954.7</ele>
        <time>2000-01-01T06:35:01.000Z</time>
      </trkpt>
      <trkpt lat="45.75666" lon="6.04616">
        <ele>952.3</ele>
        <time>2000-01-01T06:35:11.000Z</time>
      </trkpt>
      <trkpt lat="45.75664" lon="6.04628">
        <ele>949.4</ele>
        <time>2000-01-01T06:35:21.000Z</time>
      </trkpt>
      <trkpt lat="45.75657" lon="6.04635">
        <ele>946.3</ele>
        <time>2000-01-01T06:35:31.000Z</time>
      </trkpt>
      <trkpt lat="45.75652" lon="6.04639">
        <ele>943.1</ele>
        <time>2000-01-01T06:35:41.000Z</time>
      </trkpt>
      <trkpt lat="45.75646" lon="6.04643">
        <ele>941.7</ele>
        <time>2000-01-01T06:35:51.000Z</time>
      </trkpt>
      <trkpt lat="45.75639" lon="6.04645">
        <ele>938.2</ele>
        <time>2000-01-01T06:36:01.000Z</time>
      </trkpt>
      <trkpt lat="45.75631" lon="6.04647">
        <ele>935.1</ele>
        <time>2000-01-01T06:36:11.000Z</time>
      </trkpt>
      <trkpt lat="45.75623" lon="6.04649">
        <ele>933.8</ele>
        <time>2000-01-01T06:36:21.000Z</time>
      </trkpt>
      <trkpt lat="45.75617" lon="6.04653">
        <ele>935.7</ele>
        <time>2000-01-01T06:36:31.000Z</time>
      </trkpt>
      <trkpt lat="45.7561" lon="6.04658">
        <ele>936.9</ele>
        <time>2000-01-01T06:36:41.000Z</time>
      </trkpt>
      <trkpt lat="45.75602" lon="6.04662">
        <ele>939.3</ele>
        <time>2000-01-01T06:36:51.000Z</time>
      </trkpt>
      <trkpt lat="45.75599" lon="6.04665">
        <ele>940.5</ele>
        <time>2000-01-01T06:37:01.000Z</time>
      </trkpt>
      <trkpt lat="45.75596" lon="6.04669">
        <ele>941.7</ele>
        <time>2000-01-01T06:37:11.000Z</time>
      </trkpt>
      <trkpt lat="45.75587" lon="6.04672">
        <ele>944.7</ele>
        <time>2000-01-01T06:37:21.000Z</time>
      </trkpt>
      <trkpt lat="45.7558" lon="6.04673">
        <ele>947.7</ele>
        <time>2000-01-01T06:37:31.000Z</time>
      </trkpt>
      <trkpt lat="45.7557" lon="6.04675">
        <ele>952</ele>
        <time>2000-01-01T06:37:41.000Z</time>
      </trkpt>
      <trkpt lat="45.75564" lon="6.04673">
        <ele>953.8</ele>
        <time>2000-01-01T06:37:51.000Z</time>
      </trkpt>
      <trkpt lat="45.75555" lon="6.04675">
        <ele>957</ele>
        <time>2000-01-01T06:38:01.000Z</time>
      </trkpt>
      <trkpt lat="45.75549" lon="6.04678">
        <ele>961</ele>
        <time>2000-01-01T06:38:11.000Z</time>
      </trkpt>
      <trkpt lat="45.75539" lon="6.04679">
        <ele>965</ele>
        <time>2000-01-01T06:38:21.000Z</time>
      </trkpt>
      <trkpt lat="45.75532" lon="6.04682">
        <ele>967.3</ele>
        <time>2000-01-01T06:38:31.000Z</time>
      </trkpt>
      <trkpt lat="45.75526" lon="6.04683">
        <ele>969.9</ele>
        <time>2000-01-01T06:38:41.000Z</time>
      </trkpt>
      <trkpt lat="45.7552" lon="6.04683">
        <ele>973.2</ele>
        <time>2000-01-01T06:38:51.000Z</time>
      </trkpt>
      <trkpt lat="45.75514" lon="6.04684">
        <ele>974.3</ele>
        <time>2000-01-01T06:39:01.000Z</time>
      </trkpt>
      <trkpt lat="45.75508" lon="6.04684">
        <ele>975.1</ele>
        <time>2000-01-01T06:39:11.000Z</time>
      </trkpt>
      <trkpt lat="45.75503" lon="6.04683">
        <ele>975.6</ele>
        <time>2000-01-01T06:39:21.000Z</time>
      </trkpt>
      <trkpt lat="45.75497" lon="6.04681">
        <ele>975.2</ele>
        <time>2000-01-01T06:39:31.000Z</time>
      </trkpt>
      <trkpt lat="45.75493" lon="6.04677">
        <ele>975.6</ele>
        <time>2000-01-01T06:39:41.000Z</time>
      </trkpt>
      <trkpt lat="45.75491" lon="6.04671">
        <ele>976.4</ele>
        <time>2000-01-01T06:39:51.000Z</time>
      </trkpt>
      <trkpt lat="45.75498" lon="6.04676">
        <ele>977.7</ele>
        <time>2000-01-01T06:40:01.000Z</time>
      </trkpt>
      <trkpt lat="45.75503" lon="6.0468">
        <ele>977</ele>
        <time>2000-01-01T06:40:11.000Z</time>
      </trkpt>
      <trkpt lat="45.7551" lon="6.04686">
        <ele>975.6</ele>
        <time>2000-01-01T06:40:21.000Z</time>
      </trkpt>
      <trkpt lat="45.75515" lon="6.04694">
        <ele>974.1</ele>
        <time>2000-01-01T06:40:31.000Z</time>
      </trkpt>
      <trkpt lat="45.7552" lon="6.04701">
        <ele>972.1</ele>
        <time>2000-01-01T06:40:41.000Z</time>
      </trkpt>
      <trkpt lat="45.75525" lon="6.04711">
        <ele>968.5</ele>
        <time>2000-01-01T06:40:51.000Z</time>
      </trkpt>
      <trkpt lat="45.75529" lon="6.04719">
        <ele>965.5</ele>
        <time>2000-01-01T06:41:01.000Z</time>
      </trkpt>
      <trkpt lat="45.75534" lon="6.04729">
        <ele>961.3</ele>
        <time>2000-01-01T06:41:11.000Z</time>
      </trkpt>
      <trkpt lat="45.75537" lon="6.04738">
        <ele>957.8</ele>
        <time>2000-01-01T06:41:21.000Z</time>
      </trkpt>
      <trkpt lat="45.7554" lon="6.04749">
        <ele>954</ele>
        <time>2000-01-01T06:41:31.000Z</time>
      </trkpt>
      <trkpt lat="45.75543" lon="6.04758">
        <ele>951.2</ele>
        <time>2000-01-01T06:41:41.000Z</time>
      </trkpt>
      <trkpt lat="45.75548" lon="6.04767">
        <ele>949.8</ele>
        <time>2000-01-01T06:41:51.000Z</time>
      </trkpt>
      <trkpt lat="45.75551" lon="6.04775">
        <ele>946.5</ele>
        <time>2000-01-01T06:42:01.000Z</time>
      </trkpt>
      <trkpt lat="45.75554" lon="6.04783">
        <ele>944.1</ele>
        <time>2000-01-01T06:42:11.000Z</time>
      </trkpt>
      <trkpt lat="45.75557" lon="6.0479">
        <ele>941.9</ele>
        <time>2000-01-01T06:42:21.000Z</time>
      </trkpt>
      <trkpt lat="45.7556" lon="6.04797">
        <ele>939.6</ele>
        <time>2000-01-01T06:42:31.000Z</time>
      </trkpt>
      <trkpt lat="45.75563" lon="6.04804">
        <ele>937.5</ele>
        <time>2000-01-01T06:42:41.000Z</time>
      </trkpt>
      <trkpt lat="45.75566" lon="6.04812">
        <ele>934.1</ele>
        <time>2000-01-01T06:42:51.000Z</time>
      </trkpt>
      <trkpt lat="45.75567" lon="6.04821">
        <ele>930.1</ele>
        <time>2000-01-01T06:43:01.000Z</time>
      </trkpt>
      <trkpt lat="45.75567" lon="6.0483">
        <ele>928.7</ele>
        <time>2000-01-01T06:43:11.000Z</time>
      </trkpt>
      <trkpt lat="45.75565" lon="6.04838">
        <ele>928.2</ele>
        <time>2000-01-01T06:43:21.000Z</time>
      </trkpt>
      <trkpt lat="45.75564" lon="6.04852">
        <ele>928.9</ele>
        <time>2000-01-01T06:43:31.000Z</time>
      </trkpt>
      <trkpt lat="45.75562" lon="6.04863">
        <ele>930.1</ele>
        <time>2000-01-01T06:43:41.000Z</time>
      </trkpt>
      <trkpt lat="45.75558" lon="6.04873">
        <ele>929.9</ele>
        <time>2000-01-01T06:43:51.000Z</time>
      </trkpt>
      <trkpt lat="45.75552" lon="6.0488">
        <ele>929.9</ele>
        <time>2000-01-01T06:44:01.000Z</time>
      </trkpt>
      <trkpt lat="45.75545" lon="6.04884">
        <ele>932.9</ele>
        <time>2000-01-01T06:44:11.000Z</time>
      </trkpt>
      <trkpt lat="45.75538" lon="6.04888">
        <ele>933.4</ele>
        <time>2000-01-01T06:44:21.000Z</time>
      </trkpt>
      <trkpt lat="45.75535" lon="6.04892">
        <ele>933.7</ele>
        <time>2000-01-01T06:44:31.000Z</time>
      </trkpt>
      <trkpt lat="45.75535" lon="6.04897">
        <ele>934.1</ele>
        <time>2000-01-01T06:44:41.000Z</time>
      </trkpt>
      <trkpt lat="45.75528" lon="6.049">
        <ele>931.5</ele>
        <time>2000-01-01T06:44:51.000Z</time>
      </trkpt>
      <trkpt lat="45.75521" lon="6.04901">
        <ele>929</ele>
        <time>2000-01-01T06:45:01.000Z</time>
      </trkpt>
      <trkpt lat="45.75517" lon="6.04907">
        <ele>927.3</ele>
        <time>2000-01-01T06:45:11.000Z</time>
      </trkpt>
      <trkpt lat="45.75514" lon="6.04914">
        <ele>927.4</ele>
        <time>2000-01-01T06:45:21.000Z</time>
      </trkpt>
      <trkpt lat="45.75518" lon="6.04928">
        <ele>933.1</ele>
        <time>2000-01-01T06:45:31.000Z</time>
      </trkpt>
      <trkpt lat="45.7552" lon="6.04935">
        <ele>936.5</ele>
        <time>2000-01-01T06:45:41.000Z</time>
      </trkpt>
      <trkpt lat="45.75519" lon="6.04943">
        <ele>939.1</ele>
        <time>2000-01-01T06:45:51.000Z</time>
      </trkpt>
      <trkpt lat="45.75517" lon="6.04954">
        <ele>940.1</ele>
        <time>2000-01-01T06:46:01.000Z</time>
      </trkpt>
      <trkpt lat="45.75515" lon="6.0496">
        <ele>939.9</ele>
        <time>2000-01-01T06:46:11.000Z</time>
      </trkpt>
      <trkpt lat="45.75511" lon="6.04964">
        <ele>940.4</ele>
        <time>2000-01-01T06:46:21.000Z</time>
      </trkpt>
      <trkpt lat="45.7551" lon="6.04973">
        <ele>940.5</ele>
        <time>2000-01-01T06:46:31.000Z</time>
      </trkpt>
      <trkpt lat="45.75509" lon="6.04983">
        <ele>940.9</ele>
        <time>2000-01-01T06:46:41.000Z</time>
      </trkpt>
      <trkpt lat="45.75504" lon="6.04994">
        <ele>941</ele>
        <time>2000-01-01T06:46:51.000Z</time>
      </trkpt>
      <trkpt lat="45.75501" lon="6.05001">
        <ele>939.3</ele>
        <time>2000-01-01T06:47:01.000Z</time>
      </trkpt>
      <trkpt lat="45.75494" lon="6.05008">
        <ele>934.9</ele>
        <time>2000-01-01T06:47:11.000Z</time>
      </trkpt>
      <trkpt lat="45.75492" lon="6.05017">
        <ele>934.5</ele>
        <time>2000-01-01T06:47:21.000Z</time>
      </trkpt>
      <trkpt lat="45.75496" lon="6.05025">
        <ele>934.4</ele>
        <time>2000-01-01T06:47:31.000Z</time>
      </trkpt>
      <trkpt lat="45.75502" lon="6.05033">
        <ele>933.4</ele>
        <time>2000-01-01T06:47:41.000Z</time>
      </trkpt>
      <trkpt lat="45.75503" lon="6.05042">
        <ele>931.7</ele>
        <time>2000-01-01T06:47:51.000Z</time>
      </trkpt>
      <trkpt lat="45.75501" lon="6.05053">
        <ele>927.3</ele>
        <time>2000-01-01T06:48:01.000Z</time>
      </trkpt>
      <trkpt lat="45.75494" lon="6.05059">
        <ele>928.4</ele>
        <time>2000-01-01T06:48:11.000Z</time>
      </trkpt>
      <trkpt lat="45.75491" lon="6.05062">
        <ele>928.2</ele>
        <time>2000-01-01T06:48:21.000Z</time>
      </trkpt>
      <trkpt lat="45.75488" lon="6.05066">
        <ele>927</ele>
        <time>2000-01-01T06:48:31.000Z</time>
      </trkpt>
      <trkpt lat="45.75488" lon="6.0506">
        <ele>924.9</ele>
        <time>2000-01-01T06:48:41.000Z</time>
      </trkpt>
      <trkpt lat="45.75491" lon="6.05053">
        <ele>923.5</ele>
        <time>2000-01-01T06:48:51.000Z</time>
      </trkpt>
      <trkpt lat="45.75495" lon="6.05041">
        <ele>920.8</ele>
        <time>2000-01-01T06:49:01.000Z</time>
      </trkpt>
      <trkpt lat="45.75499" lon="6.05034">
        <ele>919.4</ele>
        <time>2000-01-01T06:49:11.000Z</time>
      </trkpt>
      <trkpt lat="45.75504" lon="6.05025">
        <ele>917.6</ele>
        <time>2000-01-01T06:49:21.000Z</time>
      </trkpt>
      <trkpt lat="45.75508" lon="6.0502">
        <ele>915.3</ele>
        <time>2000-01-01T06:49:31.000Z</time>
      </trkpt>
      <trkpt lat="45.75515" lon="6.05017">
        <ele>910.7</ele>
        <time>2000-01-01T06:49:41.000Z</time>
      </trkpt>
      <trkpt lat="45.75522" lon="6.05016">
        <ele>908.1</ele>
        <time>2000-01-01T06:49:51.000Z</time>
      </trkpt>
      <trkpt lat="45.75528" lon="6.05011">
        <ele>901.5</ele>
        <time>2000-01-01T06:50:01.000Z</time>
      </trkpt>
      <trkpt lat="45.75534" lon="6.05005">
        <ele>899.5</ele>
        <time>2000-01-01T06:50:11.000Z</time>
      </trkpt>
      <trkpt lat="45.75537" lon="6.04998">
        <ele>896.1</ele>
        <time>2000-01-01T06:50:21.000Z</time>
      </trkpt>
      <trkpt lat="45.75541" lon="6.04994">
        <ele>893.3</ele>
        <time>2000-01-01T06:50:31.000Z</time>
      </trkpt>
      <trkpt lat="45.75545" lon="6.04983">
        <ele>889.4</ele>
        <time>2000-01-01T06:50:41.000Z</time>
      </trkpt>
      <trkpt lat="45.75546" lon="6.04969">
        <ele>885.7</ele>
        <time>2000-01-01T06:50:51.000Z</time>
      </trkpt>
      <trkpt lat="45.75552" lon="6.04961">
        <ele>883.2</ele>
        <time>2000-01-01T06:51:01.000Z</time>
      </trkpt>
      <trkpt lat="45.75559" lon="6.0496">
        <ele>881.9</ele>
        <time>2000-01-01T06:51:11.000Z</time>
      </trkpt>
      <trkpt lat="45.75566" lon="6.04961">
        <ele>880.2</ele>
        <time>2000-01-01T06:51:21.000Z</time>
      </trkpt>
      <trkpt lat="45.75572" lon="6.0496">
        <ele>877.2</ele>
        <time>2000-01-01T06:51:31.000Z</time>
      </trkpt>
      <trkpt lat="45.7558" lon="6.04959">
        <ele>874.4</ele>
        <time>2000-01-01T06:51:41.000Z</time>
      </trkpt>
      <trkpt lat="45.75584" lon="6.04958">
        <ele>873.4</ele>
        <time>2000-01-01T06:51:51.000Z</time>
      </trkpt>
      <trkpt lat="45.75591" lon="6.04957">
        <ele>871.1</ele>
        <time>2000-01-01T06:52:01.000Z</time>
      </trkpt>
      <trkpt lat="45.75599" lon="6.04958">
        <ele>868</ele>
        <time>2000-01-01T06:52:11.000Z</time>
      </trkpt>
      <trkpt lat="45.75605" lon="6.04954">
        <ele>865.2</ele>
        <time>2000-01-01T06:52:21.000Z</time>
      </trkpt>
      <trkpt lat="45.75612" lon="6.04949">
        <ele>864.5</ele>
        <time>2000-01-01T06:52:31.000Z</time>
      </trkpt>
      <trkpt lat="45.75619" lon="6.04944">
        <ele>862.4</ele>
        <time>2000-01-01T06:52:41.000Z</time>
      </trkpt>
      <trkpt lat="45.75625" lon="6.04933">
        <ele>861.1</ele>
        <time>2000-01-01T06:52:51.000Z</time>
      </trkpt>
      <trkpt lat="45.75629" lon="6.04923">
        <ele>859</ele>
        <time>2000-01-01T06:53:01.000Z</time>
      </trkpt>
      <trkpt lat="45.75634" lon="6.04915">
        <ele>857.5</ele>
        <time>2000-01-01T06:53:11.000Z</time>
      </trkpt>
      <trkpt lat="45.75641" lon="6.04909">
        <ele>856</ele>
        <time>2000-01-01T06:53:21.000Z</time>
      </trkpt>
      <trkpt lat="45.75646" lon="6.04905">
        <ele>854.7</ele>
        <time>2000-01-01T06:53:31.000Z</time>
      </trkpt>
      <trkpt lat="45.75651" lon="6.049">
        <ele>853.6</ele>
        <time>2000-01-01T06:53:41.000Z</time>
      </trkpt>
      <trkpt lat="45.75657" lon="6.04892">
        <ele>853.5</ele>
        <time>2000-01-01T06:53:51.000Z</time>
      </trkpt>
      <trkpt lat="45.75665" lon="6.04888">
        <ele>852.9</ele>
        <time>2000-01-01T06:54:01.000Z</time>
      </trkpt>
      <trkpt lat="45.75674" lon="6.04892">
        <ele>851.8</ele>
        <time>2000-01-01T06:54:11.000Z</time>
      </trkpt>
      <trkpt lat="45.75679" lon="6.049">
        <ele>851.7</ele>
        <time>2000-01-01T06:54:21.000Z</time>
      </trkpt>
      <trkpt lat="45.75682" lon="6.04904">
        <ele>851</ele>
        <time>2000-01-01T06:54:31.000Z</time>
      </trkpt>
      <trkpt lat="45.75679" lon="6.04914">
        <ele>850.1</ele>
        <time>2000-01-01T06:54:41.000Z</time>
      </trkpt>
      <trkpt lat="45.75673" lon="6.04924">
        <ele>850.3</ele>
        <time>2000-01-01T06:54:51.000Z</time>
      </trkpt>
      <trkpt lat="45.75667" lon="6.04935">
        <ele>850.9</ele>
        <time>2000-01-01T06:55:01.000Z</time>
      </trkpt>
      <trkpt lat="45.75661" lon="6.04946">
        <ele>851.7</ele>
        <time>2000-01-01T06:55:11.000Z</time>
      </trkpt>
      <trkpt lat="45.75655" lon="6.04952">
        <ele>852.8</ele>
        <time>2000-01-01T06:55:21.000Z</time>
      </trkpt>
      <trkpt lat="45.75646" lon="6.0496">
        <ele>853.4</ele>
        <time>2000-01-01T06:55:31.000Z</time>
      </trkpt>
      <trkpt lat="45.75636" lon="6.04971">
        <ele>856.7</ele>
        <time>2000-01-01T06:55:41.000Z</time>
      </trkpt>
      <trkpt lat="45.75627" lon="6.0498">
        <ele>858.8</ele>
        <time>2000-01-01T06:55:51.000Z</time>
      </trkpt>
      <trkpt lat="45.75623" lon="6.04986">
        <ele>861.3</ele>
        <time>2000-01-01T06:56:01.000Z</time>
      </trkpt>
      <trkpt lat="45.75621" lon="6.0499">
        <ele>862.2</ele>
        <time>2000-01-01T06:56:11.000Z</time>
      </trkpt>
      <trkpt lat="45.75619" lon="6.04998">
        <ele>863.8</ele>
        <time>2000-01-01T06:56:21.000Z</time>
      </trkpt>
      <trkpt lat="45.75618" lon="6.05003">
        <ele>862.9</ele>
        <time>2000-01-01T06:56:31.000Z</time>
      </trkpt>
      <trkpt lat="45.75613" lon="6.05006">
        <ele>860.1</ele>
        <time>2000-01-01T06:56:41.000Z</time>
      </trkpt>
      <trkpt lat="45.7561" lon="6.05005">
        <ele>858.5</ele>
        <time>2000-01-01T06:56:51.000Z</time>
      </trkpt>
      <trkpt lat="45.75608" lon="6.05002">
        <ele>857.2</ele>
        <time>2000-01-01T06:57:01.000Z</time>
      </trkpt>
      <trkpt lat="45.75601" lon="6.05002">
        <ele>854.3</ele>
        <time>2000-01-01T06:57:11.000Z</time>
      </trkpt>
      <trkpt lat="45.75593" lon="6.05006">
        <ele>851.5</ele>
        <time>2000-01-01T06:57:21.000Z</time>
      </trkpt>
      <trkpt lat="45.75588" lon="6.05009">
        <ele>850</ele>
        <time>2000-01-01T06:57:31.000Z</time>
      </trkpt>
      <trkpt lat="45.75586" lon="6.05012">
        <ele>848.9</ele>
        <time>2000-01-01T06:57:41.000Z</time>
      </trkpt>
      <trkpt lat="45.75586" lon="6.05007">
        <ele>847.8</ele>
        <time>2000-01-01T06:57:51.000Z</time>
      </trkpt>
      <trkpt lat="45.75593" lon="6.05">
        <ele>845</ele>
        <time>2000-01-01T06:58:01.000Z</time>
      </trkpt>
      <trkpt lat="45.756" lon="6.04998">
        <ele>843.3</ele>
        <time>2000-01-01T06:58:11.000Z</time>
      </trkpt>
      <trkpt lat="45.75607" lon="6.04998">
        <ele>840.9</ele>
        <time>2000-01-01T06:58:21.000Z</time>
      </trkpt>
      <trkpt lat="45.75614" lon="6.04994">
        <ele>837.6</ele>
        <time>2000-01-01T06:58:31.000Z</time>
      </trkpt>
      <trkpt lat="45.75617" lon="6.04993">
        <ele>836.5</ele>
        <time>2000-01-01T06:58:41.000Z</time>
      </trkpt>
      <trkpt lat="45.7562" lon="6.04991">
        <ele>835.5</ele>
        <time>2000-01-01T06:58:51.000Z</time>
      </trkpt>
      <trkpt lat="45.75626" lon="6.04996">
        <ele>832.5</ele>
        <time>2000-01-01T06:59:01.000Z</time>
      </trkpt>
      <trkpt lat="45.75628" lon="6.05">
        <ele>831.9</ele>
        <time>2000-01-01T06:59:11.000Z</time>
      </trkpt>
      <trkpt lat="45.7563" lon="6.05003">
        <ele>831.3</ele>
        <time>2000-01-01T06:59:21.000Z</time>
      </trkpt>
      <trkpt lat="45.75639" lon="6.05002">
        <ele>827</ele>
        <time>2000-01-01T06:59:31.000Z</time>
      </trkpt>
      <trkpt lat="45.75645" lon="6.05">
        <ele>825.4</ele>
        <time>2000-01-01T06:59:41.000Z</time>
      </trkpt>
      <trkpt lat="45.75652" lon="6.04997">
        <ele>823.4</ele>
        <time>2000-01-01T06:59:51.000Z</time>
      </trkpt>
      <trkpt lat="45.75658" lon="6.04995">
        <ele>821.6</ele>
        <time>2000-01-01T07:00:01.000Z</time>
      </trkpt>
      <trkpt lat="45.75662" lon="6.04994">
        <ele>820.6</ele>
        <time>2000-01-01T07:00:11.000Z</time>
      </trkpt>
      <trkpt lat="45.75668" lon="6.04996">
        <ele>819.6</ele>
        <time>2000-01-01T07:00:21.000Z</time>
      </trkpt>
      <trkpt lat="45.75677" lon="6.05">
        <ele>818.3</ele>
        <time>2000-01-01T07:00:31.000Z</time>
      </trkpt>
      <trkpt lat="45.75686" lon="6.04999">
        <ele>815.5</ele>
        <time>2000-01-01T07:00:41.000Z</time>
      </trkpt>
      <trkpt lat="45.7569" lon="6.04999">
        <ele>814.6</ele>
        <time>2000-01-01T07:00:51.000Z</time>
      </trkpt>
      <trkpt lat="45.75698" lon="6.04997">
        <ele>813.8</ele>
        <time>2000-01-01T07:01:01.000Z</time>
      </trkpt>
      <trkpt lat="45.75705" lon="6.04996">
        <ele>812</ele>
        <time>2000-01-01T07:01:11.000Z</time>
      </trkpt>
      <trkpt lat="45.75714" lon="6.04992">
        <ele>809.3</ele>
        <time>2000-01-01T07:01:21.000Z</time>
      </trkpt>
      <trkpt lat="45.75723" lon="6.04985">
        <ele>807.7</ele>
        <time>2000-01-01T07:01:31.000Z</time>
      </trkpt>
      <trkpt lat="45.75729" lon="6.0498">
        <ele>806.1</ele>
        <time>2000-01-01T07:01:41.000Z</time>
      </trkpt>
      <trkpt lat="45.75735" lon="6.04975">
        <ele>804.3</ele>
        <time>2000-01-01T07:01:51.000Z</time>
      </trkpt>
      <trkpt lat="45.7574" lon="6.04971">
        <ele>803.4</ele>
        <time>2000-01-01T07:02:01.000Z</time>
      </trkpt>
      <trkpt lat="45.75746" lon="6.04966">
        <ele>802.4</ele>
        <time>2000-01-01T07:02:11.000Z</time>
      </trkpt>
      <trkpt lat="45.75747" lon="6.04962">
        <ele>802.2</ele>
        <time>2000-01-01T07:02:21.000Z</time>
      </trkpt>
      <trkpt lat="45.75749" lon="6.04957">
        <ele>801.8</ele>
        <time>2000-01-01T07:02:31.000Z</time>
      </trkpt>
      <trkpt lat="45.75757" lon="6.04954">
        <ele>800.7</ele>
        <time>2000-01-01T07:02:41.000Z</time>
      </trkpt>
      <trkpt lat="45.7576" lon="6.04955">
        <ele>800.3</ele>
        <time>2000-01-01T07:02:51.000Z</time>
      </trkpt>
      <trkpt lat="45.75767" lon="6.04956">
        <ele>799</ele>
        <time>2000-01-01T07:03:01.000Z</time>
      </trkpt>
      <trkpt lat="45.75773" lon="6.04964">
        <ele>798.4</ele>
        <time>2000-01-01T07:03:11.000Z</time>
      </trkpt>
      <trkpt lat="45.75779" lon="6.04974">
        <ele>797</ele>
        <time>2000-01-01T07:03:21.000Z</time>
      </trkpt>
      <trkpt lat="45.75785" lon="6.04982">
        <ele>795.2</ele>
        <time>2000-01-01T07:03:31.000Z</time>
      </trkpt>
      <trkpt lat="45.75786" lon="6.04993">
        <ele>794.7</ele>
        <time>2000-01-01T07:03:41.000Z</time>
      </trkpt>
      <trkpt lat="45.75785" lon="6.05001">
        <ele>794.8</ele>
        <time>2000-01-01T07:03:51.000Z</time>
      </trkpt>
      <trkpt lat="45.75781" lon="6.05009">
        <ele>794.3</ele>
        <time>2000-01-01T07:04:01.000Z</time>
      </trkpt>
      <trkpt lat="45.75777" lon="6.05016">
        <ele>795.6</ele>
        <time>2000-01-01T07:04:11.000Z</time>
      </trkpt>
      <trkpt lat="45.75771" lon="6.05024">
        <ele>797</ele>
        <time>2000-01-01T07:04:21.000Z</time>
      </trkpt>
      <trkpt lat="45.75767" lon="6.05033">
        <ele>797.4</ele>
        <time>2000-01-01T07:04:31.000Z</time>
      </trkpt>
      <trkpt lat="45.7576" lon="6.05042">
        <ele>797.2</ele>
        <time>2000-01-01T07:04:41.000Z</time>
      </trkpt>
      <trkpt lat="45.75755" lon="6.05047">
        <ele>797.5</ele>
        <time>2000-01-01T07:04:51.000Z</time>
      </trkpt>
      <trkpt lat="45.75749" lon="6.05056">
        <ele>797.4</ele>
        <time>2000-01-01T07:05:01.000Z</time>
      </trkpt>
      <trkpt lat="45.75742" lon="6.05065">
        <ele>795.9</ele>
        <time>2000-01-01T07:05:11.000Z</time>
      </trkpt>
      <trkpt lat="45.75738" lon="6.05074">
        <ele>794.9</ele>
        <time>2000-01-01T07:05:21.000Z</time>
      </trkpt>
      <trkpt lat="45.75731" lon="6.05079">
        <ele>794.9</ele>
        <time>2000-01-01T07:05:31.000Z</time>
      </trkpt>
      <trkpt lat="45.75722" lon="6.05081">
        <ele>793.8</ele>
        <time>2000-01-01T07:05:41.000Z</time>
      </trkpt>
      <trkpt lat="45.75714" lon="6.05081">
        <ele>794.5</ele>
        <time>2000-01-01T07:05:51.000Z</time>
      </trkpt>
      <trkpt lat="45.75706" lon="6.05082">
        <ele>793.8</ele>
        <time>2000-01-01T07:06:01.000Z</time>
      </trkpt>
      <trkpt lat="45.75698" lon="6.05084">
        <ele>793.2</ele>
        <time>2000-01-01T07:06:11.000Z</time>
      </trkpt>
      <trkpt lat="45.75692" lon="6.05087">
        <ele>793.6</ele>
        <time>2000-01-01T07:06:21.000Z</time>
      </trkpt>
      <trkpt lat="45.75686" lon="6.05092">
        <ele>795.1</ele>
        <time>2000-01-01T07:06:31.000Z</time>
      </trkpt>
      <trkpt lat="45.7568" lon="6.05097">
        <ele>795.3</ele>
        <time>2000-01-01T07:06:41.000Z</time>
      </trkpt>
      <trkpt lat="45.75675" lon="6.051">
        <ele>795</ele>
        <time>2000-01-01T07:06:51.000Z</time>
      </trkpt>
      <trkpt lat="45.75671" lon="6.051">
        <ele>794.6</ele>
        <time>2000-01-01T07:07:01.000Z</time>
      </trkpt>
      <trkpt lat="45.75668" lon="6.05097">
        <ele>794.3</ele>
        <time>2000-01-01T07:07:11.000Z</time>
      </trkpt>
      <trkpt lat="45.75667" lon="6.05092">
        <ele>794.1</ele>
        <time>2000-01-01T07:07:21.000Z</time>
      </trkpt>
      <trkpt lat="45.75662" lon="6.05092">
        <ele>793.6</ele>
        <time>2000-01-01T07:07:31.000Z</time>
      </trkpt>
      <trkpt lat="45.75658" lon="6.05097">
        <ele>792.9</ele>
        <time>2000-01-01T07:07:41.000Z</time>
      </trkpt>
      <trkpt lat="45.75651" lon="6.05106">
        <ele>790.5</ele>
        <time>2000-01-01T07:07:51.000Z</time>
      </trkpt>
      <trkpt lat="45.75644" lon="6.05114">
        <ele>788.4</ele>
        <time>2000-01-01T07:08:01.000Z</time>
      </trkpt>
      <trkpt lat="45.75642" lon="6.05118">
        <ele>788</ele>
        <time>2000-01-01T07:08:11.000Z</time>
      </trkpt>
      <trkpt lat="45.75642" lon="6.05127">
        <ele>788.4</ele>
        <time>2000-01-01T07:08:21.000Z</time>
      </trkpt>
      <trkpt lat="45.75645" lon="6.05135">
        <ele>788.7</ele>
        <time>2000-01-01T07:08:31.000Z</time>
      </trkpt>
      <trkpt lat="45.75651" lon="6.0514">
        <ele>789.4</ele>
        <time>2000-01-01T07:08:41.000Z</time>
      </trkpt>
      <trkpt lat="45.75656" lon="6.05143">
        <ele>790.2</ele>
        <time>2000-01-01T07:08:51.000Z</time>
      </trkpt>
      <trkpt lat="45.75656" lon="6.05147">
        <ele>790.1</ele>
        <time>2000-01-01T07:09:01.000Z</time>
      </trkpt>
      <trkpt lat="45.75652" lon="6.05156">
        <ele>789.4</ele>
        <time>2000-01-01T07:09:11.000Z</time>
      </trkpt>
      <trkpt lat="45.75648" lon="6.05165">
        <ele>790.9</ele>
        <time>2000-01-01T07:09:21.000Z</time>
      </trkpt>
      <trkpt lat="45.75647" lon="6.05175">
        <ele>792.2</ele>
        <time>2000-01-01T07:09:31.000Z</time>
      </trkpt>
      <trkpt lat="45.75647" lon="6.05185">
        <ele>793.6</ele>
        <time>2000-01-01T07:09:41.000Z</time>
      </trkpt>
      <trkpt lat="45.75647" lon="6.05194">
        <ele>794.6</ele>
        <time>2000-01-01T07:09:51.000Z</time>
      </trkpt>
      <trkpt lat="45.75647" lon="6.05203">
        <ele>794.3</ele>
        <time>2000-01-01T07:10:01.000Z</time>
      </trkpt>
      <trkpt lat="45.75644" lon="6.05212">
        <ele>791.1</ele>
        <time>2000-01-01T07:10:11.000Z</time>
      </trkpt>
      <trkpt lat="45.75639" lon="6.0522">
        <ele>786.9</ele>
        <time>2000-01-01T07:10:21.000Z</time>
      </trkpt>
      <trkpt lat="45.75637" lon="6.05228">
        <ele>757.8</ele>
        <time>2000-01-01T07:10:31.000Z</time>
      </trkpt>
      <trkpt lat="45.75653" lon="6.05249">
        <ele>744.7</ele>
        <time>2000-01-01T07:10:41.000Z</time>
      </trkpt>
      <trkpt lat="45.75653" lon="6.05245">
        <ele>754.9</ele>
        <time>2000-01-01T07:10:51.000Z</time>
      </trkpt>
      <trkpt lat="45.75659" lon="6.0524">
        <ele>754</ele>
        <time>2000-01-01T07:11:01.000Z</time>
      </trkpt>
      <trkpt lat="45.75665" lon="6.05238">
        <ele>753.2</ele>
        <time>2000-01-01T07:11:11.000Z</time>
      </trkpt>
      <trkpt lat="45.75672" lon="6.0523">
        <ele>751.4</ele>
        <time>2000-01-01T07:11:21.000Z</time>
      </trkpt>
      <trkpt lat="45.7568" lon="6.05224">
        <ele>749.6</ele>
        <time>2000-01-01T07:11:31.000Z</time>
      </trkpt>
      <trkpt lat="45.75684" lon="6.05219">
        <ele>748.7</ele>
        <time>2000-01-01T07:11:41.000Z</time>
      </trkpt>
      <trkpt lat="45.75687" lon="6.05215">
        <ele>748.2</ele>
        <time>2000-01-01T07:11:51.000Z</time>
      </trkpt>
      <trkpt lat="45.75691" lon="6.05211">
        <ele>747.6</ele>
        <time>2000-01-01T07:12:01.000Z</time>
      </trkpt>
      <trkpt lat="45.75698" lon="6.05214">
        <ele>747.3</ele>
        <time>2000-01-01T07:12:11.000Z</time>
      </trkpt>
      <trkpt lat="45.75704" lon="6.05216">
        <ele>747.3</ele>
        <time>2000-01-01T07:12:21.000Z</time>
      </trkpt>
      <trkpt lat="45.75712" lon="6.05217">
        <ele>747.5</ele>
        <time>2000-01-01T07:12:31.000Z</time>
      </trkpt>
      <trkpt lat="45.75716" lon="6.0522">
        <ele>748.3</ele>
        <time>2000-01-01T07:12:41.000Z</time>
      </trkpt>
      <trkpt lat="45.75719" lon="6.05221">
        <ele>749</ele>
        <time>2000-01-01T07:12:51.000Z</time>
      </trkpt>
      <trkpt lat="45.75721" lon="6.05224">
        <ele>748.6</ele>
        <time>2000-01-01T07:13:01.000Z</time>
      </trkpt>
      <trkpt lat="45.7572" lon="6.05232">
        <ele>747.4</ele>
        <time>2000-01-01T07:13:11.000Z</time>
      </trkpt>
      <trkpt lat="45.75715" lon="6.05242">
        <ele>746.1</ele>
        <time>2000-01-01T07:13:21.000Z</time>
      </trkpt>
      <trkpt lat="45.75714" lon="6.05253">
        <ele>743.9</ele>
        <time>2000-01-01T07:13:31.000Z</time>
      </trkpt>
      <trkpt lat="45.75715" lon="6.05261">
        <ele>741.9</ele>
        <time>2000-01-01T07:13:41.000Z</time>
      </trkpt>
      <trkpt lat="45.75715" lon="6.0527">
        <ele>739.5</ele>
        <time>2000-01-01T07:13:51.000Z</time>
      </trkpt>
      <trkpt lat="45.75712" lon="6.0528">
        <ele>736.8</ele>
        <time>2000-01-01T07:14:01.000Z</time>
      </trkpt>
      <trkpt lat="45.75709" lon="6.05283">
        <ele>735.2</ele>
        <time>2000-01-01T07:14:11.000Z</time>
      </trkpt>
      <trkpt lat="45.75707" lon="6.05286">
        <ele>733.9</ele>
        <time>2000-01-01T07:14:21.000Z</time>
      </trkpt>
      <trkpt lat="45.75705" lon="6.05282">
        <ele>732.7</ele>
        <time>2000-01-01T07:14:31.000Z</time>
      </trkpt>
      <trkpt lat="45.75708" lon="6.05281">
        <ele>731.4</ele>
        <time>2000-01-01T07:14:41.000Z</time>
      </trkpt>
      <trkpt lat="45.75713" lon="6.05285">
        <ele>729.2</ele>
        <time>2000-01-01T07:14:51.000Z</time>
      </trkpt>
      <trkpt lat="45.75721" lon="6.05283">
        <ele>727.7</ele>
        <time>2000-01-01T07:15:01.000Z</time>
      </trkpt>
      <trkpt lat="45.75732" lon="6.05278">
        <ele>724.8</ele>
        <time>2000-01-01T07:15:11.000Z</time>
      </trkpt>
      <trkpt lat="45.75739" lon="6.05276">
        <ele>721.9</ele>
        <time>2000-01-01T07:15:21.000Z</time>
      </trkpt>
      <trkpt lat="45.75748" lon="6.05276">
        <ele>718.6</ele>
        <time>2000-01-01T07:15:31.000Z</time>
      </trkpt>
      <trkpt lat="45.75755" lon="6.05275">
        <ele>715.7</ele>
        <time>2000-01-01T07:15:41.000Z</time>
      </trkpt>
      <trkpt lat="45.75763" lon="6.05281">
        <ele>711.9</ele>
        <time>2000-01-01T07:15:51.000Z</time>
      </trkpt>
      <trkpt lat="45.75769" lon="6.05286">
        <ele>709.2</ele>
        <time>2000-01-01T07:16:01.000Z</time>
      </trkpt>
      <trkpt lat="45.75774" lon="6.05291">
        <ele>707.4</ele>
        <time>2000-01-01T07:16:11.000Z</time>
      </trkpt>
      <trkpt lat="45.75779" lon="6.05293">
        <ele>706</ele>
        <time>2000-01-01T07:16:21.000Z</time>
      </trkpt>
      <trkpt lat="45.75783" lon="6.05299">
        <ele>703.1</ele>
        <time>2000-01-01T07:16:31.000Z</time>
      </trkpt>
      <trkpt lat="45.75784" lon="6.05304">
        <ele>701.6</ele>
        <time>2000-01-01T07:16:41.000Z</time>
      </trkpt>
      <trkpt lat="45.75785" lon="6.0531">
        <ele>699.8</ele>
        <time>2000-01-01T07:16:51.000Z</time>
      </trkpt>
      <trkpt lat="45.75785" lon="6.05317">
        <ele>697.1</ele>
        <time>2000-01-01T07:17:01.000Z</time>
      </trkpt>
      <trkpt lat="45.75783" lon="6.05324">
        <ele>694.7</ele>
        <time>2000-01-01T07:17:11.000Z</time>
      </trkpt>
      <trkpt lat="45.75784" lon="6.0533">
        <ele>693.7</ele>
        <time>2000-01-01T07:17:21.000Z</time>
      </trkpt>
      <trkpt lat="45.75784" lon="6.05337">
        <ele>692.9</ele>
        <time>2000-01-01T07:17:31.000Z</time>
      </trkpt>
      <trkpt lat="45.75788" lon="6.05346">
        <ele>692.2</ele>
        <time>2000-01-01T07:17:41.000Z</time>
      </trkpt>
      <trkpt lat="45.7579" lon="6.05349">
        <ele>691.9</ele>
        <time>2000-01-01T07:17:51.000Z</time>
      </trkpt>
      <trkpt lat="45.758" lon="6.05345">
        <ele>690.8</ele>
        <time>2000-01-01T07:18:01.000Z</time>
      </trkpt>
      <trkpt lat="45.75805" lon="6.0534">
        <ele>690.6</ele>
        <time>2000-01-01T07:18:11.000Z</time>
      </trkpt>
      <trkpt lat="45.75809" lon="6.05332">
        <ele>690.5</ele>
        <time>2000-01-01T07:18:21.000Z</time>
      </trkpt>
      <trkpt lat="45.75811" lon="6.05329">
        <ele>690.3</ele>
        <time>2000-01-01T07:18:31.000Z</time>
      </trkpt>
      <trkpt lat="45.75815" lon="6.05326">
        <ele>690</ele>
        <time>2000-01-01T07:18:41.000Z</time>
      </trkpt>
      <trkpt lat="45.75819" lon="6.05324">
        <ele>690.2</ele>
        <time>2000-01-01T07:18:51.000Z</time>
      </trkpt>
      <trkpt lat="45.75822" lon="6.05324">
        <ele>690.3</ele>
        <time>2000-01-01T07:19:01.000Z</time>
      </trkpt>
      <trkpt lat="45.75827" lon="6.05319">
        <ele>690</ele>
        <time>2000-01-01T07:19:11.000Z</time>
      </trkpt>
      <trkpt lat="45.75832" lon="6.05314">
        <ele>689.5</ele>
        <time>2000-01-01T07:19:21.000Z</time>
      </trkpt>
      <trkpt lat="45.75838" lon="6.05308">
        <ele>689</ele>
        <time>2000-01-01T07:19:31.000Z</time>
      </trkpt>
      <trkpt lat="45.75844" lon="6.05299">
        <ele>688.9</ele>
        <time>2000-01-01T07:19:41.000Z</time>
      </trkpt>
      <trkpt lat="45.7585" lon="6.05295">
        <ele>688.8</ele>
        <time>2000-01-01T07:19:51.000Z</time>
      </trkpt>
      <trkpt lat="45.75856" lon="6.05292">
        <ele>688.6</ele>
        <time>2000-01-01T07:20:01.000Z</time>
      </trkpt>
      <trkpt lat="45.75862" lon="6.05285">
        <ele>688.4</ele>
        <time>2000-01-01T07:20:11.000Z</time>
      </trkpt>
      <trkpt lat="45.75868" lon="6.0528">
        <ele>688</ele>
        <time>2000-01-01T07:20:21.000Z</time>
      </trkpt>
      <trkpt lat="45.75874" lon="6.05277">
        <ele>687.7</ele>
        <time>2000-01-01T07:20:31.000Z</time>
      </trkpt>
      <trkpt lat="45.75885" lon="6.05272">
        <ele>687.6</ele>
        <time>2000-01-01T07:20:41.000Z</time>
      </trkpt>
      <trkpt lat="45.75891" lon="6.05271">
        <ele>686.3</ele>
        <time>2000-01-01T07:20:51.000Z</time>
      </trkpt>
      <trkpt lat="45.75899" lon="6.05272">
        <ele>684.7</ele>
        <time>2000-01-01T07:21:01.000Z</time>
      </trkpt>
      <trkpt lat="45.75902" lon="6.05272">
        <ele>684.4</ele>
        <time>2000-01-01T07:21:11.000Z</time>
      </trkpt>
      <trkpt lat="45.75909" lon="6.05276">
        <ele>682.7</ele>
        <time>2000-01-01T07:21:21.000Z</time>
      </trkpt>
      <trkpt lat="45.75914" lon="6.0528">
        <ele>679.2</ele>
        <time>2000-01-01T07:21:31.000Z</time>
      </trkpt>
      <trkpt lat="45.75918" lon="6.05285">
        <ele>677.4</ele>
        <time>2000-01-01T07:21:41.000Z</time>
      </trkpt>
      <trkpt lat="45.7592" lon="6.05289">
        <ele>676.2</ele>
        <time>2000-01-01T07:21:51.000Z</time>
      </trkpt>
      <trkpt lat="45.75919" lon="6.05295">
        <ele>674.9</ele>
        <time>2000-01-01T07:22:01.000Z</time>
      </trkpt>
      <trkpt lat="45.75921" lon="6.05301">
        <ele>673.4</ele>
        <time>2000-01-01T07:22:11.000Z</time>
      </trkpt>
      <trkpt lat="45.75927" lon="6.05304">
        <ele>670.9</ele>
        <time>2000-01-01T07:22:21.000Z</time>
      </trkpt>
      <trkpt lat="45.75934" lon="6.0531">
        <ele>668.3</ele>
        <time>2000-01-01T07:22:31.000Z</time>
      </trkpt>
      <trkpt lat="45.75939" lon="6.05316">
        <ele>666.3</ele>
        <time>2000-01-01T07:22:41.000Z</time>
      </trkpt>
      <trkpt lat="45.75945" lon="6.05322">
        <ele>664.2</ele>
        <time>2000-01-01T07:22:51.000Z</time>
      </trkpt>
      <trkpt lat="45.75951" lon="6.05329">
        <ele>661.7</ele>
        <time>2000-01-01T07:23:01.000Z</time>
      </trkpt>
      <trkpt lat="45.75955" lon="6.05339">
        <ele>658.7</ele>
        <time>2000-01-01T07:23:11.000Z</time>
      </trkpt>
      <trkpt lat="45.75959" lon="6.0535">
        <ele>656</ele>
        <time>2000-01-01T07:23:21.000Z</time>
      </trkpt>
      <trkpt lat="45.75961" lon="6.05363">
        <ele>653.1</ele>
        <time>2000-01-01T07:23:31.000Z</time>
      </trkpt>
      <trkpt lat="45.7596" lon="6.05372">
        <ele>651.3</ele>
        <time>2000-01-01T07:23:41.000Z</time>
      </trkpt>
      <trkpt lat="45.7596" lon="6.05382">
        <ele>649.9</ele>
        <time>2000-01-01T07:23:51.000Z</time>
      </trkpt>
      <trkpt lat="45.7596" lon="6.05391">
        <ele>648.8</ele>
        <time>2000-01-01T07:24:01.000Z</time>
      </trkpt>
      <trkpt lat="45.75962" lon="6.05399">
        <ele>647.6</ele>
        <time>2000-01-01T07:24:11.000Z</time>
      </trkpt>
      <trkpt lat="45.75965" lon="6.05408">
        <ele>646</ele>
        <time>2000-01-01T07:24:21.000Z</time>
      </trkpt>
      <trkpt lat="45.75966" lon="6.05417">
        <ele>644.1</ele>
        <time>2000-01-01T07:24:31.000Z</time>
      </trkpt>
      <trkpt lat="45.75966" lon="6.05427">
        <ele>642.6</ele>
        <time>2000-01-01T07:24:41.000Z</time>
      </trkpt>
      <trkpt lat="45.75965" lon="6.05437">
        <ele>641</ele>
        <time>2000-01-01T07:24:51.000Z</time>
      </trkpt>
      <trkpt lat="45.75965" lon="6.05447">
        <ele>639.5</ele>
        <time>2000-01-01T07:25:01.000Z</time>
      </trkpt>
      <trkpt lat="45.75967" lon="6.05456">
        <ele>637.8</ele>
        <time>2000-01-01T07:25:11.000Z</time>
      </trkpt>
      <trkpt lat="45.75967" lon="6.05468">
        <ele>632.8</ele>
        <time>2000-01-01T07:25:21.000Z</time>
      </trkpt>
      <trkpt lat="45.75966" lon="6.05473">
        <ele>632.9</ele>
        <time>2000-01-01T07:25:31.000Z</time>
      </trkpt>
      <trkpt lat="45.75969" lon="6.05474">
        <ele>633.1</ele>
        <time>2000-01-01T07:25:41.000Z</time>
      </trkpt>
      <trkpt lat="45.75974" lon="6.05466">
        <ele>633.4</ele>
        <time>2000-01-01T07:25:51.000Z</time>
      </trkpt>
      <trkpt lat="45.75978" lon="6.05455">
        <ele>633.6</ele>
        <time>2000-01-01T07:26:01.000Z</time>
      </trkpt>
      <trkpt lat="45.75982" lon="6.05444">
        <ele>633.8</ele>
        <time>2000-01-01T07:26:11.000Z</time>
      </trkpt>
      <trkpt lat="45.75985" lon="6.05436">
        <ele>633.9</ele>
        <time>2000-01-01T07:26:21.000Z</time>
      </trkpt>
      <trkpt lat="45.75989" lon="6.05427">
        <ele>634</ele>
        <time>2000-01-01T07:26:31.000Z</time>
      </trkpt>
      <trkpt lat="45.75992" lon="6.05412">
        <ele>634</ele>
        <time>2000-01-01T07:26:41.000Z</time>
      </trkpt>
      <trkpt lat="45.75994" lon="6.05404">
        <ele>634</ele>
        <time>2000-01-01T07:26:51.000Z</time>
      </trkpt>
      <trkpt lat="45.75997" lon="6.0539">
        <ele>633.8</ele>
        <time>2000-01-01T07:27:01.000Z</time>
      </trkpt>
      <trkpt lat="45.75998" lon="6.05379">
        <ele>633.6</ele>
        <time>2000-01-01T07:27:11.000Z</time>
      </trkpt>
      <trkpt lat="45.76" lon="6.05367">
        <ele>633.3</ele>
        <time>2000-01-01T07:27:21.000Z</time>
      </trkpt>
      <trkpt lat="45.76004" lon="6.05359">
        <ele>633.1</ele>
        <time>2000-01-01T07:27:31.000Z</time>
      </trkpt>
      <trkpt lat="45.76009" lon="6.0535">
        <ele>633</ele>
        <time>2000-01-01T07:27:41.000Z</time>
      </trkpt>
      <trkpt lat="45.76014" lon="6.05343">
        <ele>632.8</ele>
        <time>2000-01-01T07:27:51.000Z</time>
      </trkpt>
      <trkpt lat="45.76019" lon="6.05332">
        <ele>632.6</ele>
        <time>2000-01-01T07:28:01.000Z</time>
      </trkpt>
      <trkpt lat="45.76025" lon="6.05324">
        <ele>632.4</ele>
        <time>2000-01-01T07:28:11.000Z</time>
      </trkpt>
      <trkpt lat="45.7603" lon="6.05316">
        <ele>632.2</ele>
        <time>2000-01-01T07:28:21.000Z</time>
      </trkpt>
      <trkpt lat="45.76032" lon="6.05312">
        <ele>632.1</ele>
        <time>2000-01-01T07:28:31.000Z</time>
      </trkpt>
      <trkpt lat="45.76035" lon="6.05297">
        <ele>631.7</ele>
        <time>2000-01-01T07:28:41.000Z</time>
      </trkpt>
      <trkpt lat="45.76035" lon="6.05288">
        <ele>631.5</ele>
        <time>2000-01-01T07:28:51.000Z</time>
      </trkpt>
      <trkpt lat="45.76036" lon="6.05279">
        <ele>631.3</ele>
        <time>2000-01-01T07:29:01.000Z</time>
      </trkpt>
      <trkpt lat="45.76038" lon="6.05268">
        <ele>631</ele>
        <time>2000-01-01T07:29:11.000Z</time>
      </trkpt>
      <trkpt lat="45.7604" lon="6.0526">
        <ele>630.7</ele>
        <time>2000-01-01T07:29:21.000Z</time>
      </trkpt>
      <trkpt lat="45.76043" lon="6.05253">
        <ele>630.4</ele>
        <time>2000-01-01T07:29:31.000Z</time>
      </trkpt>
      <trkpt lat="45.76045" lon="6.05245">
        <ele>630.2</ele>
        <time>2000-01-01T07:29:41.000Z</time>
      </trkpt>
      <trkpt lat="45.76049" lon="6.05237">
        <ele>629.9</ele>
        <time>2000-01-01T07:29:51.000Z</time>
      </trkpt>
      <trkpt lat="45.76053" lon="6.0523">
        <ele>629.5</ele>
        <time>2000-01-01T07:30:01.000Z</time>
      </trkpt>
      <trkpt lat="45.76057" lon="6.05224">
        <ele>629.2</ele>
        <time>2000-01-01T07:30:11.000Z</time>
      </trkpt>
      <trkpt lat="45.76062" lon="6.05217">
        <ele>628.9</ele>
        <time>2000-01-01T07:30:21.000Z</time>
      </trkpt>
      <trkpt lat="45.76067" lon="6.05208">
        <ele>628.6</ele>
        <time>2000-01-01T07:30:31.000Z</time>
      </trkpt>
      <trkpt lat="45.76072" lon="6.052">
        <ele>628.2</ele>
        <time>2000-01-01T07:30:41.000Z</time>
      </trkpt>
      <trkpt lat="45.76077" lon="6.05195">
        <ele>627.9</ele>
        <time>2000-01-01T07:30:51.000Z</time>
      </trkpt>
      <trkpt lat="45.76081" lon="6.05189">
        <ele>627.5</ele>
        <time>2000-01-01T07:31:01.000Z</time>
      </trkpt>
      <trkpt lat="45.76087" lon="6.0518">
        <ele>626.8</ele>
        <time>2000-01-01T07:31:11.000Z</time>
      </trkpt>
      <trkpt lat="45.76092" lon="6.05175">
        <ele>626.3</ele>
        <time>2000-01-01T07:31:21.000Z</time>
      </trkpt>
      <trkpt lat="45.76097" lon="6.05171">
        <ele>625.9</ele>
        <time>2000-01-01T07:31:31.000Z</time>
      </trkpt>
      <trkpt lat="45.76102" lon="6.05167">
        <ele>625.5</ele>
        <time>2000-01-01T07:31:41.000Z</time>
      </trkpt>
      <trkpt lat="45.76107" lon="6.05163">
        <ele>625</ele>
        <time>2000-01-01T07:31:51.000Z</time>
      </trkpt>
      <trkpt lat="45.76113" lon="6.05159">
        <ele>624.6</ele>
        <time>2000-01-01T07:32:01.000Z</time>
      </trkpt>
      <trkpt lat="45.76119" lon="6.05152">
        <ele>623.9</ele>
        <time>2000-01-01T07:32:11.000Z</time>
      </trkpt>
      <trkpt lat="45.76125" lon="6.05144">
        <ele>623.2</ele>
        <time>2000-01-01T07:32:21.000Z</time>
      </trkpt>
      <trkpt lat="45.76132" lon="6.05135">
        <ele>622.5</ele>
        <time>2000-01-01T07:32:31.000Z</time>
      </trkpt>
      <trkpt lat="45.76138" lon="6.05124">
        <ele>622</ele>
        <time>2000-01-01T07:32:41.000Z</time>
      </trkpt>
      <trkpt lat="45.76141" lon="6.05117">
        <ele>621.7</ele>
        <time>2000-01-01T07:32:51.000Z</time>
      </trkpt>
      <trkpt lat="45.76144" lon="6.0511">
        <ele>621.4</ele>
        <time>2000-01-01T07:33:01.000Z</time>
      </trkpt>
      <trkpt lat="45.76148" lon="6.05101">
        <ele>621</ele>
        <time>2000-01-01T07:33:11.000Z</time>
      </trkpt>
      <trkpt lat="45.76151" lon="6.05094">
        <ele>620.7</ele>
        <time>2000-01-01T07:33:21.000Z</time>
      </trkpt>
      <trkpt lat="45.76156" lon="6.05086">
        <ele>620.3</ele>
        <time>2000-01-01T07:33:31.000Z</time>
      </trkpt>
      <trkpt lat="45.7616" lon="6.05075">
        <ele>619.9</ele>
        <time>2000-01-01T07:33:41.000Z</time>
      </trkpt>
      <trkpt lat="45.76163" lon="6.05065">
        <ele>619.5</ele>
        <time>2000-01-01T07:33:51.000Z</time>
      </trkpt>
      <trkpt lat="45.76167" lon="6.05052">
        <ele>619</ele>
        <time>2000-01-01T07:34:01.000Z</time>
      </trkpt>
      <trkpt lat="45.76171" lon="6.05038">
        <ele>618.6</ele>
        <time>2000-01-01T07:34:11.000Z</time>
      </trkpt>
      <trkpt lat="45.76174" lon="6.0503">
        <ele>618.2</ele>
        <time>2000-01-01T07:34:21.000Z</time>
      </trkpt>
      <trkpt lat="45.76177" lon="6.05022">
        <ele>617.8</ele>
        <time>2000-01-01T07:34:31.000Z</time>
      </trkpt>
      <trkpt lat="45.76181" lon="6.05015">
        <ele>617.3</ele>
        <time>2000-01-01T07:34:41.000Z</time>
      </trkpt>
      <trkpt lat="45.76185" lon="6.05004">
        <ele>616.8</ele>
        <time>2000-01-01T07:34:51.000Z</time>
      </trkpt>
      <trkpt lat="45.7619" lon="6.04991">
        <ele>616</ele>
        <time>2000-01-01T07:35:01.000Z</time>
      </trkpt>
      <trkpt lat="45.76193" lon="6.0498">
        <ele>615.5</ele>
        <time>2000-01-01T07:35:11.000Z</time>
      </trkpt>
      <trkpt lat="45.76196" lon="6.0497">
        <ele>615.1</ele>
        <time>2000-01-01T07:35:21.000Z</time>
      </trkpt>
      <trkpt lat="45.76199" lon="6.04959">
        <ele>614.6</ele>
        <time>2000-01-01T07:35:31.000Z</time>
      </trkpt>
      <trkpt lat="45.76204" lon="6.04946">
        <ele>614</ele>
        <time>2000-01-01T07:35:41.000Z</time>
      </trkpt>
      <trkpt lat="45.76207" lon="6.04938">
        <ele>613.6</ele>
        <time>2000-01-01T07:35:51.000Z</time>
      </trkpt>
      <trkpt lat="45.7621" lon="6.0493">
        <ele>613.1</ele>
        <time>2000-01-01T07:36:01.000Z</time>
      </trkpt>
      <trkpt lat="45.76214" lon="6.0492">
        <ele>612.4</ele>
        <time>2000-01-01T07:36:11.000Z</time>
      </trkpt>
      <trkpt lat="45.76218" lon="6.04909">
        <ele>611.9</ele>
        <time>2000-01-01T07:36:21.000Z</time>
      </trkpt>
      <trkpt lat="45.76221" lon="6.04903">
        <ele>611.5</ele>
        <time>2000-01-01T07:36:31.000Z</time>
      </trkpt>
      <trkpt lat="45.76225" lon="6.04894">
        <ele>611.1</ele>
        <time>2000-01-01T07:36:41.000Z</time>
      </trkpt>
      <trkpt lat="45.7623" lon="6.04882">
        <ele>610.5</ele>
        <time>2000-01-01T07:36:51.000Z</time>
      </trkpt>
      <trkpt lat="45.76235" lon="6.0487">
        <ele>609.9</ele>
        <time>2000-01-01T07:37:01.000Z</time>
      </trkpt>
      <trkpt lat="45.7624" lon="6.04857">
        <ele>609.3</ele>
        <time>2000-01-01T07:37:11.000Z</time>
      </trkpt>
      <trkpt lat="45.76243" lon="6.04846">
        <ele>609</ele>
        <time>2000-01-01T07:37:21.000Z</time>
      </trkpt>
      <trkpt lat="45.76245" lon="6.04839">
        <ele>608.9</ele>
        <time>2000-01-01T07:37:31.000Z</time>
      </trkpt>
      <trkpt lat="45.76249" lon="6.04825">
        <ele>608.6</ele>
        <time>2000-01-01T07:37:41.000Z</time>
      </trkpt>
      <trkpt lat="45.76252" lon="6.04815">
        <ele>608.4</ele>
        <time>2000-01-01T07:37:51.000Z</time>
      </trkpt>
      <trkpt lat="45.76256" lon="6.04802">
        <ele>608.2</ele>
        <time>2000-01-01T07:38:01.000Z</time>
      </trkpt>
      <trkpt lat="45.76259" lon="6.04791">
        <ele>608</ele>
        <time>2000-01-01T07:38:11.000Z</time>
      </trkpt>
      <trkpt lat="45.76263" lon="6.0478">
        <ele>607.6</ele>
        <time>2000-01-01T07:38:21.000Z</time>
      </trkpt>
      <trkpt lat="45.76267" lon="6.04773">
        <ele>607.3</ele>
        <time>2000-01-01T07:38:31.000Z</time>
      </trkpt>
      <trkpt lat="45.76271" lon="6.04768">
        <ele>607</ele>
        <time>2000-01-01T07:38:41.000Z</time>
      </trkpt>
      <trkpt lat="45.76277" lon="6.04763">
        <ele>606.8</ele>
        <time>2000-01-01T07:38:51.000Z</time>
      </trkpt>
      <trkpt lat="45.76281" lon="6.04757">
        <ele>606.6</ele>
        <time>2000-01-01T07:39:01.000Z</time>
      </trkpt>
      <trkpt lat="45.76287" lon="6.04748">
        <ele>606.4</ele>
        <time>2000-01-01T07:39:11.000Z</time>
      </trkpt>
      <trkpt lat="45.76292" lon="6.04738">
        <ele>606.1</ele>
        <time>2000-01-01T07:39:21.000Z</time>
      </trkpt>
      <trkpt lat="45.76295" lon="6.04732">
        <ele>605.9</ele>
        <time>2000-01-01T07:39:31.000Z</time>
      </trkpt>
      <trkpt lat="45.76298" lon="6.04726">
        <ele>605.7</ele>
        <time>2000-01-01T07:39:41.000Z</time>
      </trkpt>
      <trkpt lat="45.76301" lon="6.04719">
        <ele>605.4</ele>
        <time>2000-01-01T07:39:51.000Z</time>
      </trkpt>
      <trkpt lat="45.76307" lon="6.04706">
        <ele>604.9</ele>
        <time>2000-01-01T07:40:01.000Z</time>
      </trkpt>
      <trkpt lat="45.76311" lon="6.04696">
        <ele>604.2</ele>
        <time>2000-01-01T07:40:11.000Z</time>
      </trkpt>
      <trkpt lat="45.76314" lon="6.0469">
        <ele>603.8</ele>
        <time>2000-01-01T07:40:21.000Z</time>
      </trkpt>
      <trkpt lat="45.76317" lon="6.04683">
        <ele>603.3</ele>
        <time>2000-01-01T07:40:31.000Z</time>
      </trkpt>
      <trkpt lat="45.7632" lon="6.04674">
        <ele>603</ele>
        <time>2000-01-01T07:40:41.000Z</time>
      </trkpt>
      <trkpt lat="45.76323" lon="6.04666">
        <ele>602.7</ele>
        <time>2000-01-01T07:40:51.000Z</time>
      </trkpt>
      <trkpt lat="45.76327" lon="6.04659">
        <ele>602.4</ele>
        <time>2000-01-01T07:41:01.000Z</time>
      </trkpt>
      <trkpt lat="45.7633" lon="6.04651">
        <ele>602.1</ele>
        <time>2000-01-01T07:41:11.000Z</time>
      </trkpt>
      <trkpt lat="45.76333" lon="6.04643">
        <ele>601.8</ele>
        <time>2000-01-01T07:41:21.000Z</time>
      </trkpt>
      <trkpt lat="45.76336" lon="6.04636">
        <ele>601.5</ele>
        <time>2000-01-01T07:41:31.000Z</time>
      </trkpt>
      <trkpt lat="45.76339" lon="6.04628">
        <ele>601.2</ele>
        <time>2000-01-01T07:41:41.000Z</time>
      </trkpt>
      <trkpt lat="45.76342" lon="6.0462">
        <ele>600.8</ele>
        <time>2000-01-01T07:41:51.000Z</time>
      </trkpt>
      <trkpt lat="45.76345" lon="6.04612">
        <ele>600.3</ele>
        <time>2000-01-01T07:42:01.000Z</time>
      </trkpt>
      <trkpt lat="45.76348" lon="6.04604">
        <ele>600</ele>
        <time>2000-01-01T07:42:11.000Z</time>
      </trkpt>
      <trkpt lat="45.7635" lon="6.04596">
        <ele>599.6</ele>
        <time>2000-01-01T07:42:21.000Z</time>
      </trkpt>
      <trkpt lat="45.76352" lon="6.04589">
        <ele>599.3</ele>
        <time>2000-01-01T07:42:31.000Z</time>
      </trkpt>
      <trkpt lat="45.76354" lon="6.04581">
        <ele>599</ele>
        <time>2000-01-01T07:42:41.000Z</time>
      </trkpt>
      <trkpt lat="45.76355" lon="6.04573">
        <ele>598.6</ele>
        <time>2000-01-01T07:42:51.000Z</time>
      </trkpt>
      <trkpt lat="45.76356" lon="6.04564">
        <ele>598.2</ele>
        <time>2000-01-01T07:43:01.000Z</time>
      </trkpt>
      <trkpt lat="45.76359" lon="6.04554">
        <ele>597.7</ele>
        <time>2000-01-01T07:43:11.000Z</time>
      </trkpt>
      <trkpt lat="45.76361" lon="6.04542">
        <ele>597.2</ele>
        <time>2000-01-01T07:43:21.000Z</time>
      </trkpt>
      <trkpt lat="45.76362" lon="6.04528">
        <ele>596.5</ele>
        <time>2000-01-01T07:43:31.000Z</time>
      </trkpt>
      <trkpt lat="45.76363" lon="6.04515">
        <ele>595.9</ele>
        <time>2000-01-01T07:43:41.000Z</time>
      </trkpt>
      <trkpt lat="45.76364" lon="6.04507">
        <ele>595.5</ele>
        <time>2000-01-01T07:43:51.000Z</time>
      </trkpt>
      <trkpt lat="45.76366" lon="6.04499">
        <ele>595.2</ele>
        <time>2000-01-01T07:44:01.000Z</time>
      </trkpt>
      <trkpt lat="45.76369" lon="6.04486">
        <ele>594.5</ele>
        <time>2000-01-01T07:44:11.000Z</time>
      </trkpt>
      <trkpt lat="45.76371" lon="6.04478">
        <ele>594.1</ele>
        <time>2000-01-01T07:44:21.000Z</time>
      </trkpt>
      <trkpt lat="45.76374" lon="6.04468">
        <ele>593.7</ele>
        <time>2000-01-01T07:44:31.000Z</time>
      </trkpt>
      <trkpt lat="45.76375" lon="6.04457">
        <ele>593.3</ele>
        <time>2000-01-01T07:44:41.000Z</time>
      </trkpt>
      <trkpt lat="45.76378" lon="6.04449">
        <ele>593</ele>
        <time>2000-01-01T07:44:51.000Z</time>
      </trkpt>
      <trkpt lat="45.76382" lon="6.04438">
        <ele>592.6</ele>
        <time>2000-01-01T07:45:01.000Z</time>
      </trkpt>
      <trkpt lat="45.76385" lon="6.04426">
        <ele>592</ele>
        <time>2000-01-01T07:45:11.000Z</time>
      </trkpt>
      <trkpt lat="45.7639" lon="6.04413">
        <ele>591.4</ele>
        <time>2000-01-01T07:45:21.000Z</time>
      </trkpt>
      <trkpt lat="45.76394" lon="6.04402">
        <ele>591</ele>
        <time>2000-01-01T07:45:31.000Z</time>
      </trkpt>
      <trkpt lat="45.76398" lon="6.04393">
        <ele>590.7</ele>
        <time>2000-01-01T07:45:41.000Z</time>
      </trkpt>
      <trkpt lat="45.76402" lon="6.04382">
        <ele>590.2</ele>
        <time>2000-01-01T07:45:51.000Z</time>
      </trkpt>
      <trkpt lat="45.76404" lon="6.04371">
        <ele>589.8</ele>
        <time>2000-01-01T07:46:01.000Z</time>
      </trkpt>
      <trkpt lat="45.76408" lon="6.04358">
        <ele>589.2</ele>
        <time>2000-01-01T07:46:11.000Z</time>
      </trkpt>
      <trkpt lat="45.7641" lon="6.04347">
        <ele>588.9</ele>
        <time>2000-01-01T07:46:21.000Z</time>
      </trkpt>
      <trkpt lat="45.76413" lon="6.04334">
        <ele>588.6</ele>
        <time>2000-01-01T07:46:31.000Z</time>
      </trkpt>
      <trkpt lat="45.76416" lon="6.0432">
        <ele>588.4</ele>
        <time>2000-01-01T07:46:41.000Z</time>
      </trkpt>
      <trkpt lat="45.76418" lon="6.04311">
        <ele>588.3</ele>
        <time>2000-01-01T07:46:51.000Z</time>
      </trkpt>
      <trkpt lat="45.7642" lon="6.04298">
        <ele>588.2</ele>
        <time>2000-01-01T07:47:01.000Z</time>
      </trkpt>
      <trkpt lat="45.76423" lon="6.04284">
        <ele>588.1</ele>
        <time>2000-01-01T07:47:11.000Z</time>
      </trkpt>
      <trkpt lat="45.76424" lon="6.04281">
        <ele>588.1</ele>
        <time>2000-01-01T07:47:21.000Z</time>
      </trkpt>
      <trkpt lat="45.76424" lon="6.04275">
        <ele>588.1</ele>
        <time>2000-01-01T07:47:31.000Z</time>
      </trkpt>
      <trkpt lat="45.76418" lon="6.04272">
        <ele>589</ele>
        <time>2000-01-01T07:47:41.000Z</time>
      </trkpt>
      <trkpt lat="45.76411" lon="6.04271">
        <ele>590</ele>
        <time>2000-01-01T07:47:51.000Z</time>
      </trkpt>
      <trkpt lat="45.76405" lon="6.04268">
        <ele>591.3</ele>
        <time>2000-01-01T07:48:01.000Z</time>
      </trkpt>
      <trkpt lat="45.76402" lon="6.04266">
        <ele>591.8</ele>
        <time>2000-01-01T07:48:11.000Z</time>
      </trkpt>
      <trkpt lat="45.76395" lon="6.04267">
        <ele>592.8</ele>
        <time>2000-01-01T07:48:21.000Z</time>
      </trkpt>
      <trkpt lat="45.76392" lon="6.04267">
        <ele>593.4</ele>
        <time>2000-01-01T07:48:31.000Z</time>
      </trkpt>
      <trkpt lat="45.76387" lon="6.0427">
        <ele>594.4</ele>
        <time>2000-01-01T07:48:41.000Z</time>
      </trkpt>
      <trkpt lat="45.76382" lon="6.04276">
        <ele>594.8</ele>
        <time>2000-01-01T07:48:51.000Z</time>
      </trkpt>
      <trkpt lat="45.76378" lon="6.04284">
        <ele>595</ele>
        <time>2000-01-01T07:49:01.000Z</time>
      </trkpt>
      <trkpt lat="45.76374" lon="6.04292">
        <ele>595.8</ele>
        <time>2000-01-01T07:49:11.000Z</time>
      </trkpt>
      <trkpt lat="45.76369" lon="6.04298">
        <ele>596.8</ele>
        <time>2000-01-01T07:49:21.000Z</time>
      </trkpt>
      <trkpt lat="45.7636" lon="6.04306">
        <ele>597.9</ele>
        <time>2000-01-01T07:49:31.000Z</time>
      </trkpt>
      <trkpt lat="45.76353" lon="6.04313">
        <ele>599.8</ele>
        <time>2000-01-01T07:49:41.000Z</time>
      </trkpt>
      <trkpt lat="45.76346" lon="6.0432">
        <ele>600.9</ele>
        <time>2000-01-01T07:49:51.000Z</time>
      </trkpt>
      <trkpt lat="45.76341" lon="6.04328">
        <ele>601.8</ele>
        <time>2000-01-01T07:50:01.000Z</time>
      </trkpt>
      <trkpt lat="45.76336" lon="6.04338">
        <ele>602.1</ele>
        <time>2000-01-01T07:50:11.000Z</time>
      </trkpt>
      <trkpt lat="45.76333" lon="6.04348">
        <ele>603.1</ele>
        <time>2000-01-01T07:50:21.000Z</time>
      </trkpt>
      <trkpt lat="45.76326" lon="6.04356">
        <ele>604</ele>
        <time>2000-01-01T07:50:31.000Z</time>
      </trkpt>
      <trkpt lat="45.76318" lon="6.04362">
        <ele>605.5</ele>
        <time>2000-01-01T07:50:41.000Z</time>
      </trkpt>
      <trkpt lat="45.7631" lon="6.04369">
        <ele>606.2</ele>
        <time>2000-01-01T07:50:51.000Z</time>
      </trkpt>
      <trkpt lat="45.76305" lon="6.04374">
        <ele>607.4</ele>
        <time>2000-01-01T07:51:01.000Z</time>
      </trkpt>
      <trkpt lat="45.76298" lon="6.04376">
        <ele>608.6</ele>
        <time>2000-01-01T07:51:11.000Z</time>
      </trkpt>
      <trkpt lat="45.76289" lon="6.04376">
        <ele>610.3</ele>
        <time>2000-01-01T07:51:21.000Z</time>
      </trkpt>
      <trkpt lat="45.76283" lon="6.04373">
        <ele>611.4</ele>
        <time>2000-01-01T07:51:31.000Z</time>
      </trkpt>
      <trkpt lat="45.7628" lon="6.04371">
        <ele>612.1</ele>
        <time>2000-01-01T07:51:41.000Z</time>
      </trkpt>
      <trkpt lat="45.76273" lon="6.04369">
        <ele>613.2</ele>
        <time>2000-01-01T07:51:51.000Z</time>
      </trkpt>
      <trkpt lat="45.76271" lon="6.04366">
        <ele>613.9</ele>
        <time>2000-01-01T07:52:01.000Z</time>
      </trkpt>
      <trkpt lat="45.76265" lon="6.04366">
        <ele>615</ele>
        <time>2000-01-01T07:52:11.000Z</time>
      </trkpt>
      <trkpt lat="45.76261" lon="6.04367">
        <ele>616</ele>
        <time>2000-01-01T07:52:21.000Z</time>
      </trkpt>
      <trkpt lat="45.7626" lon="6.04375">
        <ele>615.7</ele>
        <time>2000-01-01T07:52:31.000Z</time>
      </trkpt>
      <trkpt lat="45.7626" lon="6.04384">
        <ele>615.6</ele>
        <time>2000-01-01T07:52:41.000Z</time>
      </trkpt>
      <trkpt lat="45.76258" lon="6.04391">
        <ele>616</ele>
        <time>2000-01-01T07:52:51.000Z</time>
      </trkpt>
      <trkpt lat="45.76252" lon="6.04399">
        <ele>617.1</ele>
        <time>2000-01-01T07:53:01.000Z</time>
      </trkpt>
      <trkpt lat="45.76247" lon="6.04405">
        <ele>617.7</ele>
        <time>2000-01-01T07:53:11.000Z</time>
      </trkpt>
      <trkpt lat="45.76246" lon="6.0441">
        <ele>618.3</ele>
        <time>2000-01-01T07:53:21.000Z</time>
      </trkpt>
      <trkpt lat="45.76244" lon="6.04421">
        <ele>618.2</ele>
        <time>2000-01-01T07:53:31.000Z</time>
      </trkpt>
      <trkpt lat="45.7624" lon="6.04432">
        <ele>619.3</ele>
        <time>2000-01-01T07:53:41.000Z</time>
      </trkpt>
      <trkpt lat="45.76237" lon="6.04441">
        <ele>619.9</ele>
        <time>2000-01-01T07:53:51.000Z</time>
      </trkpt>
      <trkpt lat="45.76236" lon="6.04444">
        <ele>619.9</ele>
        <time>2000-01-01T07:54:01.000Z</time>
      </trkpt>
      <trkpt lat="45.76236" lon="6.0445">
        <ele>619.9</ele>
        <time>2000-01-01T07:54:11.000Z</time>
      </trkpt>
      <trkpt lat="45.76234" lon="6.04453">
        <ele>620.4</ele>
        <time>2000-01-01T07:54:21.000Z</time>
      </trkpt>
      <trkpt lat="45.76227" lon="6.04461">
        <ele>621.6</ele>
        <time>2000-01-01T07:54:31.000Z</time>
      </trkpt>
      <trkpt lat="45.76221" lon="6.0447">
        <ele>622.8</ele>
        <time>2000-01-01T07:54:41.000Z</time>
      </trkpt>
      <trkpt lat="45.76218" lon="6.04481">
        <ele>623.4</ele>
        <time>2000-01-01T07:54:51.000Z</time>
      </trkpt>
      <trkpt lat="45.76216" lon="6.04485">
        <ele>624.1</ele>
        <time>2000-01-01T07:55:01.000Z</time>
      </trkpt>
      <trkpt lat="45.76212" lon="6.04489">
        <ele>624.9</ele>
        <time>2000-01-01T07:55:11.000Z</time>
      </trkpt>
      <trkpt lat="45.76203" lon="6.04491">
        <ele>627</ele>
        <time>2000-01-01T07:55:21.000Z</time>
      </trkpt>
      <trkpt lat="45.76197" lon="6.04493">
        <ele>628.4</ele>
        <time>2000-01-01T07:55:31.000Z</time>
      </trkpt>
      <trkpt lat="45.76192" lon="6.04497">
        <ele>630</ele>
        <time>2000-01-01T07:55:41.000Z</time>
      </trkpt>
      <trkpt lat="45.76184" lon="6.04501">
        <ele>631.4</ele>
        <time>2000-01-01T07:55:51.000Z</time>
      </trkpt>
      <trkpt lat="45.76179" lon="6.04507">
        <ele>632.4</ele>
        <time>2000-01-01T07:56:01.000Z</time>
      </trkpt>
      <trkpt lat="45.76175" lon="6.04513">
        <ele>632.9</ele>
        <time>2000-01-01T07:56:11.000Z</time>
      </trkpt>
      <trkpt lat="45.7617" lon="6.04518">
        <ele>634.1</ele>
        <time>2000-01-01T07:56:21.000Z</time>
      </trkpt>
      <trkpt lat="45.76165" lon="6.04522">
        <ele>635.6</ele>
        <time>2000-01-01T07:56:31.000Z</time>
      </trkpt>
      <trkpt lat="45.7616" lon="6.04528">
        <ele>636</ele>
        <time>2000-01-01T07:56:41.000Z</time>
      </trkpt>
      <trkpt lat="45.76155" lon="6.04535">
        <ele>637.2</ele>
        <time>2000-01-01T07:56:51.000Z</time>
      </trkpt>
      <trkpt lat="45.7615" lon="6.04543">
        <ele>638.1</ele>
        <time>2000-01-01T07:57:01.000Z</time>
      </trkpt>
      <trkpt lat="45.76143" lon="6.04549">
        <ele>639.2</ele>
        <time>2000-01-01T07:57:11.000Z</time>
      </trkpt>
      <trkpt lat="45.76137" lon="6.04556">
        <ele>640.6</ele>
        <time>2000-01-01T07:57:21.000Z</time>
      </trkpt>
      <trkpt lat="45.76133" lon="6.04559">
        <ele>641.1</ele>
        <time>2000-01-01T07:57:31.000Z</time>
      </trkpt>
      <trkpt lat="45.76131" lon="6.04562">
        <ele>641.6</ele>
        <time>2000-01-01T07:57:41.000Z</time>
      </trkpt>
      <trkpt lat="45.76127" lon="6.04569">
        <ele>642</ele>
        <time>2000-01-01T07:57:51.000Z</time>
      </trkpt>
      <trkpt lat="45.76124" lon="6.04578">
        <ele>642.3</ele>
        <time>2000-01-01T07:58:01.000Z</time>
      </trkpt>
      <trkpt lat="45.76121" lon="6.04586">
        <ele>642.6</ele>
        <time>2000-01-01T07:58:11.000Z</time>
      </trkpt>
      <trkpt lat="45.76119" lon="6.0459">
        <ele>643.1</ele>
        <time>2000-01-01T07:58:21.000Z</time>
      </trkpt>
      <trkpt lat="45.76113" lon="6.04594">
        <ele>644.3</ele>
        <time>2000-01-01T07:58:31.000Z</time>
      </trkpt>
      <trkpt lat="45.76105" lon="6.04594">
        <ele>646.6</ele>
        <time>2000-01-01T07:58:41.000Z</time>
      </trkpt>
      <trkpt lat="45.76098" lon="6.04593">
        <ele>648.1</ele>
        <time>2000-01-01T07:58:51.000Z</time>
      </trkpt>
      <trkpt lat="45.7609" lon="6.0459">
        <ele>650.4</ele>
        <time>2000-01-01T07:59:01.000Z</time>
      </trkpt>
      <trkpt lat="45.76087" lon="6.04588">
        <ele>651.2</ele>
        <time>2000-01-01T07:59:11.000Z</time>
      </trkpt>
      <trkpt lat="45.7608" lon="6.04587">
        <ele>653.2</ele>
        <time>2000-01-01T07:59:21.000Z</time>
      </trkpt>
      <trkpt lat="45.76078" lon="6.04587">
        <ele>653.7</ele>
        <time>2000-01-01T07:59:31.000Z</time>
      </trkpt>
      <trkpt lat="45.76072" lon="6.04589">
        <ele>655.2</ele>
        <time>2000-01-01T07:59:41.000Z</time>
      </trkpt>
      <trkpt lat="45.76068" lon="6.04596">
        <ele>655.3</ele>
        <time>2000-01-01T07:59:51.000Z</time>
      </trkpt>
      <trkpt lat="45.76065" lon="6.04604">
        <ele>655.8</ele>
        <time>2000-01-01T08:00:01.000Z</time>
      </trkpt>
      <trkpt lat="45.76064" lon="6.04608">
        <ele>655.5</ele>
        <time>2000-01-01T08:00:11.000Z</time>
      </trkpt>
      <trkpt lat="45.76064" lon="6.04612">
        <ele>655.3</ele>
        <time>2000-01-01T08:00:21.000Z</time>
      </trkpt>
      <trkpt lat="45.76058" lon="6.04616">
        <ele>656.8</ele>
        <time>2000-01-01T08:00:31.000Z</time>
      </trkpt>
      <trkpt lat="45.76055" lon="6.04615">
        <ele>657.7</ele>
        <time>2000-01-01T08:00:41.000Z</time>
      </trkpt>
      <trkpt lat="45.76052" lon="6.04616">
        <ele>658.7</ele>
        <time>2000-01-01T08:00:51.000Z</time>
      </trkpt>
      <trkpt lat="45.7605" lon="6.04623">
        <ele>659.2</ele>
        <time>2000-01-01T08:01:01.000Z</time>
      </trkpt>
      <trkpt lat="45.76049" lon="6.04633">
        <ele>659.7</ele>
        <time>2000-01-01T08:01:11.000Z</time>
      </trkpt>
      <trkpt lat="45.76047" lon="6.04637">
        <ele>659.5</ele>
        <time>2000-01-01T08:01:21.000Z</time>
      </trkpt>
      <trkpt lat="45.76047" lon="6.04641">
        <ele>659.4</ele>
        <time>2000-01-01T08:01:31.000Z</time>
      </trkpt>
      <trkpt lat="45.76048" lon="6.0465">
        <ele>659.1</ele>
        <time>2000-01-01T08:01:41.000Z</time>
      </trkpt>
      <trkpt lat="45.76044" lon="6.04659">
        <ele>659.7</ele>
        <time>2000-01-01T08:01:51.000Z</time>
      </trkpt>
      <trkpt lat="45.76039" lon="6.04666">
        <ele>661.5</ele>
        <time>2000-01-01T08:02:01.000Z</time>
      </trkpt>
      <trkpt lat="45.76035" lon="6.04673">
        <ele>662.5</ele>
        <time>2000-01-01T08:02:11.000Z</time>
      </trkpt>
      <trkpt lat="45.76028" lon="6.04677">
        <ele>664.6</ele>
        <time>2000-01-01T08:02:21.000Z</time>
      </trkpt>
      <trkpt lat="45.76025" lon="6.04678">
        <ele>665.7</ele>
        <time>2000-01-01T08:02:31.000Z</time>
      </trkpt>
      <trkpt lat="45.76018" lon="6.04682">
        <ele>669.1</ele>
        <time>2000-01-01T08:02:41.000Z</time>
      </trkpt>
      <trkpt lat="45.76011" lon="6.04687">
        <ele>671.3</ele>
        <time>2000-01-01T08:02:51.000Z</time>
      </trkpt>
      <trkpt lat="45.76003" lon="6.04691">
        <ele>674.8</ele>
        <time>2000-01-01T08:03:01.000Z</time>
      </trkpt>
      <trkpt lat="45.75996" lon="6.04696">
        <ele>677.4</ele>
        <time>2000-01-01T08:03:11.000Z</time>
      </trkpt>
      <trkpt lat="45.7599" lon="6.04699">
        <ele>679.9</ele>
        <time>2000-01-01T08:03:21.000Z</time>
      </trkpt>
      <trkpt lat="45.75985" lon="6.04703">
        <ele>682.7</ele>
        <time>2000-01-01T08:03:31.000Z</time>
      </trkpt>
      <trkpt lat="45.75983" lon="6.04705">
        <ele>682.7</ele>
        <time>2000-01-01T08:03:41.000Z</time>
      </trkpt>
      <trkpt lat="45.75979" lon="6.04713">
        <ele>685.3</ele>
        <time>2000-01-01T08:03:51.000Z</time>
      </trkpt>
      <trkpt lat="45.75974" lon="6.04718">
        <ele>686.9</ele>
        <time>2000-01-01T08:04:01.000Z</time>
      </trkpt>
      <trkpt lat="45.75972" lon="6.04721">
        <ele>688.6</ele>
        <time>2000-01-01T08:04:11.000Z</time>
      </trkpt>
      <trkpt lat="45.75967" lon="6.04728">
        <ele>691.7</ele>
        <time>2000-01-01T08:04:21.000Z</time>
      </trkpt>
      <trkpt lat="45.75962" lon="6.04728">
        <ele>694.2</ele>
        <time>2000-01-01T08:04:31.000Z</time>
      </trkpt>
      <trkpt lat="45.75959" lon="6.04727">
        <ele>695.5</ele>
        <time>2000-01-01T08:04:41.000Z</time>
      </trkpt>
      <trkpt lat="45.75956" lon="6.04725">
        <ele>695.5</ele>
        <time>2000-01-01T08:04:51.000Z</time>
      </trkpt>
      <trkpt lat="45.7595" lon="6.04722">
        <ele>699.7</ele>
        <time>2000-01-01T08:05:01.000Z</time>
      </trkpt>
      <trkpt lat="45.75944" lon="6.04717">
        <ele>702.6</ele>
        <time>2000-01-01T08:05:11.000Z</time>
      </trkpt>
      <trkpt lat="45.75938" lon="6.04712">
        <ele>704</ele>
        <time>2000-01-01T08:05:21.000Z</time>
      </trkpt>
      <trkpt lat="45.75932" lon="6.04708">
        <ele>706.9</ele>
        <time>2000-01-01T08:05:31.000Z</time>
      </trkpt>
      <trkpt lat="45.75929" lon="6.04707">
        <ele>708.2</ele>
        <time>2000-01-01T08:05:41.000Z</time>
      </trkpt>
      <trkpt lat="45.75925" lon="6.04699">
        <ele>710.9</ele>
        <time>2000-01-01T08:05:51.000Z</time>
      </trkpt>
      <trkpt lat="45.75924" lon="6.0469">
        <ele>710.4</ele>
        <time>2000-01-01T08:06:01.000Z</time>
      </trkpt>
      <trkpt lat="45.75922" lon="6.04682">
        <ele>711.9</ele>
        <time>2000-01-01T08:06:11.000Z</time>
      </trkpt>
      <trkpt lat="45.7592" lon="6.04674">
        <ele>713.6</ele>
        <time>2000-01-01T08:06:21.000Z</time>
      </trkpt>
      <trkpt lat="45.75918" lon="6.04666">
        <ele>713.8</ele>
        <time>2000-01-01T08:06:31.000Z</time>
      </trkpt>
      <trkpt lat="45.75914" lon="6.04658">
        <ele>715.7</ele>
        <time>2000-01-01T08:06:41.000Z</time>
      </trkpt>
      <trkpt lat="45.75913" lon="6.0465">
        <ele>717.7</ele>
        <time>2000-01-01T08:06:51.000Z</time>
      </trkpt>
      <trkpt lat="45.75911" lon="6.04639">
        <ele>719.5</ele>
        <time>2000-01-01T08:07:01.000Z</time>
      </trkpt>
      <trkpt lat="45.75907" lon="6.04631">
        <ele>720.8</ele>
        <time>2000-01-01T08:07:11.000Z</time>
      </trkpt>
      <trkpt lat="45.75904" lon="6.0462">
        <ele>721.4</ele>
        <time>2000-01-01T08:07:21.000Z</time>
      </trkpt>
      <trkpt lat="45.75902" lon="6.0461">
        <ele>720.6</ele>
        <time>2000-01-01T08:07:31.000Z</time>
      </trkpt>
      <trkpt lat="45.75902" lon="6.046">
        <ele>721</ele>
        <time>2000-01-01T08:07:41.000Z</time>
      </trkpt>
      <trkpt lat="45.75898" lon="6.04593">
        <ele>721.4</ele>
        <time>2000-01-01T08:07:51.000Z</time>
      </trkpt>
      <trkpt lat="45.75894" lon="6.04586">
        <ele>721.9</ele>
        <time>2000-01-01T08:08:01.000Z</time>
      </trkpt>
      <trkpt lat="45.75892" lon="6.04582">
        <ele>722.9</ele>
        <time>2000-01-01T08:08:11.000Z</time>
      </trkpt>
      <trkpt lat="45.75889" lon="6.04575">
        <ele>724.2</ele>
        <time>2000-01-01T08:08:21.000Z</time>
      </trkpt>
      <trkpt lat="45.75887" lon="6.04565">
        <ele>722.9</ele>
        <time>2000-01-01T08:08:31.000Z</time>
      </trkpt>
      <trkpt lat="45.7588" lon="6.04559">
        <ele>727</ele>
        <time>2000-01-01T08:08:41.000Z</time>
      </trkpt>
      <trkpt lat="45.75877" lon="6.04551">
        <ele>727.5</ele>
        <time>2000-01-01T08:08:51.000Z</time>
      </trkpt>
      <trkpt lat="45.75877" lon="6.04541">
        <ele>726.6</ele>
        <time>2000-01-01T08:09:01.000Z</time>
      </trkpt>
      <trkpt lat="45.75875" lon="6.04534">
        <ele>727.4</ele>
        <time>2000-01-01T08:09:11.000Z</time>
      </trkpt>
      <trkpt lat="45.75874" lon="6.04526">
        <ele>726.6</ele>
        <time>2000-01-01T08:09:21.000Z</time>
      </trkpt>
      <trkpt lat="45.75871" lon="6.04516">
        <ele>727.3</ele>
        <time>2000-01-01T08:09:31.000Z</time>
      </trkpt>
      <trkpt lat="45.75869" lon="6.04513">
        <ele>726.7</ele>
        <time>2000-01-01T08:09:41.000Z</time>
      </trkpt>
      <trkpt lat="45.75867" lon="6.04511">
        <ele>728.5</ele>
        <time>2000-01-01T08:09:51.000Z</time>
      </trkpt>
      <trkpt lat="45.75862" lon="6.04502">
        <ele>731.2</ele>
        <time>2000-01-01T08:10:01.000Z</time>
      </trkpt>
      <trkpt lat="45.75857" lon="6.04496">
        <ele>734.1</ele>
        <time>2000-01-01T08:10:11.000Z</time>
      </trkpt>
      <trkpt lat="45.75852" lon="6.04491">
        <ele>735.6</ele>
        <time>2000-01-01T08:10:21.000Z</time>
      </trkpt>
      <trkpt lat="45.75849" lon="6.04483">
        <ele>736.6</ele>
        <time>2000-01-01T08:10:31.000Z</time>
      </trkpt>
      <trkpt lat="45.75847" lon="6.04475">
        <ele>737.2</ele>
        <time>2000-01-01T08:10:41.000Z</time>
      </trkpt>
      <trkpt lat="45.75843" lon="6.04467">
        <ele>738.5</ele>
        <time>2000-01-01T08:10:51.000Z</time>
      </trkpt>
      <trkpt lat="45.7584" lon="6.04464">
        <ele>739.7</ele>
        <time>2000-01-01T08:11:01.000Z</time>
      </trkpt>
      <trkpt lat="45.75836" lon="6.04455">
        <ele>742.4</ele>
        <time>2000-01-01T08:11:11.000Z</time>
      </trkpt>
      <trkpt lat="45.75835" lon="6.04451">
        <ele>741.6</ele>
        <time>2000-01-01T08:11:21.000Z</time>
      </trkpt>
      <trkpt lat="45.75831" lon="6.04445">
        <ele>742.2</ele>
        <time>2000-01-01T08:11:31.000Z</time>
      </trkpt>
      <trkpt lat="45.75828" lon="6.04444">
        <ele>744.3</ele>
        <time>2000-01-01T08:11:41.000Z</time>
      </trkpt>
      <trkpt lat="45.75826" lon="6.04437">
        <ele>745.6</ele>
        <time>2000-01-01T08:11:51.000Z</time>
      </trkpt>
      <trkpt lat="45.75826" lon="6.04432">
        <ele>743.6</ele>
        <time>2000-01-01T08:12:01.000Z</time>
      </trkpt>
      <trkpt lat="45.75819" lon="6.04422">
        <ele>745</ele>
        <time>2000-01-01T08:12:11.000Z</time>
      </trkpt>
      <trkpt lat="45.75812" lon="6.04419">
        <ele>749.4</ele>
        <time>2000-01-01T08:12:21.000Z</time>
      </trkpt>
      <trkpt lat="45.75806" lon="6.04415">
        <ele>750.3</ele>
        <time>2000-01-01T08:12:31.000Z</time>
      </trkpt>
      <trkpt lat="45.75803" lon="6.04413">
        <ele>754.9</ele>
        <time>2000-01-01T08:12:41.000Z</time>
      </trkpt>
      <trkpt lat="45.75797" lon="6.04406">
        <ele>756.2</ele>
        <time>2000-01-01T08:12:51.000Z</time>
      </trkpt>
      <trkpt lat="45.75793" lon="6.04399">
        <ele>756.6</ele>
        <time>2000-01-01T08:13:01.000Z</time>
      </trkpt>
      <trkpt lat="45.75788" lon="6.04391">
        <ele>757.5</ele>
        <time>2000-01-01T08:13:11.000Z</time>
      </trkpt>
      <trkpt lat="45.75786" lon="6.04383">
        <ele>754.4</ele>
        <time>2000-01-01T08:13:21.000Z</time>
      </trkpt>
      <trkpt lat="45.75784" lon="6.04371">
        <ele>752.3</ele>
        <time>2000-01-01T08:13:31.000Z</time>
      </trkpt>
      <trkpt lat="45.75782" lon="6.04367">
        <ele>753</ele>
        <time>2000-01-01T08:13:41.000Z</time>
      </trkpt>
      <trkpt lat="45.75778" lon="6.04358">
        <ele>752.6</ele>
        <time>2000-01-01T08:13:51.000Z</time>
      </trkpt>
      <trkpt lat="45.75775" lon="6.04348">
        <ele>752.4</ele>
        <time>2000-01-01T08:14:01.000Z</time>
      </trkpt>
      <trkpt lat="45.75771" lon="6.04341">
        <ele>752</ele>
        <time>2000-01-01T08:14:11.000Z</time>
      </trkpt>
      <trkpt lat="45.75767" lon="6.04332">
        <ele>751.6</ele>
        <time>2000-01-01T08:14:21.000Z</time>
      </trkpt>
      <trkpt lat="45.75766" lon="6.04321">
        <ele>751.2</ele>
        <time>2000-01-01T08:14:31.000Z</time>
      </trkpt>
      <trkpt lat="45.75763" lon="6.04313">
        <ele>750.9</ele>
        <time>2000-01-01T08:14:41.000Z</time>
      </trkpt>
      <trkpt lat="45.75761" lon="6.04306">
        <ele>750.6</ele>
        <time>2000-01-01T08:14:51.000Z</time>
      </trkpt>
      <trkpt lat="45.75762" lon="6.04296">
        <ele>747.1</ele>
        <time>2000-01-01T08:15:01.000Z</time>
      </trkpt>
      <trkpt lat="45.75764" lon="6.04282">
        <ele>743.4</ele>
        <time>2000-01-01T08:15:11.000Z</time>
      </trkpt>
      <trkpt lat="45.7576" lon="6.04272">
        <ele>743.1</ele>
        <time>2000-01-01T08:15:21.000Z</time>
      </trkpt>
      <trkpt lat="45.75756" lon="6.04264">
        <ele>743</ele>
        <time>2000-01-01T08:15:31.000Z</time>
      </trkpt>
      <trkpt lat="45.75752" lon="6.04255">
        <ele>742.8</ele>
        <time>2000-01-01T08:15:41.000Z</time>
      </trkpt>
      <trkpt lat="45.75748" lon="6.04249">
        <ele>745.1</ele>
        <time>2000-01-01T08:15:51.000Z</time>
      </trkpt>
      <trkpt lat="45.75743" lon="6.04242">
        <ele>745.8</ele>
        <time>2000-01-01T08:16:01.000Z</time>
      </trkpt>
      <trkpt lat="45.75739" lon="6.04235">
        <ele>746.3</ele>
        <time>2000-01-01T08:16:11.000Z</time>
      </trkpt>
      <trkpt lat="45.75734" lon="6.04229">
        <ele>747.1</ele>
        <time>2000-01-01T08:16:21.000Z</time>
      </trkpt>
      <trkpt lat="45.75729" lon="6.04223">
        <ele>747.5</ele>
        <time>2000-01-01T08:16:31.000Z</time>
      </trkpt>
      <trkpt lat="45.75722" lon="6.04218">
        <ele>750.4</ele>
        <time>2000-01-01T08:16:41.000Z</time>
      </trkpt>
      <trkpt lat="45.75716" lon="6.04212">
        <ele>752.4</ele>
        <time>2000-01-01T08:16:51.000Z</time>
      </trkpt>
      <trkpt lat="45.7571" lon="6.04207">
        <ele>754</ele>
        <time>2000-01-01T08:17:01.000Z</time>
      </trkpt>
      <trkpt lat="45.75706" lon="6.04199">
        <ele>753.6</ele>
        <time>2000-01-01T08:17:11.000Z</time>
      </trkpt>
      <trkpt lat="45.75703" lon="6.04191">
        <ele>753.4</ele>
        <time>2000-01-01T08:17:21.000Z</time>
      </trkpt>
      <trkpt lat="45.757" lon="6.04181">
        <ele>753.6</ele>
        <time>2000-01-01T08:17:31.000Z</time>
      </trkpt>
      <trkpt lat="45.75696" lon="6.04173">
        <ele>753.9</ele>
        <time>2000-01-01T08:17:41.000Z</time>
      </trkpt>
      <trkpt lat="45.75693" lon="6.04171">
        <ele>754.7</ele>
        <time>2000-01-01T08:17:51.000Z</time>
      </trkpt>
      <trkpt lat="45.75688" lon="6.04167">
        <ele>757.5</ele>
        <time>2000-01-01T08:18:01.000Z</time>
      </trkpt>
      <trkpt lat="45.75683" lon="6.04161">
        <ele>758.7</ele>
        <time>2000-01-01T08:18:11.000Z</time>
      </trkpt>
      <trkpt lat="45.7568" lon="6.04158">
        <ele>760.1</ele>
        <time>2000-01-01T08:18:21.000Z</time>
      </trkpt>
      <trkpt lat="45.75674" lon="6.04154">
        <ele>760.6</ele>
        <time>2000-01-01T08:18:31.000Z</time>
      </trkpt>
      <trkpt lat="45.75669" lon="6.04149">
        <ele>761.8</ele>
        <time>2000-01-01T08:18:41.000Z</time>
      </trkpt>
      <trkpt lat="45.75664" lon="6.04145">
        <ele>763.7</ele>
        <time>2000-01-01T08:18:51.000Z</time>
      </trkpt>
      <trkpt lat="45.75659" lon="6.04137">
        <ele>765.3</ele>
        <time>2000-01-01T08:19:01.000Z</time>
      </trkpt>
      <trkpt lat="45.75657" lon="6.04135">
        <ele>764.7</ele>
        <time>2000-01-01T08:19:11.000Z</time>
      </trkpt>
      <trkpt lat="45.75656" lon="6.0413">
        <ele>765</ele>
        <time>2000-01-01T08:19:21.000Z</time>
      </trkpt>
      <trkpt lat="45.75653" lon="6.04126">
        <ele>765.3</ele>
        <time>2000-01-01T08:19:31.000Z</time>
      </trkpt>
      <trkpt lat="45.75653" lon="6.04121">
        <ele>764.8</ele>
        <time>2000-01-01T08:19:41.000Z</time>
      </trkpt>
      <trkpt lat="45.75653" lon="6.04112">
        <ele>763.6</ele>
        <time>2000-01-01T08:19:51.000Z</time>
      </trkpt>
      <trkpt lat="45.75653" lon="6.04103">
        <ele>762.3</ele>
        <time>2000-01-01T08:20:01.000Z</time>
      </trkpt>
      <trkpt lat="45.75655" lon="6.04094">
        <ele>759.9</ele>
        <time>2000-01-01T08:20:11.000Z</time>
      </trkpt>
      <trkpt lat="45.75655" lon="6.04082">
        <ele>757.7</ele>
        <time>2000-01-01T08:20:21.000Z</time>
      </trkpt>
      <trkpt lat="45.75654" lon="6.04074">
        <ele>755.9</ele>
        <time>2000-01-01T08:20:31.000Z</time>
      </trkpt>
      <trkpt lat="45.7565" lon="6.04065">
        <ele>756.2</ele>
        <time>2000-01-01T08:20:41.000Z</time>
      </trkpt>
      <trkpt lat="45.75647" lon="6.04056">
        <ele>755.2</ele>
        <time>2000-01-01T08:20:51.000Z</time>
      </trkpt>
      <trkpt lat="45.75644" lon="6.04048">
        <ele>754.2</ele>
        <time>2000-01-01T08:21:01.000Z</time>
      </trkpt>
      <trkpt lat="45.75643" lon="6.04043">
        <ele>753.1</ele>
        <time>2000-01-01T08:21:11.000Z</time>
      </trkpt>
      <trkpt lat="45.75642" lon="6.04034">
        <ele>750.8</ele>
        <time>2000-01-01T08:21:21.000Z</time>
      </trkpt>
      <trkpt lat="45.75643" lon="6.0403">
        <ele>749.5</ele>
        <time>2000-01-01T08:21:31.000Z</time>
      </trkpt>
      <trkpt lat="45.75642" lon="6.04026">
        <ele>748.2</ele>
        <time>2000-01-01T08:21:41.000Z</time>
      </trkpt>
      <trkpt lat="45.75643" lon="6.04022">
        <ele>746.9</ele>
        <time>2000-01-01T08:21:51.000Z</time>
      </trkpt>
      <trkpt lat="45.75646" lon="6.0402">
        <ele>744.5</ele>
        <time>2000-01-01T08:22:01.000Z</time>
      </trkpt>
      <trkpt lat="45.7565" lon="6.04021">
        <ele>744.7</ele>
        <time>2000-01-01T08:22:11.000Z</time>
      </trkpt>
      <trkpt lat="45.75653" lon="6.0402">
        <ele>742.5</ele>
        <time>2000-01-01T08:22:21.000Z</time>
      </trkpt>
      <trkpt lat="45.75658" lon="6.04014">
        <ele>739.3</ele>
        <time>2000-01-01T08:22:31.000Z</time>
      </trkpt>
      <trkpt lat="45.7566" lon="6.0401">
        <ele>737.1</ele>
        <time>2000-01-01T08:22:41.000Z</time>
      </trkpt>
      <trkpt lat="45.75661" lon="6.04006">
        <ele>736.1</ele>
        <time>2000-01-01T08:22:51.000Z</time>
      </trkpt>
      <trkpt lat="45.75656" lon="6.04001">
        <ele>737.1</ele>
        <time>2000-01-01T08:23:01.000Z</time>
      </trkpt>
      <trkpt lat="45.75653" lon="6.04">
        <ele>738</ele>
        <time>2000-01-01T08:23:11.000Z</time>
      </trkpt>
      <trkpt lat="45.75648" lon="6.03998">
        <ele>737.9</ele>
        <time>2000-01-01T08:23:21.000Z</time>
      </trkpt>
      <trkpt lat="45.75642" lon="6.04">
        <ele>741</ele>
        <time>2000-01-01T08:23:31.000Z</time>
      </trkpt>
      <trkpt lat="45.75639" lon="6.04001">
        <ele>742.2</ele>
        <time>2000-01-01T08:23:41.000Z</time>
      </trkpt>
      <trkpt lat="45.75637" lon="6.04004">
        <ele>744.5</ele>
        <time>2000-01-01T08:23:51.000Z</time>
      </trkpt>
      <trkpt lat="45.75631" lon="6.04004">
        <ele>746.9</ele>
        <time>2000-01-01T08:24:01.000Z</time>
      </trkpt>
      <trkpt lat="45.75627" lon="6.04004">
        <ele>748</ele>
        <time>2000-01-01T08:24:11.000Z</time>
      </trkpt>
      <trkpt lat="45.75623" lon="6.04005">
        <ele>750.2</ele>
        <time>2000-01-01T08:24:21.000Z</time>
      </trkpt>
      <trkpt lat="45.75619" lon="6.04004">
        <ele>751.4</ele>
        <time>2000-01-01T08:24:31.000Z</time>
      </trkpt>
      <trkpt lat="45.75614" lon="6.04005">
        <ele>754.1</ele>
        <time>2000-01-01T08:24:41.000Z</time>
      </trkpt>
      <trkpt lat="45.75611" lon="6.04003">
        <ele>754.3</ele>
        <time>2000-01-01T08:24:51.000Z</time>
      </trkpt>
      <trkpt lat="45.75608" lon="6.04005">
        <ele>756.9</ele>
        <time>2000-01-01T08:25:01.000Z</time>
      </trkpt>
      <trkpt lat="45.75602" lon="6.04004">
        <ele>759.4</ele>
        <time>2000-01-01T08:25:11.000Z</time>
      </trkpt>
      <trkpt lat="45.75596" lon="6.04003">
        <ele>760.7</ele>
        <time>2000-01-01T08:25:21.000Z</time>
      </trkpt>
      <trkpt lat="45.75592" lon="6.04001">
        <ele>761.9</ele>
        <time>2000-01-01T08:25:31.000Z</time>
      </trkpt>
      <trkpt lat="45.75589" lon="6.04">
        <ele>763.2</ele>
        <time>2000-01-01T08:25:41.000Z</time>
      </trkpt>
      <trkpt lat="45.75582" lon="6.03998">
        <ele>764.6</ele>
        <time>2000-01-01T08:25:51.000Z</time>
      </trkpt>
      <trkpt lat="45.75576" lon="6.03993">
        <ele>765.9</ele>
        <time>2000-01-01T08:26:01.000Z</time>
      </trkpt>
      <trkpt lat="45.75569" lon="6.03989">
        <ele>768.2</ele>
        <time>2000-01-01T08:26:11.000Z</time>
      </trkpt>
      <trkpt lat="45.75564" lon="6.03986">
        <ele>769.3</ele>
        <time>2000-01-01T08:26:21.000Z</time>
      </trkpt>
      <trkpt lat="45.75558" lon="6.03984">
        <ele>770.3</ele>
        <time>2000-01-01T08:26:31.000Z</time>
      </trkpt>
      <trkpt lat="45.75552" lon="6.0398">
        <ele>771.3</ele>
        <time>2000-01-01T08:26:41.000Z</time>
      </trkpt>
      <trkpt lat="45.75546" lon="6.03978">
        <ele>773.5</ele>
        <time>2000-01-01T08:26:51.000Z</time>
      </trkpt>
      <trkpt lat="45.75543" lon="6.03977">
        <ele>773.9</ele>
        <time>2000-01-01T08:27:01.000Z</time>
      </trkpt>
      <trkpt lat="45.75536" lon="6.03975">
        <ele>775.5</ele>
        <time>2000-01-01T08:27:11.000Z</time>
      </trkpt>
      <trkpt lat="45.75529" lon="6.03973">
        <ele>775.7</ele>
        <time>2000-01-01T08:27:21.000Z</time>
      </trkpt>
      <trkpt lat="45.75522" lon="6.03971">
        <ele>777.1</ele>
        <time>2000-01-01T08:27:31.000Z</time>
      </trkpt>
      <trkpt lat="45.75516" lon="6.03967">
        <ele>777.3</ele>
        <time>2000-01-01T08:27:41.000Z</time>
      </trkpt>
      <trkpt lat="45.75513" lon="6.03966">
        <ele>777.3</ele>
        <time>2000-01-01T08:27:51.000Z</time>
      </trkpt>
      <trkpt lat="45.75509" lon="6.03959">
        <ele>775.8</ele>
        <time>2000-01-01T08:28:01.000Z</time>
      </trkpt>
      <trkpt lat="45.75505" lon="6.03952">
        <ele>774.3</ele>
        <time>2000-01-01T08:28:11.000Z</time>
      </trkpt>
      <trkpt lat="45.75501" lon="6.03945">
        <ele>774</ele>
        <time>2000-01-01T08:28:21.000Z</time>
      </trkpt>
      <trkpt lat="45.755" lon="6.03941">
        <ele>773.6</ele>
        <time>2000-01-01T08:28:31.000Z</time>
      </trkpt>
      <trkpt lat="45.75496" lon="6.03934">
        <ele>772.1</ele>
        <time>2000-01-01T08:28:41.000Z</time>
      </trkpt>
      <trkpt lat="45.75489" lon="6.03927">
        <ele>773</ele>
        <time>2000-01-01T08:28:51.000Z</time>
      </trkpt>
      <trkpt lat="45.75484" lon="6.03919">
        <ele>771.6</ele>
        <time>2000-01-01T08:29:01.000Z</time>
      </trkpt>
      <trkpt lat="45.7548" lon="6.03911">
        <ele>771</ele>
        <time>2000-01-01T08:29:11.000Z</time>
      </trkpt>
      <trkpt lat="45.75475" lon="6.03905">
        <ele>769.9</ele>
        <time>2000-01-01T08:29:21.000Z</time>
      </trkpt>
      <trkpt lat="45.75472" lon="6.03902">
        <ele>770.6</ele>
        <time>2000-01-01T08:29:31.000Z</time>
      </trkpt>
      <trkpt lat="45.75467" lon="6.03897">
        <ele>771.2</ele>
        <time>2000-01-01T08:29:41.000Z</time>
      </trkpt>
      <trkpt lat="45.75462" lon="6.0389">
        <ele>769.8</ele>
        <time>2000-01-01T08:29:51.000Z</time>
      </trkpt>
      <trkpt lat="45.75456" lon="6.03884">
        <ele>770.2</ele>
        <time>2000-01-01T08:30:01.000Z</time>
      </trkpt>
      <trkpt lat="45.7545" lon="6.03879">
        <ele>768.6</ele>
        <time>2000-01-01T08:30:11.000Z</time>
      </trkpt>
      <trkpt lat="45.75444" lon="6.0387">
        <ele>769.6</ele>
        <time>2000-01-01T08:30:21.000Z</time>
      </trkpt>
      <trkpt lat="45.75439" lon="6.03865">
        <ele>768.4</ele>
        <time>2000-01-01T08:30:31.000Z</time>
      </trkpt>
      <trkpt lat="45.75433" lon="6.03859">
        <ele>768.7</ele>
        <time>2000-01-01T08:30:41.000Z</time>
      </trkpt>
      <trkpt lat="45.75426" lon="6.03853">
        <ele>768.2</ele>
        <time>2000-01-01T08:30:51.000Z</time>
      </trkpt>
      <trkpt lat="45.75417" lon="6.03847">
        <ele>769.1</ele>
        <time>2000-01-01T08:31:01.000Z</time>
      </trkpt>
      <trkpt lat="45.7541" lon="6.03844">
        <ele>769.8</ele>
        <time>2000-01-01T08:31:11.000Z</time>
      </trkpt>
      <trkpt lat="45.75407" lon="6.03843">
        <ele>770.3</ele>
        <time>2000-01-01T08:31:21.000Z</time>
      </trkpt>
      <trkpt lat="45.75403" lon="6.03842">
        <ele>770.8</ele>
        <time>2000-01-01T08:31:31.000Z</time>
      </trkpt>
      <trkpt lat="45.75397" lon="6.03841">
        <ele>771.6</ele>
        <time>2000-01-01T08:31:41.000Z</time>
      </trkpt>
      <trkpt lat="45.75392" lon="6.03845">
        <ele>773.2</ele>
        <time>2000-01-01T08:31:51.000Z</time>
      </trkpt>
      <trkpt lat="45.75389" lon="6.03845">
        <ele>773.6</ele>
        <time>2000-01-01T08:32:01.000Z</time>
      </trkpt>
      <trkpt lat="45.75383" lon="6.03846">
        <ele>774.3</ele>
        <time>2000-01-01T08:32:11.000Z</time>
      </trkpt>
      <trkpt lat="45.75377" lon="6.03848">
        <ele>774.9</ele>
        <time>2000-01-01T08:32:21.000Z</time>
      </trkpt>
      <trkpt lat="45.75371" lon="6.0385">
        <ele>775.7</ele>
        <time>2000-01-01T08:32:31.000Z</time>
      </trkpt>
      <trkpt lat="45.75369" lon="6.03851">
        <ele>776</ele>
        <time>2000-01-01T08:32:41.000Z</time>
      </trkpt>
      <trkpt lat="45.75366" lon="6.03852">
        <ele>776.2</ele>
        <time>2000-01-01T08:32:51.000Z</time>
      </trkpt>
      <trkpt lat="45.75361" lon="6.03855">
        <ele>776.9</ele>
        <time>2000-01-01T08:33:01.000Z</time>
      </trkpt>
      <trkpt lat="45.7536" lon="6.03859">
        <ele>777.6</ele>
        <time>2000-01-01T08:33:11.000Z</time>
      </trkpt>
      <trkpt lat="45.75357" lon="6.0386">
        <ele>777.6</ele>
        <time>2000-01-01T08:33:21.000Z</time>
      </trkpt>
      <trkpt lat="45.75354" lon="6.0386">
        <ele>778</ele>
        <time>2000-01-01T08:33:31.000Z</time>
      </trkpt>
      <trkpt lat="45.75348" lon="6.03859">
        <ele>778.2</ele>
        <time>2000-01-01T08:33:41.000Z</time>
      </trkpt>
      <trkpt lat="45.75344" lon="6.0386">
        <ele>778.6</ele>
        <time>2000-01-01T08:33:51.000Z</time>
      </trkpt>
      <trkpt lat="45.7534" lon="6.03865">
        <ele>779.5</ele>
        <time>2000-01-01T08:34:01.000Z</time>
      </trkpt>
      <trkpt lat="45.75334" lon="6.03868">
        <ele>781.2</ele>
        <time>2000-01-01T08:34:11.000Z</time>
      </trkpt>
      <trkpt lat="45.75332" lon="6.03871">
        <ele>782.7</ele>
        <time>2000-01-01T08:34:21.000Z</time>
      </trkpt>
      <trkpt lat="45.75328" lon="6.03876">
        <ele>784.6</ele>
        <time>2000-01-01T08:34:31.000Z</time>
      </trkpt>
      <trkpt lat="45.75325" lon="6.03881">
        <ele>786.6</ele>
        <time>2000-01-01T08:34:41.000Z</time>
      </trkpt>
      <trkpt lat="45.7532" lon="6.03883">
        <ele>788</ele>
        <time>2000-01-01T08:34:51.000Z</time>
      </trkpt>
      <trkpt lat="45.75313" lon="6.03887">
        <ele>791.1</ele>
        <time>2000-01-01T08:35:01.000Z</time>
      </trkpt>
      <trkpt lat="45.7531" lon="6.03887">
        <ele>791.9</ele>
        <time>2000-01-01T08:35:11.000Z</time>
      </trkpt>
      <trkpt lat="45.75303" lon="6.03885">
        <ele>794</ele>
        <time>2000-01-01T08:35:21.000Z</time>
      </trkpt>
      <trkpt lat="45.75297" lon="6.03882">
        <ele>794.4</ele>
        <time>2000-01-01T08:35:31.000Z</time>
      </trkpt>
      <trkpt lat="45.7529" lon="6.03879">
        <ele>797.4</ele>
        <time>2000-01-01T08:35:41.000Z</time>
      </trkpt>
      <trkpt lat="45.75281" lon="6.03877">
        <ele>799</ele>
        <time>2000-01-01T08:35:51.000Z</time>
      </trkpt>
      <trkpt lat="45.75276" lon="6.03874">
        <ele>800</ele>
        <time>2000-01-01T08:36:01.000Z</time>
      </trkpt>
      <trkpt lat="45.7527" lon="6.03868">
        <ele>799.6</ele>
        <time>2000-01-01T08:36:11.000Z</time>
      </trkpt>
      <trkpt lat="45.75264" lon="6.03862">
        <ele>801.3</ele>
        <time>2000-01-01T08:36:21.000Z</time>
      </trkpt>
      <trkpt lat="45.75258" lon="6.03858">
        <ele>801.9</ele>
        <time>2000-01-01T08:36:31.000Z</time>
      </trkpt>
      <trkpt lat="45.75255" lon="6.03855">
        <ele>801.5</ele>
        <time>2000-01-01T08:36:41.000Z</time>
      </trkpt>
      <trkpt lat="45.75255" lon="6.03846">
        <ele>798.4</ele>
        <time>2000-01-01T08:36:51.000Z</time>
      </trkpt>
      <trkpt lat="45.75257" lon="6.03838">
        <ele>793.7</ele>
        <time>2000-01-01T08:37:01.000Z</time>
      </trkpt>
      <trkpt lat="45.75257" lon="6.03833">
        <ele>792.1</ele>
        <time>2000-01-01T08:37:11.000Z</time>
      </trkpt>
      <trkpt lat="45.75257" lon="6.03822">
        <ele>788.2</ele>
        <time>2000-01-01T08:37:21.000Z</time>
      </trkpt>
      <trkpt lat="45.75259" lon="6.03816">
        <ele>786.3</ele>
        <time>2000-01-01T08:37:31.000Z</time>
      </trkpt>
      <trkpt lat="45.7526" lon="6.03809">
        <ele>784.4</ele>
        <time>2000-01-01T08:37:41.000Z</time>
      </trkpt>
      <trkpt lat="45.75257" lon="6.038">
        <ele>783.1</ele>
        <time>2000-01-01T08:37:51.000Z</time>
      </trkpt>
      <trkpt lat="45.75254" lon="6.03793">
        <ele>782.8</ele>
        <time>2000-01-01T08:38:01.000Z</time>
      </trkpt>
      <trkpt lat="45.75249" lon="6.03786">
        <ele>782</ele>
        <time>2000-01-01T08:38:11.000Z</time>
      </trkpt>
      <trkpt lat="45.75246" lon="6.03777">
        <ele>779.9</ele>
        <time>2000-01-01T08:38:21.000Z</time>
      </trkpt>
      <trkpt lat="45.75244" lon="6.0377">
        <ele>778.5</ele>
        <time>2000-01-01T08:38:31.000Z</time>
      </trkpt>
      <trkpt lat="45.7524" lon="6.03758">
        <ele>776.6</ele>
        <time>2000-01-01T08:38:41.000Z</time>
      </trkpt>
      <trkpt lat="45.75236" lon="6.03751">
        <ele>776.1</ele>
        <time>2000-01-01T08:38:51.000Z</time>
      </trkpt>
      <trkpt lat="45.75233" lon="6.0374">
        <ele>773.8</ele>
        <time>2000-01-01T08:39:01.000Z</time>
      </trkpt>
      <trkpt lat="45.75231" lon="6.03729">
        <ele>772.4</ele>
        <time>2000-01-01T08:39:11.000Z</time>
      </trkpt>
      <trkpt lat="45.75227" lon="6.03718">
        <ele>772</ele>
        <time>2000-01-01T08:39:21.000Z</time>
      </trkpt>
      <trkpt lat="45.75225" lon="6.03707">
        <ele>771.1</ele>
        <time>2000-01-01T08:39:31.000Z</time>
      </trkpt>
      <trkpt lat="45.75223" lon="6.03703">
        <ele>771.1</ele>
        <time>2000-01-01T08:39:41.000Z</time>
      </trkpt>
      <trkpt lat="45.75216" lon="6.03695">
        <ele>771.4</ele>
        <time>2000-01-01T08:39:51.000Z</time>
      </trkpt>
      <trkpt lat="45.75208" lon="6.03686">
        <ele>771</ele>
        <time>2000-01-01T08:40:01.000Z</time>
      </trkpt>
      <trkpt lat="45.75203" lon="6.0368">
        <ele>770.7</ele>
        <time>2000-01-01T08:40:11.000Z</time>
      </trkpt>
      <trkpt lat="45.75199" lon="6.03671">
        <ele>770.4</ele>
        <time>2000-01-01T08:40:21.000Z</time>
      </trkpt>
      <trkpt lat="45.75197" lon="6.03666">
        <ele>770.4</ele>
        <time>2000-01-01T08:40:31.000Z</time>
      </trkpt>
      <trkpt lat="45.75194" lon="6.03659">
        <ele>770.3</ele>
        <time>2000-01-01T08:40:41.000Z</time>
      </trkpt>
      <trkpt lat="45.75193" lon="6.03651">
        <ele>770</ele>
        <time>2000-01-01T08:40:51.000Z</time>
      </trkpt>
      <trkpt lat="45.75192" lon="6.03642">
        <ele>770.1</ele>
        <time>2000-01-01T08:41:01.000Z</time>
      </trkpt>
      <trkpt lat="45.75192" lon="6.03634">
        <ele>769.8</ele>
        <time>2000-01-01T08:41:11.000Z</time>
      </trkpt>
      <trkpt lat="45.75197" lon="6.03628">
        <ele>769.5</ele>
        <time>2000-01-01T08:41:21.000Z</time>
      </trkpt>
      <trkpt lat="45.75198" lon="6.03616">
        <ele>769.4</ele>
        <time>2000-01-01T08:41:31.000Z</time>
      </trkpt>
      <trkpt lat="45.75194" lon="6.03603">
        <ele>769.3</ele>
        <time>2000-01-01T08:41:41.000Z</time>
      </trkpt>
      <trkpt lat="45.75191" lon="6.03595">
        <ele>769.1</ele>
        <time>2000-01-01T08:41:51.000Z</time>
      </trkpt>
      <trkpt lat="45.75188" lon="6.03584">
        <ele>768.5</ele>
        <time>2000-01-01T08:42:01.000Z</time>
      </trkpt>
      <trkpt lat="45.75185" lon="6.03575">
        <ele>767.4</ele>
        <time>2000-01-01T08:42:11.000Z</time>
      </trkpt>
      <trkpt lat="45.7518" lon="6.03568">
        <ele>766.4</ele>
        <time>2000-01-01T08:42:21.000Z</time>
      </trkpt>
      <trkpt lat="45.75177" lon="6.03562">
        <ele>766</ele>
        <time>2000-01-01T08:42:31.000Z</time>
      </trkpt>
      <trkpt lat="45.75178" lon="6.03552">
        <ele>763.6</ele>
        <time>2000-01-01T08:42:41.000Z</time>
      </trkpt>
      <trkpt lat="45.75178" lon="6.0354">
        <ele>761.9</ele>
        <time>2000-01-01T08:42:51.000Z</time>
      </trkpt>
      <trkpt lat="45.75174" lon="6.03532">
        <ele>760.9</ele>
        <time>2000-01-01T08:43:01.000Z</time>
      </trkpt>
      <trkpt lat="45.75171" lon="6.03519">
        <ele>758.3</ele>
        <time>2000-01-01T08:43:11.000Z</time>
      </trkpt>
      <trkpt lat="45.75167" lon="6.03511">
        <ele>756.9</ele>
        <time>2000-01-01T08:43:21.000Z</time>
      </trkpt>
      <trkpt lat="45.75163" lon="6.03502">
        <ele>755.6</ele>
        <time>2000-01-01T08:43:31.000Z</time>
      </trkpt>
      <trkpt lat="45.7516" lon="6.03499">
        <ele>755.3</ele>
        <time>2000-01-01T08:43:41.000Z</time>
      </trkpt>
      <trkpt lat="45.75156" lon="6.03497">
        <ele>755.6</ele>
        <time>2000-01-01T08:43:51.000Z</time>
      </trkpt>
      <trkpt lat="45.75154" lon="6.03487">
        <ele>754</ele>
        <time>2000-01-01T08:44:01.000Z</time>
      </trkpt>
      <trkpt lat="45.75152" lon="6.03479">
        <ele>752.9</ele>
        <time>2000-01-01T08:44:11.000Z</time>
      </trkpt>
      <trkpt lat="45.75153" lon="6.03466">
        <ele>750.7</ele>
        <time>2000-01-01T08:44:21.000Z</time>
      </trkpt>
      <trkpt lat="45.75153" lon="6.03455">
        <ele>749.5</ele>
        <time>2000-01-01T08:44:31.000Z</time>
      </trkpt>
      <trkpt lat="45.75154" lon="6.03446">
        <ele>747.7</ele>
        <time>2000-01-01T08:44:41.000Z</time>
      </trkpt>
      <trkpt lat="45.75156" lon="6.03438">
        <ele>746.3</ele>
        <time>2000-01-01T08:44:51.000Z</time>
      </trkpt>
      <trkpt lat="45.75161" lon="6.03428">
        <ele>743</ele>
        <time>2000-01-01T08:45:01.000Z</time>
      </trkpt>
      <trkpt lat="45.75165" lon="6.03421">
        <ele>741.7</ele>
        <time>2000-01-01T08:45:11.000Z</time>
      </trkpt>
      <trkpt lat="45.75165" lon="6.03406">
        <ele>739.3</ele>
        <time>2000-01-01T08:45:21.000Z</time>
      </trkpt>
      <trkpt lat="45.75163" lon="6.03394">
        <ele>738.1</ele>
        <time>2000-01-01T08:45:31.000Z</time>
      </trkpt>
      <trkpt lat="45.7516" lon="6.03386">
        <ele>737.7</ele>
        <time>2000-01-01T08:45:41.000Z</time>
      </trkpt>
      <trkpt lat="45.75156" lon="6.03376">
        <ele>737.6</ele>
        <time>2000-01-01T08:45:51.000Z</time>
      </trkpt>
      <trkpt lat="45.75155" lon="6.03364">
        <ele>736.6</ele>
        <time>2000-01-01T08:46:01.000Z</time>
      </trkpt>
      <trkpt lat="45.75152" lon="6.03355">
        <ele>735.8</ele>
        <time>2000-01-01T08:46:11.000Z</time>
      </trkpt>
      <trkpt lat="45.75149" lon="6.03345">
        <ele>735.5</ele>
        <time>2000-01-01T08:46:21.000Z</time>
      </trkpt>
      <trkpt lat="45.75145" lon="6.03334">
        <ele>735.2</ele>
        <time>2000-01-01T08:46:31.000Z</time>
      </trkpt>
      <trkpt lat="45.75138" lon="6.03325">
        <ele>736.3</ele>
        <time>2000-01-01T08:46:41.000Z</time>
      </trkpt>
      <trkpt lat="45.75136" lon="6.03314">
        <ele>735.7</ele>
        <time>2000-01-01T08:46:51.000Z</time>
      </trkpt>
      <trkpt lat="45.75138" lon="6.03305">
        <ele>735.2</ele>
        <time>2000-01-01T08:47:01.000Z</time>
      </trkpt>
      <trkpt lat="45.75139" lon="6.03301">
        <ele>734.1</ele>
        <time>2000-01-01T08:47:11.000Z</time>
      </trkpt>
      <trkpt lat="45.75141" lon="6.03298">
        <ele>733.9</ele>
        <time>2000-01-01T08:47:21.000Z</time>
      </trkpt>
      <trkpt lat="45.75149" lon="6.03297">
        <ele>731.8</ele>
        <time>2000-01-01T08:47:31.000Z</time>
      </trkpt>
      <trkpt lat="45.75155" lon="6.03296">
        <ele>730.5</ele>
        <time>2000-01-01T08:47:41.000Z</time>
      </trkpt>
      <trkpt lat="45.75162" lon="6.03293">
        <ele>728.2</ele>
        <time>2000-01-01T08:47:51.000Z</time>
      </trkpt>
      <trkpt lat="45.75166" lon="6.03291">
        <ele>727.4</ele>
        <time>2000-01-01T08:48:01.000Z</time>
      </trkpt>
      <trkpt lat="45.7517" lon="6.03291">
        <ele>726.5</ele>
        <time>2000-01-01T08:48:11.000Z</time>
      </trkpt>
      <trkpt lat="45.75172" lon="6.03292">
        <ele>725.9</ele>
        <time>2000-01-01T08:48:21.000Z</time>
      </trkpt>
      <trkpt lat="45.7518" lon="6.0329">
        <ele>724.3</ele>
        <time>2000-01-01T08:48:31.000Z</time>
      </trkpt>
      <trkpt lat="45.75188" lon="6.03285">
        <ele>722</ele>
        <time>2000-01-01T08:48:41.000Z</time>
      </trkpt>
      <trkpt lat="45.75196" lon="6.03279">
        <ele>721.1</ele>
        <time>2000-01-01T08:48:51.000Z</time>
      </trkpt>
      <trkpt lat="45.75202" lon="6.03274">
        <ele>719.7</ele>
        <time>2000-01-01T08:49:01.000Z</time>
      </trkpt>
      <trkpt lat="45.75206" lon="6.03264">
        <ele>718.4</ele>
        <time>2000-01-01T08:49:11.000Z</time>
      </trkpt>
      <trkpt lat="45.7521" lon="6.03254">
        <ele>717.2</ele>
        <time>2000-01-01T08:49:21.000Z</time>
      </trkpt>
      <trkpt lat="45.75215" lon="6.03245">
        <ele>716</ele>
        <time>2000-01-01T08:49:31.000Z</time>
      </trkpt>
      <trkpt lat="45.75218" lon="6.03237">
        <ele>715.1</ele>
        <time>2000-01-01T08:49:41.000Z</time>
      </trkpt>
      <trkpt lat="45.75223" lon="6.03228">
        <ele>714.1</ele>
        <time>2000-01-01T08:49:51.000Z</time>
      </trkpt>
      <trkpt lat="45.75225" lon="6.03219">
        <ele>713.4</ele>
        <time>2000-01-01T08:50:01.000Z</time>
      </trkpt>
      <trkpt lat="45.75228" lon="6.03209">
        <ele>712.6</ele>
        <time>2000-01-01T08:50:11.000Z</time>
      </trkpt>
      <trkpt lat="45.75234" lon="6.03197">
        <ele>711.4</ele>
        <time>2000-01-01T08:50:21.000Z</time>
      </trkpt>
      <trkpt lat="45.7524" lon="6.03186">
        <ele>710</ele>
        <time>2000-01-01T08:50:31.000Z</time>
      </trkpt>
      <trkpt lat="45.75245" lon="6.03174">
        <ele>708.6</ele>
        <time>2000-01-01T08:50:41.000Z</time>
      </trkpt>
      <trkpt lat="45.75248" lon="6.03163">
        <ele>707.3</ele>
        <time>2000-01-01T08:50:51.000Z</time>
      </trkpt>
      <trkpt lat="45.7525" lon="6.0315">
        <ele>706</ele>
        <time>2000-01-01T08:51:01.000Z</time>
      </trkpt>
      <trkpt lat="45.75254" lon="6.03137">
        <ele>704.7</ele>
        <time>2000-01-01T08:51:11.000Z</time>
      </trkpt>
      <trkpt lat="45.75259" lon="6.03125">
        <ele>703.4</ele>
        <time>2000-01-01T08:51:21.000Z</time>
      </trkpt>
      <trkpt lat="45.75263" lon="6.03113">
        <ele>702.1</ele>
        <time>2000-01-01T08:51:31.000Z</time>
      </trkpt>
      <trkpt lat="45.75268" lon="6.03102">
        <ele>701</ele>
        <time>2000-01-01T08:51:41.000Z</time>
      </trkpt>
      <trkpt lat="45.75273" lon="6.03091">
        <ele>699.8</ele>
        <time>2000-01-01T08:51:51.000Z</time>
      </trkpt>
      <trkpt lat="45.75278" lon="6.03079">
        <ele>698.7</ele>
        <time>2000-01-01T08:52:01.000Z</time>
      </trkpt>
      <trkpt lat="45.75285" lon="6.03069">
        <ele>697.8</ele>
        <time>2000-01-01T08:52:11.000Z</time>
      </trkpt>
      <trkpt lat="45.75288" lon="6.03063">
        <ele>697.4</ele>
        <time>2000-01-01T08:52:21.000Z</time>
      </trkpt>
      <trkpt lat="45.75291" lon="6.03055">
        <ele>696.8</ele>
        <time>2000-01-01T08:52:31.000Z</time>
      </trkpt>
      <trkpt lat="45.75293" lon="6.03048">
        <ele>696.1</ele>
        <time>2000-01-01T08:52:41.000Z</time>
      </trkpt>
      <trkpt lat="45.75299" lon="6.03038">
        <ele>695</ele>
        <time>2000-01-01T08:52:51.000Z</time>
      </trkpt>
      <trkpt lat="45.75302" lon="6.03031">
        <ele>694.2</ele>
        <time>2000-01-01T08:53:01.000Z</time>
      </trkpt>
      <trkpt lat="45.75308" lon="6.03021">
        <ele>693</ele>
        <time>2000-01-01T08:53:11.000Z</time>
      </trkpt>
      <trkpt lat="45.75315" lon="6.03011">
        <ele>692</ele>
        <time>2000-01-01T08:53:21.000Z</time>
      </trkpt>
      <trkpt lat="45.75323" lon="6.03003">
        <ele>690.7</ele>
        <time>2000-01-01T08:53:31.000Z</time>
      </trkpt>
      <trkpt lat="45.75328" lon="6.02993">
        <ele>689.4</ele>
        <time>2000-01-01T08:53:41.000Z</time>
      </trkpt>
      <trkpt lat="45.75333" lon="6.02981">
        <ele>687.8</ele>
        <time>2000-01-01T08:53:51.000Z</time>
      </trkpt>
      <trkpt lat="45.75339" lon="6.02971">
        <ele>686.6</ele>
        <time>2000-01-01T08:54:01.000Z</time>
      </trkpt>
      <trkpt lat="45.75346" lon="6.0296">
        <ele>685.6</ele>
        <time>2000-01-01T08:54:11.000Z</time>
      </trkpt>
      <trkpt lat="45.75353" lon="6.02952">
        <ele>684.7</ele>
        <time>2000-01-01T08:54:21.000Z</time>
      </trkpt>
      <trkpt lat="45.7536" lon="6.02941">
        <ele>683.8</ele>
        <time>2000-01-01T08:54:31.000Z</time>
      </trkpt>
      <trkpt lat="45.75367" lon="6.02931">
        <ele>683</ele>
        <time>2000-01-01T08:54:41.000Z</time>
      </trkpt>
      <trkpt lat="45.75372" lon="6.02922">
        <ele>682.2</ele>
        <time>2000-01-01T08:54:51.000Z</time>
      </trkpt>
      <trkpt lat="45.75374" lon="6.02916">
        <ele>681.8</ele>
        <time>2000-01-01T08:55:01.000Z</time>
      </trkpt>
      <trkpt lat="45.75368" lon="6.02907">
        <ele>680.9</ele>
        <time>2000-01-01T08:55:11.000Z</time>
      </trkpt>
      <trkpt lat="45.75358" lon="6.02904">
        <ele>681.3</ele>
        <time>2000-01-01T08:55:21.000Z</time>
      </trkpt>
      <trkpt lat="45.75348" lon="6.02901">
        <ele>681.8</ele>
        <time>2000-01-01T08:55:31.000Z</time>
      </trkpt>
      <trkpt lat="45.7534" lon="6.02898">
        <ele>682.4</ele>
        <time>2000-01-01T08:55:41.000Z</time>
      </trkpt>
      <trkpt lat="45.75336" lon="6.02896">
        <ele>682.6</ele>
        <time>2000-01-01T08:55:51.000Z</time>
      </trkpt>
      <trkpt lat="45.75335" lon="6.02886">
        <ele>682.5</ele>
        <time>2000-01-01T08:56:01.000Z</time>
      </trkpt>
      <trkpt lat="45.75338" lon="6.02879">
        <ele>682.3</ele>
        <time>2000-01-01T08:56:11.000Z</time>
      </trkpt>
      <trkpt lat="45.75344" lon="6.02866">
        <ele>682.4</ele>
        <time>2000-01-01T08:56:21.000Z</time>
      </trkpt>
      <trkpt lat="45.75345" lon="6.02854">
        <ele>682.9</ele>
        <time>2000-01-01T08:56:31.000Z</time>
      </trkpt>
      <trkpt lat="45.75344" lon="6.02841">
        <ele>683.8</ele>
        <time>2000-01-01T08:56:41.000Z</time>
      </trkpt>
      <trkpt lat="45.75341" lon="6.02829">
        <ele>685.1</ele>
        <time>2000-01-01T08:56:51.000Z</time>
      </trkpt>
      <trkpt lat="45.75338" lon="6.02817">
        <ele>686.3</ele>
        <time>2000-01-01T08:57:01.000Z</time>
      </trkpt>
      <trkpt lat="45.75335" lon="6.02808">
        <ele>687.2</ele>
        <time>2000-01-01T08:57:11.000Z</time>
      </trkpt>
      <trkpt lat="45.75333" lon="6.02799">
        <ele>688</ele>
        <time>2000-01-01T08:57:21.000Z</time>
      </trkpt>
      <trkpt lat="45.7533" lon="6.02791">
        <ele>688.5</ele>
        <time>2000-01-01T08:57:31.000Z</time>
      </trkpt>
      <trkpt lat="45.75326" lon="6.02783">
        <ele>688.9</ele>
        <time>2000-01-01T08:57:41.000Z</time>
      </trkpt>
      <trkpt lat="45.75322" lon="6.02776">
        <ele>689.2</ele>
        <time>2000-01-01T08:57:51.000Z</time>
      </trkpt>
      <trkpt lat="45.75318" lon="6.02768">
        <ele>689.5</ele>
        <time>2000-01-01T08:58:01.000Z</time>
      </trkpt>
      <trkpt lat="45.75312" lon="6.02762">
        <ele>689.7</ele>
        <time>2000-01-01T08:58:11.000Z</time>
      </trkpt>
      <trkpt lat="45.75306" lon="6.02756">
        <ele>689.8</ele>
        <time>2000-01-01T08:58:21.000Z</time>
      </trkpt>
      <trkpt lat="45.753" lon="6.0275">
        <ele>690</ele>
        <time>2000-01-01T08:58:31.000Z</time>
      </trkpt>
      <trkpt lat="45.75293" lon="6.02746">
        <ele>690.2</ele>
        <time>2000-01-01T08:58:41.000Z</time>
      </trkpt>
      <trkpt lat="45.75287" lon="6.02741">
        <ele>690.4</ele>
        <time>2000-01-01T08:58:51.000Z</time>
      </trkpt>
      <trkpt lat="45.75281" lon="6.02735">
        <ele>690.6</ele>
        <time>2000-01-01T08:59:01.000Z</time>
      </trkpt>
      <trkpt lat="45.75276" lon="6.02729">
        <ele>690.8</ele>
        <time>2000-01-01T08:59:11.000Z</time>
      </trkpt>
      <trkpt lat="45.7527" lon="6.02721">
        <ele>691.2</ele>
        <time>2000-01-01T08:59:21.000Z</time>
      </trkpt>
      <trkpt lat="45.75265" lon="6.02714">
        <ele>691.6</ele>
        <time>2000-01-01T08:59:31.000Z</time>
      </trkpt>
      <trkpt lat="45.75261" lon="6.02704">
        <ele>692</ele>
        <time>2000-01-01T08:59:41.000Z</time>
      </trkpt>
      <trkpt lat="45.75259" lon="6.02695">
        <ele>692.4</ele>
        <time>2000-01-01T08:59:51.000Z</time>
      </trkpt>
      <trkpt lat="45.75256" lon="6.02688">
        <ele>692.9</ele>
        <time>2000-01-01T09:00:01.000Z</time>
      </trkpt>
      <trkpt lat="45.75252" lon="6.02681">
        <ele>693.4</ele>
        <time>2000-01-01T09:00:11.000Z</time>
      </trkpt>
      <trkpt lat="45.75248" lon="6.02674">
        <ele>694.1</ele>
        <time>2000-01-01T09:00:21.000Z</time>
      </trkpt>
      <trkpt lat="45.75241" lon="6.02669">
        <ele>694.8</ele>
        <time>2000-01-01T09:00:31.000Z</time>
      </trkpt>
      <trkpt lat="45.75235" lon="6.02666">
        <ele>695.4</ele>
        <time>2000-01-01T09:00:41.000Z</time>
      </trkpt>
      <trkpt lat="45.75229" lon="6.02664">
        <ele>696.2</ele>
        <time>2000-01-01T09:00:51.000Z</time>
      </trkpt>
      <trkpt lat="45.75222" lon="6.02661">
        <ele>697.2</ele>
        <time>2000-01-01T09:01:01.000Z</time>
      </trkpt>
      <trkpt lat="45.75213" lon="6.02658">
        <ele>698.6</ele>
        <time>2000-01-01T09:01:11.000Z</time>
      </trkpt>
      <trkpt lat="45.75208" lon="6.02654">
        <ele>699.4</ele>
        <time>2000-01-01T09:01:21.000Z</time>
      </trkpt>
      <trkpt lat="45.75202" lon="6.02652">
        <ele>700.2</ele>
        <time>2000-01-01T09:01:31.000Z</time>
      </trkpt>
      <trkpt lat="45.75194" lon="6.02646">
        <ele>701.2</ele>
        <time>2000-01-01T09:01:41.000Z</time>
      </trkpt>
      <trkpt lat="45.75186" lon="6.02642">
        <ele>702.4</ele>
        <time>2000-01-01T09:01:51.000Z</time>
      </trkpt>
      <trkpt lat="45.75176" lon="6.0264">
        <ele>703.8</ele>
        <time>2000-01-01T09:02:01.000Z</time>
      </trkpt>
      <trkpt lat="45.75166" lon="6.02638">
        <ele>705.1</ele>
        <time>2000-01-01T09:02:11.000Z</time>
      </trkpt>
      <trkpt lat="45.75158" lon="6.02635">
        <ele>706.1</ele>
        <time>2000-01-01T09:02:21.000Z</time>
      </trkpt>
      <trkpt lat="45.75152" lon="6.02632">
        <ele>706.7</ele>
        <time>2000-01-01T09:02:31.000Z</time>
      </trkpt>
      <trkpt lat="45.75147" lon="6.0263">
        <ele>707.1</ele>
        <time>2000-01-01T09:02:41.000Z</time>
      </trkpt>
      <trkpt lat="45.7514" lon="6.02626">
        <ele>707.6</ele>
        <time>2000-01-01T09:02:51.000Z</time>
      </trkpt>
      <trkpt lat="45.75133" lon="6.02622">
        <ele>708.1</ele>
        <time>2000-01-01T09:03:01.000Z</time>
      </trkpt>
      <trkpt lat="45.75124" lon="6.02615">
        <ele>708.9</ele>
        <time>2000-01-01T09:03:11.000Z</time>
      </trkpt>
      <trkpt lat="45.75115" lon="6.02609">
        <ele>709.9</ele>
        <time>2000-01-01T09:03:21.000Z</time>
      </trkpt>
      <trkpt lat="45.75108" lon="6.02603">
        <ele>710.7</ele>
        <time>2000-01-01T09:03:31.000Z</time>
      </trkpt>
      <trkpt lat="45.751" lon="6.02595">
        <ele>711.4</ele>
        <time>2000-01-01T09:03:41.000Z</time>
      </trkpt>
      <trkpt lat="45.75093" lon="6.02589">
        <ele>712</ele>
        <time>2000-01-01T09:03:51.000Z</time>
      </trkpt>
      <trkpt lat="45.75085" lon="6.02584">
        <ele>712.2</ele>
        <time>2000-01-01T09:04:01.000Z</time>
      </trkpt>
      <trkpt lat="45.75076" lon="6.02578">
        <ele>712.3</ele>
        <time>2000-01-01T09:04:11.000Z</time>
      </trkpt>
      <trkpt lat="45.75069" lon="6.02567">
        <ele>712.1</ele>
        <time>2000-01-01T09:04:21.000Z</time>
      </trkpt>
      <trkpt lat="45.75064" lon="6.02555">
        <ele>711.8</ele>
        <time>2000-01-01T09:04:31.000Z</time>
      </trkpt>
      <trkpt lat="45.75059" lon="6.02545">
        <ele>711.6</ele>
        <time>2000-01-01T09:04:41.000Z</time>
      </trkpt>
      <trkpt lat="45.75053" lon="6.02537">
        <ele>711.2</ele>
        <time>2000-01-01T09:04:51.000Z</time>
      </trkpt>
      <trkpt lat="45.75047" lon="6.02527">
        <ele>710.5</ele>
        <time>2000-01-01T09:05:01.000Z</time>
      </trkpt>
      <trkpt lat="45.75042" lon="6.02518">
        <ele>709.4</ele>
        <time>2000-01-01T09:05:11.000Z</time>
      </trkpt>
      <trkpt lat="45.75036" lon="6.0251">
        <ele>708.2</ele>
        <time>2000-01-01T09:05:21.000Z</time>
      </trkpt>
      <trkpt lat="45.75033" lon="6.02506">
        <ele>707.6</ele>
        <time>2000-01-01T09:05:31.000Z</time>
      </trkpt>
      <trkpt lat="45.75031" lon="6.02501">
        <ele>706.9</ele>
        <time>2000-01-01T09:05:41.000Z</time>
      </trkpt>
      <trkpt lat="45.75029" lon="6.02495">
        <ele>706</ele>
        <time>2000-01-01T09:05:51.000Z</time>
      </trkpt>
      <trkpt lat="45.75035" lon="6.0249">
        <ele>704.9</ele>
        <time>2000-01-01T09:06:01.000Z</time>
      </trkpt>
      <trkpt lat="45.75041" lon="6.02487">
        <ele>703.9</ele>
        <time>2000-01-01T09:06:11.000Z</time>
      </trkpt>
      <trkpt lat="45.75046" lon="6.02481">
        <ele>702.9</ele>
        <time>2000-01-01T09:06:21.000Z</time>
      </trkpt>
      <trkpt lat="45.75052" lon="6.02475">
        <ele>701.9</ele>
        <time>2000-01-01T09:06:31.000Z</time>
      </trkpt>
      <trkpt lat="45.75055" lon="6.02466">
        <ele>700.7</ele>
        <time>2000-01-01T09:06:41.000Z</time>
      </trkpt>
      <trkpt lat="45.75053" lon="6.02457">
        <ele>699.6</ele>
        <time>2000-01-01T09:06:51.000Z</time>
      </trkpt>
      <trkpt lat="45.75048" lon="6.02449">
        <ele>698.2</ele>
        <time>2000-01-01T09:07:01.000Z</time>
      </trkpt>
      <trkpt lat="45.75046" lon="6.02444">
        <ele>697.4</ele>
        <time>2000-01-01T09:07:11.000Z</time>
      </trkpt>
      <trkpt lat="45.75049" lon="6.02437">
        <ele>696.1</ele>
        <time>2000-01-01T09:07:21.000Z</time>
      </trkpt>
      <trkpt lat="45.75051" lon="6.02429">
        <ele>694.8</ele>
        <time>2000-01-01T09:07:31.000Z</time>
      </trkpt>
      <trkpt lat="45.75047" lon="6.02421">
        <ele>693.6</ele>
        <time>2000-01-01T09:07:41.000Z</time>
      </trkpt>
      <trkpt lat="45.75042" lon="6.02412">
        <ele>691.9</ele>
        <time>2000-01-01T09:07:51.000Z</time>
      </trkpt>
      <trkpt lat="45.7504" lon="6.02407">
        <ele>691</ele>
        <time>2000-01-01T09:08:01.000Z</time>
      </trkpt>
      <trkpt lat="45.75039" lon="6.02398">
        <ele>689.5</ele>
        <time>2000-01-01T09:08:11.000Z</time>
      </trkpt>
      <trkpt lat="45.75035" lon="6.0239">
        <ele>688</ele>
        <time>2000-01-01T09:08:21.000Z</time>
      </trkpt>
      <trkpt lat="45.75033" lon="6.02384">
        <ele>687</ele>
        <time>2000-01-01T09:08:31.000Z</time>
      </trkpt>
      <trkpt lat="45.7503" lon="6.02373">
        <ele>685.4</ele>
        <time>2000-01-01T09:08:41.000Z</time>
      </trkpt>
      <trkpt lat="45.7503" lon="6.02369">
        <ele>684.8</ele>
        <time>2000-01-01T09:08:51.000Z</time>
      </trkpt>
      <trkpt lat="45.75026" lon="6.02361">
        <ele>683.3</ele>
        <time>2000-01-01T09:09:01.000Z</time>
      </trkpt>
      <trkpt lat="45.75023" lon="6.02357">
        <ele>682.6</ele>
        <time>2000-01-01T09:09:11.000Z</time>
      </trkpt>
      <trkpt lat="45.75021" lon="6.02349">
        <ele>681.5</ele>
        <time>2000-01-01T09:09:21.000Z</time>
      </trkpt>
      <trkpt lat="45.75017" lon="6.02339">
        <ele>679.8</ele>
        <time>2000-01-01T09:09:31.000Z</time>
      </trkpt>
      <trkpt lat="45.75013" lon="6.02333">
        <ele>678.5</ele>
        <time>2000-01-01T09:09:41.000Z</time>
      </trkpt>
      <trkpt lat="45.75012" lon="6.02328">
        <ele>677.9</ele>
        <time>2000-01-01T09:09:51.000Z</time>
      </trkpt>
      <trkpt lat="45.75007" lon="6.02322">
        <ele>676.6</ele>
        <time>2000-01-01T09:10:01.000Z</time>
      </trkpt>
      <trkpt lat="45.75" lon="6.02316">
        <ele>674.8</ele>
        <time>2000-01-01T09:10:11.000Z</time>
      </trkpt>
      <trkpt lat="45.74993" lon="6.0231">
        <ele>672.9</ele>
        <time>2000-01-01T09:10:21.000Z</time>
      </trkpt>
      <trkpt lat="45.74986" lon="6.02301">
        <ele>670.5</ele>
        <time>2000-01-01T09:10:31.000Z</time>
      </trkpt>
      <trkpt lat="45.74983" lon="6.02297">
        <ele>669.1</ele>
        <time>2000-01-01T09:10:41.000Z</time>
      </trkpt>
      <trkpt lat="45.74979" lon="6.02288">
        <ele>667</ele>
        <time>2000-01-01T09:10:51.000Z</time>
      </trkpt>
      <trkpt lat="45.74975" lon="6.0228">
        <ele>665.3</ele>
        <time>2000-01-01T09:11:01.000Z</time>
      </trkpt>
      <trkpt lat="45.74971" lon="6.02273">
        <ele>663.9</ele>
        <time>2000-01-01T09:11:11.000Z</time>
      </trkpt>
      <trkpt lat="45.7497" lon="6.02264">
        <ele>662.8</ele>
        <time>2000-01-01T09:11:21.000Z</time>
      </trkpt>
      <trkpt lat="45.74973" lon="6.02254">
        <ele>661.9</ele>
        <time>2000-01-01T09:11:31.000Z</time>
      </trkpt>
      <trkpt lat="45.74977" lon="6.02242">
        <ele>660.7</ele>
        <time>2000-01-01T09:11:41.000Z</time>
      </trkpt>
      <trkpt lat="45.74978" lon="6.02238">
        <ele>660.3</ele>
        <time>2000-01-01T09:11:51.000Z</time>
      </trkpt>
      <trkpt lat="45.7498" lon="6.02232">
        <ele>659.5</ele>
        <time>2000-01-01T09:12:01.000Z</time>
      </trkpt>
      <trkpt lat="45.74982" lon="6.02229">
        <ele>659.1</ele>
        <time>2000-01-01T09:12:11.000Z</time>
      </trkpt>
      <trkpt lat="45.74987" lon="6.02226">
        <ele>658.4</ele>
        <time>2000-01-01T09:12:21.000Z</time>
      </trkpt>
      <trkpt lat="45.74997" lon="6.02224">
        <ele>656.8</ele>
        <time>2000-01-01T09:12:31.000Z</time>
      </trkpt>
      <trkpt lat="45.75007" lon="6.02225">
        <ele>655.2</ele>
        <time>2000-01-01T09:12:41.000Z</time>
      </trkpt>
      <trkpt lat="45.75015" lon="6.02224">
        <ele>654.1</ele>
        <time>2000-01-01T09:12:51.000Z</time>
      </trkpt>
      <trkpt lat="45.75023" lon="6.02221">
        <ele>652.5</ele>
        <time>2000-01-01T09:13:01.000Z</time>
      </trkpt>
      <trkpt lat="45.7503" lon="6.02216">
        <ele>651.2</ele>
        <time>2000-01-01T09:13:11.000Z</time>
      </trkpt>
      <trkpt lat="45.75034" lon="6.02214">
        <ele>650.5</ele>
        <time>2000-01-01T09:13:21.000Z</time>
      </trkpt>
      <trkpt lat="45.75042" lon="6.02212">
        <ele>649</ele>
        <time>2000-01-01T09:13:31.000Z</time>
      </trkpt>
      <trkpt lat="45.7505" lon="6.02214">
        <ele>647.9</ele>
        <time>2000-01-01T09:13:41.000Z</time>
      </trkpt>
      <trkpt lat="45.75054" lon="6.02216">
        <ele>647.2</ele>
        <time>2000-01-01T09:13:51.000Z</time>
      </trkpt>
      <trkpt lat="45.75061" lon="6.02217">
        <ele>645.9</ele>
        <time>2000-01-01T09:14:01.000Z</time>
      </trkpt>
      <trkpt lat="45.75066" lon="6.02218">
        <ele>645</ele>
        <time>2000-01-01T09:14:11.000Z</time>
      </trkpt>
      <trkpt lat="45.75075" lon="6.02216">
        <ele>643.8</ele>
        <time>2000-01-01T09:14:21.000Z</time>
      </trkpt>
      <trkpt lat="45.75082" lon="6.02212">
        <ele>642.6</ele>
        <time>2000-01-01T09:14:31.000Z</time>
      </trkpt>
      <trkpt lat="45.75088" lon="6.02211">
        <ele>641.7</ele>
        <time>2000-01-01T09:14:41.000Z</time>
      </trkpt>
      <trkpt lat="45.75094" lon="6.0221">
        <ele>640.7</ele>
        <time>2000-01-01T09:14:51.000Z</time>
      </trkpt>
      <trkpt lat="45.751" lon="6.02208">
        <ele>639.9</ele>
        <time>2000-01-01T09:15:01.000Z</time>
      </trkpt>
      <trkpt lat="45.75105" lon="6.02206">
        <ele>639.1</ele>
        <time>2000-01-01T09:15:11.000Z</time>
      </trkpt>
      <trkpt lat="45.75112" lon="6.02202">
        <ele>638.1</ele>
        <time>2000-01-01T09:15:21.000Z</time>
      </trkpt>
      <trkpt lat="45.75119" lon="6.02198">
        <ele>637.2</ele>
        <time>2000-01-01T09:15:31.000Z</time>
      </trkpt>
      <trkpt lat="45.75126" lon="6.02192">
        <ele>636.1</ele>
        <time>2000-01-01T09:15:41.000Z</time>
      </trkpt>
      <trkpt lat="45.75133" lon="6.02188">
        <ele>635.7</ele>
        <time>2000-01-01T09:15:51.000Z</time>
      </trkpt>
      <trkpt lat="45.75138" lon="6.02184">
        <ele>635.5</ele>
        <time>2000-01-01T09:16:01.000Z</time>
      </trkpt>
      <trkpt lat="45.75145" lon="6.02179">
        <ele>635.1</ele>
        <time>2000-01-01T09:16:11.000Z</time>
      </trkpt>
      <trkpt lat="45.75152" lon="6.0217">
        <ele>634.7</ele>
        <time>2000-01-01T09:16:21.000Z</time>
      </trkpt>
      <trkpt lat="45.7516" lon="6.02167">
        <ele>634.2</ele>
        <time>2000-01-01T09:16:31.000Z</time>
      </trkpt>
      <trkpt lat="45.75168" lon="6.02167">
        <ele>633.9</ele>
        <time>2000-01-01T09:16:41.000Z</time>
      </trkpt>
      <trkpt lat="45.75175" lon="6.0217">
        <ele>633.6</ele>
        <time>2000-01-01T09:16:51.000Z</time>
      </trkpt>
      <trkpt lat="45.75182" lon="6.02171">
        <ele>633.2</ele>
        <time>2000-01-01T09:17:01.000Z</time>
      </trkpt>
      <trkpt lat="45.7519" lon="6.02172">
        <ele>632.9</ele>
        <time>2000-01-01T09:17:11.000Z</time>
      </trkpt>
      <trkpt lat="45.75195" lon="6.02173">
        <ele>632.7</ele>
        <time>2000-01-01T09:17:21.000Z</time>
      </trkpt>
      <trkpt lat="45.75203" lon="6.02175">
        <ele>632.1</ele>
        <time>2000-01-01T09:17:31.000Z</time>
      </trkpt>
      <trkpt lat="45.75211" lon="6.02178">
        <ele>631.4</ele>
        <time>2000-01-01T09:17:41.000Z</time>
      </trkpt>
      <trkpt lat="45.75218" lon="6.02183">
        <ele>630.9</ele>
        <time>2000-01-01T09:17:51.000Z</time>
      </trkpt>
      <trkpt lat="45.75225" lon="6.02188">
        <ele>629.9</ele>
        <time>2000-01-01T09:18:01.000Z</time>
      </trkpt>
      <trkpt lat="45.75234" lon="6.02191">
        <ele>629.1</ele>
        <time>2000-01-01T09:18:11.000Z</time>
      </trkpt>
      <trkpt lat="45.75244" lon="6.02194">
        <ele>628.2</ele>
        <time>2000-01-01T09:18:21.000Z</time>
      </trkpt>
      <trkpt lat="45.7525" lon="6.02195">
        <ele>627.7</ele>
        <time>2000-01-01T09:18:31.000Z</time>
      </trkpt>
      <trkpt lat="45.75258" lon="6.02194">
        <ele>626.9</ele>
        <time>2000-01-01T09:18:41.000Z</time>
      </trkpt>
      <trkpt lat="45.75264" lon="6.02193">
        <ele>626.3</ele>
        <time>2000-01-01T09:18:51.000Z</time>
      </trkpt>
      <trkpt lat="45.7527" lon="6.02194">
        <ele>625.7</ele>
        <time>2000-01-01T09:19:01.000Z</time>
      </trkpt>
      <trkpt lat="45.75278" lon="6.02195">
        <ele>625.1</ele>
        <time>2000-01-01T09:19:11.000Z</time>
      </trkpt>
      <trkpt lat="45.75286" lon="6.02198">
        <ele>624.6</ele>
        <time>2000-01-01T09:19:21.000Z</time>
      </trkpt>
      <trkpt lat="45.75292" lon="6.02199">
        <ele>624.2</ele>
        <time>2000-01-01T09:19:31.000Z</time>
      </trkpt>
      <trkpt lat="45.75302" lon="6.02201">
        <ele>623.5</ele>
        <time>2000-01-01T09:19:41.000Z</time>
      </trkpt>
      <trkpt lat="45.75309" lon="6.02204">
        <ele>623.1</ele>
        <time>2000-01-01T09:19:51.000Z</time>
      </trkpt>
      <trkpt lat="45.75318" lon="6.0221">
        <ele>622.7</ele>
        <time>2000-01-01T09:20:01.000Z</time>
      </trkpt>
      <trkpt lat="45.75322" lon="6.02217">
        <ele>622.5</ele>
        <time>2000-01-01T09:20:11.000Z</time>
      </trkpt>
      <trkpt lat="45.75323" lon="6.02225">
        <ele>622.3</ele>
        <time>2000-01-01T09:20:21.000Z</time>
      </trkpt>
      <trkpt lat="45.75321" lon="6.02235">
        <ele>622.1</ele>
        <time>2000-01-01T09:20:31.000Z</time>
      </trkpt>
      <trkpt lat="45.75322" lon="6.02247">
        <ele>622.1</ele>
        <time>2000-01-01T09:20:41.000Z</time>
      </trkpt>
      <trkpt lat="45.75327" lon="6.02258">
        <ele>621.9</ele>
        <time>2000-01-01T09:20:51.000Z</time>
      </trkpt>
      <trkpt lat="45.75332" lon="6.0227">
        <ele>621.8</ele>
        <time>2000-01-01T09:21:01.000Z</time>
      </trkpt>
      <trkpt lat="45.75335" lon="6.0228">
        <ele>621.6</ele>
        <time>2000-01-01T09:21:11.000Z</time>
      </trkpt>
      <trkpt lat="45.75338" lon="6.02289">
        <ele>621.4</ele>
        <time>2000-01-01T09:21:21.000Z</time>
      </trkpt>
      <trkpt lat="45.75341" lon="6.02301">
        <ele>620.9</ele>
        <time>2000-01-01T09:21:31.000Z</time>
      </trkpt>
      <trkpt lat="45.75346" lon="6.02314">
        <ele>619.9</ele>
        <time>2000-01-01T09:21:41.000Z</time>
      </trkpt>
      <trkpt lat="45.75347" lon="6.02318">
        <ele>619.6</ele>
        <time>2000-01-01T09:21:51.000Z</time>
      </trkpt>
      <trkpt lat="45.75353" lon="6.02324">
        <ele>618.9</ele>
        <time>2000-01-01T09:22:01.000Z</time>
      </trkpt>
      <trkpt lat="45.75362" lon="6.02328">
        <ele>617.6</ele>
        <time>2000-01-01T09:22:11.000Z</time>
      </trkpt>
      <trkpt lat="45.75369" lon="6.02332">
        <ele>616.6</ele>
        <time>2000-01-01T09:22:21.000Z</time>
      </trkpt>
      <trkpt lat="45.75377" lon="6.02337">
        <ele>615.6</ele>
        <time>2000-01-01T09:22:31.000Z</time>
      </trkpt>
      <trkpt lat="45.75386" lon="6.02342">
        <ele>614.5</ele>
        <time>2000-01-01T09:22:41.000Z</time>
      </trkpt>
      <trkpt lat="45.75395" lon="6.02348">
        <ele>613.8</ele>
        <time>2000-01-01T09:22:51.000Z</time>
      </trkpt>
      <trkpt lat="45.754" lon="6.02352">
        <ele>613.4</ele>
        <time>2000-01-01T09:23:01.000Z</time>
      </trkpt>
      <trkpt lat="45.75409" lon="6.02359">
        <ele>612.3</ele>
        <time>2000-01-01T09:23:11.000Z</time>
      </trkpt>
      <trkpt lat="45.75417" lon="6.02365">
        <ele>611.9</ele>
        <time>2000-01-01T09:23:21.000Z</time>
      </trkpt>
      <trkpt lat="45.75426" lon="6.02371">
        <ele>611.4</ele>
        <time>2000-01-01T09:23:31.000Z</time>
      </trkpt>
      <trkpt lat="45.7543" lon="6.02374">
        <ele>611.2</ele>
        <time>2000-01-01T09:23:41.000Z</time>
      </trkpt>
      <trkpt lat="45.75438" lon="6.02379">
        <ele>610.5</ele>
        <time>2000-01-01T09:23:51.000Z</time>
      </trkpt>
      <trkpt lat="45.75445" lon="6.02389">
        <ele>610.1</ele>
        <time>2000-01-01T09:24:01.000Z</time>
      </trkpt>
      <trkpt lat="45.75451" lon="6.02397">
        <ele>609.9</ele>
        <time>2000-01-01T09:24:11.000Z</time>
      </trkpt>
      <trkpt lat="45.75459" lon="6.02404">
        <ele>609.6</ele>
        <time>2000-01-01T09:24:21.000Z</time>
      </trkpt>
      <trkpt lat="45.75467" lon="6.02408">
        <ele>609.4</ele>
        <time>2000-01-01T09:24:31.000Z</time>
      </trkpt>
      <trkpt lat="45.75473" lon="6.02414">
        <ele>609.2</ele>
        <time>2000-01-01T09:24:41.000Z</time>
      </trkpt>
      <trkpt lat="45.75478" lon="6.02419">
        <ele>608.9</ele>
        <time>2000-01-01T09:24:51.000Z</time>
      </trkpt>
      <trkpt lat="45.75486" lon="6.02425">
        <ele>608.3</ele>
        <time>2000-01-01T09:25:01.000Z</time>
      </trkpt>
      <trkpt lat="45.75493" lon="6.02429">
        <ele>607.8</ele>
        <time>2000-01-01T09:25:11.000Z</time>
      </trkpt>
      <trkpt lat="45.755" lon="6.02437">
        <ele>607.4</ele>
        <time>2000-01-01T09:25:21.000Z</time>
      </trkpt>
      <trkpt lat="45.75502" lon="6.0244">
        <ele>607.4</ele>
        <time>2000-01-01T09:25:31.000Z</time>
      </trkpt>
      <trkpt lat="45.7551" lon="6.02442">
        <ele>607.1</ele>
        <time>2000-01-01T09:25:41.000Z</time>
      </trkpt>
      <trkpt lat="45.75515" lon="6.0244">
        <ele>606.9</ele>
        <time>2000-01-01T09:25:51.000Z</time>
      </trkpt>
      <trkpt lat="45.75524" lon="6.02441">
        <ele>606.6</ele>
        <time>2000-01-01T09:26:01.000Z</time>
      </trkpt>
      <trkpt lat="45.7553" lon="6.02441">
        <ele>606.3</ele>
        <time>2000-01-01T09:26:11.000Z</time>
      </trkpt>
      <trkpt lat="45.75536" lon="6.02441">
        <ele>606</ele>
        <time>2000-01-01T09:26:21.000Z</time>
      </trkpt>
      <trkpt lat="45.75543" lon="6.0244">
        <ele>605.7</ele>
        <time>2000-01-01T09:26:31.000Z</time>
      </trkpt>
      <trkpt lat="45.75548" lon="6.0244">
        <ele>605.5</ele>
        <time>2000-01-01T09:26:41.000Z</time>
      </trkpt>
      <trkpt lat="45.75551" lon="6.02441">
        <ele>605.4</ele>
        <time>2000-01-01T09:26:51.000Z</time>
      </trkpt>
      <trkpt lat="45.75557" lon="6.02438">
        <ele>605.1</ele>
        <time>2000-01-01T09:27:01.000Z</time>
      </trkpt>
      <trkpt lat="45.75564" lon="6.02433">
        <ele>604.7</ele>
        <time>2000-01-01T09:27:11.000Z</time>
      </trkpt>
      <trkpt lat="45.7557" lon="6.02429">
        <ele>604.5</ele>
        <time>2000-01-01T09:27:21.000Z</time>
      </trkpt>
      <trkpt lat="45.75577" lon="6.0243">
        <ele>604.5</ele>
        <time>2000-01-01T09:27:31.000Z</time>
      </trkpt>
      <trkpt lat="45.75584" lon="6.02433">
        <ele>604.5</ele>
        <time>2000-01-01T09:27:41.000Z</time>
      </trkpt>
      <trkpt lat="45.75592" lon="6.02439">
        <ele>604.6</ele>
        <time>2000-01-01T09:27:51.000Z</time>
      </trkpt>
      <trkpt lat="45.75599" lon="6.02444">
        <ele>604.9</ele>
        <time>2000-01-01T09:28:01.000Z</time>
      </trkpt>
      <trkpt lat="45.75606" lon="6.02447">
        <ele>605.3</ele>
        <time>2000-01-01T09:28:11.000Z</time>
      </trkpt>
      <trkpt lat="45.75612" lon="6.02448">
        <ele>605.6</ele>
        <time>2000-01-01T09:28:21.000Z</time>
      </trkpt>
      <trkpt lat="45.7562" lon="6.02449">
        <ele>606</ele>
        <time>2000-01-01T09:28:31.000Z</time>
      </trkpt>
      <trkpt lat="45.75628" lon="6.02451">
        <ele>606.2</ele>
        <time>2000-01-01T09:28:41.000Z</time>
      </trkpt>
      <trkpt lat="45.75636" lon="6.02452">
        <ele>606.4</ele>
        <time>2000-01-01T09:28:51.000Z</time>
      </trkpt>
      <trkpt lat="45.75645" lon="6.02454">
        <ele>606.5</ele>
        <time>2000-01-01T09:29:01.000Z</time>
      </trkpt>
      <trkpt lat="45.75654" lon="6.02456">
        <ele>606.5</ele>
        <time>2000-01-01T09:29:11.000Z</time>
      </trkpt>
      <trkpt lat="45.75663" lon="6.02463">
        <ele>606.2</ele>
        <time>2000-01-01T09:29:21.000Z</time>
      </trkpt>
      <trkpt lat="45.75669" lon="6.02471">
        <ele>605.7</ele>
        <time>2000-01-01T09:29:31.000Z</time>
      </trkpt>
      <trkpt lat="45.75674" lon="6.0248">
        <ele>605.3</ele>
        <time>2000-01-01T09:29:41.000Z</time>
      </trkpt>
      <trkpt lat="45.75681" lon="6.0249">
        <ele>604.6</ele>
        <time>2000-01-01T09:29:51.000Z</time>
      </trkpt>
      <trkpt lat="45.75687" lon="6.02497">
        <ele>604</ele>
        <time>2000-01-01T09:30:01.000Z</time>
      </trkpt>
      <trkpt lat="45.75692" lon="6.02504">
        <ele>603.6</ele>
        <time>2000-01-01T09:30:11.000Z</time>
      </trkpt>
      <trkpt lat="45.75698" lon="6.02508">
        <ele>603.1</ele>
        <time>2000-01-01T09:30:21.000Z</time>
      </trkpt>
      <trkpt lat="45.75703" lon="6.02512">
        <ele>602.8</ele>
        <time>2000-01-01T09:30:31.000Z</time>
      </trkpt>
      <trkpt lat="45.75707" lon="6.02517">
        <ele>602.4</ele>
        <time>2000-01-01T09:30:41.000Z</time>
      </trkpt>
      <trkpt lat="45.75712" lon="6.02522">
        <ele>602</ele>
        <time>2000-01-01T09:30:51.000Z</time>
      </trkpt>
      <trkpt lat="45.75718" lon="6.0253">
        <ele>601.1</ele>
        <time>2000-01-01T09:31:01.000Z</time>
      </trkpt>
      <trkpt lat="45.75721" lon="6.02534">
        <ele>600.7</ele>
        <time>2000-01-01T09:31:11.000Z</time>
      </trkpt>
      <trkpt lat="45.75727" lon="6.0254">
        <ele>599.6</ele>
        <time>2000-01-01T09:31:21.000Z</time>
      </trkpt>
      <trkpt lat="45.75736" lon="6.02543">
        <ele>598.4</ele>
        <time>2000-01-01T09:31:31.000Z</time>
      </trkpt>
      <trkpt lat="45.7574" lon="6.02543">
        <ele>597.8</ele>
        <time>2000-01-01T09:31:41.000Z</time>
      </trkpt>
      <trkpt lat="45.75743" lon="6.02543">
        <ele>597.4</ele>
        <time>2000-01-01T09:31:51.000Z</time>
      </trkpt>
      <trkpt lat="45.75745" lon="6.02545">
        <ele>597</ele>
        <time>2000-01-01T09:32:01.000Z</time>
      </trkpt>
      <trkpt lat="45.7575" lon="6.02549">
        <ele>596.2</ele>
        <time>2000-01-01T09:32:11.000Z</time>
      </trkpt>
      <trkpt lat="45.75754" lon="6.02548">
        <ele>596.1</ele>
        <time>2000-01-01T09:32:21.000Z</time>
      </trkpt>
      <trkpt lat="45.75762" lon="6.02552">
        <ele>595.8</ele>
        <time>2000-01-01T09:32:31.000Z</time>
      </trkpt>
      <trkpt lat="45.75766" lon="6.02559">
        <ele>595.6</ele>
        <time>2000-01-01T09:32:41.000Z</time>
      </trkpt>
      <trkpt lat="45.75768" lon="6.02566">
        <ele>595.5</ele>
        <time>2000-01-01T09:32:51.000Z</time>
      </trkpt>
      <trkpt lat="45.7577" lon="6.02576">
        <ele>595.3</ele>
        <time>2000-01-01T09:33:01.000Z</time>
      </trkpt>
      <trkpt lat="45.75776" lon="6.02584">
        <ele>595.4</ele>
        <time>2000-01-01T09:33:11.000Z</time>
      </trkpt>
      <trkpt lat="45.75784" lon="6.02592">
        <ele>595.6</ele>
        <time>2000-01-01T09:33:21.000Z</time>
      </trkpt>
      <trkpt lat="45.7579" lon="6.02598">
        <ele>595.8</ele>
        <time>2000-01-01T09:33:31.000Z</time>
      </trkpt>
      <trkpt lat="45.75798" lon="6.02605">
        <ele>596</ele>
        <time>2000-01-01T09:33:41.000Z</time>
      </trkpt>
      <trkpt lat="45.75804" lon="6.02613">
        <ele>596.2</ele>
        <time>2000-01-01T09:33:51.000Z</time>
      </trkpt>
      <trkpt lat="45.75811" lon="6.02619">
        <ele>596.5</ele>
        <time>2000-01-01T09:34:01.000Z</time>
      </trkpt>
      <trkpt lat="45.75817" lon="6.02625">
        <ele>596.8</ele>
        <time>2000-01-01T09:34:11.000Z</time>
      </trkpt>
      <trkpt lat="45.75826" lon="6.02631">
        <ele>597.2</ele>
        <time>2000-01-01T09:34:21.000Z</time>
      </trkpt>
      <trkpt lat="45.75833" lon="6.0264">
        <ele>597.5</ele>
        <time>2000-01-01T09:34:31.000Z</time>
      </trkpt>
      <trkpt lat="45.75838" lon="6.02651">
        <ele>597.9</ele>
        <time>2000-01-01T09:34:41.000Z</time>
      </trkpt>
      <trkpt lat="45.75843" lon="6.02661">
        <ele>598.3</ele>
        <time>2000-01-01T09:34:51.000Z</time>
      </trkpt>
      <trkpt lat="45.75848" lon="6.02668">
        <ele>598.6</ele>
        <time>2000-01-01T09:35:01.000Z</time>
      </trkpt>
      <trkpt lat="45.75854" lon="6.02674">
        <ele>599</ele>
        <time>2000-01-01T09:35:11.000Z</time>
      </trkpt>
      <trkpt lat="45.75864" lon="6.02681">
        <ele>599.4</ele>
        <time>2000-01-01T09:35:21.000Z</time>
      </trkpt>
      <trkpt lat="45.7587" lon="6.02687">
        <ele>599.8</ele>
        <time>2000-01-01T09:35:31.000Z</time>
      </trkpt>
      <trkpt lat="45.75875" lon="6.02692">
        <ele>600.2</ele>
        <time>2000-01-01T09:35:41.000Z</time>
      </trkpt>
      <trkpt lat="45.75882" lon="6.02698">
        <ele>599.8</ele>
        <time>2000-01-01T09:35:51.000Z</time>
      </trkpt>
      <trkpt lat="45.75887" lon="6.02703">
        <ele>599.1</ele>
        <time>2000-01-01T09:36:01.000Z</time>
      </trkpt>
      <trkpt lat="45.75891" lon="6.02709">
        <ele>598.2</ele>
        <time>2000-01-01T09:36:11.000Z</time>
      </trkpt>
      <trkpt lat="45.75898" lon="6.02716">
        <ele>597</ele>
        <time>2000-01-01T09:36:21.000Z</time>
      </trkpt>
      <trkpt lat="45.75904" lon="6.02723">
        <ele>595.7</ele>
        <time>2000-01-01T09:36:31.000Z</time>
      </trkpt>
      <trkpt lat="45.75908" lon="6.02726">
        <ele>594.8</ele>
        <time>2000-01-01T09:36:41.000Z</time>
      </trkpt>
      <trkpt lat="45.75916" lon="6.02723">
        <ele>593.4</ele>
        <time>2000-01-01T09:36:51.000Z</time>
      </trkpt>
      <trkpt lat="45.75921" lon="6.02719">
        <ele>592.4</ele>
        <time>2000-01-01T09:37:01.000Z</time>
      </trkpt>
      <trkpt lat="45.7593" lon="6.02712">
        <ele>590.4</ele>
        <time>2000-01-01T09:37:11.000Z</time>
      </trkpt>
      <trkpt lat="45.75938" lon="6.02709">
        <ele>588.6</ele>
        <time>2000-01-01T09:37:21.000Z</time>
      </trkpt>
      <trkpt lat="45.75947" lon="6.02706">
        <ele>586.5</ele>
        <time>2000-01-01T09:37:31.000Z</time>
      </trkpt>
      <trkpt lat="45.75955" lon="6.027">
        <ele>584.6</ele>
        <time>2000-01-01T09:37:41.000Z</time>
      </trkpt>
      <trkpt lat="45.75964" lon="6.02694">
        <ele>582.8</ele>
        <time>2000-01-01T09:37:51.000Z</time>
      </trkpt>
      <trkpt lat="45.75972" lon="6.02689">
        <ele>580.8</ele>
        <time>2000-01-01T09:38:01.000Z</time>
      </trkpt>
      <trkpt lat="45.75979" lon="6.02683">
        <ele>579</ele>
        <time>2000-01-01T09:38:11.000Z</time>
      </trkpt>
      <trkpt lat="45.75987" lon="6.02674">
        <ele>577.2</ele>
        <time>2000-01-01T09:38:21.000Z</time>
      </trkpt>
      <trkpt lat="45.75993" lon="6.02666">
        <ele>575.4</ele>
        <time>2000-01-01T09:38:31.000Z</time>
      </trkpt>
      <trkpt lat="45.75997" lon="6.02662">
        <ele>574.5</ele>
        <time>2000-01-01T09:38:41.000Z</time>
      </trkpt>
      <trkpt lat="45.76005" lon="6.0266">
        <ele>572.6</ele>
        <time>2000-01-01T09:38:51.000Z</time>
      </trkpt>
      <trkpt lat="45.76015" lon="6.02661">
        <ele>570.6</ele>
        <time>2000-01-01T09:39:01.000Z</time>
      </trkpt>
      <trkpt lat="45.76018" lon="6.02661">
        <ele>569.7</ele>
        <time>2000-01-01T09:39:11.000Z</time>
      </trkpt>
      <trkpt lat="45.76025" lon="6.02655">
        <ele>568</ele>
        <time>2000-01-01T09:39:21.000Z</time>
      </trkpt>
      <trkpt lat="45.7603" lon="6.02644">
        <ele>566.1</ele>
        <time>2000-01-01T09:39:31.000Z</time>
      </trkpt>
      <trkpt lat="45.76036" lon="6.02632">
        <ele>564</ele>
        <time>2000-01-01T09:39:41.000Z</time>
      </trkpt>
      <trkpt lat="45.7604" lon="6.02627">
        <ele>563.2</ele>
        <time>2000-01-01T09:39:51.000Z</time>
      </trkpt>
      <trkpt lat="45.76045" lon="6.02625">
        <ele>563.1</ele>
        <time>2000-01-01T09:40:01.000Z</time>
      </trkpt>
      <trkpt lat="45.76052" lon="6.02627">
        <ele>562.9</ele>
        <time>2000-01-01T09:40:11.000Z</time>
      </trkpt>
      <trkpt lat="45.76059" lon="6.02632">
        <ele>562.8</ele>
        <time>2000-01-01T09:40:21.000Z</time>
      </trkpt>
      <trkpt lat="45.76066" lon="6.02642">
        <ele>562.4</ele>
        <time>2000-01-01T09:40:31.000Z</time>
      </trkpt>
      <trkpt lat="45.76073" lon="6.0265">
        <ele>562</ele>
        <time>2000-01-01T09:40:41.000Z</time>
      </trkpt>
      <trkpt lat="45.76077" lon="6.02656">
        <ele>561.7</ele>
        <time>2000-01-01T09:40:51.000Z</time>
      </trkpt>
      <trkpt lat="45.76084" lon="6.02664">
        <ele>561.2</ele>
        <time>2000-01-01T09:41:01.000Z</time>
      </trkpt>
      <trkpt lat="45.76092" lon="6.02673">
        <ele>560.8</ele>
        <time>2000-01-01T09:41:11.000Z</time>
      </trkpt>
      <trkpt lat="45.76101" lon="6.0268">
        <ele>560.5</ele>
        <time>2000-01-01T09:41:21.000Z</time>
      </trkpt>
      <trkpt lat="45.76109" lon="6.02684">
        <ele>560.3</ele>
        <time>2000-01-01T09:41:31.000Z</time>
      </trkpt>
      <trkpt lat="45.76117" lon="6.02686">
        <ele>560</ele>
        <time>2000-01-01T09:41:41.000Z</time>
      </trkpt>
      <trkpt lat="45.76125" lon="6.02688">
        <ele>559.7</ele>
        <time>2000-01-01T09:41:51.000Z</time>
      </trkpt>
      <trkpt lat="45.76135" lon="6.02687">
        <ele>559.2</ele>
        <time>2000-01-01T09:42:01.000Z</time>
      </trkpt>
      <trkpt lat="45.76142" lon="6.02686">
        <ele>558.8</ele>
        <time>2000-01-01T09:42:11.000Z</time>
      </trkpt>
      <trkpt lat="45.76147" lon="6.02685">
        <ele>558.6</ele>
        <time>2000-01-01T09:42:21.000Z</time>
      </trkpt>
      <trkpt lat="45.76153" lon="6.02684">
        <ele>558.4</ele>
        <time>2000-01-01T09:42:31.000Z</time>
      </trkpt>
      <trkpt lat="45.76161" lon="6.02684">
        <ele>558.2</ele>
        <time>2000-01-01T09:42:41.000Z</time>
      </trkpt>
      <trkpt lat="45.76171" lon="6.02685">
        <ele>558</ele>
        <time>2000-01-01T09:42:51.000Z</time>
      </trkpt>
      <trkpt lat="45.7618" lon="6.02687">
        <ele>557.8</ele>
        <time>2000-01-01T09:43:01.000Z</time>
      </trkpt>
      <trkpt lat="45.76185" lon="6.02687">
        <ele>557.7</ele>
        <time>2000-01-01T09:43:11.000Z</time>
      </trkpt>
      <trkpt lat="45.76189" lon="6.02688">
        <ele>557.5</ele>
        <time>2000-01-01T09:43:21.000Z</time>
      </trkpt>
      <trkpt lat="45.76184" lon="6.02694">
        <ele>557.2</ele>
        <time>2000-01-01T09:43:31.000Z</time>
      </trkpt>
      <trkpt lat="45.76181" lon="6.02694">
        <ele>557.1</ele>
        <time>2000-01-01T09:43:41.000Z</time>
      </trkpt>
      <trkpt lat="45.76188" lon="6.02697">
        <ele>556.7</ele>
        <time>2000-01-01T09:43:51.000Z</time>
      </trkpt>
      <trkpt lat="45.76198" lon="6.02699">
        <ele>556.4</ele>
        <time>2000-01-01T09:44:01.000Z</time>
      </trkpt>
      <trkpt lat="45.76207" lon="6.02704">
        <ele>556.1</ele>
        <time>2000-01-01T09:44:11.000Z</time>
      </trkpt>
      <trkpt lat="45.76216" lon="6.02707">
        <ele>555.9</ele>
        <time>2000-01-01T09:44:21.000Z</time>
      </trkpt>
      <trkpt lat="45.76222" lon="6.02713">
        <ele>555.7</ele>
        <time>2000-01-01T09:44:31.000Z</time>
      </trkpt>
      <trkpt lat="45.76227" lon="6.02721">
        <ele>555.4</ele>
        <time>2000-01-01T09:44:41.000Z</time>
      </trkpt>
      <trkpt lat="45.76232" lon="6.0273">
        <ele>555.2</ele>
        <time>2000-01-01T09:44:51.000Z</time>
      </trkpt>
      <trkpt lat="45.76239" lon="6.0274">
        <ele>555</ele>
        <time>2000-01-01T09:45:01.000Z</time>
      </trkpt>
      <trkpt lat="45.76247" lon="6.0275">
        <ele>554.9</ele>
        <time>2000-01-01T09:45:11.000Z</time>
      </trkpt>
      <trkpt lat="45.76253" lon="6.02757">
        <ele>554.8</ele>
        <time>2000-01-01T09:45:21.000Z</time>
      </trkpt>
      <trkpt lat="45.76258" lon="6.02762">
        <ele>554.7</ele>
        <time>2000-01-01T09:45:31.000Z</time>
      </trkpt>
      <trkpt lat="45.76263" lon="6.02767">
        <ele>554.7</ele>
        <time>2000-01-01T09:45:41.000Z</time>
      </trkpt>
      <trkpt lat="45.76267" lon="6.02772">
        <ele>554.6</ele>
        <time>2000-01-01T09:45:51.000Z</time>
      </trkpt>
      <trkpt lat="45.76272" lon="6.02777">
        <ele>554.5</ele>
        <time>2000-01-01T09:46:01.000Z</time>
      </trkpt>
      <trkpt lat="45.76278" lon="6.02784">
        <ele>554.4</ele>
        <time>2000-01-01T09:46:11.000Z</time>
      </trkpt>
      <trkpt lat="45.76283" lon="6.0279">
        <ele>554.2</ele>
        <time>2000-01-01T09:46:21.000Z</time>
      </trkpt>
      <trkpt lat="45.76287" lon="6.02796">
        <ele>554.2</ele>
        <time>2000-01-01T09:46:31.000Z</time>
      </trkpt>
      <trkpt lat="45.76291" lon="6.02802">
        <ele>554</ele>
        <time>2000-01-01T09:46:41.000Z</time>
      </trkpt>
      <trkpt lat="45.76295" lon="6.02807">
        <ele>553.9</ele>
        <time>2000-01-01T09:46:51.000Z</time>
      </trkpt>
      <trkpt lat="45.76301" lon="6.02815">
        <ele>553.7</ele>
        <time>2000-01-01T09:47:01.000Z</time>
      </trkpt>
      <trkpt lat="45.76308" lon="6.02823">
        <ele>553.5</ele>
        <time>2000-01-01T09:47:11.000Z</time>
      </trkpt>
      <trkpt lat="45.76313" lon="6.02829">
        <ele>553.4</ele>
        <time>2000-01-01T09:47:21.000Z</time>
      </trkpt>
      <trkpt lat="45.76317" lon="6.02835">
        <ele>553.3</ele>
        <time>2000-01-01T09:47:31.000Z</time>
      </trkpt>
      <trkpt lat="45.76323" lon="6.02839">
        <ele>553.2</ele>
        <time>2000-01-01T09:47:41.000Z</time>
      </trkpt>
      <trkpt lat="45.7633" lon="6.0284">
        <ele>553.2</ele>
        <time>2000-01-01T09:47:51.000Z</time>
      </trkpt>
      <trkpt lat="45.76332" lon="6.02839">
        <ele>553.2</ele>
        <time>2000-01-01T09:48:01.000Z</time>
      </trkpt>
      <trkpt lat="45.76335" lon="6.02836">
        <ele>553.2</ele>
        <time>2000-01-01T09:48:11.000Z</time>
      </trkpt>
      <trkpt lat="45.76335" lon="6.02841">
        <ele>553.1</ele>
        <time>2000-01-01T09:48:21.000Z</time>
      </trkpt>
      <trkpt lat="45.76336" lon="6.0283">
        <ele>551.6</ele>
        <time>2000-01-01T09:48:31.000Z</time>
      </trkpt>
    </trkseg>
  </trk>
</gpx>